<?xml version="1.0" encoding="UTF-8" standalone="no" ?>
<gpx xmlns="http://www.topografix.com/GPX/1/1" xmlns:xsi="http://www.w3.org/2001/XMLSchema-instance" xsi:schemaLocation="http://www.topografix.com/GPX/1/1 http://www.topografix.com/GPX/1/1/gpx.xsd" version="1.1" creator="VisuGPX - https://www.visugpx.com">
  <metadata>
    <name>La diagonale de la Vallée</name>
    <desc><![CDATA[Un mélange de trail, de fond et du dénivelé. Manque quelques mètres et on à un Marathon.]]></desc>
  </metadata>
  <trk>
    <name><![CDATA[42k Trail Marathon]]></name>
    <trkseg>
      <trkpt lat="48.68554" lon="2.18779">
        <ele>157.31</ele>
        <time>2019-03-09T06:39:14Z</time>
      </trkpt>
      <trkpt lat="48.68555" lon="2.18775">
        <ele>158.27</ele>
        <time>2019-03-09T06:39:23Z</time>
      </trkpt>
      <trkpt lat="48.68555" lon="2.18773">
        <ele>158.27</ele>
        <time>2019-03-09T06:39:35Z</time>
      </trkpt>
      <trkpt lat="48.68527" lon="2.18802">
        <ele>159.24</ele>
        <time>2019-03-09T06:39:49Z</time>
      </trkpt>
      <trkpt lat="48.68493" lon="2.18821">
        <ele>159.72</ele>
        <time>2019-03-09T06:40:02Z</time>
      </trkpt>
      <trkpt lat="48.68481" lon="2.18864">
        <ele>159.24</ele>
        <time>2019-03-09T06:40:13Z</time>
      </trkpt>
      <trkpt lat="48.68479" lon="2.18868">
        <ele>159.72</ele>
        <time>2019-03-09T06:40:14Z</time>
      </trkpt>
      <trkpt lat="48.68465" lon="2.18879">
        <ele>160.2</ele>
        <time>2019-03-09T06:40:21Z</time>
      </trkpt>
      <trkpt lat="48.68461" lon="2.18931">
        <ele>160.2</ele>
        <time>2019-03-09T06:40:33Z</time>
      </trkpt>
      <trkpt lat="48.6847" lon="2.19031">
        <ele>160.68</ele>
        <time>2019-03-09T06:40:53Z</time>
      </trkpt>
      <trkpt lat="48.68487" lon="2.19068">
        <ele>160.68</ele>
        <time>2019-03-09T06:41:03Z</time>
      </trkpt>
      <trkpt lat="48.68494" lon="2.19063">
        <ele>160.68</ele>
        <time>2019-03-09T06:41:09Z</time>
      </trkpt>
      <trkpt lat="48.68502" lon="2.19059">
        <ele>159.72</ele>
        <time>2019-03-09T06:41:16Z</time>
      </trkpt>
      <trkpt lat="48.68519" lon="2.19047">
        <ele>160.2</ele>
        <time>2019-03-09T06:41:30Z</time>
      </trkpt>
      <trkpt lat="48.68529" lon="2.19045">
        <ele>160.68</ele>
        <time>2019-03-09T06:41:42Z</time>
      </trkpt>
      <trkpt lat="48.68534" lon="2.19041">
        <ele>159.72</ele>
        <time>2019-03-09T06:41:55Z</time>
      </trkpt>
      <trkpt lat="48.68556" lon="2.19036">
        <ele>159.72</ele>
        <time>2019-03-09T06:42:08Z</time>
      </trkpt>
      <trkpt lat="48.68583" lon="2.19035">
        <ele>159.72</ele>
        <time>2019-03-09T06:42:21Z</time>
      </trkpt>
      <trkpt lat="48.6861" lon="2.19042">
        <ele>160.2</ele>
        <time>2019-03-09T06:42:33Z</time>
      </trkpt>
      <trkpt lat="48.6864" lon="2.19049">
        <ele>160.2</ele>
        <time>2019-03-09T06:42:46Z</time>
      </trkpt>
      <trkpt lat="48.68667" lon="2.19062">
        <ele>161.16</ele>
        <time>2019-03-09T06:42:57Z</time>
      </trkpt>
      <trkpt lat="48.68693" lon="2.19072">
        <ele>161.16</ele>
        <time>2019-03-09T06:43:08Z</time>
      </trkpt>
      <trkpt lat="48.68726" lon="2.19085">
        <ele>160.68</ele>
        <time>2019-03-09T06:43:20Z</time>
      </trkpt>
      <trkpt lat="48.68728" lon="2.19086">
        <ele>160.2</ele>
        <time>2019-03-09T06:43:21Z</time>
      </trkpt>
      <trkpt lat="48.68761" lon="2.19102">
        <ele>160.68</ele>
        <time>2019-03-09T06:43:32Z</time>
      </trkpt>
      <trkpt lat="48.6879" lon="2.1912">
        <ele>161.16</ele>
        <time>2019-03-09T06:43:44Z</time>
      </trkpt>
      <trkpt lat="48.68826" lon="2.19144">
        <ele>161.64</ele>
        <time>2019-03-09T06:43:58Z</time>
      </trkpt>
      <trkpt lat="48.68858" lon="2.19165">
        <ele>160.68</ele>
        <time>2019-03-09T06:44:11Z</time>
      </trkpt>
      <trkpt lat="48.68888" lon="2.19183">
        <ele>161.16</ele>
        <time>2019-03-09T06:44:21Z</time>
      </trkpt>
      <trkpt lat="48.68916" lon="2.19201">
        <ele>161.64</ele>
        <time>2019-03-09T06:44:32Z</time>
      </trkpt>
      <trkpt lat="48.6894" lon="2.19217">
        <ele>161.64</ele>
        <time>2019-03-09T06:44:42Z</time>
      </trkpt>
      <trkpt lat="48.68959" lon="2.19232">
        <ele>162.12</ele>
        <time>2019-03-09T06:44:51Z</time>
      </trkpt>
      <trkpt lat="48.68993" lon="2.1925">
        <ele>162.6</ele>
        <time>2019-03-09T06:45:03Z</time>
      </trkpt>
      <trkpt lat="48.69023" lon="2.19269">
        <ele>163.56</ele>
        <time>2019-03-09T06:45:14Z</time>
      </trkpt>
      <trkpt lat="48.69053" lon="2.19285">
        <ele>162.12</ele>
        <time>2019-03-09T06:45:26Z</time>
      </trkpt>
      <trkpt lat="48.69075" lon="2.19298">
        <ele>159.24</ele>
        <time>2019-03-09T06:45:34Z</time>
      </trkpt>
      <trkpt lat="48.69095" lon="2.19302">
        <ele>157.31</ele>
        <time>2019-03-09T06:45:39Z</time>
      </trkpt>
      <trkpt lat="48.6911" lon="2.19309">
        <ele>155.39</ele>
        <time>2019-03-09T06:45:43Z</time>
      </trkpt>
      <trkpt lat="48.69133" lon="2.19323">
        <ele>153.47</ele>
        <time>2019-03-09T06:45:50Z</time>
      </trkpt>
      <trkpt lat="48.69134" lon="2.19327">
        <ele>152.51</ele>
        <time>2019-03-09T06:45:51Z</time>
      </trkpt>
      <trkpt lat="48.69134" lon="2.19331">
        <ele>152.51</ele>
        <time>2019-03-09T06:45:52Z</time>
      </trkpt>
      <trkpt lat="48.69135" lon="2.19337">
        <ele>152.03</ele>
        <time>2019-03-09T06:45:53Z</time>
      </trkpt>
      <trkpt lat="48.69133" lon="2.19343">
        <ele>152.51</ele>
        <time>2019-03-09T06:45:54Z</time>
      </trkpt>
      <trkpt lat="48.69133" lon="2.19349">
        <ele>152.51</ele>
        <time>2019-03-09T06:45:55Z</time>
      </trkpt>
      <trkpt lat="48.69133" lon="2.19355">
        <ele>151.54</ele>
        <time>2019-03-09T06:45:56Z</time>
      </trkpt>
      <trkpt lat="48.69132" lon="2.19361">
        <ele>152.03</ele>
        <time>2019-03-09T06:45:57Z</time>
      </trkpt>
      <trkpt lat="48.69138" lon="2.19435">
        <ele>151.54</ele>
        <time>2019-03-09T06:46:10Z</time>
      </trkpt>
      <trkpt lat="48.69138" lon="2.19452">
        <ele>151.06</ele>
        <time>2019-03-09T06:46:13Z</time>
      </trkpt>
      <trkpt lat="48.69139" lon="2.19457">
        <ele>152.51</ele>
        <time>2019-03-09T06:46:14Z</time>
      </trkpt>
      <trkpt lat="48.69141" lon="2.19538">
        <ele>151.54</ele>
        <time>2019-03-09T06:46:27Z</time>
      </trkpt>
      <trkpt lat="48.69132" lon="2.19609">
        <ele>152.51</ele>
        <time>2019-03-09T06:46:39Z</time>
      </trkpt>
      <trkpt lat="48.6913" lon="2.19626">
        <ele>152.03</ele>
        <time>2019-03-09T06:46:42Z</time>
      </trkpt>
      <trkpt lat="48.69128" lon="2.19631">
        <ele>152.51</ele>
        <time>2019-03-09T06:46:43Z</time>
      </trkpt>
      <trkpt lat="48.69125" lon="2.19636">
        <ele>152.03</ele>
        <time>2019-03-09T06:46:44Z</time>
      </trkpt>
      <trkpt lat="48.69124" lon="2.19641">
        <ele>152.03</ele>
        <time>2019-03-09T06:46:45Z</time>
      </trkpt>
      <trkpt lat="48.69122" lon="2.19647">
        <ele>152.03</ele>
        <time>2019-03-09T06:46:46Z</time>
      </trkpt>
      <trkpt lat="48.6912" lon="2.19652">
        <ele>152.51</ele>
        <time>2019-03-09T06:46:47Z</time>
      </trkpt>
      <trkpt lat="48.69118" lon="2.19655">
        <ele>152.51</ele>
        <time>2019-03-09T06:46:48Z</time>
      </trkpt>
      <trkpt lat="48.69116" lon="2.19659">
        <ele>152.51</ele>
        <time>2019-03-09T06:46:49Z</time>
      </trkpt>
      <trkpt lat="48.69113" lon="2.19663">
        <ele>152.03</ele>
        <time>2019-03-09T06:46:50Z</time>
      </trkpt>
      <trkpt lat="48.69111" lon="2.19667">
        <ele>152.51</ele>
        <time>2019-03-09T06:46:51Z</time>
      </trkpt>
      <trkpt lat="48.69091" lon="2.19706">
        <ele>154.43</ele>
        <time>2019-03-09T06:47:02Z</time>
      </trkpt>
      <trkpt lat="48.69093" lon="2.19767">
        <ele>153.47</ele>
        <time>2019-03-09T06:47:13Z</time>
      </trkpt>
      <trkpt lat="48.69096" lon="2.198">
        <ele>153.95</ele>
        <time>2019-03-09T06:47:20Z</time>
      </trkpt>
      <trkpt lat="48.69098" lon="2.19804">
        <ele>154.43</ele>
        <time>2019-03-09T06:47:21Z</time>
      </trkpt>
      <trkpt lat="48.69099" lon="2.19808">
        <ele>154.43</ele>
        <time>2019-03-09T06:47:22Z</time>
      </trkpt>
      <trkpt lat="48.69101" lon="2.19813">
        <ele>153.95</ele>
        <time>2019-03-09T06:47:23Z</time>
      </trkpt>
      <trkpt lat="48.69101" lon="2.19817">
        <ele>154.43</ele>
        <time>2019-03-09T06:47:24Z</time>
      </trkpt>
      <trkpt lat="48.69102" lon="2.19821">
        <ele>154.43</ele>
        <time>2019-03-09T06:47:25Z</time>
      </trkpt>
      <trkpt lat="48.69103" lon="2.19825">
        <ele>154.43</ele>
        <time>2019-03-09T06:47:26Z</time>
      </trkpt>
      <trkpt lat="48.69103" lon="2.1983">
        <ele>154.43</ele>
        <time>2019-03-09T06:47:27Z</time>
      </trkpt>
      <trkpt lat="48.69104" lon="2.19834">
        <ele>154.43</ele>
        <time>2019-03-09T06:47:28Z</time>
      </trkpt>
      <trkpt lat="48.69105" lon="2.19838">
        <ele>154.91</ele>
        <time>2019-03-09T06:47:29Z</time>
      </trkpt>
      <trkpt lat="48.69105" lon="2.19842">
        <ele>154.43</ele>
        <time>2019-03-09T06:47:30Z</time>
      </trkpt>
      <trkpt lat="48.69105" lon="2.19846">
        <ele>154.91</ele>
        <time>2019-03-09T06:47:31Z</time>
      </trkpt>
      <trkpt lat="48.69106" lon="2.19849">
        <ele>154.91</ele>
        <time>2019-03-09T06:47:32Z</time>
      </trkpt>
      <trkpt lat="48.69106" lon="2.19853">
        <ele>154.91</ele>
        <time>2019-03-09T06:47:33Z</time>
      </trkpt>
      <trkpt lat="48.69106" lon="2.19855">
        <ele>154.91</ele>
        <time>2019-03-09T06:47:34Z</time>
      </trkpt>
      <trkpt lat="48.69108" lon="2.19858">
        <ele>154.91</ele>
        <time>2019-03-09T06:47:35Z</time>
      </trkpt>
      <trkpt lat="48.69109" lon="2.19862">
        <ele>155.39</ele>
        <time>2019-03-09T06:47:36Z</time>
      </trkpt>
      <trkpt lat="48.6913" lon="2.199">
        <ele>156.35</ele>
        <time>2019-03-09T06:47:46Z</time>
      </trkpt>
      <trkpt lat="48.6916" lon="2.1993">
        <ele>157.79</ele>
        <time>2019-03-09T06:47:57Z</time>
      </trkpt>
      <trkpt lat="48.69186" lon="2.19966">
        <ele>159.72</ele>
        <time>2019-03-09T06:48:08Z</time>
      </trkpt>
      <trkpt lat="48.692" lon="2.20028">
        <ele>159.24</ele>
        <time>2019-03-09T06:48:19Z</time>
      </trkpt>
      <trkpt lat="48.69217" lon="2.20067">
        <ele>159.24</ele>
        <time>2019-03-09T06:48:29Z</time>
      </trkpt>
      <trkpt lat="48.69231" lon="2.20136">
        <ele>158.27</ele>
        <time>2019-03-09T06:48:41Z</time>
      </trkpt>
      <trkpt lat="48.69233" lon="2.20205">
        <ele>157.79</ele>
        <time>2019-03-09T06:48:52Z</time>
      </trkpt>
      <trkpt lat="48.69236" lon="2.20234">
        <ele>156.35</ele>
        <time>2019-03-09T06:48:57Z</time>
      </trkpt>
      <trkpt lat="48.69241" lon="2.20283">
        <ele>158.75</ele>
        <time>2019-03-09T06:49:09Z</time>
      </trkpt>
      <trkpt lat="48.69241" lon="2.20284">
        <ele>159.24</ele>
        <time>2019-03-09T06:49:10Z</time>
      </trkpt>
      <trkpt lat="48.69241" lon="2.20286">
        <ele>159.24</ele>
        <time>2019-03-09T06:49:11Z</time>
      </trkpt>
      <trkpt lat="48.69242" lon="2.20289">
        <ele>160.2</ele>
        <time>2019-03-09T06:49:12Z</time>
      </trkpt>
      <trkpt lat="48.69242" lon="2.20291">
        <ele>160.2</ele>
        <time>2019-03-09T06:49:13Z</time>
      </trkpt>
      <trkpt lat="48.69244" lon="2.20294">
        <ele>161.16</ele>
        <time>2019-03-09T06:49:15Z</time>
      </trkpt>
      <trkpt lat="48.69245" lon="2.20297">
        <ele>161.64</ele>
        <time>2019-03-09T06:49:16Z</time>
      </trkpt>
      <trkpt lat="48.69247" lon="2.20299">
        <ele>161.16</ele>
        <time>2019-03-09T06:49:17Z</time>
      </trkpt>
      <trkpt lat="48.69274" lon="2.20325">
        <ele>160.68</ele>
        <time>2019-03-09T06:49:30Z</time>
      </trkpt>
      <trkpt lat="48.69286" lon="2.20341">
        <ele>161.16</ele>
        <time>2019-03-09T06:49:37Z</time>
      </trkpt>
      <trkpt lat="48.69296" lon="2.20368">
        <ele>160.68</ele>
        <time>2019-03-09T06:49:46Z</time>
      </trkpt>
      <trkpt lat="48.69296" lon="2.20375">
        <ele>160.68</ele>
        <time>2019-03-09T06:49:49Z</time>
      </trkpt>
      <trkpt lat="48.69294" lon="2.20413">
        <ele>159.72</ele>
        <time>2019-03-09T06:50:01Z</time>
      </trkpt>
      <trkpt lat="48.69295" lon="2.20428">
        <ele>159.24</ele>
        <time>2019-03-09T06:50:05Z</time>
      </trkpt>
      <trkpt lat="48.69294" lon="2.20436">
        <ele>159.72</ele>
        <time>2019-03-09T06:50:07Z</time>
      </trkpt>
      <trkpt lat="48.69292" lon="2.20454">
        <ele>158.27</ele>
        <time>2019-03-09T06:50:10Z</time>
      </trkpt>
      <trkpt lat="48.69291" lon="2.20472">
        <ele>156.35</ele>
        <time>2019-03-09T06:50:13Z</time>
      </trkpt>
      <trkpt lat="48.69292" lon="2.20476">
        <ele>156.35</ele>
        <time>2019-03-09T06:50:15Z</time>
      </trkpt>
      <trkpt lat="48.69292" lon="2.2048">
        <ele>156.35</ele>
        <time>2019-03-09T06:50:16Z</time>
      </trkpt>
      <trkpt lat="48.69293" lon="2.20483">
        <ele>155.87</ele>
        <time>2019-03-09T06:50:17Z</time>
      </trkpt>
      <trkpt lat="48.69295" lon="2.20493">
        <ele>154.43</ele>
        <time>2019-03-09T06:50:20Z</time>
      </trkpt>
      <trkpt lat="48.69305" lon="2.20543">
        <ele>151.06</ele>
        <time>2019-03-09T06:50:30Z</time>
      </trkpt>
      <trkpt lat="48.69311" lon="2.20565">
        <ele>148.18</ele>
        <time>2019-03-09T06:50:35Z</time>
      </trkpt>
      <trkpt lat="48.69321" lon="2.20581">
        <ele>145.78</ele>
        <time>2019-03-09T06:50:40Z</time>
      </trkpt>
      <trkpt lat="48.69324" lon="2.20584">
        <ele>146.26</ele>
        <time>2019-03-09T06:50:41Z</time>
      </trkpt>
      <trkpt lat="48.69327" lon="2.20585">
        <ele>146.26</ele>
        <time>2019-03-09T06:50:42Z</time>
      </trkpt>
      <trkpt lat="48.69331" lon="2.20585">
        <ele>144.82</ele>
        <time>2019-03-09T06:50:44Z</time>
      </trkpt>
      <trkpt lat="48.69333" lon="2.20584">
        <ele>143.85</ele>
        <time>2019-03-09T06:50:45Z</time>
      </trkpt>
      <trkpt lat="48.6935" lon="2.20575">
        <ele>141.93</ele>
        <time>2019-03-09T06:50:52Z</time>
      </trkpt>
      <trkpt lat="48.69354" lon="2.20575">
        <ele>141.45</ele>
        <time>2019-03-09T06:50:53Z</time>
      </trkpt>
      <trkpt lat="48.69364" lon="2.20569">
        <ele>140.01</ele>
        <time>2019-03-09T06:50:55Z</time>
      </trkpt>
      <trkpt lat="48.69387" lon="2.20532">
        <ele>136.64</ele>
        <time>2019-03-09T06:51:03Z</time>
      </trkpt>
      <trkpt lat="48.6939" lon="2.20527">
        <ele>135.2</ele>
        <time>2019-03-09T06:51:04Z</time>
      </trkpt>
      <trkpt lat="48.69396" lon="2.20512">
        <ele>133.76</ele>
        <time>2019-03-09T06:51:07Z</time>
      </trkpt>
      <trkpt lat="48.69399" lon="2.20506">
        <ele>133.76</ele>
        <time>2019-03-09T06:51:08Z</time>
      </trkpt>
      <trkpt lat="48.69403" lon="2.20489">
        <ele>131.36</ele>
        <time>2019-03-09T06:51:11Z</time>
      </trkpt>
      <trkpt lat="48.69413" lon="2.2047">
        <ele>129.92</ele>
        <time>2019-03-09T06:51:15Z</time>
      </trkpt>
      <trkpt lat="48.69418" lon="2.20464">
        <ele>129.43</ele>
        <time>2019-03-09T06:51:18Z</time>
      </trkpt>
      <trkpt lat="48.69442" lon="2.20444">
        <ele>127.51</ele>
        <time>2019-03-09T06:51:25Z</time>
      </trkpt>
      <trkpt lat="48.69457" lon="2.2043">
        <ele>126.07</ele>
        <time>2019-03-09T06:51:29Z</time>
      </trkpt>
      <trkpt lat="48.69478" lon="2.20423">
        <ele>122.71</ele>
        <time>2019-03-09T06:51:34Z</time>
      </trkpt>
      <trkpt lat="48.69499" lon="2.20419">
        <ele>121.74</ele>
        <time>2019-03-09T06:51:39Z</time>
      </trkpt>
      <trkpt lat="48.69511" lon="2.20406">
        <ele>119.82</ele>
        <time>2019-03-09T06:51:42Z</time>
      </trkpt>
      <trkpt lat="48.69518" lon="2.20399">
        <ele>118.38</ele>
        <time>2019-03-09T06:51:44Z</time>
      </trkpt>
      <trkpt lat="48.69522" lon="2.20399">
        <ele>117.9</ele>
        <time>2019-03-09T06:51:45Z</time>
      </trkpt>
      <trkpt lat="48.69525" lon="2.20398">
        <ele>118.38</ele>
        <time>2019-03-09T06:51:46Z</time>
      </trkpt>
      <trkpt lat="48.69527" lon="2.20397">
        <ele>117.42</ele>
        <time>2019-03-09T06:51:47Z</time>
      </trkpt>
      <trkpt lat="48.69534" lon="2.20396">
        <ele>118.38</ele>
        <time>2019-03-09T06:51:50Z</time>
      </trkpt>
      <trkpt lat="48.69537" lon="2.20397">
        <ele>118.38</ele>
        <time>2019-03-09T06:51:51Z</time>
      </trkpt>
      <trkpt lat="48.69541" lon="2.20397">
        <ele>118.38</ele>
        <time>2019-03-09T06:51:52Z</time>
      </trkpt>
      <trkpt lat="48.69545" lon="2.20398">
        <ele>117.42</ele>
        <time>2019-03-09T06:51:53Z</time>
      </trkpt>
      <trkpt lat="48.69548" lon="2.20399">
        <ele>117.9</ele>
        <time>2019-03-09T06:51:54Z</time>
      </trkpt>
      <trkpt lat="48.69552" lon="2.20401">
        <ele>117.9</ele>
        <time>2019-03-09T06:51:55Z</time>
      </trkpt>
      <trkpt lat="48.69555" lon="2.20402">
        <ele>116.94</ele>
        <time>2019-03-09T06:51:56Z</time>
      </trkpt>
      <trkpt lat="48.69587" lon="2.20435">
        <ele>118.86</ele>
        <time>2019-03-09T06:52:08Z</time>
      </trkpt>
      <trkpt lat="48.69596" lon="2.20447">
        <ele>117.9</ele>
        <time>2019-03-09T06:52:12Z</time>
      </trkpt>
      <trkpt lat="48.69602" lon="2.20461">
        <ele>118.86</ele>
        <time>2019-03-09T06:52:16Z</time>
      </trkpt>
      <trkpt lat="48.69617" lon="2.20497">
        <ele>120.3</ele>
        <time>2019-03-09T06:52:25Z</time>
      </trkpt>
      <trkpt lat="48.6962" lon="2.20501">
        <ele>120.78</ele>
        <time>2019-03-09T06:52:26Z</time>
      </trkpt>
      <trkpt lat="48.69623" lon="2.20505">
        <ele>120.3</ele>
        <time>2019-03-09T06:52:27Z</time>
      </trkpt>
      <trkpt lat="48.69626" lon="2.20508">
        <ele>120.3</ele>
        <time>2019-03-09T06:52:28Z</time>
      </trkpt>
      <trkpt lat="48.69629" lon="2.20511">
        <ele>121.26</ele>
        <time>2019-03-09T06:52:29Z</time>
      </trkpt>
      <trkpt lat="48.69632" lon="2.20515">
        <ele>120.78</ele>
        <time>2019-03-09T06:52:30Z</time>
      </trkpt>
      <trkpt lat="48.69635" lon="2.20519">
        <ele>119.82</ele>
        <time>2019-03-09T06:52:31Z</time>
      </trkpt>
      <trkpt lat="48.69638" lon="2.20519">
        <ele>118.86</ele>
        <time>2019-03-09T06:52:32Z</time>
      </trkpt>
      <trkpt lat="48.6964" lon="2.2052">
        <ele>118.86</ele>
        <time>2019-03-09T06:52:33Z</time>
      </trkpt>
      <trkpt lat="48.69643" lon="2.20524">
        <ele>118.86</ele>
        <time>2019-03-09T06:52:34Z</time>
      </trkpt>
      <trkpt lat="48.69646" lon="2.20525">
        <ele>118.86</ele>
        <time>2019-03-09T06:52:35Z</time>
      </trkpt>
      <trkpt lat="48.69649" lon="2.20523">
        <ele>118.86</ele>
        <time>2019-03-09T06:52:36Z</time>
      </trkpt>
      <trkpt lat="48.69653" lon="2.2052">
        <ele>118.38</ele>
        <time>2019-03-09T06:52:37Z</time>
      </trkpt>
      <trkpt lat="48.69656" lon="2.20518">
        <ele>117.9</ele>
        <time>2019-03-09T06:52:38Z</time>
      </trkpt>
      <trkpt lat="48.6966" lon="2.20514">
        <ele>115.98</ele>
        <time>2019-03-09T06:52:39Z</time>
      </trkpt>
      <trkpt lat="48.69664" lon="2.2051">
        <ele>115.98</ele>
        <time>2019-03-09T06:52:40Z</time>
      </trkpt>
      <trkpt lat="48.69676" lon="2.20508">
        <ele>114.05</ele>
        <time>2019-03-09T06:52:43Z</time>
      </trkpt>
      <trkpt lat="48.6968" lon="2.2051">
        <ele>112.61</ele>
        <time>2019-03-09T06:52:44Z</time>
      </trkpt>
      <trkpt lat="48.69684" lon="2.20512">
        <ele>111.65</ele>
        <time>2019-03-09T06:52:45Z</time>
      </trkpt>
      <trkpt lat="48.69689" lon="2.20513">
        <ele>110.69</ele>
        <time>2019-03-09T06:52:46Z</time>
      </trkpt>
      <trkpt lat="48.69693" lon="2.20515">
        <ele>110.21</ele>
        <time>2019-03-09T06:52:47Z</time>
      </trkpt>
      <trkpt lat="48.69697" lon="2.20519">
        <ele>109.73</ele>
        <time>2019-03-09T06:52:48Z</time>
      </trkpt>
      <trkpt lat="48.697" lon="2.20524">
        <ele>108.77</ele>
        <time>2019-03-09T06:52:49Z</time>
      </trkpt>
      <trkpt lat="48.69703" lon="2.20529">
        <ele>109.73</ele>
        <time>2019-03-09T06:52:50Z</time>
      </trkpt>
      <trkpt lat="48.69706" lon="2.20533">
        <ele>109.73</ele>
        <time>2019-03-09T06:52:51Z</time>
      </trkpt>
      <trkpt lat="48.6971" lon="2.20537">
        <ele>109.25</ele>
        <time>2019-03-09T06:52:52Z</time>
      </trkpt>
      <trkpt lat="48.69744" lon="2.20562">
        <ele>107.32</ele>
        <time>2019-03-09T06:53:02Z</time>
      </trkpt>
      <trkpt lat="48.69758" lon="2.20563">
        <ele>106.84</ele>
        <time>2019-03-09T06:53:05Z</time>
      </trkpt>
      <trkpt lat="48.69762" lon="2.20561">
        <ele>106.36</ele>
        <time>2019-03-09T06:53:06Z</time>
      </trkpt>
      <trkpt lat="48.69766" lon="2.20559">
        <ele>105.88</ele>
        <time>2019-03-09T06:53:07Z</time>
      </trkpt>
      <trkpt lat="48.6977" lon="2.20558">
        <ele>104.92</ele>
        <time>2019-03-09T06:53:08Z</time>
      </trkpt>
      <trkpt lat="48.69774" lon="2.20557">
        <ele>104.92</ele>
        <time>2019-03-09T06:53:09Z</time>
      </trkpt>
      <trkpt lat="48.69778" lon="2.20556">
        <ele>105.88</ele>
        <time>2019-03-09T06:53:10Z</time>
      </trkpt>
      <trkpt lat="48.69786" lon="2.20556">
        <ele>104.92</ele>
        <time>2019-03-09T06:53:12Z</time>
      </trkpt>
      <trkpt lat="48.69789" lon="2.20557">
        <ele>105.4</ele>
        <time>2019-03-09T06:53:13Z</time>
      </trkpt>
      <trkpt lat="48.69793" lon="2.20559">
        <ele>105.4</ele>
        <time>2019-03-09T06:53:14Z</time>
      </trkpt>
      <trkpt lat="48.69796" lon="2.20561">
        <ele>104.44</ele>
        <time>2019-03-09T06:53:15Z</time>
      </trkpt>
      <trkpt lat="48.69821" lon="2.206">
        <ele>105.88</ele>
        <time>2019-03-09T06:53:26Z</time>
      </trkpt>
      <trkpt lat="48.69847" lon="2.20629">
        <ele>103.48</ele>
        <time>2019-03-09T06:53:35Z</time>
      </trkpt>
      <trkpt lat="48.69855" lon="2.20645">
        <ele>100.11</ele>
        <time>2019-03-09T06:53:42Z</time>
      </trkpt>
      <trkpt lat="48.69861" lon="2.20647">
        <ele>99.63</ele>
        <time>2019-03-09T06:53:44Z</time>
      </trkpt>
      <trkpt lat="48.69882" lon="2.20668">
        <ele>98.67</ele>
        <time>2019-03-09T06:53:50Z</time>
      </trkpt>
      <trkpt lat="48.69886" lon="2.2067">
        <ele>98.19</ele>
        <time>2019-03-09T06:53:51Z</time>
      </trkpt>
      <trkpt lat="48.69891" lon="2.20672">
        <ele>98.67</ele>
        <time>2019-03-09T06:53:52Z</time>
      </trkpt>
      <trkpt lat="48.69906" lon="2.20678">
        <ele>97.23</ele>
        <time>2019-03-09T06:53:55Z</time>
      </trkpt>
      <trkpt lat="48.69961" lon="2.20691">
        <ele>94.83</ele>
        <time>2019-03-09T06:54:07Z</time>
      </trkpt>
      <trkpt lat="48.69989" lon="2.20698">
        <ele>93.39</ele>
        <time>2019-03-09T06:54:13Z</time>
      </trkpt>
      <trkpt lat="48.69993" lon="2.20699">
        <ele>93.39</ele>
        <time>2019-03-09T06:54:14Z</time>
      </trkpt>
      <trkpt lat="48.70034" lon="2.20709">
        <ele>90.02</ele>
        <time>2019-03-09T06:54:22Z</time>
      </trkpt>
      <trkpt lat="48.70079" lon="2.20724">
        <ele>87.14</ele>
        <time>2019-03-09T06:54:33Z</time>
      </trkpt>
      <trkpt lat="48.7011" lon="2.2073">
        <ele>83.77</ele>
        <time>2019-03-09T06:54:41Z</time>
      </trkpt>
      <trkpt lat="48.7012" lon="2.20731">
        <ele>82.81</ele>
        <time>2019-03-09T06:54:43Z</time>
      </trkpt>
      <trkpt lat="48.70144" lon="2.20738">
        <ele>78.97</ele>
        <time>2019-03-09T06:54:48Z</time>
      </trkpt>
      <trkpt lat="48.70153" lon="2.20742">
        <ele>77.52</ele>
        <time>2019-03-09T06:54:51Z</time>
      </trkpt>
      <trkpt lat="48.70154" lon="2.20743">
        <ele>77.04</ele>
        <time>2019-03-09T06:54:52Z</time>
      </trkpt>
      <trkpt lat="48.70155" lon="2.20748">
        <ele>77.04</ele>
        <time>2019-03-09T06:54:53Z</time>
      </trkpt>
      <trkpt lat="48.70156" lon="2.20754">
        <ele>76.56</ele>
        <time>2019-03-09T06:54:54Z</time>
      </trkpt>
      <trkpt lat="48.70156" lon="2.20759">
        <ele>77.04</ele>
        <time>2019-03-09T06:54:55Z</time>
      </trkpt>
      <trkpt lat="48.70155" lon="2.20764">
        <ele>76.56</ele>
        <time>2019-03-09T06:54:56Z</time>
      </trkpt>
      <trkpt lat="48.70152" lon="2.20793">
        <ele>76.08</ele>
        <time>2019-03-09T06:55:01Z</time>
      </trkpt>
      <trkpt lat="48.7013" lon="2.20875">
        <ele>77.04</ele>
        <time>2019-03-09T06:55:16Z</time>
      </trkpt>
      <trkpt lat="48.70114" lon="2.20937">
        <ele>77.52</ele>
        <time>2019-03-09T06:55:29Z</time>
      </trkpt>
      <trkpt lat="48.70116" lon="2.20941">
        <ele>77.04</ele>
        <time>2019-03-09T06:55:30Z</time>
      </trkpt>
      <trkpt lat="48.70119" lon="2.20943">
        <ele>76.56</ele>
        <time>2019-03-09T06:55:31Z</time>
      </trkpt>
      <trkpt lat="48.70123" lon="2.20946">
        <ele>76.08</ele>
        <time>2019-03-09T06:55:32Z</time>
      </trkpt>
      <trkpt lat="48.70127" lon="2.20947">
        <ele>75.12</ele>
        <time>2019-03-09T06:55:33Z</time>
      </trkpt>
      <trkpt lat="48.70132" lon="2.20949">
        <ele>74.64</ele>
        <time>2019-03-09T06:55:34Z</time>
      </trkpt>
      <trkpt lat="48.70151" lon="2.20956">
        <ele>72.24</ele>
        <time>2019-03-09T06:55:38Z</time>
      </trkpt>
      <trkpt lat="48.70156" lon="2.20957">
        <ele>72.24</ele>
        <time>2019-03-09T06:55:39Z</time>
      </trkpt>
      <trkpt lat="48.70161" lon="2.20957">
        <ele>72.24</ele>
        <time>2019-03-09T06:55:40Z</time>
      </trkpt>
      <trkpt lat="48.70166" lon="2.2096">
        <ele>71.27</ele>
        <time>2019-03-09T06:55:41Z</time>
      </trkpt>
      <trkpt lat="48.7017" lon="2.20963">
        <ele>71.27</ele>
        <time>2019-03-09T06:55:42Z</time>
      </trkpt>
      <trkpt lat="48.70175" lon="2.20966">
        <ele>70.79</ele>
        <time>2019-03-09T06:55:43Z</time>
      </trkpt>
      <trkpt lat="48.70182" lon="2.20967">
        <ele>70.79</ele>
        <time>2019-03-09T06:55:45Z</time>
      </trkpt>
      <trkpt lat="48.70184" lon="2.20965">
        <ele>71.27</ele>
        <time>2019-03-09T06:55:46Z</time>
      </trkpt>
      <trkpt lat="48.70187" lon="2.20963">
        <ele>71.76</ele>
        <time>2019-03-09T06:55:47Z</time>
      </trkpt>
      <trkpt lat="48.7021" lon="2.20942">
        <ele>71.27</ele>
        <time>2019-03-09T06:55:57Z</time>
      </trkpt>
      <trkpt lat="48.70229" lon="2.20929">
        <ele>72.24</ele>
        <time>2019-03-09T06:56:07Z</time>
      </trkpt>
      <trkpt lat="48.7023" lon="2.20925">
        <ele>72.24</ele>
        <time>2019-03-09T06:56:08Z</time>
      </trkpt>
      <trkpt lat="48.70231" lon="2.20921">
        <ele>72.24</ele>
        <time>2019-03-09T06:56:09Z</time>
      </trkpt>
      <trkpt lat="48.70245" lon="2.20867">
        <ele>72.24</ele>
        <time>2019-03-09T06:56:21Z</time>
      </trkpt>
      <trkpt lat="48.70263" lon="2.20791">
        <ele>72.24</ele>
        <time>2019-03-09T06:56:35Z</time>
      </trkpt>
      <trkpt lat="48.70271" lon="2.20747">
        <ele>72.24</ele>
        <time>2019-03-09T06:56:43Z</time>
      </trkpt>
      <trkpt lat="48.70272" lon="2.2074">
        <ele>72.72</ele>
        <time>2019-03-09T06:56:44Z</time>
      </trkpt>
      <trkpt lat="48.70272" lon="2.20735">
        <ele>72.24</ele>
        <time>2019-03-09T06:56:45Z</time>
      </trkpt>
      <trkpt lat="48.70272" lon="2.20731">
        <ele>71.76</ele>
        <time>2019-03-09T06:56:46Z</time>
      </trkpt>
      <trkpt lat="48.70272" lon="2.20725">
        <ele>71.76</ele>
        <time>2019-03-09T06:56:47Z</time>
      </trkpt>
      <trkpt lat="48.70272" lon="2.2072">
        <ele>72.24</ele>
        <time>2019-03-09T06:56:48Z</time>
      </trkpt>
      <trkpt lat="48.70273" lon="2.20695">
        <ele>72.72</ele>
        <time>2019-03-09T06:56:55Z</time>
      </trkpt>
      <trkpt lat="48.70276" lon="2.20631">
        <ele>72.72</ele>
        <time>2019-03-09T06:57:06Z</time>
      </trkpt>
      <trkpt lat="48.70277" lon="2.20624">
        <ele>72.72</ele>
        <time>2019-03-09T06:57:07Z</time>
      </trkpt>
      <trkpt lat="48.70276" lon="2.20603">
        <ele>73.68</ele>
        <time>2019-03-09T06:57:10Z</time>
      </trkpt>
      <trkpt lat="48.70276" lon="2.20595">
        <ele>73.68</ele>
        <time>2019-03-09T06:57:11Z</time>
      </trkpt>
      <trkpt lat="48.70271" lon="2.20567">
        <ele>73.68</ele>
        <time>2019-03-09T06:57:15Z</time>
      </trkpt>
      <trkpt lat="48.70267" lon="2.20555">
        <ele>73.2</ele>
        <time>2019-03-09T06:57:17Z</time>
      </trkpt>
      <trkpt lat="48.70267" lon="2.20549">
        <ele>73.68</ele>
        <time>2019-03-09T06:57:18Z</time>
      </trkpt>
      <trkpt lat="48.70266" lon="2.20535">
        <ele>73.2</ele>
        <time>2019-03-09T06:57:20Z</time>
      </trkpt>
      <trkpt lat="48.70265" lon="2.20528">
        <ele>73.2</ele>
        <time>2019-03-09T06:57:21Z</time>
      </trkpt>
      <trkpt lat="48.70264" lon="2.20521">
        <ele>73.2</ele>
        <time>2019-03-09T06:57:22Z</time>
      </trkpt>
      <trkpt lat="48.70262" lon="2.20494">
        <ele>72.72</ele>
        <time>2019-03-09T06:57:26Z</time>
      </trkpt>
      <trkpt lat="48.70262" lon="2.20488">
        <ele>73.2</ele>
        <time>2019-03-09T06:57:27Z</time>
      </trkpt>
      <trkpt lat="48.70261" lon="2.20482">
        <ele>72.72</ele>
        <time>2019-03-09T06:57:28Z</time>
      </trkpt>
      <trkpt lat="48.70249" lon="2.20374">
        <ele>72.24</ele>
        <time>2019-03-09T06:57:42Z</time>
      </trkpt>
      <trkpt lat="48.70237" lon="2.20312">
        <ele>72.72</ele>
        <time>2019-03-09T06:57:53Z</time>
      </trkpt>
      <trkpt lat="48.7023" lon="2.20289">
        <ele>72.72</ele>
        <time>2019-03-09T06:57:58Z</time>
      </trkpt>
      <trkpt lat="48.70215" lon="2.20227">
        <ele>72.72</ele>
        <time>2019-03-09T06:58:09Z</time>
      </trkpt>
      <trkpt lat="48.70198" lon="2.20169">
        <ele>72.72</ele>
        <time>2019-03-09T06:58:20Z</time>
      </trkpt>
      <trkpt lat="48.70182" lon="2.2009">
        <ele>72.72</ele>
        <time>2019-03-09T06:58:33Z</time>
      </trkpt>
      <trkpt lat="48.70168" lon="2.20025">
        <ele>72.24</ele>
        <time>2019-03-09T06:58:44Z</time>
      </trkpt>
      <trkpt lat="48.70149" lon="2.19945">
        <ele>73.2</ele>
        <time>2019-03-09T06:58:57Z</time>
      </trkpt>
      <trkpt lat="48.70134" lon="2.19865">
        <ele>72.72</ele>
        <time>2019-03-09T06:59:10Z</time>
      </trkpt>
      <trkpt lat="48.70114" lon="2.19775">
        <ele>73.2</ele>
        <time>2019-03-09T06:59:25Z</time>
      </trkpt>
      <trkpt lat="48.70099" lon="2.19695">
        <ele>72.72</ele>
        <time>2019-03-09T06:59:39Z</time>
      </trkpt>
      <trkpt lat="48.70082" lon="2.19616">
        <ele>72.72</ele>
        <time>2019-03-09T06:59:53Z</time>
      </trkpt>
      <trkpt lat="48.70069" lon="2.19567">
        <ele>71.76</ele>
        <time>2019-03-09T07:00:02Z</time>
      </trkpt>
      <trkpt lat="48.70068" lon="2.19561">
        <ele>72.24</ele>
        <time>2019-03-09T07:00:03Z</time>
      </trkpt>
      <trkpt lat="48.70061" lon="2.1948">
        <ele>72.72</ele>
        <time>2019-03-09T07:00:16Z</time>
      </trkpt>
      <trkpt lat="48.70055" lon="2.194">
        <ele>73.2</ele>
        <time>2019-03-09T07:00:30Z</time>
      </trkpt>
      <trkpt lat="48.70054" lon="2.19351">
        <ele>74.16</ele>
        <time>2019-03-09T07:00:36Z</time>
      </trkpt>
      <trkpt lat="48.70057" lon="2.19282">
        <ele>72.24</ele>
        <time>2019-03-09T07:00:48Z</time>
      </trkpt>
      <trkpt lat="48.70056" lon="2.19223">
        <ele>73.2</ele>
        <time>2019-03-09T07:00:58Z</time>
      </trkpt>
      <trkpt lat="48.70053" lon="2.19167">
        <ele>72.24</ele>
        <time>2019-03-09T07:01:07Z</time>
      </trkpt>
      <trkpt lat="48.70052" lon="2.19162">
        <ele>73.2</ele>
        <time>2019-03-09T07:01:08Z</time>
      </trkpt>
      <trkpt lat="48.70046" lon="2.1908">
        <ele>73.2</ele>
        <time>2019-03-09T07:01:22Z</time>
      </trkpt>
      <trkpt lat="48.70048" lon="2.19019">
        <ele>72.72</ele>
        <time>2019-03-09T07:01:32Z</time>
      </trkpt>
      <trkpt lat="48.70048" lon="2.19013">
        <ele>73.2</ele>
        <time>2019-03-09T07:01:33Z</time>
      </trkpt>
      <trkpt lat="48.70047" lon="2.19007">
        <ele>73.2</ele>
        <time>2019-03-09T07:01:34Z</time>
      </trkpt>
      <trkpt lat="48.70047" lon="2.19">
        <ele>72.72</ele>
        <time>2019-03-09T07:01:35Z</time>
      </trkpt>
      <trkpt lat="48.70047" lon="2.18994">
        <ele>72.24</ele>
        <time>2019-03-09T07:01:36Z</time>
      </trkpt>
      <trkpt lat="48.70048" lon="2.18988">
        <ele>73.2</ele>
        <time>2019-03-09T07:01:37Z</time>
      </trkpt>
      <trkpt lat="48.70049" lon="2.18982">
        <ele>72.24</ele>
        <time>2019-03-09T07:01:38Z</time>
      </trkpt>
      <trkpt lat="48.70051" lon="2.18963">
        <ele>71.76</ele>
        <time>2019-03-09T07:01:41Z</time>
      </trkpt>
      <trkpt lat="48.70051" lon="2.18955">
        <ele>71.76</ele>
        <time>2019-03-09T07:01:42Z</time>
      </trkpt>
      <trkpt lat="48.70049" lon="2.1894">
        <ele>70.31</ele>
        <time>2019-03-09T07:01:44Z</time>
      </trkpt>
      <trkpt lat="48.70042" lon="2.18834">
        <ele>70.31</ele>
        <time>2019-03-09T07:02:01Z</time>
      </trkpt>
      <trkpt lat="48.70043" lon="2.18829">
        <ele>71.27</ele>
        <time>2019-03-09T07:02:02Z</time>
      </trkpt>
      <trkpt lat="48.70044" lon="2.18802">
        <ele>70.79</ele>
        <time>2019-03-09T07:02:06Z</time>
      </trkpt>
      <trkpt lat="48.70043" lon="2.1873">
        <ele>71.76</ele>
        <time>2019-03-09T07:02:19Z</time>
      </trkpt>
      <trkpt lat="48.7005" lon="2.18685">
        <ele>72.24</ele>
        <time>2019-03-09T07:02:31Z</time>
      </trkpt>
      <trkpt lat="48.70038" lon="2.18625">
        <ele>72.24</ele>
        <time>2019-03-09T07:02:41Z</time>
      </trkpt>
      <trkpt lat="48.70026" lon="2.18603">
        <ele>72.72</ele>
        <time>2019-03-09T07:02:47Z</time>
      </trkpt>
      <trkpt lat="48.70026" lon="2.18601">
        <ele>73.2</ele>
        <time>2019-03-09T07:02:48Z</time>
      </trkpt>
      <trkpt lat="48.70025" lon="2.186">
        <ele>72.72</ele>
        <time>2019-03-09T07:02:49Z</time>
      </trkpt>
      <trkpt lat="48.70025" lon="2.18596">
        <ele>72.24</ele>
        <time>2019-03-09T07:02:50Z</time>
      </trkpt>
      <trkpt lat="48.70024" lon="2.18591">
        <ele>73.2</ele>
        <time>2019-03-09T07:02:51Z</time>
      </trkpt>
      <trkpt lat="48.70023" lon="2.18586">
        <ele>72.72</ele>
        <time>2019-03-09T07:02:52Z</time>
      </trkpt>
      <trkpt lat="48.70022" lon="2.1852">
        <ele>72.72</ele>
        <time>2019-03-09T07:03:04Z</time>
      </trkpt>
      <trkpt lat="48.70016" lon="2.18463">
        <ele>72.24</ele>
        <time>2019-03-09T07:03:16Z</time>
      </trkpt>
      <trkpt lat="48.70003" lon="2.18401">
        <ele>72.24</ele>
        <time>2019-03-09T07:03:27Z</time>
      </trkpt>
      <trkpt lat="48.69997" lon="2.18392">
        <ele>72.24</ele>
        <time>2019-03-09T07:03:29Z</time>
      </trkpt>
      <trkpt lat="48.69995" lon="2.18385">
        <ele>72.24</ele>
        <time>2019-03-09T07:03:30Z</time>
      </trkpt>
      <trkpt lat="48.69994" lon="2.18379">
        <ele>72.24</ele>
        <time>2019-03-09T07:03:31Z</time>
      </trkpt>
      <trkpt lat="48.69993" lon="2.18374">
        <ele>72.72</ele>
        <time>2019-03-09T07:03:32Z</time>
      </trkpt>
      <trkpt lat="48.69993" lon="2.18368">
        <ele>72.72</ele>
        <time>2019-03-09T07:03:33Z</time>
      </trkpt>
      <trkpt lat="48.69972" lon="2.18317">
        <ele>74.16</ele>
        <time>2019-03-09T07:03:44Z</time>
      </trkpt>
      <trkpt lat="48.6996" lon="2.18281">
        <ele>72.24</ele>
        <time>2019-03-09T07:03:52Z</time>
      </trkpt>
      <trkpt lat="48.6996" lon="2.18276">
        <ele>72.72</ele>
        <time>2019-03-09T07:03:53Z</time>
      </trkpt>
      <trkpt lat="48.69958" lon="2.1827">
        <ele>72.72</ele>
        <time>2019-03-09T07:03:54Z</time>
      </trkpt>
      <trkpt lat="48.6994" lon="2.18214">
        <ele>71.76</ele>
        <time>2019-03-09T07:04:05Z</time>
      </trkpt>
      <trkpt lat="48.69939" lon="2.18197">
        <ele>70.79</ele>
        <time>2019-03-09T07:04:09Z</time>
      </trkpt>
      <trkpt lat="48.69954" lon="2.18153">
        <ele>72.24</ele>
        <time>2019-03-09T07:04:19Z</time>
      </trkpt>
      <trkpt lat="48.69961" lon="2.18131">
        <ele>72.24</ele>
        <time>2019-03-09T07:04:24Z</time>
      </trkpt>
      <trkpt lat="48.69963" lon="2.1813">
        <ele>72.72</ele>
        <time>2019-03-09T07:04:25Z</time>
      </trkpt>
      <trkpt lat="48.69986" lon="2.18118">
        <ele>72.24</ele>
        <time>2019-03-09T07:04:33Z</time>
      </trkpt>
      <trkpt lat="48.69989" lon="2.18114">
        <ele>71.27</ele>
        <time>2019-03-09T07:04:34Z</time>
      </trkpt>
      <trkpt lat="48.6999" lon="2.1811">
        <ele>71.76</ele>
        <time>2019-03-09T07:04:35Z</time>
      </trkpt>
      <trkpt lat="48.69991" lon="2.18106">
        <ele>71.76</ele>
        <time>2019-03-09T07:04:36Z</time>
      </trkpt>
      <trkpt lat="48.69991" lon="2.18102">
        <ele>72.72</ele>
        <time>2019-03-09T07:04:37Z</time>
      </trkpt>
      <trkpt lat="48.69992" lon="2.18098">
        <ele>72.24</ele>
        <time>2019-03-09T07:04:38Z</time>
      </trkpt>
      <trkpt lat="48.69994" lon="2.18095">
        <ele>72.24</ele>
        <time>2019-03-09T07:04:39Z</time>
      </trkpt>
      <trkpt lat="48.69997" lon="2.18094">
        <ele>72.24</ele>
        <time>2019-03-09T07:04:40Z</time>
      </trkpt>
      <trkpt lat="48.7" lon="2.18095">
        <ele>72.24</ele>
        <time>2019-03-09T07:04:41Z</time>
      </trkpt>
      <trkpt lat="48.70027" lon="2.18094">
        <ele>72.72</ele>
        <time>2019-03-09T07:04:52Z</time>
      </trkpt>
      <trkpt lat="48.70033" lon="2.18098">
        <ele>74.16</ele>
        <time>2019-03-09T07:05:03Z</time>
      </trkpt>
      <trkpt lat="48.70038" lon="2.18102">
        <ele>74.64</ele>
        <time>2019-03-09T07:05:11Z</time>
      </trkpt>
      <trkpt lat="48.70039" lon="2.18102">
        <ele>74.64</ele>
        <time>2019-03-09T07:05:12Z</time>
      </trkpt>
      <trkpt lat="48.70045" lon="2.18103">
        <ele>76.08</ele>
        <time>2019-03-09T07:05:18Z</time>
      </trkpt>
      <trkpt lat="48.70049" lon="2.18106">
        <ele>76.08</ele>
        <time>2019-03-09T07:05:26Z</time>
      </trkpt>
      <trkpt lat="48.70053" lon="2.18109">
        <ele>76.56</ele>
        <time>2019-03-09T07:05:27Z</time>
      </trkpt>
      <trkpt lat="48.70056" lon="2.18112">
        <ele>75.6</ele>
        <time>2019-03-09T07:05:28Z</time>
      </trkpt>
      <trkpt lat="48.70059" lon="2.18114">
        <ele>76.56</ele>
        <time>2019-03-09T07:05:29Z</time>
      </trkpt>
      <trkpt lat="48.70063" lon="2.18116">
        <ele>75.6</ele>
        <time>2019-03-09T07:05:30Z</time>
      </trkpt>
      <trkpt lat="48.70066" lon="2.18117">
        <ele>83.77</ele>
        <time>2019-03-09T07:07:03Z</time>
      </trkpt>
      <trkpt lat="48.70066" lon="2.18117">
        <ele>82.33</ele>
        <time>2019-03-09T07:07:04Z</time>
      </trkpt>
      <trkpt lat="48.7007" lon="2.1812">
        <ele>81.37</ele>
        <time>2019-03-09T07:07:05Z</time>
      </trkpt>
      <trkpt lat="48.70074" lon="2.18123">
        <ele>80.41</ele>
        <time>2019-03-09T07:07:09Z</time>
      </trkpt>
      <trkpt lat="48.70077" lon="2.18124">
        <ele>81.37</ele>
        <time>2019-03-09T07:07:19Z</time>
      </trkpt>
      <trkpt lat="48.7008" lon="2.18126">
        <ele>81.85</ele>
        <time>2019-03-09T07:07:20Z</time>
      </trkpt>
      <trkpt lat="48.70083" lon="2.18125">
        <ele>82.33</ele>
        <time>2019-03-09T07:07:21Z</time>
      </trkpt>
      <trkpt lat="48.70083" lon="2.18125">
        <ele>82.81</ele>
        <time>2019-03-09T07:07:22Z</time>
      </trkpt>
      <trkpt lat="48.70085" lon="2.18127">
        <ele>82.81</ele>
        <time>2019-03-09T07:07:23Z</time>
      </trkpt>
      <trkpt lat="48.70086" lon="2.18127">
        <ele>82.81</ele>
        <time>2019-03-09T07:07:24Z</time>
      </trkpt>
      <trkpt lat="48.70088" lon="2.18128">
        <ele>82.81</ele>
        <time>2019-03-09T07:07:25Z</time>
      </trkpt>
      <trkpt lat="48.70089" lon="2.18129">
        <ele>82.33</ele>
        <time>2019-03-09T07:07:26Z</time>
      </trkpt>
      <trkpt lat="48.70099" lon="2.1813">
        <ele>85.21</ele>
        <time>2019-03-09T07:07:32Z</time>
      </trkpt>
      <trkpt lat="48.70105" lon="2.18125">
        <ele>86.18</ele>
        <time>2019-03-09T07:07:36Z</time>
      </trkpt>
      <trkpt lat="48.70107" lon="2.18124">
        <ele>88.1</ele>
        <time>2019-03-09T07:07:37Z</time>
      </trkpt>
      <trkpt lat="48.70119" lon="2.18121">
        <ele>89.06</ele>
        <time>2019-03-09T07:07:45Z</time>
      </trkpt>
      <trkpt lat="48.70135" lon="2.18111">
        <ele>92.42</ele>
        <time>2019-03-09T07:07:55Z</time>
      </trkpt>
      <trkpt lat="48.70158" lon="2.18097">
        <ele>94.35</ele>
        <time>2019-03-09T07:08:06Z</time>
      </trkpt>
      <trkpt lat="48.70162" lon="2.18097">
        <ele>93.87</ele>
        <time>2019-03-09T07:08:10Z</time>
      </trkpt>
      <trkpt lat="48.70165" lon="2.18097">
        <ele>94.83</ele>
        <time>2019-03-09T07:08:12Z</time>
      </trkpt>
      <trkpt lat="48.70168" lon="2.18097">
        <ele>94.35</ele>
        <time>2019-03-09T07:08:14Z</time>
      </trkpt>
      <trkpt lat="48.70186" lon="2.18103">
        <ele>95.31</ele>
        <time>2019-03-09T07:08:22Z</time>
      </trkpt>
      <trkpt lat="48.70193" lon="2.18102">
        <ele>94.83</ele>
        <time>2019-03-09T07:08:24Z</time>
      </trkpt>
      <trkpt lat="48.70197" lon="2.18103">
        <ele>93.39</ele>
        <time>2019-03-09T07:08:25Z</time>
      </trkpt>
      <trkpt lat="48.70234" lon="2.18106">
        <ele>94.83</ele>
        <time>2019-03-09T07:08:38Z</time>
      </trkpt>
      <trkpt lat="48.70273" lon="2.18113">
        <ele>95.79</ele>
        <time>2019-03-09T07:08:54Z</time>
      </trkpt>
      <trkpt lat="48.70309" lon="2.18118">
        <ele>98.19</ele>
        <time>2019-03-09T07:09:11Z</time>
      </trkpt>
      <trkpt lat="48.70344" lon="2.18127">
        <ele>101.56</ele>
        <time>2019-03-09T07:09:27Z</time>
      </trkpt>
      <trkpt lat="48.70346" lon="2.18125">
        <ele>101.56</ele>
        <time>2019-03-09T07:09:28Z</time>
      </trkpt>
      <trkpt lat="48.70363" lon="2.18111">
        <ele>102.52</ele>
        <time>2019-03-09T07:09:37Z</time>
      </trkpt>
      <trkpt lat="48.70364" lon="2.1811">
        <ele>102.52</ele>
        <time>2019-03-09T07:09:38Z</time>
      </trkpt>
      <trkpt lat="48.70364" lon="2.18108">
        <ele>103</ele>
        <time>2019-03-09T07:09:39Z</time>
      </trkpt>
      <trkpt lat="48.70364" lon="2.18107">
        <ele>103</ele>
        <time>2019-03-09T07:09:40Z</time>
      </trkpt>
      <trkpt lat="48.70365" lon="2.18104">
        <ele>103.48</ele>
        <time>2019-03-09T07:09:42Z</time>
      </trkpt>
      <trkpt lat="48.70366" lon="2.18102">
        <ele>104.44</ele>
        <time>2019-03-09T07:09:43Z</time>
      </trkpt>
      <trkpt lat="48.70366" lon="2.18099">
        <ele>103.96</ele>
        <time>2019-03-09T07:09:44Z</time>
      </trkpt>
      <trkpt lat="48.70365" lon="2.18096">
        <ele>103.48</ele>
        <time>2019-03-09T07:09:45Z</time>
      </trkpt>
      <trkpt lat="48.70366" lon="2.18093">
        <ele>103.96</ele>
        <time>2019-03-09T07:09:46Z</time>
      </trkpt>
      <trkpt lat="48.70366" lon="2.1809">
        <ele>103</ele>
        <time>2019-03-09T07:09:47Z</time>
      </trkpt>
      <trkpt lat="48.7037" lon="2.18053">
        <ele>103.48</ele>
        <time>2019-03-09T07:09:58Z</time>
      </trkpt>
      <trkpt lat="48.70372" lon="2.18032">
        <ele>103.48</ele>
        <time>2019-03-09T07:10:03Z</time>
      </trkpt>
      <trkpt lat="48.70371" lon="2.18021">
        <ele>104.44</ele>
        <time>2019-03-09T07:10:05Z</time>
      </trkpt>
      <trkpt lat="48.70372" lon="2.18016">
        <ele>104.44</ele>
        <time>2019-03-09T07:10:06Z</time>
      </trkpt>
      <trkpt lat="48.70373" lon="2.18012">
        <ele>104.44</ele>
        <time>2019-03-09T07:10:07Z</time>
      </trkpt>
      <trkpt lat="48.70374" lon="2.18009">
        <ele>104.44</ele>
        <time>2019-03-09T07:10:08Z</time>
      </trkpt>
      <trkpt lat="48.70375" lon="2.18005">
        <ele>104.92</ele>
        <time>2019-03-09T07:10:09Z</time>
      </trkpt>
      <trkpt lat="48.70374" lon="2.18001">
        <ele>104.44</ele>
        <time>2019-03-09T07:10:10Z</time>
      </trkpt>
      <trkpt lat="48.70372" lon="2.17988">
        <ele>104.92</ele>
        <time>2019-03-09T07:10:15Z</time>
      </trkpt>
      <trkpt lat="48.70363" lon="2.17968">
        <ele>104.92</ele>
        <time>2019-03-09T07:10:24Z</time>
      </trkpt>
      <trkpt lat="48.70363" lon="2.17963">
        <ele>105.88</ele>
        <time>2019-03-09T07:10:25Z</time>
      </trkpt>
      <trkpt lat="48.70363" lon="2.17959">
        <ele>105.88</ele>
        <time>2019-03-09T07:10:26Z</time>
      </trkpt>
      <trkpt lat="48.70369" lon="2.17921">
        <ele>105.4</ele>
        <time>2019-03-09T07:10:33Z</time>
      </trkpt>
      <trkpt lat="48.70375" lon="2.17908">
        <ele>105.88</ele>
        <time>2019-03-09T07:10:35Z</time>
      </trkpt>
      <trkpt lat="48.70376" lon="2.179">
        <ele>107.32</ele>
        <time>2019-03-09T07:10:37Z</time>
      </trkpt>
      <trkpt lat="48.70381" lon="2.17862">
        <ele>106.84</ele>
        <time>2019-03-09T07:10:45Z</time>
      </trkpt>
      <trkpt lat="48.70382" lon="2.17855">
        <ele>106.84</ele>
        <time>2019-03-09T07:10:46Z</time>
      </trkpt>
      <trkpt lat="48.70381" lon="2.1785">
        <ele>106.36</ele>
        <time>2019-03-09T07:10:47Z</time>
      </trkpt>
      <trkpt lat="48.70382" lon="2.17844">
        <ele>106.36</ele>
        <time>2019-03-09T07:10:48Z</time>
      </trkpt>
      <trkpt lat="48.7038" lon="2.1784">
        <ele>105.4</ele>
        <time>2019-03-09T07:10:49Z</time>
      </trkpt>
      <trkpt lat="48.70378" lon="2.17836">
        <ele>106.36</ele>
        <time>2019-03-09T07:10:50Z</time>
      </trkpt>
      <trkpt lat="48.70375" lon="2.17833">
        <ele>105.88</ele>
        <time>2019-03-09T07:10:51Z</time>
      </trkpt>
      <trkpt lat="48.70373" lon="2.17825">
        <ele>104.92</ele>
        <time>2019-03-09T07:10:53Z</time>
      </trkpt>
      <trkpt lat="48.70372" lon="2.17818">
        <ele>105.4</ele>
        <time>2019-03-09T07:10:55Z</time>
      </trkpt>
      <trkpt lat="48.70372" lon="2.17814">
        <ele>105.4</ele>
        <time>2019-03-09T07:10:56Z</time>
      </trkpt>
      <trkpt lat="48.70372" lon="2.17789">
        <ele>106.36</ele>
        <time>2019-03-09T07:11:02Z</time>
      </trkpt>
      <trkpt lat="48.70419" lon="2.17689">
        <ele>106.84</ele>
        <time>2019-03-09T07:11:12Z</time>
      </trkpt>
      <trkpt lat="48.70431" lon="2.17659">
        <ele>108.29</ele>
        <time>2019-03-09T07:11:18Z</time>
      </trkpt>
      <trkpt lat="48.70433" lon="2.17655">
        <ele>108.29</ele>
        <time>2019-03-09T07:11:19Z</time>
      </trkpt>
      <trkpt lat="48.70434" lon="2.1765">
        <ele>108.77</ele>
        <time>2019-03-09T07:11:22Z</time>
      </trkpt>
      <trkpt lat="48.70434" lon="2.17646">
        <ele>108.77</ele>
        <time>2019-03-09T07:11:23Z</time>
      </trkpt>
      <trkpt lat="48.70435" lon="2.17642">
        <ele>108.77</ele>
        <time>2019-03-09T07:11:24Z</time>
      </trkpt>
      <trkpt lat="48.70436" lon="2.17638">
        <ele>108.29</ele>
        <time>2019-03-09T07:11:25Z</time>
      </trkpt>
      <trkpt lat="48.70438" lon="2.17634">
        <ele>107.81</ele>
        <time>2019-03-09T07:11:26Z</time>
      </trkpt>
      <trkpt lat="48.70439" lon="2.1763">
        <ele>108.29</ele>
        <time>2019-03-09T07:11:27Z</time>
      </trkpt>
      <trkpt lat="48.70439" lon="2.17628">
        <ele>108.29</ele>
        <time>2019-03-09T07:11:28Z</time>
      </trkpt>
      <trkpt lat="48.7044" lon="2.17625">
        <ele>107.81</ele>
        <time>2019-03-09T07:11:29Z</time>
      </trkpt>
      <trkpt lat="48.70441" lon="2.17623">
        <ele>107.32</ele>
        <time>2019-03-09T07:11:30Z</time>
      </trkpt>
      <trkpt lat="48.70457" lon="2.17566">
        <ele>107.32</ele>
        <time>2019-03-09T07:11:37Z</time>
      </trkpt>
      <trkpt lat="48.70458" lon="2.17557">
        <ele>107.32</ele>
        <time>2019-03-09T07:11:39Z</time>
      </trkpt>
      <trkpt lat="48.70457" lon="2.17549">
        <ele>107.32</ele>
        <time>2019-03-09T07:11:41Z</time>
      </trkpt>
      <trkpt lat="48.70465" lon="2.17505">
        <ele>108.77</ele>
        <time>2019-03-09T07:11:54Z</time>
      </trkpt>
      <trkpt lat="48.70474" lon="2.17475">
        <ele>110.21</ele>
        <time>2019-03-09T07:12:06Z</time>
      </trkpt>
      <trkpt lat="48.70481" lon="2.17447">
        <ele>111.65</ele>
        <time>2019-03-09T07:12:16Z</time>
      </trkpt>
      <trkpt lat="48.7049" lon="2.17423">
        <ele>113.57</ele>
        <time>2019-03-09T07:12:25Z</time>
      </trkpt>
      <trkpt lat="48.70491" lon="2.1742">
        <ele>113.09</ele>
        <time>2019-03-09T07:12:26Z</time>
      </trkpt>
      <trkpt lat="48.70493" lon="2.17417">
        <ele>113.57</ele>
        <time>2019-03-09T07:12:27Z</time>
      </trkpt>
      <trkpt lat="48.70498" lon="2.17403">
        <ele>113.09</ele>
        <time>2019-03-09T07:12:29Z</time>
      </trkpt>
      <trkpt lat="48.70499" lon="2.17399">
        <ele>113.09</ele>
        <time>2019-03-09T07:12:30Z</time>
      </trkpt>
      <trkpt lat="48.705" lon="2.17389">
        <ele>113.09</ele>
        <time>2019-03-09T07:12:33Z</time>
      </trkpt>
      <trkpt lat="48.705" lon="2.17386">
        <ele>113.57</ele>
        <time>2019-03-09T07:12:34Z</time>
      </trkpt>
      <trkpt lat="48.70499" lon="2.1738">
        <ele>114.05</ele>
        <time>2019-03-09T07:12:36Z</time>
      </trkpt>
      <trkpt lat="48.70506" lon="2.17353">
        <ele>115.5</ele>
        <time>2019-03-09T07:12:43Z</time>
      </trkpt>
      <trkpt lat="48.70511" lon="2.17323">
        <ele>115.98</ele>
        <time>2019-03-09T07:12:54Z</time>
      </trkpt>
      <trkpt lat="48.70515" lon="2.17307">
        <ele>115.98</ele>
        <time>2019-03-09T07:12:58Z</time>
      </trkpt>
      <trkpt lat="48.70516" lon="2.17303">
        <ele>115.98</ele>
        <time>2019-03-09T07:12:59Z</time>
      </trkpt>
      <trkpt lat="48.70517" lon="2.17298">
        <ele>116.94</ele>
        <time>2019-03-09T07:13:00Z</time>
      </trkpt>
      <trkpt lat="48.70518" lon="2.17293">
        <ele>115.98</ele>
        <time>2019-03-09T07:13:01Z</time>
      </trkpt>
      <trkpt lat="48.7052" lon="2.17289">
        <ele>115.98</ele>
        <time>2019-03-09T07:13:02Z</time>
      </trkpt>
      <trkpt lat="48.7052" lon="2.17286">
        <ele>115.5</ele>
        <time>2019-03-09T07:13:03Z</time>
      </trkpt>
      <trkpt lat="48.7052" lon="2.17284">
        <ele>115.98</ele>
        <time>2019-03-09T07:13:04Z</time>
      </trkpt>
      <trkpt lat="48.70521" lon="2.17277">
        <ele>115.5</ele>
        <time>2019-03-09T07:13:05Z</time>
      </trkpt>
      <trkpt lat="48.70523" lon="2.17271">
        <ele>115.01</ele>
        <time>2019-03-09T07:13:06Z</time>
      </trkpt>
      <trkpt lat="48.70525" lon="2.17266">
        <ele>115.01</ele>
        <time>2019-03-09T07:13:07Z</time>
      </trkpt>
      <trkpt lat="48.70526" lon="2.1726">
        <ele>115.5</ele>
        <time>2019-03-09T07:13:08Z</time>
      </trkpt>
      <trkpt lat="48.70528" lon="2.17254">
        <ele>115.5</ele>
        <time>2019-03-09T07:13:09Z</time>
      </trkpt>
      <trkpt lat="48.70529" lon="2.17247">
        <ele>115.01</ele>
        <time>2019-03-09T07:13:10Z</time>
      </trkpt>
      <trkpt lat="48.70529" lon="2.17241">
        <ele>115.5</ele>
        <time>2019-03-09T07:13:11Z</time>
      </trkpt>
      <trkpt lat="48.70529" lon="2.17236">
        <ele>115.5</ele>
        <time>2019-03-09T07:13:12Z</time>
      </trkpt>
      <trkpt lat="48.70524" lon="2.17188">
        <ele>115.98</ele>
        <time>2019-03-09T07:13:21Z</time>
      </trkpt>
      <trkpt lat="48.70521" lon="2.17141">
        <ele>116.46</ele>
        <time>2019-03-09T07:13:31Z</time>
      </trkpt>
      <trkpt lat="48.70521" lon="2.17137">
        <ele>116.46</ele>
        <time>2019-03-09T07:13:32Z</time>
      </trkpt>
      <trkpt lat="48.70521" lon="2.17133">
        <ele>115.98</ele>
        <time>2019-03-09T07:13:33Z</time>
      </trkpt>
      <trkpt lat="48.70528" lon="2.17101">
        <ele>115.01</ele>
        <time>2019-03-09T07:13:38Z</time>
      </trkpt>
      <trkpt lat="48.70534" lon="2.1707">
        <ele>116.46</ele>
        <time>2019-03-09T07:13:43Z</time>
      </trkpt>
      <trkpt lat="48.70535" lon="2.17066">
        <ele>116.46</ele>
        <time>2019-03-09T07:13:44Z</time>
      </trkpt>
      <trkpt lat="48.70545" lon="2.16994">
        <ele>116.94</ele>
        <time>2019-03-09T07:13:54Z</time>
      </trkpt>
      <trkpt lat="48.70548" lon="2.16922">
        <ele>116.46</ele>
        <time>2019-03-09T07:14:04Z</time>
      </trkpt>
      <trkpt lat="48.70541" lon="2.16881">
        <ele>115.01</ele>
        <time>2019-03-09T07:14:10Z</time>
      </trkpt>
      <trkpt lat="48.70539" lon="2.16866">
        <ele>115.5</ele>
        <time>2019-03-09T07:14:12Z</time>
      </trkpt>
      <trkpt lat="48.70534" lon="2.16834">
        <ele>114.05</ele>
        <time>2019-03-09T07:14:16Z</time>
      </trkpt>
      <trkpt lat="48.70531" lon="2.16806">
        <ele>113.09</ele>
        <time>2019-03-09T07:14:19Z</time>
      </trkpt>
      <trkpt lat="48.7053" lon="2.16796">
        <ele>113.09</ele>
        <time>2019-03-09T07:14:20Z</time>
      </trkpt>
      <trkpt lat="48.70522" lon="2.16754">
        <ele>110.69</ele>
        <time>2019-03-09T07:14:24Z</time>
      </trkpt>
      <trkpt lat="48.70514" lon="2.16697">
        <ele>109.73</ele>
        <time>2019-03-09T07:14:29Z</time>
      </trkpt>
      <trkpt lat="48.70514" lon="2.16686">
        <ele>109.25</ele>
        <time>2019-03-09T07:14:30Z</time>
      </trkpt>
      <trkpt lat="48.70514" lon="2.16676">
        <ele>108.77</ele>
        <time>2019-03-09T07:14:31Z</time>
      </trkpt>
      <trkpt lat="48.70515" lon="2.16667">
        <ele>108.77</ele>
        <time>2019-03-09T07:14:32Z</time>
      </trkpt>
      <trkpt lat="48.70516" lon="2.16658">
        <ele>107.81</ele>
        <time>2019-03-09T07:14:33Z</time>
      </trkpt>
      <trkpt lat="48.70516" lon="2.16648">
        <ele>107.81</ele>
        <time>2019-03-09T07:14:34Z</time>
      </trkpt>
      <trkpt lat="48.70516" lon="2.16639">
        <ele>107.32</ele>
        <time>2019-03-09T07:14:35Z</time>
      </trkpt>
      <trkpt lat="48.70515" lon="2.16594">
        <ele>106.84</ele>
        <time>2019-03-09T07:14:40Z</time>
      </trkpt>
      <trkpt lat="48.70515" lon="2.16581">
        <ele>105.4</ele>
        <time>2019-03-09T07:14:42Z</time>
      </trkpt>
      <trkpt lat="48.70514" lon="2.16574">
        <ele>106.84</ele>
        <time>2019-03-09T07:14:43Z</time>
      </trkpt>
      <trkpt lat="48.70514" lon="2.16567">
        <ele>104.92</ele>
        <time>2019-03-09T07:14:44Z</time>
      </trkpt>
      <trkpt lat="48.70515" lon="2.16523">
        <ele>103.96</ele>
        <time>2019-03-09T07:14:50Z</time>
      </trkpt>
      <trkpt lat="48.70515" lon="2.16515">
        <ele>103.96</ele>
        <time>2019-03-09T07:14:51Z</time>
      </trkpt>
      <trkpt lat="48.70516" lon="2.16507">
        <ele>104.92</ele>
        <time>2019-03-09T07:14:52Z</time>
      </trkpt>
      <trkpt lat="48.70516" lon="2.16499">
        <ele>104.44</ele>
        <time>2019-03-09T07:14:53Z</time>
      </trkpt>
      <trkpt lat="48.70516" lon="2.16493">
        <ele>103.96</ele>
        <time>2019-03-09T07:14:54Z</time>
      </trkpt>
      <trkpt lat="48.70515" lon="2.16488">
        <ele>104.44</ele>
        <time>2019-03-09T07:14:55Z</time>
      </trkpt>
      <trkpt lat="48.70513" lon="2.16484">
        <ele>104.44</ele>
        <time>2019-03-09T07:14:56Z</time>
      </trkpt>
      <trkpt lat="48.70513" lon="2.16481">
        <ele>104.44</ele>
        <time>2019-03-09T07:14:57Z</time>
      </trkpt>
      <trkpt lat="48.70513" lon="2.16477">
        <ele>103.96</ele>
        <time>2019-03-09T07:14:58Z</time>
      </trkpt>
      <trkpt lat="48.70514" lon="2.16473">
        <ele>104.44</ele>
        <time>2019-03-09T07:14:59Z</time>
      </trkpt>
      <trkpt lat="48.70514" lon="2.16469">
        <ele>104.92</ele>
        <time>2019-03-09T07:15:00Z</time>
      </trkpt>
      <trkpt lat="48.70513" lon="2.16465">
        <ele>105.4</ele>
        <time>2019-03-09T07:15:01Z</time>
      </trkpt>
      <trkpt lat="48.70513" lon="2.16461">
        <ele>104.92</ele>
        <time>2019-03-09T07:15:02Z</time>
      </trkpt>
      <trkpt lat="48.70513" lon="2.16458">
        <ele>105.4</ele>
        <time>2019-03-09T07:15:03Z</time>
      </trkpt>
      <trkpt lat="48.70513" lon="2.16454">
        <ele>105.88</ele>
        <time>2019-03-09T07:15:04Z</time>
      </trkpt>
      <trkpt lat="48.70514" lon="2.16449">
        <ele>105.88</ele>
        <time>2019-03-09T07:15:05Z</time>
      </trkpt>
      <trkpt lat="48.70514" lon="2.16446">
        <ele>106.36</ele>
        <time>2019-03-09T07:15:06Z</time>
      </trkpt>
      <trkpt lat="48.70514" lon="2.16442">
        <ele>106.36</ele>
        <time>2019-03-09T07:15:07Z</time>
      </trkpt>
      <trkpt lat="48.70515" lon="2.16438">
        <ele>106.36</ele>
        <time>2019-03-09T07:15:08Z</time>
      </trkpt>
      <trkpt lat="48.70515" lon="2.16434">
        <ele>106.84</ele>
        <time>2019-03-09T07:15:09Z</time>
      </trkpt>
      <trkpt lat="48.70516" lon="2.1643">
        <ele>107.32</ele>
        <time>2019-03-09T07:15:10Z</time>
      </trkpt>
      <trkpt lat="48.70516" lon="2.16426">
        <ele>106.84</ele>
        <time>2019-03-09T07:15:11Z</time>
      </trkpt>
      <trkpt lat="48.70517" lon="2.16422">
        <ele>107.32</ele>
        <time>2019-03-09T07:15:12Z</time>
      </trkpt>
      <trkpt lat="48.70518" lon="2.16417">
        <ele>107.32</ele>
        <time>2019-03-09T07:15:13Z</time>
      </trkpt>
      <trkpt lat="48.7052" lon="2.1641">
        <ele>108.29</ele>
        <time>2019-03-09T07:15:15Z</time>
      </trkpt>
      <trkpt lat="48.7052" lon="2.16406">
        <ele>107.81</ele>
        <time>2019-03-09T07:15:16Z</time>
      </trkpt>
      <trkpt lat="48.7052" lon="2.16403">
        <ele>107.81</ele>
        <time>2019-03-09T07:15:17Z</time>
      </trkpt>
      <trkpt lat="48.70521" lon="2.16399">
        <ele>108.29</ele>
        <time>2019-03-09T07:15:18Z</time>
      </trkpt>
      <trkpt lat="48.70522" lon="2.16395">
        <ele>108.77</ele>
        <time>2019-03-09T07:15:19Z</time>
      </trkpt>
      <trkpt lat="48.70523" lon="2.16391">
        <ele>108.29</ele>
        <time>2019-03-09T07:15:20Z</time>
      </trkpt>
      <trkpt lat="48.70524" lon="2.16386">
        <ele>108.77</ele>
        <time>2019-03-09T07:15:21Z</time>
      </trkpt>
      <trkpt lat="48.70525" lon="2.16382">
        <ele>108.77</ele>
        <time>2019-03-09T07:15:22Z</time>
      </trkpt>
      <trkpt lat="48.70525" lon="2.16379">
        <ele>109.25</ele>
        <time>2019-03-09T07:15:23Z</time>
      </trkpt>
      <trkpt lat="48.70528" lon="2.16337">
        <ele>108.77</ele>
        <time>2019-03-09T07:15:32Z</time>
      </trkpt>
      <trkpt lat="48.70512" lon="2.16281">
        <ele>109.25</ele>
        <time>2019-03-09T07:15:43Z</time>
      </trkpt>
      <trkpt lat="48.70497" lon="2.16246">
        <ele>107.81</ele>
        <time>2019-03-09T07:15:50Z</time>
      </trkpt>
      <trkpt lat="48.70492" lon="2.16237">
        <ele>107.81</ele>
        <time>2019-03-09T07:15:52Z</time>
      </trkpt>
      <trkpt lat="48.70489" lon="2.16225">
        <ele>106.84</ele>
        <time>2019-03-09T07:15:54Z</time>
      </trkpt>
      <trkpt lat="48.7048" lon="2.1621">
        <ele>106.36</ele>
        <time>2019-03-09T07:15:57Z</time>
      </trkpt>
      <trkpt lat="48.70478" lon="2.16207">
        <ele>105.88</ele>
        <time>2019-03-09T07:15:58Z</time>
      </trkpt>
      <trkpt lat="48.70461" lon="2.16157">
        <ele>105.88</ele>
        <time>2019-03-09T07:16:07Z</time>
      </trkpt>
      <trkpt lat="48.70444" lon="2.16115">
        <ele>106.36</ele>
        <time>2019-03-09T07:16:17Z</time>
      </trkpt>
      <trkpt lat="48.70442" lon="2.16051">
        <ele>106.84</ele>
        <time>2019-03-09T07:16:27Z</time>
      </trkpt>
      <trkpt lat="48.70438" lon="2.16001">
        <ele>107.81</ele>
        <time>2019-03-09T07:16:35Z</time>
      </trkpt>
      <trkpt lat="48.70455" lon="2.15956">
        <ele>109.25</ele>
        <time>2019-03-09T07:16:45Z</time>
      </trkpt>
      <trkpt lat="48.70469" lon="2.15924">
        <ele>111.17</ele>
        <time>2019-03-09T07:16:52Z</time>
      </trkpt>
      <trkpt lat="48.7047" lon="2.15914">
        <ele>110.69</ele>
        <time>2019-03-09T07:16:55Z</time>
      </trkpt>
      <trkpt lat="48.70467" lon="2.15881">
        <ele>113.09</ele>
        <time>2019-03-09T07:17:08Z</time>
      </trkpt>
      <trkpt lat="48.70466" lon="2.1587">
        <ele>114.05</ele>
        <time>2019-03-09T07:17:13Z</time>
      </trkpt>
      <trkpt lat="48.70465" lon="2.15858">
        <ele>115.01</ele>
        <time>2019-03-09T07:17:19Z</time>
      </trkpt>
      <trkpt lat="48.70465" lon="2.15849">
        <ele>115.98</ele>
        <time>2019-03-09T07:17:24Z</time>
      </trkpt>
      <trkpt lat="48.70458" lon="2.1584">
        <ele>115.98</ele>
        <time>2019-03-09T07:17:30Z</time>
      </trkpt>
      <trkpt lat="48.70455" lon="2.15837">
        <ele>116.46</ele>
        <time>2019-03-09T07:17:32Z</time>
      </trkpt>
      <trkpt lat="48.70453" lon="2.15837">
        <ele>116.46</ele>
        <time>2019-03-09T07:17:33Z</time>
      </trkpt>
      <trkpt lat="48.70447" lon="2.15833">
        <ele>117.9</ele>
        <time>2019-03-09T07:17:38Z</time>
      </trkpt>
      <trkpt lat="48.70449" lon="2.15826">
        <ele>117.9</ele>
        <time>2019-03-09T07:17:39Z</time>
      </trkpt>
      <trkpt lat="48.70447" lon="2.15824">
        <ele>117.9</ele>
        <time>2019-03-09T07:17:40Z</time>
      </trkpt>
      <trkpt lat="48.70443" lon="2.15819">
        <ele>117.9</ele>
        <time>2019-03-09T07:17:43Z</time>
      </trkpt>
      <trkpt lat="48.70455" lon="2.15778">
        <ele>119.34</ele>
        <time>2019-03-09T07:17:53Z</time>
      </trkpt>
      <trkpt lat="48.7046" lon="2.15771">
        <ele>120.3</ele>
        <time>2019-03-09T07:17:56Z</time>
      </trkpt>
      <trkpt lat="48.70469" lon="2.15766">
        <ele>122.71</ele>
        <time>2019-03-09T07:18:02Z</time>
      </trkpt>
      <trkpt lat="48.70471" lon="2.15762">
        <ele>124.15</ele>
        <time>2019-03-09T07:18:04Z</time>
      </trkpt>
      <trkpt lat="48.70472" lon="2.1576">
        <ele>124.15</ele>
        <time>2019-03-09T07:18:06Z</time>
      </trkpt>
      <trkpt lat="48.70479" lon="2.15742">
        <ele>125.59</ele>
        <time>2019-03-09T07:18:16Z</time>
      </trkpt>
      <trkpt lat="48.70484" lon="2.1573">
        <ele>127.51</ele>
        <time>2019-03-09T07:18:21Z</time>
      </trkpt>
      <trkpt lat="48.70487" lon="2.15715">
        <ele>130.4</ele>
        <time>2019-03-09T07:18:35Z</time>
      </trkpt>
      <trkpt lat="48.70487" lon="2.15713">
        <ele>131.36</ele>
        <time>2019-03-09T07:18:39Z</time>
      </trkpt>
      <trkpt lat="48.70486" lon="2.15703">
        <ele>134.72</ele>
        <time>2019-03-09T07:18:53Z</time>
      </trkpt>
      <trkpt lat="48.70492" lon="2.15687">
        <ele>137.13</ele>
        <time>2019-03-09T07:19:05Z</time>
      </trkpt>
      <trkpt lat="48.70494" lon="2.15684">
        <ele>138.09</ele>
        <time>2019-03-09T07:19:07Z</time>
      </trkpt>
      <trkpt lat="48.70492" lon="2.15682">
        <ele>137.61</ele>
        <time>2019-03-09T07:19:13Z</time>
      </trkpt>
      <trkpt lat="48.70496" lon="2.15665">
        <ele>138.57</ele>
        <time>2019-03-09T07:19:21Z</time>
      </trkpt>
      <trkpt lat="48.70493" lon="2.15663">
        <ele>138.57</ele>
        <time>2019-03-09T07:19:23Z</time>
      </trkpt>
      <trkpt lat="48.70492" lon="2.1566">
        <ele>138.57</ele>
        <time>2019-03-09T07:19:24Z</time>
      </trkpt>
      <trkpt lat="48.7049" lon="2.15658">
        <ele>138.09</ele>
        <time>2019-03-09T07:19:25Z</time>
      </trkpt>
      <trkpt lat="48.70471" lon="2.15631">
        <ele>135.68</ele>
        <time>2019-03-09T07:19:33Z</time>
      </trkpt>
      <trkpt lat="48.70461" lon="2.15621">
        <ele>133.76</ele>
        <time>2019-03-09T07:19:36Z</time>
      </trkpt>
      <trkpt lat="48.70447" lon="2.15609">
        <ele>131.84</ele>
        <time>2019-03-09T07:19:39Z</time>
      </trkpt>
      <trkpt lat="48.70433" lon="2.15596">
        <ele>128.95</ele>
        <time>2019-03-09T07:19:42Z</time>
      </trkpt>
      <trkpt lat="48.70417" lon="2.15583">
        <ele>125.59</ele>
        <time>2019-03-09T07:19:45Z</time>
      </trkpt>
      <trkpt lat="48.70392" lon="2.15562">
        <ele>121.74</ele>
        <time>2019-03-09T07:19:50Z</time>
      </trkpt>
      <trkpt lat="48.70373" lon="2.15544">
        <ele>118.86</ele>
        <time>2019-03-09T07:19:54Z</time>
      </trkpt>
      <trkpt lat="48.70364" lon="2.15532">
        <ele>116.94</ele>
        <time>2019-03-09T07:19:57Z</time>
      </trkpt>
      <trkpt lat="48.70361" lon="2.15528">
        <ele>116.46</ele>
        <time>2019-03-09T07:19:59Z</time>
      </trkpt>
      <trkpt lat="48.70361" lon="2.15525">
        <ele>115.98</ele>
        <time>2019-03-09T07:20:00Z</time>
      </trkpt>
      <trkpt lat="48.70364" lon="2.15516">
        <ele>117.42</ele>
        <time>2019-03-09T07:20:03Z</time>
      </trkpt>
      <trkpt lat="48.70364" lon="2.15511">
        <ele>118.38</ele>
        <time>2019-03-09T07:20:05Z</time>
      </trkpt>
      <trkpt lat="48.70364" lon="2.15475">
        <ele>121.74</ele>
        <time>2019-03-09T07:20:19Z</time>
      </trkpt>
      <trkpt lat="48.70365" lon="2.15471">
        <ele>121.74</ele>
        <time>2019-03-09T07:20:20Z</time>
      </trkpt>
      <trkpt lat="48.70365" lon="2.15468">
        <ele>121.74</ele>
        <time>2019-03-09T07:20:21Z</time>
      </trkpt>
      <trkpt lat="48.70365" lon="2.15465">
        <ele>122.71</ele>
        <time>2019-03-09T07:20:22Z</time>
      </trkpt>
      <trkpt lat="48.70365" lon="2.15463">
        <ele>122.22</ele>
        <time>2019-03-09T07:20:23Z</time>
      </trkpt>
      <trkpt lat="48.70365" lon="2.1546">
        <ele>122.71</ele>
        <time>2019-03-09T07:20:24Z</time>
      </trkpt>
      <trkpt lat="48.70362" lon="2.15456">
        <ele>122.22</ele>
        <time>2019-03-09T07:20:28Z</time>
      </trkpt>
      <trkpt lat="48.70359" lon="2.1545">
        <ele>121.74</ele>
        <time>2019-03-09T07:20:32Z</time>
      </trkpt>
      <trkpt lat="48.70358" lon="2.15447">
        <ele>121.74</ele>
        <time>2019-03-09T07:20:33Z</time>
      </trkpt>
      <trkpt lat="48.70358" lon="2.15444">
        <ele>122.71</ele>
        <time>2019-03-09T07:20:34Z</time>
      </trkpt>
      <trkpt lat="48.70358" lon="2.1544">
        <ele>122.22</ele>
        <time>2019-03-09T07:20:35Z</time>
      </trkpt>
      <trkpt lat="48.70358" lon="2.15435">
        <ele>121.74</ele>
        <time>2019-03-09T07:20:36Z</time>
      </trkpt>
      <trkpt lat="48.70358" lon="2.15429">
        <ele>121.26</ele>
        <time>2019-03-09T07:20:37Z</time>
      </trkpt>
      <trkpt lat="48.70358" lon="2.15425">
        <ele>121.26</ele>
        <time>2019-03-09T07:20:38Z</time>
      </trkpt>
      <trkpt lat="48.70357" lon="2.15421">
        <ele>122.22</ele>
        <time>2019-03-09T07:20:39Z</time>
      </trkpt>
      <trkpt lat="48.70356" lon="2.15366">
        <ele>122.71</ele>
        <time>2019-03-09T07:20:49Z</time>
      </trkpt>
      <trkpt lat="48.70352" lon="2.15327">
        <ele>123.19</ele>
        <time>2019-03-09T07:20:58Z</time>
      </trkpt>
      <trkpt lat="48.7034" lon="2.15298">
        <ele>123.67</ele>
        <time>2019-03-09T07:21:09Z</time>
      </trkpt>
      <trkpt lat="48.7033" lon="2.15274">
        <ele>122.22</ele>
        <time>2019-03-09T07:21:17Z</time>
      </trkpt>
      <trkpt lat="48.70334" lon="2.15241">
        <ele>122.22</ele>
        <time>2019-03-09T07:21:21Z</time>
      </trkpt>
      <trkpt lat="48.70335" lon="2.15235">
        <ele>121.26</ele>
        <time>2019-03-09T07:21:23Z</time>
      </trkpt>
      <trkpt lat="48.70331" lon="2.15215">
        <ele>121.26</ele>
        <time>2019-03-09T07:21:26Z</time>
      </trkpt>
      <trkpt lat="48.70333" lon="2.15181">
        <ele>121.26</ele>
        <time>2019-03-09T07:21:31Z</time>
      </trkpt>
      <trkpt lat="48.70337" lon="2.15163">
        <ele>119.82</ele>
        <time>2019-03-09T07:21:33Z</time>
      </trkpt>
      <trkpt lat="48.70346" lon="2.15114">
        <ele>119.34</ele>
        <time>2019-03-09T07:21:39Z</time>
      </trkpt>
      <trkpt lat="48.70347" lon="2.15107">
        <ele>119.34</ele>
        <time>2019-03-09T07:21:40Z</time>
      </trkpt>
      <trkpt lat="48.70347" lon="2.15102">
        <ele>119.82</ele>
        <time>2019-03-09T07:21:41Z</time>
      </trkpt>
      <trkpt lat="48.70348" lon="2.15098">
        <ele>120.78</ele>
        <time>2019-03-09T07:21:42Z</time>
      </trkpt>
      <trkpt lat="48.70349" lon="2.15096">
        <ele>121.26</ele>
        <time>2019-03-09T07:21:43Z</time>
      </trkpt>
      <trkpt lat="48.70372" lon="2.15037">
        <ele>123.67</ele>
        <time>2019-03-09T07:21:52Z</time>
      </trkpt>
      <trkpt lat="48.70372" lon="2.15035">
        <ele>123.67</ele>
        <time>2019-03-09T07:21:53Z</time>
      </trkpt>
      <trkpt lat="48.70371" lon="2.15028">
        <ele>123.19</ele>
        <time>2019-03-09T07:21:55Z</time>
      </trkpt>
      <trkpt lat="48.7037" lon="2.15024">
        <ele>123.19</ele>
        <time>2019-03-09T07:21:56Z</time>
      </trkpt>
      <trkpt lat="48.70364" lon="2.14998">
        <ele>120.78</ele>
        <time>2019-03-09T07:22:01Z</time>
      </trkpt>
      <trkpt lat="48.70363" lon="2.14989">
        <ele>120.78</ele>
        <time>2019-03-09T07:22:02Z</time>
      </trkpt>
      <trkpt lat="48.70362" lon="2.1498">
        <ele>120.78</ele>
        <time>2019-03-09T07:22:03Z</time>
      </trkpt>
      <trkpt lat="48.7036" lon="2.14973">
        <ele>120.78</ele>
        <time>2019-03-09T07:22:04Z</time>
      </trkpt>
      <trkpt lat="48.70352" lon="2.1491">
        <ele>117.9</ele>
        <time>2019-03-09T07:22:13Z</time>
      </trkpt>
      <trkpt lat="48.70346" lon="2.14875">
        <ele>115.98</ele>
        <time>2019-03-09T07:22:18Z</time>
      </trkpt>
      <trkpt lat="48.70347" lon="2.14865">
        <ele>115.01</ele>
        <time>2019-03-09T07:22:19Z</time>
      </trkpt>
      <trkpt lat="48.70348" lon="2.14853">
        <ele>115.01</ele>
        <time>2019-03-09T07:22:20Z</time>
      </trkpt>
      <trkpt lat="48.70348" lon="2.14842">
        <ele>114.53</ele>
        <time>2019-03-09T07:22:21Z</time>
      </trkpt>
      <trkpt lat="48.70349" lon="2.14831">
        <ele>114.05</ele>
        <time>2019-03-09T07:22:22Z</time>
      </trkpt>
      <trkpt lat="48.7035" lon="2.14821">
        <ele>114.53</ele>
        <time>2019-03-09T07:22:23Z</time>
      </trkpt>
      <trkpt lat="48.70351" lon="2.1481">
        <ele>114.53</ele>
        <time>2019-03-09T07:22:24Z</time>
      </trkpt>
      <trkpt lat="48.70352" lon="2.14799">
        <ele>114.05</ele>
        <time>2019-03-09T07:22:25Z</time>
      </trkpt>
      <trkpt lat="48.70353" lon="2.14788">
        <ele>113.09</ele>
        <time>2019-03-09T07:22:26Z</time>
      </trkpt>
      <trkpt lat="48.70355" lon="2.14778">
        <ele>112.61</ele>
        <time>2019-03-09T07:22:27Z</time>
      </trkpt>
      <trkpt lat="48.70356" lon="2.14769">
        <ele>112.13</ele>
        <time>2019-03-09T07:22:28Z</time>
      </trkpt>
      <trkpt lat="48.70356" lon="2.14759">
        <ele>112.61</ele>
        <time>2019-03-09T07:22:29Z</time>
      </trkpt>
      <trkpt lat="48.70356" lon="2.1475">
        <ele>112.13</ele>
        <time>2019-03-09T07:22:30Z</time>
      </trkpt>
      <trkpt lat="48.70355" lon="2.14742">
        <ele>111.17</ele>
        <time>2019-03-09T07:22:31Z</time>
      </trkpt>
      <trkpt lat="48.70354" lon="2.14734">
        <ele>111.65</ele>
        <time>2019-03-09T07:22:32Z</time>
      </trkpt>
      <trkpt lat="48.7035" lon="2.14731">
        <ele>111.17</ele>
        <time>2019-03-09T07:22:33Z</time>
      </trkpt>
      <trkpt lat="48.70345" lon="2.14726">
        <ele>111.17</ele>
        <time>2019-03-09T07:22:34Z</time>
      </trkpt>
      <trkpt lat="48.70344" lon="2.14721">
        <ele>110.21</ele>
        <time>2019-03-09T07:22:35Z</time>
      </trkpt>
      <trkpt lat="48.7034" lon="2.14718">
        <ele>109.73</ele>
        <time>2019-03-09T07:22:36Z</time>
      </trkpt>
      <trkpt lat="48.70305" lon="2.14708">
        <ele>105.88</ele>
        <time>2019-03-09T07:22:41Z</time>
      </trkpt>
      <trkpt lat="48.70274" lon="2.14703">
        <ele>102.52</ele>
        <time>2019-03-09T07:22:46Z</time>
      </trkpt>
      <trkpt lat="48.70262" lon="2.14704">
        <ele>101.56</ele>
        <time>2019-03-09T07:22:48Z</time>
      </trkpt>
      <trkpt lat="48.70229" lon="2.14702">
        <ele>99.15</ele>
        <time>2019-03-09T07:22:56Z</time>
      </trkpt>
      <trkpt lat="48.70227" lon="2.14703">
        <ele>98.19</ele>
        <time>2019-03-09T07:22:57Z</time>
      </trkpt>
      <trkpt lat="48.70224" lon="2.14705">
        <ele>98.19</ele>
        <time>2019-03-09T07:22:58Z</time>
      </trkpt>
      <trkpt lat="48.70222" lon="2.14707">
        <ele>98.19</ele>
        <time>2019-03-09T07:22:59Z</time>
      </trkpt>
      <trkpt lat="48.70219" lon="2.14709">
        <ele>97.71</ele>
        <time>2019-03-09T07:23:00Z</time>
      </trkpt>
      <trkpt lat="48.70216" lon="2.14709">
        <ele>98.19</ele>
        <time>2019-03-09T07:23:01Z</time>
      </trkpt>
      <trkpt lat="48.70212" lon="2.14709">
        <ele>97.23</ele>
        <time>2019-03-09T07:23:02Z</time>
      </trkpt>
      <trkpt lat="48.70199" lon="2.14709">
        <ele>97.23</ele>
        <time>2019-03-09T07:23:05Z</time>
      </trkpt>
      <trkpt lat="48.70195" lon="2.14712">
        <ele>96.27</ele>
        <time>2019-03-09T07:23:06Z</time>
      </trkpt>
      <trkpt lat="48.70193" lon="2.14716">
        <ele>96.27</ele>
        <time>2019-03-09T07:23:07Z</time>
      </trkpt>
      <trkpt lat="48.7019" lon="2.14721">
        <ele>95.79</ele>
        <time>2019-03-09T07:23:08Z</time>
      </trkpt>
      <trkpt lat="48.70187" lon="2.14727">
        <ele>94.83</ele>
        <time>2019-03-09T07:23:09Z</time>
      </trkpt>
      <trkpt lat="48.70177" lon="2.14748">
        <ele>93.87</ele>
        <time>2019-03-09T07:23:13Z</time>
      </trkpt>
      <trkpt lat="48.7016" lon="2.14792">
        <ele>92.42</ele>
        <time>2019-03-09T07:23:20Z</time>
      </trkpt>
      <trkpt lat="48.70152" lon="2.14803">
        <ele>92.42</ele>
        <time>2019-03-09T07:23:23Z</time>
      </trkpt>
      <trkpt lat="48.70148" lon="2.14803">
        <ele>92.9</ele>
        <time>2019-03-09T07:23:24Z</time>
      </trkpt>
      <trkpt lat="48.7013" lon="2.148">
        <ele>91.94</ele>
        <time>2019-03-09T07:23:29Z</time>
      </trkpt>
      <trkpt lat="48.70102" lon="2.14795">
        <ele>90.5</ele>
        <time>2019-03-09T07:23:36Z</time>
      </trkpt>
      <trkpt lat="48.70093" lon="2.14766">
        <ele>89.54</ele>
        <time>2019-03-09T07:23:43Z</time>
      </trkpt>
      <trkpt lat="48.70084" lon="2.14728">
        <ele>87.14</ele>
        <time>2019-03-09T07:23:49Z</time>
      </trkpt>
      <trkpt lat="48.70074" lon="2.14698">
        <ele>86.18</ele>
        <time>2019-03-09T07:23:54Z</time>
      </trkpt>
      <trkpt lat="48.7007" lon="2.14696">
        <ele>86.66</ele>
        <time>2019-03-09T07:23:56Z</time>
      </trkpt>
      <trkpt lat="48.70068" lon="2.14698">
        <ele>86.66</ele>
        <time>2019-03-09T07:23:57Z</time>
      </trkpt>
      <trkpt lat="48.70062" lon="2.14707">
        <ele>85.21</ele>
        <time>2019-03-09T07:23:59Z</time>
      </trkpt>
      <trkpt lat="48.70058" lon="2.14712">
        <ele>84.73</ele>
        <time>2019-03-09T07:24:00Z</time>
      </trkpt>
      <trkpt lat="48.70053" lon="2.14715">
        <ele>83.77</ele>
        <time>2019-03-09T07:24:01Z</time>
      </trkpt>
      <trkpt lat="48.70044" lon="2.14722">
        <ele>83.29</ele>
        <time>2019-03-09T07:24:03Z</time>
      </trkpt>
      <trkpt lat="48.70038" lon="2.14724">
        <ele>82.81</ele>
        <time>2019-03-09T07:24:04Z</time>
      </trkpt>
      <trkpt lat="48.70016" lon="2.14729">
        <ele>80.89</ele>
        <time>2019-03-09T07:24:08Z</time>
      </trkpt>
      <trkpt lat="48.70011" lon="2.14727">
        <ele>80.41</ele>
        <time>2019-03-09T07:24:09Z</time>
      </trkpt>
      <trkpt lat="48.70007" lon="2.14723">
        <ele>79.93</ele>
        <time>2019-03-09T07:24:10Z</time>
      </trkpt>
      <trkpt lat="48.70003" lon="2.14718">
        <ele>79.45</ele>
        <time>2019-03-09T07:24:11Z</time>
      </trkpt>
      <trkpt lat="48.70001" lon="2.14711">
        <ele>79.45</ele>
        <time>2019-03-09T07:24:12Z</time>
      </trkpt>
      <trkpt lat="48.69998" lon="2.14705">
        <ele>78.48</ele>
        <time>2019-03-09T07:24:13Z</time>
      </trkpt>
      <trkpt lat="48.69995" lon="2.147">
        <ele>77.52</ele>
        <time>2019-03-09T07:24:14Z</time>
      </trkpt>
      <trkpt lat="48.69991" lon="2.14697">
        <ele>78</ele>
        <time>2019-03-09T07:24:15Z</time>
      </trkpt>
      <trkpt lat="48.69984" lon="2.14689">
        <ele>77.52</ele>
        <time>2019-03-09T07:24:17Z</time>
      </trkpt>
      <trkpt lat="48.69968" lon="2.1468">
        <ele>77.52</ele>
        <time>2019-03-09T07:24:21Z</time>
      </trkpt>
      <trkpt lat="48.69942" lon="2.14663">
        <ele>73.68</ele>
        <time>2019-03-09T07:24:27Z</time>
      </trkpt>
      <trkpt lat="48.6994" lon="2.1466">
        <ele>74.16</ele>
        <time>2019-03-09T07:24:28Z</time>
      </trkpt>
      <trkpt lat="48.69939" lon="2.14657">
        <ele>74.64</ele>
        <time>2019-03-09T07:24:29Z</time>
      </trkpt>
      <trkpt lat="48.69938" lon="2.14654">
        <ele>73.68</ele>
        <time>2019-03-09T07:24:30Z</time>
      </trkpt>
      <trkpt lat="48.69941" lon="2.14673">
        <ele>63.703125</ele>
      </trkpt>
      <trkpt lat="48.69945" lon="2.14688">
        <ele>63.83203125</ele>
      </trkpt>
      <trkpt lat="48.69939" lon="2.14714">
        <ele>63.640625</ele>
      </trkpt>
      <trkpt lat="48.69939" lon="2.1474">
        <ele>63.640625</ele>
      </trkpt>
      <trkpt lat="48.69938" lon="2.14766">
        <ele>63.51171875</ele>
      </trkpt>
      <trkpt lat="48.69936" lon="2.14792">
        <ele>63.20703125</ele>
      </trkpt>
      <trkpt lat="48.6993" lon="2.14818">
        <ele>62.64453125</ele>
      </trkpt>
      <trkpt lat="48.69925" lon="2.14844">
        <ele>62.27734375</ele>
      </trkpt>
      <trkpt lat="48.6992" lon="2.1487">
        <ele>61.96484375</ele>
      </trkpt>
      <trkpt lat="48.69918" lon="2.14896">
        <ele>61.9296875</ele>
      </trkpt>
      <trkpt lat="48.69911" lon="2.14917">
        <ele>61.80078125</ele>
      </trkpt>
      <trkpt lat="48.69907" lon="2.14943">
        <ele>61.6484375</ele>
      </trkpt>
      <trkpt lat="48.69907" lon="2.14974">
        <ele>61.50390625</ele>
      </trkpt>
      <trkpt lat="48.69914" lon="2.15">
        <ele>62.05078125</ele>
      </trkpt>
      <trkpt lat="48.69914" lon="2.15029">
        <ele>62.49609375</ele>
      </trkpt>
      <trkpt lat="48.69914" lon="2.1506">
        <ele>62.6015625</ele>
      </trkpt>
      <trkpt lat="48.69909" lon="2.15086">
        <ele>62.30859375</ele>
      </trkpt>
      <trkpt lat="48.69891" lon="2.15083">
        <ele>61.33984375</ele>
      </trkpt>
      <trkpt lat="48.69873" lon="2.15086">
        <ele>60.3671875</ele>
      </trkpt>
      <trkpt lat="48.69866" lon="2.15096">
        <ele>60.0078125</ele>
      </trkpt>
      <trkpt lat="48.69864" lon="2.15122">
        <ele>60.0390625</ele>
      </trkpt>
      <trkpt lat="48.69855" lon="2.15148">
        <ele>60.1953125</ele>
      </trkpt>
      <trkpt lat="48.69851" lon="2.15174">
        <ele>60.1328125</ele>
      </trkpt>
      <trkpt lat="48.6985" lon="2.152">
        <ele>60.0078125</ele>
      </trkpt>
      <trkpt lat="48.69848" lon="2.15226">
        <ele>60.29296875</ele>
      </trkpt>
      <trkpt lat="48.69846" lon="2.15252">
        <ele>60.57421875</ele>
      </trkpt>
      <trkpt lat="48.69842" lon="2.15278">
        <ele>60.57421875</ele>
      </trkpt>
      <trkpt lat="48.69832" lon="2.15302">
        <ele>60.37890625</ele>
      </trkpt>
      <trkpt lat="48.69823" lon="2.15328">
        <ele>60.421875</ele>
      </trkpt>
      <trkpt lat="48.69806" lon="2.15343">
        <ele>60.69140625</ele>
      </trkpt>
      <trkpt lat="48.69789" lon="2.15338">
        <ele>61.24609375</ele>
      </trkpt>
      <trkpt lat="48.69772" lon="2.15323">
        <ele>61.546875</ele>
      </trkpt>
      <trkpt lat="48.69756" lon="2.15302">
        <ele>62.1640625</ele>
      </trkpt>
      <trkpt lat="48.69751" lon="2.15276">
        <ele>62.98828125</ele>
      </trkpt>
      <trkpt lat="48.69754" lon="2.1525">
        <ele>63.0546875</ele>
      </trkpt>
      <trkpt lat="48.69756" lon="2.15234">
        <ele>62.94140625</ele>
      </trkpt>
      <trkpt lat="48.69769" lon="2.15185">
        <ele>62.8125</ele>
      </trkpt>
      <trkpt lat="48.69772" lon="2.15159">
        <ele>63.390625</ele>
      </trkpt>
      <trkpt lat="48.69776" lon="2.15133">
        <ele>63.65625</ele>
      </trkpt>
      <trkpt lat="48.6978" lon="2.15107">
        <ele>63.640625</ele>
      </trkpt>
      <trkpt lat="48.69783" lon="2.15081">
        <ele>63.75390625</ele>
      </trkpt>
      <trkpt lat="48.6979" lon="2.15055">
        <ele>63.72265625</ele>
      </trkpt>
      <trkpt lat="48.69794" lon="2.15029">
        <ele>63.87890625</ele>
      </trkpt>
      <trkpt lat="48.69798" lon="2.15003">
        <ele>63.69921875</ele>
      </trkpt>
      <trkpt lat="48.69805" lon="2.14974">
        <ele>62.9609375</ele>
      </trkpt>
      <trkpt lat="48.69803" lon="2.14946">
        <ele>63.734375</ele>
      </trkpt>
      <trkpt lat="48.69801" lon="2.14917">
        <ele>64.3515625</ele>
      </trkpt>
      <trkpt lat="48.69801" lon="2.14889">
        <ele>64.26171875</ele>
      </trkpt>
      <trkpt lat="48.69801" lon="2.14857">
        <ele>64.375</ele>
      </trkpt>
      <trkpt lat="48.69801" lon="2.14831">
        <ele>64.765625</ele>
      </trkpt>
      <trkpt lat="48.69805" lon="2.14805">
        <ele>64.7734375</ele>
      </trkpt>
      <trkpt lat="48.69805" lon="2.14777">
        <ele>65.234375</ele>
      </trkpt>
      <trkpt lat="48.69808" lon="2.14748">
        <ele>65.2109375</ele>
      </trkpt>
      <trkpt lat="48.69808" lon="2.1472">
        <ele>65.2109375</ele>
      </trkpt>
      <trkpt lat="48.69808" lon="2.14691">
        <ele>65.1953125</ele>
      </trkpt>
      <trkpt lat="48.69808" lon="2.14662">
        <ele>65.15234375</ele>
      </trkpt>
      <trkpt lat="48.69812" lon="2.14634">
        <ele>64.9375</ele>
      </trkpt>
      <trkpt lat="48.69812" lon="2.14605">
        <ele>64.94921875</ele>
      </trkpt>
      <trkpt lat="48.69815" lon="2.14577">
        <ele>64.82421875</ele>
      </trkpt>
      <trkpt lat="48.69819" lon="2.14551">
        <ele>64.6953125</ele>
      </trkpt>
      <trkpt lat="48.69819" lon="2.14538">
        <ele>64.6953125</ele>
      </trkpt>
      <trkpt lat="48.69819" lon="2.14512">
        <ele>64.76171875</ele>
      </trkpt>
      <trkpt lat="48.69826" lon="2.14486">
        <ele>64.69140625</ele>
      </trkpt>
      <trkpt lat="48.6983" lon="2.14455">
        <ele>64.65234375</ele>
      </trkpt>
      <trkpt lat="48.69833" lon="2.14429">
        <ele>64.58984375</ele>
      </trkpt>
      <trkpt lat="48.69844" lon="2.14403">
        <ele>64.7109375</ele>
      </trkpt>
      <trkpt lat="48.69851" lon="2.14377">
        <ele>64.7265625</ele>
      </trkpt>
      <trkpt lat="48.69866" lon="2.14358">
        <ele>64.0234375</ele>
      </trkpt>
      <trkpt lat="48.69877" lon="2.14335">
        <ele>63.8125</ele>
      </trkpt>
      <trkpt lat="48.69887" lon="2.14309">
        <ele>63.703125</ele>
      </trkpt>
      <trkpt lat="48.69898" lon="2.14286">
        <ele>63.93359375</ele>
      </trkpt>
      <trkpt lat="48.69905" lon="2.14257">
        <ele>64.30859375</ele>
      </trkpt>
      <trkpt lat="48.69912" lon="2.14231">
        <ele>64.328125</ele>
      </trkpt>
      <trkpt lat="48.69912" lon="2.14213">
        <ele>64.4375</ele>
      </trkpt>
      <trkpt lat="48.69912" lon="2.14187">
        <ele>64.49609375</ele>
      </trkpt>
      <trkpt lat="48.6992" lon="2.14156">
        <ele>64.109375</ele>
      </trkpt>
      <trkpt lat="48.6992" lon="2.14125">
        <ele>64.515625</ele>
      </trkpt>
      <trkpt lat="48.6992" lon="2.14093">
        <ele>65.078125</ele>
      </trkpt>
      <trkpt lat="48.69927" lon="2.14067">
        <ele>64.8125</ele>
      </trkpt>
      <trkpt lat="48.6993" lon="2.14039">
        <ele>64.68359375</ele>
      </trkpt>
      <trkpt lat="48.69934" lon="2.14013">
        <ele>64.5546875</ele>
      </trkpt>
      <trkpt lat="48.69938" lon="2.13984">
        <ele>64.42578125</ele>
      </trkpt>
      <trkpt lat="48.69945" lon="2.13958">
        <ele>64.16796875</ele>
      </trkpt>
      <trkpt lat="48.69948" lon="2.13932">
        <ele>64.03515625</ele>
      </trkpt>
      <trkpt lat="48.69952" lon="2.13904">
        <ele>63.90625</ele>
      </trkpt>
      <trkpt lat="48.69952" lon="2.13875">
        <ele>63.90625</ele>
      </trkpt>
      <trkpt lat="48.69959" lon="2.13849">
        <ele>63.76953125</ele>
      </trkpt>
      <trkpt lat="48.69963" lon="2.13821">
        <ele>63.75</ele>
      </trkpt>
      <trkpt lat="48.69966" lon="2.13795">
        <ele>63.9375</ele>
      </trkpt>
      <trkpt lat="48.6997" lon="2.13787">
        <ele>63.8828125</ele>
      </trkpt>
      <trkpt lat="48.6999" lon="2.13792">
        <ele>63.53515625</ele>
      </trkpt>
      <trkpt lat="48.70008" lon="2.13787">
        <ele>63.7734375</ele>
      </trkpt>
      <trkpt lat="48.70026" lon="2.13795">
        <ele>63.91796875</ele>
      </trkpt>
      <trkpt lat="48.70044" lon="2.13797">
        <ele>63.8046875</ele>
      </trkpt>
      <trkpt lat="48.70072" lon="2.13785">
        <ele>74.64</ele>
        <time>2019-03-09T07:26:59Z</time>
      </trkpt>
      <trkpt lat="48.70071" lon="2.1372">
        <ele>74.64</ele>
        <time>2019-03-09T07:27:08Z</time>
      </trkpt>
      <trkpt lat="48.70059" lon="2.13699">
        <ele>74.16</ele>
        <time>2019-03-09T07:27:12Z</time>
      </trkpt>
      <trkpt lat="48.70055" lon="2.13694">
        <ele>75.12</ele>
        <time>2019-03-09T07:27:13Z</time>
      </trkpt>
      <trkpt lat="48.70043" lon="2.13633">
        <ele>74.16</ele>
        <time>2019-03-09T07:27:23Z</time>
      </trkpt>
      <trkpt lat="48.70041" lon="2.13629">
        <ele>74.64</ele>
        <time>2019-03-09T07:27:24Z</time>
      </trkpt>
      <trkpt lat="48.7004" lon="2.13626">
        <ele>73.68</ele>
        <time>2019-03-09T07:27:25Z</time>
      </trkpt>
      <trkpt lat="48.70039" lon="2.13622">
        <ele>73.68</ele>
        <time>2019-03-09T07:27:26Z</time>
      </trkpt>
      <trkpt lat="48.70037" lon="2.1362">
        <ele>73.2</ele>
        <time>2019-03-09T07:27:27Z</time>
      </trkpt>
      <trkpt lat="48.70035" lon="2.13617">
        <ele>73.2</ele>
        <time>2019-03-09T07:27:28Z</time>
      </trkpt>
      <trkpt lat="48.70031" lon="2.13608">
        <ele>73.2</ele>
        <time>2019-03-09T07:27:32Z</time>
      </trkpt>
      <trkpt lat="48.70009" lon="2.13605">
        <ele>74.16</ele>
        <time>2019-03-09T07:27:43Z</time>
      </trkpt>
      <trkpt lat="48.69986" lon="2.13588">
        <ele>75.12</ele>
        <time>2019-03-09T07:27:51Z</time>
      </trkpt>
      <trkpt lat="48.6998" lon="2.13581">
        <ele>75.12</ele>
        <time>2019-03-09T07:27:53Z</time>
      </trkpt>
      <trkpt lat="48.69948" lon="2.13553">
        <ele>75.12</ele>
        <time>2019-03-09T07:28:02Z</time>
      </trkpt>
      <trkpt lat="48.69945" lon="2.13549">
        <ele>74.64</ele>
        <time>2019-03-09T07:28:03Z</time>
      </trkpt>
      <trkpt lat="48.69943" lon="2.13544">
        <ele>75.12</ele>
        <time>2019-03-09T07:28:04Z</time>
      </trkpt>
      <trkpt lat="48.69942" lon="2.13537">
        <ele>75.12</ele>
        <time>2019-03-09T07:28:05Z</time>
      </trkpt>
      <trkpt lat="48.69942" lon="2.13532">
        <ele>75.12</ele>
        <time>2019-03-09T07:28:06Z</time>
      </trkpt>
      <trkpt lat="48.69937" lon="2.135">
        <ele>75.12</ele>
        <time>2019-03-09T07:28:12Z</time>
      </trkpt>
      <trkpt lat="48.69934" lon="2.13495">
        <ele>75.6</ele>
        <time>2019-03-09T07:28:13Z</time>
      </trkpt>
      <trkpt lat="48.69928" lon="2.13485">
        <ele>75.12</ele>
        <time>2019-03-09T07:28:15Z</time>
      </trkpt>
      <trkpt lat="48.69926" lon="2.13479">
        <ele>75.6</ele>
        <time>2019-03-09T07:28:16Z</time>
      </trkpt>
      <trkpt lat="48.69918" lon="2.13457">
        <ele>75.12</ele>
        <time>2019-03-09T07:28:20Z</time>
      </trkpt>
      <trkpt lat="48.69903" lon="2.13417">
        <ele>75.6</ele>
        <time>2019-03-09T07:28:27Z</time>
      </trkpt>
      <trkpt lat="48.69894" lon="2.13402">
        <ele>75.6</ele>
        <time>2019-03-09T07:28:30Z</time>
      </trkpt>
      <trkpt lat="48.69873" lon="2.13376">
        <ele>75.12</ele>
        <time>2019-03-09T07:28:36Z</time>
      </trkpt>
      <trkpt lat="48.69862" lon="2.13364">
        <ele>75.12</ele>
        <time>2019-03-09T07:28:39Z</time>
      </trkpt>
      <trkpt lat="48.69859" lon="2.13359">
        <ele>75.12</ele>
        <time>2019-03-09T07:28:40Z</time>
      </trkpt>
      <trkpt lat="48.69857" lon="2.13354">
        <ele>75.12</ele>
        <time>2019-03-09T07:28:41Z</time>
      </trkpt>
      <trkpt lat="48.69857" lon="2.13346">
        <ele>75.6</ele>
        <time>2019-03-09T07:28:42Z</time>
      </trkpt>
      <trkpt lat="48.69857" lon="2.13339">
        <ele>75.6</ele>
        <time>2019-03-09T07:28:43Z</time>
      </trkpt>
      <trkpt lat="48.69859" lon="2.13332">
        <ele>75.6</ele>
        <time>2019-03-09T07:28:44Z</time>
      </trkpt>
      <trkpt lat="48.6986" lon="2.13318">
        <ele>75.12</ele>
        <time>2019-03-09T07:28:46Z</time>
      </trkpt>
      <trkpt lat="48.6986" lon="2.13312">
        <ele>75.6</ele>
        <time>2019-03-09T07:28:47Z</time>
      </trkpt>
      <trkpt lat="48.69852" lon="2.13235">
        <ele>76.56</ele>
        <time>2019-03-09T07:28:59Z</time>
      </trkpt>
      <trkpt lat="48.69833" lon="2.13157">
        <ele>76.56</ele>
        <time>2019-03-09T07:29:13Z</time>
      </trkpt>
      <trkpt lat="48.69825" lon="2.13118">
        <ele>77.04</ele>
        <time>2019-03-09T07:29:20Z</time>
      </trkpt>
      <trkpt lat="48.69824" lon="2.13112">
        <ele>77.04</ele>
        <time>2019-03-09T07:29:21Z</time>
      </trkpt>
      <trkpt lat="48.69817" lon="2.13031">
        <ele>76.08</ele>
        <time>2019-03-09T07:29:36Z</time>
      </trkpt>
      <trkpt lat="48.69811" lon="2.13019">
        <ele>76.08</ele>
        <time>2019-03-09T07:29:39Z</time>
      </trkpt>
      <trkpt lat="48.69811" lon="2.13014">
        <ele>76.08</ele>
        <time>2019-03-09T07:29:40Z</time>
      </trkpt>
      <trkpt lat="48.69825" lon="2.12965">
        <ele>76.08</ele>
        <time>2019-03-09T07:29:50Z</time>
      </trkpt>
      <trkpt lat="48.69861" lon="2.12916">
        <ele>75.12</ele>
        <time>2019-03-09T07:30:01Z</time>
      </trkpt>
      <trkpt lat="48.69865" lon="2.12913">
        <ele>75.12</ele>
        <time>2019-03-09T07:30:02Z</time>
      </trkpt>
      <trkpt lat="48.6987" lon="2.12909">
        <ele>74.64</ele>
        <time>2019-03-09T07:30:03Z</time>
      </trkpt>
      <trkpt lat="48.69874" lon="2.12907">
        <ele>75.12</ele>
        <time>2019-03-09T07:30:04Z</time>
      </trkpt>
      <trkpt lat="48.69878" lon="2.12905">
        <ele>74.64</ele>
        <time>2019-03-09T07:30:05Z</time>
      </trkpt>
      <trkpt lat="48.69883" lon="2.12905">
        <ele>74.16</ele>
        <time>2019-03-09T07:30:06Z</time>
      </trkpt>
      <trkpt lat="48.69904" lon="2.12901">
        <ele>75.12</ele>
        <time>2019-03-09T07:30:11Z</time>
      </trkpt>
      <trkpt lat="48.69908" lon="2.12901">
        <ele>75.12</ele>
        <time>2019-03-09T07:30:12Z</time>
      </trkpt>
      <trkpt lat="48.69912" lon="2.12902">
        <ele>75.12</ele>
        <time>2019-03-09T07:30:13Z</time>
      </trkpt>
      <trkpt lat="48.69915" lon="2.12905">
        <ele>75.12</ele>
        <time>2019-03-09T07:30:14Z</time>
      </trkpt>
      <trkpt lat="48.69917" lon="2.12909">
        <ele>75.6</ele>
        <time>2019-03-09T07:30:15Z</time>
      </trkpt>
      <trkpt lat="48.69919" lon="2.12912">
        <ele>75.6</ele>
        <time>2019-03-09T07:30:16Z</time>
      </trkpt>
      <trkpt lat="48.69922" lon="2.12915">
        <ele>76.08</ele>
        <time>2019-03-09T07:30:17Z</time>
      </trkpt>
      <trkpt lat="48.69926" lon="2.12916">
        <ele>75.6</ele>
        <time>2019-03-09T07:30:18Z</time>
      </trkpt>
      <trkpt lat="48.69928" lon="2.12914">
        <ele>76.08</ele>
        <time>2019-03-09T07:30:19Z</time>
      </trkpt>
      <trkpt lat="48.69932" lon="2.12911">
        <ele>75.6</ele>
        <time>2019-03-09T07:30:20Z</time>
      </trkpt>
      <trkpt lat="48.69934" lon="2.12907">
        <ele>75.6</ele>
        <time>2019-03-09T07:30:21Z</time>
      </trkpt>
      <trkpt lat="48.69937" lon="2.12902">
        <ele>76.08</ele>
        <time>2019-03-09T07:30:22Z</time>
      </trkpt>
      <trkpt lat="48.69939" lon="2.12896">
        <ele>76.08</ele>
        <time>2019-03-09T07:30:23Z</time>
      </trkpt>
      <trkpt lat="48.69941" lon="2.12889">
        <ele>76.08</ele>
        <time>2019-03-09T07:30:24Z</time>
      </trkpt>
      <trkpt lat="48.69961" lon="2.12809">
        <ele>75.12</ele>
        <time>2019-03-09T07:30:38Z</time>
      </trkpt>
      <trkpt lat="48.69971" lon="2.1278">
        <ele>75.6</ele>
        <time>2019-03-09T07:30:44Z</time>
      </trkpt>
      <trkpt lat="48.70001" lon="2.12713">
        <ele>75.12</ele>
        <time>2019-03-09T07:30:55Z</time>
      </trkpt>
      <trkpt lat="48.70004" lon="2.12708">
        <ele>75.6</ele>
        <time>2019-03-09T07:30:56Z</time>
      </trkpt>
      <trkpt lat="48.70042" lon="2.12659">
        <ele>76.56</ele>
        <time>2019-03-09T07:31:08Z</time>
      </trkpt>
      <trkpt lat="48.70076" lon="2.12617">
        <ele>76.08</ele>
        <time>2019-03-09T07:31:19Z</time>
      </trkpt>
      <trkpt lat="48.70079" lon="2.12612">
        <ele>75.6</ele>
        <time>2019-03-09T07:31:20Z</time>
      </trkpt>
      <trkpt lat="48.70082" lon="2.12609">
        <ele>75.6</ele>
        <time>2019-03-09T07:31:21Z</time>
      </trkpt>
      <trkpt lat="48.70109" lon="2.1256">
        <ele>76.08</ele>
        <time>2019-03-09T07:31:30Z</time>
      </trkpt>
      <trkpt lat="48.70112" lon="2.12557">
        <ele>76.56</ele>
        <time>2019-03-09T07:31:31Z</time>
      </trkpt>
      <trkpt lat="48.70114" lon="2.12555">
        <ele>77.04</ele>
        <time>2019-03-09T07:31:32Z</time>
      </trkpt>
      <trkpt lat="48.70116" lon="2.12552">
        <ele>77.52</ele>
        <time>2019-03-09T07:31:33Z</time>
      </trkpt>
      <trkpt lat="48.70118" lon="2.1255">
        <ele>77.52</ele>
        <time>2019-03-09T07:31:34Z</time>
      </trkpt>
      <trkpt lat="48.7012" lon="2.12544">
        <ele>77.52</ele>
        <time>2019-03-09T07:31:36Z</time>
      </trkpt>
      <trkpt lat="48.7012" lon="2.12542">
        <ele>78</ele>
        <time>2019-03-09T07:31:37Z</time>
      </trkpt>
      <trkpt lat="48.7012" lon="2.12539">
        <ele>77.52</ele>
        <time>2019-03-09T07:31:38Z</time>
      </trkpt>
      <trkpt lat="48.7012" lon="2.12537">
        <ele>78.48</ele>
        <time>2019-03-09T07:31:39Z</time>
      </trkpt>
      <trkpt lat="48.7012" lon="2.12534">
        <ele>77.04</ele>
        <time>2019-03-09T07:31:40Z</time>
      </trkpt>
      <trkpt lat="48.70119" lon="2.12529">
        <ele>76.56</ele>
        <time>2019-03-09T07:31:41Z</time>
      </trkpt>
      <trkpt lat="48.70109" lon="2.12475">
        <ele>77.04</ele>
        <time>2019-03-09T07:31:53Z</time>
      </trkpt>
      <trkpt lat="48.70119" lon="2.12465">
        <ele>65</ele>
      </trkpt>
      <trkpt lat="48.70134" lon="2.12471">
        <ele>65</ele>
      </trkpt>
      <trkpt lat="48.70147" lon="2.12477">
        <ele>65</ele>
      </trkpt>
      <trkpt lat="48.70161" lon="2.12483">
        <ele>65</ele>
      </trkpt>
      <trkpt lat="48.70174" lon="2.12489">
        <ele>65</ele>
      </trkpt>
      <trkpt lat="48.70188" lon="2.12493">
        <ele>65</ele>
      </trkpt>
      <trkpt lat="48.70203" lon="2.12485">
        <ele>65.00390625</ele>
      </trkpt>
      <trkpt lat="48.70215" lon="2.12473">
        <ele>65</ele>
      </trkpt>
      <trkpt lat="48.70227" lon="2.12461">
        <ele>65</ele>
      </trkpt>
      <trkpt lat="48.70238" lon="2.12446">
        <ele>65</ele>
      </trkpt>
      <trkpt lat="48.70243" lon="2.12438">
        <ele>65</ele>
      </trkpt>
      <trkpt lat="48.70251" lon="2.12421">
        <ele>65</ele>
      </trkpt>
      <trkpt lat="48.70259" lon="2.12403">
        <ele>65.078125</ele>
      </trkpt>
      <trkpt lat="48.70265" lon="2.12382">
        <ele>65.17578125</ele>
      </trkpt>
      <trkpt lat="48.7027" lon="2.12362">
        <ele>65.23046875</ele>
      </trkpt>
      <trkpt lat="48.70275" lon="2.12343">
        <ele>65.18359375</ele>
      </trkpt>
      <trkpt lat="48.70278" lon="2.12323">
        <ele>65.0625</ele>
      </trkpt>
      <trkpt lat="48.70281" lon="2.12304">
        <ele>65</ele>
      </trkpt>
      <trkpt lat="48.70289" lon="2.12286">
        <ele>65</ele>
      </trkpt>
      <trkpt lat="48.70301" lon="2.12274">
        <ele>65</ele>
      </trkpt>
      <trkpt lat="48.70312" lon="2.12261">
        <ele>65.0546875</ele>
      </trkpt>
      <trkpt lat="48.70317" lon="2.12241">
        <ele>65.2890625</ele>
      </trkpt>
      <trkpt lat="48.70315" lon="2.1222">
        <ele>65.203125</ele>
      </trkpt>
      <trkpt lat="48.70309" lon="2.12198">
        <ele>64.99609375</ele>
      </trkpt>
      <trkpt lat="48.70305" lon="2.12177">
        <ele>64.953125</ele>
      </trkpt>
      <trkpt lat="48.703" lon="2.12155">
        <ele>64.83203125</ele>
      </trkpt>
      <trkpt lat="48.70294" lon="2.12136">
        <ele>64.87109375</ele>
      </trkpt>
      <trkpt lat="48.7029" lon="2.12118">
        <ele>64.984375</ele>
      </trkpt>
      <trkpt lat="48.70288" lon="2.12099">
        <ele>65.1171875</ele>
      </trkpt>
      <trkpt lat="48.70288" lon="2.12079">
        <ele>65.1796875</ele>
      </trkpt>
      <trkpt lat="48.70288" lon="2.1206">
        <ele>65.1796875</ele>
      </trkpt>
      <trkpt lat="48.70288" lon="2.12039">
        <ele>65.1796875</ele>
      </trkpt>
      <trkpt lat="48.70286" lon="2.12019">
        <ele>65.2734375</ele>
      </trkpt>
      <trkpt lat="48.70281" lon="2.11998">
        <ele>65.31640625</ele>
      </trkpt>
      <trkpt lat="48.70271" lon="2.11982">
        <ele>65.296875</ele>
      </trkpt>
      <trkpt lat="48.70261" lon="2.11966">
        <ele>65.1640625</ele>
      </trkpt>
      <trkpt lat="48.70253" lon="2.11951">
        <ele>64.98046875</ele>
      </trkpt>
      <trkpt lat="48.70246" lon="2.11933">
        <ele>64.98046875</ele>
      </trkpt>
      <trkpt lat="48.70243" lon="2.11912">
        <ele>65.20703125</ele>
      </trkpt>
      <trkpt lat="48.70239" lon="2.11892">
        <ele>65.4375</ele>
      </trkpt>
      <trkpt lat="48.70231" lon="2.11875">
        <ele>65.53125</ele>
      </trkpt>
      <trkpt lat="48.7022" lon="2.11859">
        <ele>65.45703125</ele>
      </trkpt>
      <trkpt lat="48.70211" lon="2.11844">
        <ele>65.30859375</ele>
      </trkpt>
      <trkpt lat="48.70203" lon="2.11826">
        <ele>65.109375</ele>
      </trkpt>
      <trkpt lat="48.70205" lon="2.11824">
        <ele>65.19921875</ele>
      </trkpt>
      <trkpt lat="48.70199" lon="2.11807">
        <ele>65</ele>
      </trkpt>
      <trkpt lat="48.70192" lon="2.11789">
        <ele>65</ele>
      </trkpt>
      <trkpt lat="48.70185" lon="2.1177">
        <ele>65</ele>
      </trkpt>
      <trkpt lat="48.70172" lon="2.11762">
        <ele>65</ele>
      </trkpt>
      <trkpt lat="48.70162" lon="2.11746">
        <ele>65.328125</ele>
      </trkpt>
      <trkpt lat="48.70149" lon="2.11744">
        <ele>65.3046875</ele>
      </trkpt>
      <trkpt lat="48.70135" lon="2.11748">
        <ele>65.2109375</ele>
      </trkpt>
      <trkpt lat="48.70122" lon="2.11752">
        <ele>65.140625</ele>
      </trkpt>
      <trkpt lat="48.70106" lon="2.11752">
        <ele>65.140625</ele>
      </trkpt>
      <trkpt lat="48.70092" lon="2.11754">
        <ele>65.10546875</ele>
      </trkpt>
      <trkpt lat="48.70079" lon="2.11752">
        <ele>66</ele>
      </trkpt>
      <trkpt lat="48.70062" lon="2.11764">
        <ele>76.08</ele>
        <time>2019-03-09T07:34:08Z</time>
      </trkpt>
      <trkpt lat="48.70061" lon="2.11758">
        <ele>76.56</ele>
        <time>2019-03-09T07:34:09Z</time>
      </trkpt>
      <trkpt lat="48.7006" lon="2.11752">
        <ele>77.04</ele>
        <time>2019-03-09T07:34:10Z</time>
      </trkpt>
      <trkpt lat="48.70059" lon="2.11746">
        <ele>76.08</ele>
        <time>2019-03-09T07:34:11Z</time>
      </trkpt>
      <trkpt lat="48.70059" lon="2.1174">
        <ele>76.56</ele>
        <time>2019-03-09T07:34:12Z</time>
      </trkpt>
      <trkpt lat="48.70059" lon="2.11735">
        <ele>76.56</ele>
        <time>2019-03-09T07:34:13Z</time>
      </trkpt>
      <trkpt lat="48.70059" lon="2.1173">
        <ele>76.56</ele>
        <time>2019-03-09T07:34:14Z</time>
      </trkpt>
      <trkpt lat="48.70061" lon="2.11725">
        <ele>76.56</ele>
        <time>2019-03-09T07:34:15Z</time>
      </trkpt>
      <trkpt lat="48.70063" lon="2.11719">
        <ele>76.08</ele>
        <time>2019-03-09T07:34:16Z</time>
      </trkpt>
      <trkpt lat="48.70065" lon="2.11713">
        <ele>76.08</ele>
        <time>2019-03-09T07:34:17Z</time>
      </trkpt>
      <trkpt lat="48.70066" lon="2.11707">
        <ele>76.56</ele>
        <time>2019-03-09T07:34:18Z</time>
      </trkpt>
      <trkpt lat="48.70081" lon="2.11642">
        <ele>76.08</ele>
        <time>2019-03-09T07:34:29Z</time>
      </trkpt>
      <trkpt lat="48.70095" lon="2.11594">
        <ele>76.56</ele>
        <time>2019-03-09T07:34:37Z</time>
      </trkpt>
      <trkpt lat="48.70097" lon="2.11588">
        <ele>76.56</ele>
        <time>2019-03-09T07:34:38Z</time>
      </trkpt>
      <trkpt lat="48.70102" lon="2.11564">
        <ele>76.56</ele>
        <time>2019-03-09T07:34:42Z</time>
      </trkpt>
      <trkpt lat="48.70103" lon="2.11557">
        <ele>76.56</ele>
        <time>2019-03-09T07:34:43Z</time>
      </trkpt>
      <trkpt lat="48.70108" lon="2.11525">
        <ele>76.08</ele>
        <time>2019-03-09T07:34:48Z</time>
      </trkpt>
      <trkpt lat="48.70108" lon="2.11518">
        <ele>76.08</ele>
        <time>2019-03-09T07:34:49Z</time>
      </trkpt>
      <trkpt lat="48.70111" lon="2.11486">
        <ele>76.08</ele>
        <time>2019-03-09T07:34:54Z</time>
      </trkpt>
      <trkpt lat="48.70119" lon="2.11446">
        <ele>75.6</ele>
        <time>2019-03-09T07:35:01Z</time>
      </trkpt>
      <trkpt lat="48.70121" lon="2.11443">
        <ele>76.08</ele>
        <time>2019-03-09T07:35:02Z</time>
      </trkpt>
      <trkpt lat="48.70125" lon="2.11442">
        <ele>75.6</ele>
        <time>2019-03-09T07:35:03Z</time>
      </trkpt>
      <trkpt lat="48.70128" lon="2.11444">
        <ele>75.6</ele>
        <time>2019-03-09T07:35:04Z</time>
      </trkpt>
      <trkpt lat="48.70131" lon="2.11445">
        <ele>76.08</ele>
        <time>2019-03-09T07:35:05Z</time>
      </trkpt>
      <trkpt lat="48.70172" lon="2.11466">
        <ele>76.08</ele>
        <time>2019-03-09T07:35:17Z</time>
      </trkpt>
      <trkpt lat="48.70205" lon="2.11474">
        <ele>77.04</ele>
        <time>2019-03-09T07:35:26Z</time>
      </trkpt>
      <trkpt lat="48.70207" lon="2.11472">
        <ele>76.56</ele>
        <time>2019-03-09T07:35:27Z</time>
      </trkpt>
      <trkpt lat="48.70209" lon="2.1147">
        <ele>77.04</ele>
        <time>2019-03-09T07:35:28Z</time>
      </trkpt>
      <trkpt lat="48.70214" lon="2.11457">
        <ele>77.04</ele>
        <time>2019-03-09T07:35:31Z</time>
      </trkpt>
      <trkpt lat="48.70217" lon="2.11449">
        <ele>77.04</ele>
        <time>2019-03-09T07:35:32Z</time>
      </trkpt>
      <trkpt lat="48.7023" lon="2.11413">
        <ele>77.04</ele>
        <time>2019-03-09T07:35:37Z</time>
      </trkpt>
      <trkpt lat="48.70253" lon="2.1133">
        <ele>76.56</ele>
        <time>2019-03-09T07:35:50Z</time>
      </trkpt>
      <trkpt lat="48.70259" lon="2.11285">
        <ele>76.56</ele>
        <time>2019-03-09T07:35:58Z</time>
      </trkpt>
      <trkpt lat="48.70261" lon="2.11279">
        <ele>76.56</ele>
        <time>2019-03-09T07:35:59Z</time>
      </trkpt>
      <trkpt lat="48.70264" lon="2.11276">
        <ele>76.56</ele>
        <time>2019-03-09T07:36:00Z</time>
      </trkpt>
      <trkpt lat="48.70267" lon="2.11273">
        <ele>76.56</ele>
        <time>2019-03-09T07:36:02Z</time>
      </trkpt>
      <trkpt lat="48.70268" lon="2.11271">
        <ele>76.56</ele>
        <time>2019-03-09T07:36:03Z</time>
      </trkpt>
      <trkpt lat="48.70268" lon="2.11268">
        <ele>77.04</ele>
        <time>2019-03-09T07:36:04Z</time>
      </trkpt>
      <trkpt lat="48.70268" lon="2.11266">
        <ele>77.04</ele>
        <time>2019-03-09T07:36:05Z</time>
      </trkpt>
      <trkpt lat="48.70268" lon="2.11263">
        <ele>76.56</ele>
        <time>2019-03-09T07:36:06Z</time>
      </trkpt>
      <trkpt lat="48.70269" lon="2.11259">
        <ele>76.56</ele>
        <time>2019-03-09T07:36:07Z</time>
      </trkpt>
      <trkpt lat="48.7027" lon="2.11255">
        <ele>76.56</ele>
        <time>2019-03-09T07:36:08Z</time>
      </trkpt>
      <trkpt lat="48.7027" lon="2.11251">
        <ele>77.04</ele>
        <time>2019-03-09T07:36:09Z</time>
      </trkpt>
      <trkpt lat="48.7027" lon="2.11246">
        <ele>77.04</ele>
        <time>2019-03-09T07:36:10Z</time>
      </trkpt>
      <trkpt lat="48.70269" lon="2.11242">
        <ele>77.04</ele>
        <time>2019-03-09T07:36:11Z</time>
      </trkpt>
      <trkpt lat="48.70269" lon="2.11238">
        <ele>77.04</ele>
        <time>2019-03-09T07:36:12Z</time>
      </trkpt>
      <trkpt lat="48.70268" lon="2.11233">
        <ele>77.52</ele>
        <time>2019-03-09T07:36:13Z</time>
      </trkpt>
      <trkpt lat="48.70268" lon="2.11228">
        <ele>77.52</ele>
        <time>2019-03-09T07:36:14Z</time>
      </trkpt>
      <trkpt lat="48.70267" lon="2.11223">
        <ele>77.04</ele>
        <time>2019-03-09T07:36:15Z</time>
      </trkpt>
      <trkpt lat="48.70266" lon="2.11219">
        <ele>77.04</ele>
        <time>2019-03-09T07:36:16Z</time>
      </trkpt>
      <trkpt lat="48.70269" lon="2.11171">
        <ele>77.04</ele>
        <time>2019-03-09T07:36:25Z</time>
      </trkpt>
      <trkpt lat="48.70279" lon="2.11149">
        <ele>77.52</ele>
        <time>2019-03-09T07:36:29Z</time>
      </trkpt>
      <trkpt lat="48.70277" lon="2.11147">
        <ele>77.52</ele>
        <time>2019-03-09T07:36:30Z</time>
      </trkpt>
      <trkpt lat="48.7027" lon="2.11138">
        <ele>77.04</ele>
        <time>2019-03-09T07:36:34Z</time>
      </trkpt>
      <trkpt lat="48.70245" lon="2.11142">
        <ele>76.56</ele>
        <time>2019-03-09T07:36:41Z</time>
      </trkpt>
      <trkpt lat="48.70242" lon="2.1114">
        <ele>77.04</ele>
        <time>2019-03-09T07:36:42Z</time>
      </trkpt>
      <trkpt lat="48.7024" lon="2.11137">
        <ele>76.56</ele>
        <time>2019-03-09T07:36:43Z</time>
      </trkpt>
      <trkpt lat="48.70238" lon="2.11134">
        <ele>76.08</ele>
        <time>2019-03-09T07:36:44Z</time>
      </trkpt>
      <trkpt lat="48.70237" lon="2.11131">
        <ele>76.08</ele>
        <time>2019-03-09T07:36:45Z</time>
      </trkpt>
      <trkpt lat="48.70237" lon="2.11126">
        <ele>76.08</ele>
        <time>2019-03-09T07:36:46Z</time>
      </trkpt>
      <trkpt lat="48.70238" lon="2.11121">
        <ele>76.08</ele>
        <time>2019-03-09T07:36:47Z</time>
      </trkpt>
      <trkpt lat="48.70239" lon="2.11116">
        <ele>76.08</ele>
        <time>2019-03-09T07:36:48Z</time>
      </trkpt>
      <trkpt lat="48.7024" lon="2.11111">
        <ele>76.08</ele>
        <time>2019-03-09T07:36:49Z</time>
      </trkpt>
      <trkpt lat="48.70241" lon="2.11105">
        <ele>76.56</ele>
        <time>2019-03-09T07:36:50Z</time>
      </trkpt>
      <trkpt lat="48.70241" lon="2.111">
        <ele>76.56</ele>
        <time>2019-03-09T07:36:51Z</time>
      </trkpt>
      <trkpt lat="48.70241" lon="2.11094">
        <ele>76.08</ele>
        <time>2019-03-09T07:36:52Z</time>
      </trkpt>
      <trkpt lat="48.70239" lon="2.11089">
        <ele>76.56</ele>
        <time>2019-03-09T07:36:53Z</time>
      </trkpt>
      <trkpt lat="48.70237" lon="2.11084">
        <ele>76.08</ele>
        <time>2019-03-09T07:36:54Z</time>
      </trkpt>
      <trkpt lat="48.70234" lon="2.11081">
        <ele>76.08</ele>
        <time>2019-03-09T07:36:55Z</time>
      </trkpt>
      <trkpt lat="48.7023" lon="2.11078">
        <ele>76.08</ele>
        <time>2019-03-09T07:36:56Z</time>
      </trkpt>
      <trkpt lat="48.70228" lon="2.11072">
        <ele>76.08</ele>
        <time>2019-03-09T07:36:57Z</time>
      </trkpt>
      <trkpt lat="48.70225" lon="2.11068">
        <ele>76.08</ele>
        <time>2019-03-09T07:36:58Z</time>
      </trkpt>
      <trkpt lat="48.70222" lon="2.11064">
        <ele>76.08</ele>
        <time>2019-03-09T07:36:59Z</time>
      </trkpt>
      <trkpt lat="48.70219" lon="2.1106">
        <ele>76.08</ele>
        <time>2019-03-09T07:37:00Z</time>
      </trkpt>
      <trkpt lat="48.70217" lon="2.11055">
        <ele>76.08</ele>
        <time>2019-03-09T07:37:01Z</time>
      </trkpt>
      <trkpt lat="48.70215" lon="2.1105">
        <ele>76.08</ele>
        <time>2019-03-09T07:37:02Z</time>
      </trkpt>
      <trkpt lat="48.70203" lon="2.11037">
        <ele>76.56</ele>
        <time>2019-03-09T07:37:06Z</time>
      </trkpt>
      <trkpt lat="48.70201" lon="2.11034">
        <ele>77.04</ele>
        <time>2019-03-09T07:37:08Z</time>
      </trkpt>
      <trkpt lat="48.702" lon="2.11031">
        <ele>76.56</ele>
        <time>2019-03-09T07:37:09Z</time>
      </trkpt>
      <trkpt lat="48.70199" lon="2.11026">
        <ele>77.04</ele>
        <time>2019-03-09T07:37:10Z</time>
      </trkpt>
      <trkpt lat="48.70199" lon="2.11017">
        <ele>77.04</ele>
        <time>2019-03-09T07:37:12Z</time>
      </trkpt>
      <trkpt lat="48.702" lon="2.11012">
        <ele>77.04</ele>
        <time>2019-03-09T07:37:13Z</time>
      </trkpt>
      <trkpt lat="48.70201" lon="2.11007">
        <ele>77.04</ele>
        <time>2019-03-09T07:37:14Z</time>
      </trkpt>
      <trkpt lat="48.70203" lon="2.11002">
        <ele>77.04</ele>
        <time>2019-03-09T07:37:15Z</time>
      </trkpt>
      <trkpt lat="48.70204" lon="2.10996">
        <ele>77.04</ele>
        <time>2019-03-09T07:37:16Z</time>
      </trkpt>
      <trkpt lat="48.70205" lon="2.1099">
        <ele>77.04</ele>
        <time>2019-03-09T07:37:17Z</time>
      </trkpt>
      <trkpt lat="48.70206" lon="2.10982">
        <ele>76.56</ele>
        <time>2019-03-09T07:37:18Z</time>
      </trkpt>
      <trkpt lat="48.70223" lon="2.10914">
        <ele>77.04</ele>
        <time>2019-03-09T07:37:29Z</time>
      </trkpt>
      <trkpt lat="48.70224" lon="2.10908">
        <ele>76.56</ele>
        <time>2019-03-09T07:37:30Z</time>
      </trkpt>
      <trkpt lat="48.70225" lon="2.10901">
        <ele>76.56</ele>
        <time>2019-03-09T07:37:31Z</time>
      </trkpt>
      <trkpt lat="48.70234" lon="2.10862">
        <ele>76.08</ele>
        <time>2019-03-09T07:37:37Z</time>
      </trkpt>
      <trkpt lat="48.70235" lon="2.10855">
        <ele>76.56</ele>
        <time>2019-03-09T07:37:38Z</time>
      </trkpt>
      <trkpt lat="48.70236" lon="2.10848">
        <ele>76.56</ele>
        <time>2019-03-09T07:37:39Z</time>
      </trkpt>
      <trkpt lat="48.70237" lon="2.10842">
        <ele>76.56</ele>
        <time>2019-03-09T07:37:40Z</time>
      </trkpt>
      <trkpt lat="48.70238" lon="2.10836">
        <ele>76.56</ele>
        <time>2019-03-09T07:37:41Z</time>
      </trkpt>
      <trkpt lat="48.7024" lon="2.1083">
        <ele>77.04</ele>
        <time>2019-03-09T07:37:42Z</time>
      </trkpt>
      <trkpt lat="48.70244" lon="2.10818">
        <ele>77.04</ele>
        <time>2019-03-09T07:37:44Z</time>
      </trkpt>
      <trkpt lat="48.70245" lon="2.10812">
        <ele>76.56</ele>
        <time>2019-03-09T07:37:45Z</time>
      </trkpt>
      <trkpt lat="48.70247" lon="2.10806">
        <ele>77.04</ele>
        <time>2019-03-09T07:37:46Z</time>
      </trkpt>
      <trkpt lat="48.70247" lon="2.108">
        <ele>77.52</ele>
        <time>2019-03-09T07:37:47Z</time>
      </trkpt>
      <trkpt lat="48.70248" lon="2.10794">
        <ele>76.56</ele>
        <time>2019-03-09T07:37:48Z</time>
      </trkpt>
      <trkpt lat="48.7025" lon="2.10776">
        <ele>77.04</ele>
        <time>2019-03-09T07:37:51Z</time>
      </trkpt>
      <trkpt lat="48.70252" lon="2.1077">
        <ele>77.04</ele>
        <time>2019-03-09T07:37:52Z</time>
      </trkpt>
      <trkpt lat="48.70253" lon="2.10765">
        <ele>77.52</ele>
        <time>2019-03-09T07:37:53Z</time>
      </trkpt>
      <trkpt lat="48.70254" lon="2.1076">
        <ele>77.04</ele>
        <time>2019-03-09T07:37:54Z</time>
      </trkpt>
      <trkpt lat="48.70255" lon="2.10754">
        <ele>77.04</ele>
        <time>2019-03-09T07:37:55Z</time>
      </trkpt>
      <trkpt lat="48.70256" lon="2.10748">
        <ele>77.04</ele>
        <time>2019-03-09T07:37:56Z</time>
      </trkpt>
      <trkpt lat="48.70256" lon="2.10741">
        <ele>77.52</ele>
        <time>2019-03-09T07:37:57Z</time>
      </trkpt>
      <trkpt lat="48.70255" lon="2.10735">
        <ele>77.04</ele>
        <time>2019-03-09T07:37:58Z</time>
      </trkpt>
      <trkpt lat="48.70254" lon="2.1073">
        <ele>77.04</ele>
        <time>2019-03-09T07:37:59Z</time>
      </trkpt>
      <trkpt lat="48.70251" lon="2.10667">
        <ele>78</ele>
        <time>2019-03-09T07:38:12Z</time>
      </trkpt>
      <trkpt lat="48.70242" lon="2.10627">
        <ele>78.48</ele>
        <time>2019-03-09T07:38:22Z</time>
      </trkpt>
      <trkpt lat="48.70226" lon="2.10584">
        <ele>77.52</ele>
        <time>2019-03-09T07:38:31Z</time>
      </trkpt>
      <trkpt lat="48.70219" lon="2.10532">
        <ele>78</ele>
        <time>2019-03-09T07:38:39Z</time>
      </trkpt>
      <trkpt lat="48.70218" lon="2.10526">
        <ele>77.52</ele>
        <time>2019-03-09T07:38:40Z</time>
      </trkpt>
      <trkpt lat="48.70217" lon="2.10519">
        <ele>78</ele>
        <time>2019-03-09T07:38:41Z</time>
      </trkpt>
      <trkpt lat="48.70215" lon="2.10514">
        <ele>78</ele>
        <time>2019-03-09T07:38:42Z</time>
      </trkpt>
      <trkpt lat="48.70201" lon="2.10446">
        <ele>78.48</ele>
        <time>2019-03-09T07:38:53Z</time>
      </trkpt>
      <trkpt lat="48.70184" lon="2.10382">
        <ele>78</ele>
        <time>2019-03-09T07:39:04Z</time>
      </trkpt>
      <trkpt lat="48.70188" lon="2.10369">
        <ele>78.48</ele>
        <time>2019-03-09T07:39:05Z</time>
      </trkpt>
      <trkpt lat="48.7019" lon="2.10361">
        <ele>78</ele>
        <time>2019-03-09T07:39:06Z</time>
      </trkpt>
      <trkpt lat="48.70194" lon="2.10345">
        <ele>78</ele>
        <time>2019-03-09T07:39:08Z</time>
      </trkpt>
      <trkpt lat="48.70201" lon="2.10327">
        <ele>78.48</ele>
        <time>2019-03-09T07:39:11Z</time>
      </trkpt>
      <trkpt lat="48.70205" lon="2.10321">
        <ele>78.48</ele>
        <time>2019-03-09T07:39:12Z</time>
      </trkpt>
      <trkpt lat="48.70216" lon="2.10294">
        <ele>78</ele>
        <time>2019-03-09T07:39:16Z</time>
      </trkpt>
      <trkpt lat="48.7022" lon="2.10281">
        <ele>78.48</ele>
        <time>2019-03-09T07:39:18Z</time>
      </trkpt>
      <trkpt lat="48.70221" lon="2.10273">
        <ele>78</ele>
        <time>2019-03-09T07:39:19Z</time>
      </trkpt>
      <trkpt lat="48.70223" lon="2.10267">
        <ele>78.48</ele>
        <time>2019-03-09T07:39:20Z</time>
      </trkpt>
      <trkpt lat="48.70226" lon="2.10261">
        <ele>78.48</ele>
        <time>2019-03-09T07:39:21Z</time>
      </trkpt>
      <trkpt lat="48.70229" lon="2.10255">
        <ele>78.48</ele>
        <time>2019-03-09T07:39:22Z</time>
      </trkpt>
      <trkpt lat="48.70232" lon="2.1025">
        <ele>78.48</ele>
        <time>2019-03-09T07:39:23Z</time>
      </trkpt>
      <trkpt lat="48.70234" lon="2.10245">
        <ele>78.97</ele>
        <time>2019-03-09T07:39:24Z</time>
      </trkpt>
      <trkpt lat="48.70236" lon="2.10239">
        <ele>78.48</ele>
        <time>2019-03-09T07:39:25Z</time>
      </trkpt>
      <trkpt lat="48.70237" lon="2.10233">
        <ele>78.48</ele>
        <time>2019-03-09T07:39:26Z</time>
      </trkpt>
      <trkpt lat="48.70237" lon="2.10228">
        <ele>78.48</ele>
        <time>2019-03-09T07:39:27Z</time>
      </trkpt>
      <trkpt lat="48.70236" lon="2.10221">
        <ele>78</ele>
        <time>2019-03-09T07:39:28Z</time>
      </trkpt>
      <trkpt lat="48.70237" lon="2.10188">
        <ele>78.97</ele>
        <time>2019-03-09T07:39:34Z</time>
      </trkpt>
      <trkpt lat="48.70235" lon="2.10183">
        <ele>79.45</ele>
        <time>2019-03-09T07:39:35Z</time>
      </trkpt>
      <trkpt lat="48.70234" lon="2.10178">
        <ele>79.45</ele>
        <time>2019-03-09T07:39:36Z</time>
      </trkpt>
      <trkpt lat="48.70226" lon="2.10152">
        <ele>79.45</ele>
        <time>2019-03-09T07:39:41Z</time>
      </trkpt>
      <trkpt lat="48.70227" lon="2.10147">
        <ele>79.93</ele>
        <time>2019-03-09T07:39:42Z</time>
      </trkpt>
      <trkpt lat="48.70229" lon="2.10142">
        <ele>78.97</ele>
        <time>2019-03-09T07:39:43Z</time>
      </trkpt>
      <trkpt lat="48.70233" lon="2.10132">
        <ele>78.97</ele>
        <time>2019-03-09T07:39:45Z</time>
      </trkpt>
      <trkpt lat="48.70234" lon="2.10127">
        <ele>78.97</ele>
        <time>2019-03-09T07:39:46Z</time>
      </trkpt>
      <trkpt lat="48.70233" lon="2.10123">
        <ele>79.45</ele>
        <time>2019-03-09T07:39:47Z</time>
      </trkpt>
      <trkpt lat="48.70232" lon="2.10119">
        <ele>79.45</ele>
        <time>2019-03-09T07:39:48Z</time>
      </trkpt>
      <trkpt lat="48.7023" lon="2.10118">
        <ele>78.97</ele>
        <time>2019-03-09T07:39:49Z</time>
      </trkpt>
      <trkpt lat="48.70227" lon="2.10116">
        <ele>79.45</ele>
        <time>2019-03-09T07:39:50Z</time>
      </trkpt>
      <trkpt lat="48.70225" lon="2.10114">
        <ele>79.45</ele>
        <time>2019-03-09T07:39:51Z</time>
      </trkpt>
      <trkpt lat="48.70211" lon="2.10096">
        <ele>79.93</ele>
        <time>2019-03-09T07:40:01Z</time>
      </trkpt>
      <trkpt lat="48.7021" lon="2.10092">
        <ele>79.93</ele>
        <time>2019-03-09T07:40:02Z</time>
      </trkpt>
      <trkpt lat="48.70208" lon="2.10089">
        <ele>79.93</ele>
        <time>2019-03-09T07:40:03Z</time>
      </trkpt>
      <trkpt lat="48.70205" lon="2.10086">
        <ele>79.45</ele>
        <time>2019-03-09T07:40:04Z</time>
      </trkpt>
      <trkpt lat="48.70202" lon="2.10082">
        <ele>79.93</ele>
        <time>2019-03-09T07:40:05Z</time>
      </trkpt>
      <trkpt lat="48.70199" lon="2.10077">
        <ele>79.93</ele>
        <time>2019-03-09T07:40:06Z</time>
      </trkpt>
      <trkpt lat="48.70177" lon="2.10038">
        <ele>83.29</ele>
        <time>2019-03-09T07:40:17Z</time>
      </trkpt>
      <trkpt lat="48.70151" lon="2.10025">
        <ele>83.29</ele>
        <time>2019-03-09T07:40:26Z</time>
      </trkpt>
      <trkpt lat="48.70145" lon="2.10027">
        <ele>83.77</ele>
        <time>2019-03-09T07:40:28Z</time>
      </trkpt>
      <trkpt lat="48.70143" lon="2.10025">
        <ele>83.77</ele>
        <time>2019-03-09T07:40:29Z</time>
      </trkpt>
      <trkpt lat="48.70141" lon="2.10022">
        <ele>83.29</ele>
        <time>2019-03-09T07:40:30Z</time>
      </trkpt>
      <trkpt lat="48.7014" lon="2.10018">
        <ele>83.29</ele>
        <time>2019-03-09T07:40:31Z</time>
      </trkpt>
      <trkpt lat="48.7014" lon="2.10014">
        <ele>84.25</ele>
        <time>2019-03-09T07:40:32Z</time>
      </trkpt>
      <trkpt lat="48.70135" lon="2.09977">
        <ele>86.18</ele>
        <time>2019-03-09T07:40:41Z</time>
      </trkpt>
      <trkpt lat="48.70135" lon="2.09972">
        <ele>86.66</ele>
        <time>2019-03-09T07:40:42Z</time>
      </trkpt>
      <trkpt lat="48.70134" lon="2.09968">
        <ele>86.18</ele>
        <time>2019-03-09T07:40:43Z</time>
      </trkpt>
      <trkpt lat="48.70133" lon="2.09964">
        <ele>86.66</ele>
        <time>2019-03-09T07:40:44Z</time>
      </trkpt>
      <trkpt lat="48.70131" lon="2.0996">
        <ele>87.14</ele>
        <time>2019-03-09T07:40:45Z</time>
      </trkpt>
      <trkpt lat="48.70129" lon="2.09957">
        <ele>87.14</ele>
        <time>2019-03-09T07:40:46Z</time>
      </trkpt>
      <trkpt lat="48.70113" lon="2.09949">
        <ele>88.1</ele>
        <time>2019-03-09T07:41:07Z</time>
      </trkpt>
      <trkpt lat="48.70109" lon="2.09943">
        <ele>88.58</ele>
        <time>2019-03-09T07:42:27Z</time>
      </trkpt>
      <trkpt lat="48.70108" lon="2.09944">
        <ele>88.58</ele>
        <time>2019-03-09T07:42:28Z</time>
      </trkpt>
      <trkpt lat="48.70107" lon="2.09947">
        <ele>88.58</ele>
        <time>2019-03-09T07:42:29Z</time>
      </trkpt>
      <trkpt lat="48.70107" lon="2.0995">
        <ele>88.58</ele>
        <time>2019-03-09T07:42:30Z</time>
      </trkpt>
      <trkpt lat="48.70106" lon="2.09954">
        <ele>88.1</ele>
        <time>2019-03-09T07:42:31Z</time>
      </trkpt>
      <trkpt lat="48.70105" lon="2.09957">
        <ele>88.58</ele>
        <time>2019-03-09T07:42:32Z</time>
      </trkpt>
      <trkpt lat="48.70104" lon="2.09959">
        <ele>88.1</ele>
        <time>2019-03-09T07:42:33Z</time>
      </trkpt>
      <trkpt lat="48.70101" lon="2.09958">
        <ele>88.1</ele>
        <time>2019-03-09T07:42:35Z</time>
      </trkpt>
      <trkpt lat="48.701" lon="2.09957">
        <ele>88.1</ele>
        <time>2019-03-09T07:42:36Z</time>
      </trkpt>
      <trkpt lat="48.70098" lon="2.09952">
        <ele>88.1</ele>
        <time>2019-03-09T07:42:38Z</time>
      </trkpt>
      <trkpt lat="48.70097" lon="2.09949">
        <ele>87.14</ele>
        <time>2019-03-09T07:42:39Z</time>
      </trkpt>
      <trkpt lat="48.70095" lon="2.09947">
        <ele>86.66</ele>
        <time>2019-03-09T07:42:40Z</time>
      </trkpt>
      <trkpt lat="48.70094" lon="2.09945">
        <ele>86.66</ele>
        <time>2019-03-09T07:42:41Z</time>
      </trkpt>
      <trkpt lat="48.70093" lon="2.09944">
        <ele>86.66</ele>
        <time>2019-03-09T07:42:42Z</time>
      </trkpt>
      <trkpt lat="48.70087" lon="2.0994">
        <ele>86.18</ele>
        <time>2019-03-09T07:42:47Z</time>
      </trkpt>
      <trkpt lat="48.70085" lon="2.09942">
        <ele>85.69</ele>
        <time>2019-03-09T07:42:48Z</time>
      </trkpt>
      <trkpt lat="48.70084" lon="2.09943">
        <ele>87.14</ele>
        <time>2019-03-09T07:42:49Z</time>
      </trkpt>
      <trkpt lat="48.7008" lon="2.09931">
        <ele>89.54</ele>
        <time>2019-03-09T07:43:03Z</time>
      </trkpt>
      <trkpt lat="48.7008" lon="2.09923">
        <ele>90.02</ele>
        <time>2019-03-09T07:43:09Z</time>
      </trkpt>
      <trkpt lat="48.70078" lon="2.09921">
        <ele>89.54</ele>
        <time>2019-03-09T07:43:10Z</time>
      </trkpt>
      <trkpt lat="48.70077" lon="2.09921">
        <ele>90.02</ele>
        <time>2019-03-09T07:43:11Z</time>
      </trkpt>
      <trkpt lat="48.70056" lon="2.09915">
        <ele>91.94</ele>
        <time>2019-03-09T07:43:25Z</time>
      </trkpt>
      <trkpt lat="48.70054" lon="2.09914">
        <ele>91.46</ele>
        <time>2019-03-09T07:43:26Z</time>
      </trkpt>
      <trkpt lat="48.70045" lon="2.09913">
        <ele>91.94</ele>
        <time>2019-03-09T07:43:32Z</time>
      </trkpt>
      <trkpt lat="48.70043" lon="2.09913">
        <ele>92.9</ele>
        <time>2019-03-09T07:43:33Z</time>
      </trkpt>
      <trkpt lat="48.70041" lon="2.09912">
        <ele>92.9</ele>
        <time>2019-03-09T07:43:34Z</time>
      </trkpt>
      <trkpt lat="48.70024" lon="2.09908">
        <ele>95.31</ele>
        <time>2019-03-09T07:43:45Z</time>
      </trkpt>
      <trkpt lat="48.70006" lon="2.09897">
        <ele>97.71</ele>
        <time>2019-03-09T07:43:56Z</time>
      </trkpt>
      <trkpt lat="48.6998" lon="2.09883">
        <ele>99.63</ele>
        <time>2019-03-09T07:44:10Z</time>
      </trkpt>
      <trkpt lat="48.6997" lon="2.09874">
        <ele>100.11</ele>
        <time>2019-03-09T07:44:16Z</time>
      </trkpt>
      <trkpt lat="48.69969" lon="2.09871">
        <ele>100.11</ele>
        <time>2019-03-09T07:44:17Z</time>
      </trkpt>
      <trkpt lat="48.69969" lon="2.09868">
        <ele>100.11</ele>
        <time>2019-03-09T07:44:18Z</time>
      </trkpt>
      <trkpt lat="48.69969" lon="2.09864">
        <ele>100.6</ele>
        <time>2019-03-09T07:44:19Z</time>
      </trkpt>
      <trkpt lat="48.6997" lon="2.09861">
        <ele>100.11</ele>
        <time>2019-03-09T07:44:20Z</time>
      </trkpt>
      <trkpt lat="48.69971" lon="2.09857">
        <ele>100.6</ele>
        <time>2019-03-09T07:44:21Z</time>
      </trkpt>
      <trkpt lat="48.69972" lon="2.09854">
        <ele>100.11</ele>
        <time>2019-03-09T07:44:22Z</time>
      </trkpt>
      <trkpt lat="48.69987" lon="2.0979">
        <ele>102.52</ele>
        <time>2019-03-09T07:44:38Z</time>
      </trkpt>
      <trkpt lat="48.69999" lon="2.09732">
        <ele>103</ele>
        <time>2019-03-09T07:44:50Z</time>
      </trkpt>
      <trkpt lat="48.70014" lon="2.09661">
        <ele>102.04</ele>
        <time>2019-03-09T07:45:03Z</time>
      </trkpt>
      <trkpt lat="48.70028" lon="2.09599">
        <ele>101.08</ele>
        <time>2019-03-09T07:45:13Z</time>
      </trkpt>
      <trkpt lat="48.70048" lon="2.09539">
        <ele>100.6</ele>
        <time>2019-03-09T07:45:22Z</time>
      </trkpt>
      <trkpt lat="48.70055" lon="2.09518">
        <ele>100.6</ele>
        <time>2019-03-09T07:45:25Z</time>
      </trkpt>
      <trkpt lat="48.70072" lon="2.09459">
        <ele>99.63</ele>
        <time>2019-03-09T07:45:33Z</time>
      </trkpt>
      <trkpt lat="48.7011" lon="2.09331">
        <ele>98.19</ele>
        <time>2019-03-09T07:45:50Z</time>
      </trkpt>
      <trkpt lat="48.70125" lon="2.09282">
        <ele>97.71</ele>
        <time>2019-03-09T07:45:57Z</time>
      </trkpt>
      <trkpt lat="48.70128" lon="2.09276">
        <ele>97.71</ele>
        <time>2019-03-09T07:45:58Z</time>
      </trkpt>
      <trkpt lat="48.70137" lon="2.09259">
        <ele>97.71</ele>
        <time>2019-03-09T07:46:01Z</time>
      </trkpt>
      <trkpt lat="48.70171" lon="2.0919">
        <ele>98.19</ele>
        <time>2019-03-09T07:46:15Z</time>
      </trkpt>
      <trkpt lat="48.70197" lon="2.09116">
        <ele>96.27</ele>
        <time>2019-03-09T07:46:25Z</time>
      </trkpt>
      <trkpt lat="48.70206" lon="2.09007">
        <ele>93.39</ele>
        <time>2019-03-09T07:46:37Z</time>
      </trkpt>
      <trkpt lat="48.70207" lon="2.08998">
        <ele>92.9</ele>
        <time>2019-03-09T07:46:38Z</time>
      </trkpt>
      <trkpt lat="48.70209" lon="2.0899">
        <ele>92.42</ele>
        <time>2019-03-09T07:46:39Z</time>
      </trkpt>
      <trkpt lat="48.70211" lon="2.08984">
        <ele>92.42</ele>
        <time>2019-03-09T07:46:40Z</time>
      </trkpt>
      <trkpt lat="48.70214" lon="2.0898">
        <ele>92.42</ele>
        <time>2019-03-09T07:46:41Z</time>
      </trkpt>
      <trkpt lat="48.70217" lon="2.08976">
        <ele>91.46</ele>
        <time>2019-03-09T07:46:42Z</time>
      </trkpt>
      <trkpt lat="48.70221" lon="2.08975">
        <ele>91.46</ele>
        <time>2019-03-09T07:46:43Z</time>
      </trkpt>
      <trkpt lat="48.70225" lon="2.08973">
        <ele>90.98</ele>
        <time>2019-03-09T07:46:44Z</time>
      </trkpt>
      <trkpt lat="48.70248" lon="2.0897">
        <ele>88.58</ele>
        <time>2019-03-09T07:46:49Z</time>
      </trkpt>
      <trkpt lat="48.70265" lon="2.08969">
        <ele>87.62</ele>
        <time>2019-03-09T07:46:52Z</time>
      </trkpt>
      <trkpt lat="48.70273" lon="2.08963">
        <ele>87.14</ele>
        <time>2019-03-09T07:46:53Z</time>
      </trkpt>
      <trkpt lat="48.70279" lon="2.08957">
        <ele>86.66</ele>
        <time>2019-03-09T07:46:54Z</time>
      </trkpt>
      <trkpt lat="48.70283" lon="2.0895">
        <ele>86.18</ele>
        <time>2019-03-09T07:46:55Z</time>
      </trkpt>
      <trkpt lat="48.70285" lon="2.08941">
        <ele>85.69</ele>
        <time>2019-03-09T07:46:56Z</time>
      </trkpt>
      <trkpt lat="48.70287" lon="2.08932">
        <ele>85.21</ele>
        <time>2019-03-09T07:46:57Z</time>
      </trkpt>
      <trkpt lat="48.70296" lon="2.08896">
        <ele>83.77</ele>
        <time>2019-03-09T07:47:01Z</time>
      </trkpt>
      <trkpt lat="48.70299" lon="2.08888">
        <ele>83.77</ele>
        <time>2019-03-09T07:47:02Z</time>
      </trkpt>
      <trkpt lat="48.70307" lon="2.08874">
        <ele>83.29</ele>
        <time>2019-03-09T07:47:04Z</time>
      </trkpt>
      <trkpt lat="48.70311" lon="2.08871">
        <ele>83.29</ele>
        <time>2019-03-09T07:47:05Z</time>
      </trkpt>
      <trkpt lat="48.70316" lon="2.08869">
        <ele>83.77</ele>
        <time>2019-03-09T07:47:06Z</time>
      </trkpt>
      <trkpt lat="48.7032" lon="2.08869">
        <ele>83.29</ele>
        <time>2019-03-09T07:47:07Z</time>
      </trkpt>
      <trkpt lat="48.70325" lon="2.08871">
        <ele>83.29</ele>
        <time>2019-03-09T07:47:08Z</time>
      </trkpt>
      <trkpt lat="48.70329" lon="2.08872">
        <ele>83.29</ele>
        <time>2019-03-09T07:47:09Z</time>
      </trkpt>
      <trkpt lat="48.70333" lon="2.08872">
        <ele>82.81</ele>
        <time>2019-03-09T07:47:10Z</time>
      </trkpt>
      <trkpt lat="48.70338" lon="2.08871">
        <ele>82.81</ele>
        <time>2019-03-09T07:47:11Z</time>
      </trkpt>
      <trkpt lat="48.70343" lon="2.0887">
        <ele>82.81</ele>
        <time>2019-03-09T07:47:12Z</time>
      </trkpt>
      <trkpt lat="48.70347" lon="2.08868">
        <ele>82.81</ele>
        <time>2019-03-09T07:47:13Z</time>
      </trkpt>
      <trkpt lat="48.70351" lon="2.08865">
        <ele>82.33</ele>
        <time>2019-03-09T07:47:14Z</time>
      </trkpt>
      <trkpt lat="48.70364" lon="2.08853">
        <ele>82.81</ele>
        <time>2019-03-09T07:47:18Z</time>
      </trkpt>
      <trkpt lat="48.70364" lon="2.08849">
        <ele>81.85</ele>
        <time>2019-03-09T07:47:19Z</time>
      </trkpt>
      <trkpt lat="48.70365" lon="2.08845">
        <ele>81.85</ele>
        <time>2019-03-09T07:47:20Z</time>
      </trkpt>
      <trkpt lat="48.70365" lon="2.08839">
        <ele>81.85</ele>
        <time>2019-03-09T07:47:21Z</time>
      </trkpt>
      <trkpt lat="48.70364" lon="2.08833">
        <ele>81.85</ele>
        <time>2019-03-09T07:47:22Z</time>
      </trkpt>
      <trkpt lat="48.70364" lon="2.08826">
        <ele>81.85</ele>
        <time>2019-03-09T07:47:23Z</time>
      </trkpt>
      <trkpt lat="48.70363" lon="2.08819">
        <ele>81.37</ele>
        <time>2019-03-09T07:47:24Z</time>
      </trkpt>
      <trkpt lat="48.70362" lon="2.08804">
        <ele>80.89</ele>
        <time>2019-03-09T07:47:26Z</time>
      </trkpt>
      <trkpt lat="48.70363" lon="2.08788">
        <ele>81.37</ele>
        <time>2019-03-09T07:47:28Z</time>
      </trkpt>
      <trkpt lat="48.70365" lon="2.08779">
        <ele>81.37</ele>
        <time>2019-03-09T07:47:29Z</time>
      </trkpt>
      <trkpt lat="48.70369" lon="2.08762">
        <ele>80.89</ele>
        <time>2019-03-09T07:47:31Z</time>
      </trkpt>
      <trkpt lat="48.7037" lon="2.08754">
        <ele>80.89</ele>
        <time>2019-03-09T07:47:32Z</time>
      </trkpt>
      <trkpt lat="48.70375" lon="2.08712">
        <ele>80.89</ele>
        <time>2019-03-09T07:47:38Z</time>
      </trkpt>
      <trkpt lat="48.70384" lon="2.08631">
        <ele>81.85</ele>
        <time>2019-03-09T07:47:50Z</time>
      </trkpt>
      <trkpt lat="48.70385" lon="2.08624">
        <ele>81.85</ele>
        <time>2019-03-09T07:47:51Z</time>
      </trkpt>
      <trkpt lat="48.70386" lon="2.08617">
        <ele>81.85</ele>
        <time>2019-03-09T07:47:52Z</time>
      </trkpt>
      <trkpt lat="48.70386" lon="2.0861">
        <ele>81.85</ele>
        <time>2019-03-09T07:47:53Z</time>
      </trkpt>
      <trkpt lat="48.70387" lon="2.08603">
        <ele>81.37</ele>
        <time>2019-03-09T07:47:54Z</time>
      </trkpt>
      <trkpt lat="48.70388" lon="2.08596">
        <ele>81.37</ele>
        <time>2019-03-09T07:47:55Z</time>
      </trkpt>
      <trkpt lat="48.70389" lon="2.08582">
        <ele>81.37</ele>
        <time>2019-03-09T07:47:57Z</time>
      </trkpt>
      <trkpt lat="48.7039" lon="2.08575">
        <ele>81.85</ele>
        <time>2019-03-09T07:47:58Z</time>
      </trkpt>
      <trkpt lat="48.70393" lon="2.08539">
        <ele>81.37</ele>
        <time>2019-03-09T07:48:03Z</time>
      </trkpt>
      <trkpt lat="48.70394" lon="2.08532">
        <ele>81.37</ele>
        <time>2019-03-09T07:48:04Z</time>
      </trkpt>
      <trkpt lat="48.70393" lon="2.08469">
        <ele>81.85</ele>
        <time>2019-03-09T07:48:14Z</time>
      </trkpt>
      <trkpt lat="48.70365" lon="2.08447">
        <ele>82.81</ele>
        <time>2019-03-09T07:48:24Z</time>
      </trkpt>
      <trkpt lat="48.70339" lon="2.08434">
        <ele>82.81</ele>
        <time>2019-03-09T07:48:35Z</time>
      </trkpt>
      <trkpt lat="48.70331" lon="2.08431">
        <ele>83.29</ele>
        <time>2019-03-09T07:48:40Z</time>
      </trkpt>
      <trkpt lat="48.70329" lon="2.08429">
        <ele>83.29</ele>
        <time>2019-03-09T07:48:41Z</time>
      </trkpt>
      <trkpt lat="48.70327" lon="2.08428">
        <ele>82.81</ele>
        <time>2019-03-09T07:48:42Z</time>
      </trkpt>
      <trkpt lat="48.70292" lon="2.08414">
        <ele>84.25</ele>
        <time>2019-03-09T07:48:56Z</time>
      </trkpt>
      <trkpt lat="48.70276" lon="2.08407">
        <ele>85.21</ele>
        <time>2019-03-09T07:49:02Z</time>
      </trkpt>
      <trkpt lat="48.70274" lon="2.08406">
        <ele>85.21</ele>
        <time>2019-03-09T07:49:03Z</time>
      </trkpt>
      <trkpt lat="48.70273" lon="2.08406">
        <ele>85.21</ele>
        <time>2019-03-09T07:49:04Z</time>
      </trkpt>
      <trkpt lat="48.70272" lon="2.08405">
        <ele>85.69</ele>
        <time>2019-03-09T07:49:05Z</time>
      </trkpt>
      <trkpt lat="48.7027" lon="2.08404">
        <ele>85.21</ele>
        <time>2019-03-09T07:49:06Z</time>
      </trkpt>
      <trkpt lat="48.70269" lon="2.08402">
        <ele>85.21</ele>
        <time>2019-03-09T07:49:07Z</time>
      </trkpt>
      <trkpt lat="48.70258" lon="2.08395">
        <ele>86.66</ele>
        <time>2019-03-09T07:49:18Z</time>
      </trkpt>
      <trkpt lat="48.70256" lon="2.08392">
        <ele>85.69</ele>
        <time>2019-03-09T07:49:20Z</time>
      </trkpt>
      <trkpt lat="48.7025" lon="2.08384">
        <ele>87.14</ele>
        <time>2019-03-09T07:49:26Z</time>
      </trkpt>
      <trkpt lat="48.70251" lon="2.08383">
        <ele>87.14</ele>
        <time>2019-03-09T07:49:27Z</time>
      </trkpt>
      <trkpt lat="48.7025" lon="2.08378">
        <ele>87.62</ele>
        <time>2019-03-09T07:49:32Z</time>
      </trkpt>
      <trkpt lat="48.70249" lon="2.08376">
        <ele>87.62</ele>
        <time>2019-03-09T07:49:33Z</time>
      </trkpt>
      <trkpt lat="48.70248" lon="2.08375">
        <ele>87.62</ele>
        <time>2019-03-09T07:49:34Z</time>
      </trkpt>
      <trkpt lat="48.70248" lon="2.08373">
        <ele>87.62</ele>
        <time>2019-03-09T07:49:35Z</time>
      </trkpt>
      <trkpt lat="48.70247" lon="2.08371">
        <ele>88.1</ele>
        <time>2019-03-09T07:49:36Z</time>
      </trkpt>
      <trkpt lat="48.70245" lon="2.0837">
        <ele>88.1</ele>
        <time>2019-03-09T07:49:38Z</time>
      </trkpt>
      <trkpt lat="48.70245" lon="2.08368">
        <ele>88.1</ele>
        <time>2019-03-09T07:49:39Z</time>
      </trkpt>
      <trkpt lat="48.70243" lon="2.08351">
        <ele>88.58</ele>
        <time>2019-03-09T07:49:47Z</time>
      </trkpt>
      <trkpt lat="48.70251" lon="2.08294">
        <ele>89.54</ele>
        <time>2019-03-09T07:50:01Z</time>
      </trkpt>
      <trkpt lat="48.70254" lon="2.08256">
        <ele>91.46</ele>
        <time>2019-03-09T07:50:13Z</time>
      </trkpt>
      <trkpt lat="48.70261" lon="2.0821">
        <ele>93.39</ele>
        <time>2019-03-09T07:50:27Z</time>
      </trkpt>
      <trkpt lat="48.70261" lon="2.08206">
        <ele>93.87</ele>
        <time>2019-03-09T07:50:28Z</time>
      </trkpt>
      <trkpt lat="48.70266" lon="2.08151">
        <ele>94.83</ele>
        <time>2019-03-09T07:50:42Z</time>
      </trkpt>
      <trkpt lat="48.70267" lon="2.08136">
        <ele>94.35</ele>
        <time>2019-03-09T07:50:49Z</time>
      </trkpt>
      <trkpt lat="48.70266" lon="2.08132">
        <ele>93.87</ele>
        <time>2019-03-09T07:50:50Z</time>
      </trkpt>
      <trkpt lat="48.70266" lon="2.0813">
        <ele>94.35</ele>
        <time>2019-03-09T07:50:51Z</time>
      </trkpt>
      <trkpt lat="48.70273" lon="2.08082">
        <ele>94.83</ele>
        <time>2019-03-09T07:51:02Z</time>
      </trkpt>
      <trkpt lat="48.70277" lon="2.07991">
        <ele>96.27</ele>
        <time>2019-03-09T07:51:19Z</time>
      </trkpt>
      <trkpt lat="48.70279" lon="2.07946">
        <ele>95.31</ele>
        <time>2019-03-09T07:51:27Z</time>
      </trkpt>
      <trkpt lat="48.70286" lon="2.07853">
        <ele>94.83</ele>
        <time>2019-03-09T07:51:41Z</time>
      </trkpt>
      <trkpt lat="48.70287" lon="2.07846">
        <ele>94.35</ele>
        <time>2019-03-09T07:51:42Z</time>
      </trkpt>
      <trkpt lat="48.70287" lon="2.07838">
        <ele>94.35</ele>
        <time>2019-03-09T07:51:43Z</time>
      </trkpt>
      <trkpt lat="48.70288" lon="2.07831">
        <ele>93.87</ele>
        <time>2019-03-09T07:51:44Z</time>
      </trkpt>
      <trkpt lat="48.70289" lon="2.07824">
        <ele>94.35</ele>
        <time>2019-03-09T07:51:45Z</time>
      </trkpt>
      <trkpt lat="48.7029" lon="2.07817">
        <ele>94.83</ele>
        <time>2019-03-09T07:51:46Z</time>
      </trkpt>
      <trkpt lat="48.70294" lon="2.07738">
        <ele>94.35</ele>
        <time>2019-03-09T07:51:58Z</time>
      </trkpt>
      <trkpt lat="48.70297" lon="2.07643">
        <ele>95.79</ele>
        <time>2019-03-09T07:52:13Z</time>
      </trkpt>
      <trkpt lat="48.70292" lon="2.07601">
        <ele>95.79</ele>
        <time>2019-03-09T07:52:20Z</time>
      </trkpt>
      <trkpt lat="48.70289" lon="2.0759">
        <ele>96.27</ele>
        <time>2019-03-09T07:52:22Z</time>
      </trkpt>
      <trkpt lat="48.7028" lon="2.07568">
        <ele>96.27</ele>
        <time>2019-03-09T07:52:26Z</time>
      </trkpt>
      <trkpt lat="48.70233" lon="2.07499">
        <ele>95.79</ele>
        <time>2019-03-09T07:52:42Z</time>
      </trkpt>
      <trkpt lat="48.70201" lon="2.07454">
        <ele>98.67</ele>
        <time>2019-03-09T07:52:55Z</time>
      </trkpt>
      <trkpt lat="48.70182" lon="2.07379">
        <ele>100.6</ele>
        <time>2019-03-09T07:53:11Z</time>
      </trkpt>
      <trkpt lat="48.70167" lon="2.07323">
        <ele>101.56</ele>
        <time>2019-03-09T07:53:24Z</time>
      </trkpt>
      <trkpt lat="48.70167" lon="2.07322">
        <ele>101.08</ele>
        <time>2019-03-09T07:53:25Z</time>
      </trkpt>
      <trkpt lat="48.70169" lon="2.0732">
        <ele>101.08</ele>
        <time>2019-03-09T07:53:27Z</time>
      </trkpt>
      <trkpt lat="48.70191" lon="2.07307">
        <ele>98.19</ele>
        <time>2019-03-09T07:53:33Z</time>
      </trkpt>
      <trkpt lat="48.70237" lon="2.07283">
        <ele>95.79</ele>
        <time>2019-03-09T07:53:43Z</time>
      </trkpt>
      <trkpt lat="48.70242" lon="2.07274">
        <ele>94.83</ele>
        <time>2019-03-09T07:53:46Z</time>
      </trkpt>
      <trkpt lat="48.70242" lon="2.0727">
        <ele>95.31</ele>
        <time>2019-03-09T07:53:47Z</time>
      </trkpt>
      <trkpt lat="48.70235" lon="2.07189">
        <ele>96.27</ele>
        <time>2019-03-09T07:54:01Z</time>
      </trkpt>
      <trkpt lat="48.70226" lon="2.07097">
        <ele>96.75</ele>
        <time>2019-03-09T07:54:17Z</time>
      </trkpt>
      <trkpt lat="48.70226" lon="2.07085">
        <ele>96.27</ele>
        <time>2019-03-09T07:54:19Z</time>
      </trkpt>
      <trkpt lat="48.70219" lon="2.07019">
        <ele>93.87</ele>
        <time>2019-03-09T07:54:29Z</time>
      </trkpt>
      <trkpt lat="48.70217" lon="2.0699">
        <ele>93.39</ele>
        <time>2019-03-09T07:54:33Z</time>
      </trkpt>
      <trkpt lat="48.70218" lon="2.06984">
        <ele>93.39</ele>
        <time>2019-03-09T07:54:34Z</time>
      </trkpt>
      <trkpt lat="48.70219" lon="2.06979">
        <ele>92.42</ele>
        <time>2019-03-09T07:54:35Z</time>
      </trkpt>
      <trkpt lat="48.70221" lon="2.06976">
        <ele>92.42</ele>
        <time>2019-03-09T07:54:36Z</time>
      </trkpt>
      <trkpt lat="48.70224" lon="2.06973">
        <ele>92.42</ele>
        <time>2019-03-09T07:54:37Z</time>
      </trkpt>
      <trkpt lat="48.70228" lon="2.06971">
        <ele>91.94</ele>
        <time>2019-03-09T07:54:38Z</time>
      </trkpt>
      <trkpt lat="48.70231" lon="2.06969">
        <ele>92.42</ele>
        <time>2019-03-09T07:54:39Z</time>
      </trkpt>
      <trkpt lat="48.70235" lon="2.06968">
        <ele>91.94</ele>
        <time>2019-03-09T07:54:40Z</time>
      </trkpt>
      <trkpt lat="48.70239" lon="2.06968">
        <ele>90.98</ele>
        <time>2019-03-09T07:54:41Z</time>
      </trkpt>
      <trkpt lat="48.70244" lon="2.06969">
        <ele>90.98</ele>
        <time>2019-03-09T07:54:42Z</time>
      </trkpt>
      <trkpt lat="48.70259" lon="2.06968">
        <ele>89.54</ele>
        <time>2019-03-09T07:54:45Z</time>
      </trkpt>
      <trkpt lat="48.70263" lon="2.06967">
        <ele>90.02</ele>
        <time>2019-03-09T07:54:46Z</time>
      </trkpt>
      <trkpt lat="48.70274" lon="2.06967">
        <ele>88.58</ele>
        <time>2019-03-09T07:54:50Z</time>
      </trkpt>
      <trkpt lat="48.70301" lon="2.06981">
        <ele>87.62</ele>
        <time>2019-03-09T07:54:59Z</time>
      </trkpt>
      <trkpt lat="48.7032" lon="2.06968">
        <ele>86.66</ele>
        <time>2019-03-09T07:55:05Z</time>
      </trkpt>
      <trkpt lat="48.70321" lon="2.06962">
        <ele>86.66</ele>
        <time>2019-03-09T07:55:06Z</time>
      </trkpt>
      <trkpt lat="48.70322" lon="2.06955">
        <ele>85.69</ele>
        <time>2019-03-09T07:55:07Z</time>
      </trkpt>
      <trkpt lat="48.70322" lon="2.06948">
        <ele>86.18</ele>
        <time>2019-03-09T07:55:08Z</time>
      </trkpt>
      <trkpt lat="48.70322" lon="2.06941">
        <ele>85.69</ele>
        <time>2019-03-09T07:55:09Z</time>
      </trkpt>
      <trkpt lat="48.70321" lon="2.06935">
        <ele>85.69</ele>
        <time>2019-03-09T07:55:10Z</time>
      </trkpt>
      <trkpt lat="48.70319" lon="2.06929">
        <ele>85.69</ele>
        <time>2019-03-09T07:55:11Z</time>
      </trkpt>
      <trkpt lat="48.70317" lon="2.06924">
        <ele>85.69</ele>
        <time>2019-03-09T07:55:12Z</time>
      </trkpt>
      <trkpt lat="48.70277" lon="2.06832">
        <ele>85.21</ele>
        <time>2019-03-09T07:55:29Z</time>
      </trkpt>
      <trkpt lat="48.70274" lon="2.06821">
        <ele>85.69</ele>
        <time>2019-03-09T07:55:31Z</time>
      </trkpt>
      <trkpt lat="48.70268" lon="2.06796">
        <ele>85.69</ele>
        <time>2019-03-09T07:55:35Z</time>
      </trkpt>
      <trkpt lat="48.70266" lon="2.06777">
        <ele>85.69</ele>
        <time>2019-03-09T07:55:38Z</time>
      </trkpt>
      <trkpt lat="48.70253" lon="2.06676">
        <ele>85.69</ele>
        <time>2019-03-09T07:55:54Z</time>
      </trkpt>
      <trkpt lat="48.7025" lon="2.06663">
        <ele>86.18</ele>
        <time>2019-03-09T07:55:56Z</time>
      </trkpt>
      <trkpt lat="48.7024" lon="2.06619">
        <ele>86.18</ele>
        <time>2019-03-09T07:56:03Z</time>
      </trkpt>
      <trkpt lat="48.70239" lon="2.06613">
        <ele>86.18</ele>
        <time>2019-03-09T07:56:04Z</time>
      </trkpt>
      <trkpt lat="48.70225" lon="2.06535">
        <ele>87.14</ele>
        <time>2019-03-09T07:56:17Z</time>
      </trkpt>
      <trkpt lat="48.70227" lon="2.0646">
        <ele>87.14</ele>
        <time>2019-03-09T07:56:29Z</time>
      </trkpt>
      <trkpt lat="48.70227" lon="2.06454">
        <ele>87.62</ele>
        <time>2019-03-09T07:56:30Z</time>
      </trkpt>
      <trkpt lat="48.7023" lon="2.06364">
        <ele>88.58</ele>
        <time>2019-03-09T07:56:45Z</time>
      </trkpt>
      <trkpt lat="48.70234" lon="2.06285">
        <ele>90.5</ele>
        <time>2019-03-09T07:56:59Z</time>
      </trkpt>
      <trkpt lat="48.70255" lon="2.06193">
        <ele>89.54</ele>
        <time>2019-03-09T07:57:14Z</time>
      </trkpt>
      <trkpt lat="48.70258" lon="2.06172">
        <ele>89.06</ele>
        <time>2019-03-09T07:57:17Z</time>
      </trkpt>
      <trkpt lat="48.70258" lon="2.06165">
        <ele>89.06</ele>
        <time>2019-03-09T07:57:18Z</time>
      </trkpt>
      <trkpt lat="48.70259" lon="2.06111">
        <ele>90.02</ele>
        <time>2019-03-09T07:57:26Z</time>
      </trkpt>
      <trkpt lat="48.70262" lon="2.06057">
        <ele>90.5</ele>
        <time>2019-03-09T07:57:35Z</time>
      </trkpt>
      <trkpt lat="48.70265" lon="2.0596">
        <ele>91.46</ele>
        <time>2019-03-09T07:57:51Z</time>
      </trkpt>
      <trkpt lat="48.70269" lon="2.05846">
        <ele>90.98</ele>
        <time>2019-03-09T07:58:08Z</time>
      </trkpt>
      <trkpt lat="48.70269" lon="2.05771">
        <ele>90.02</ele>
        <time>2019-03-09T07:58:19Z</time>
      </trkpt>
      <trkpt lat="48.70268" lon="2.05765">
        <ele>90.5</ele>
        <time>2019-03-09T07:58:20Z</time>
      </trkpt>
      <trkpt lat="48.70255" lon="2.05691">
        <ele>91.46</ele>
        <time>2019-03-09T07:58:32Z</time>
      </trkpt>
      <trkpt lat="48.70254" lon="2.05685">
        <ele>91.46</ele>
        <time>2019-03-09T07:58:33Z</time>
      </trkpt>
      <trkpt lat="48.70233" lon="2.0558">
        <ele>90.02</ele>
        <time>2019-03-09T07:58:50Z</time>
      </trkpt>
      <trkpt lat="48.70233" lon="2.05574">
        <ele>90.02</ele>
        <time>2019-03-09T07:58:51Z</time>
      </trkpt>
      <trkpt lat="48.70234" lon="2.05568">
        <ele>89.06</ele>
        <time>2019-03-09T07:58:52Z</time>
      </trkpt>
      <trkpt lat="48.70239" lon="2.05548">
        <ele>88.58</ele>
        <time>2019-03-09T07:58:55Z</time>
      </trkpt>
      <trkpt lat="48.70245" lon="2.05539">
        <ele>81.7265625</ele>
      </trkpt>
      <trkpt lat="48.70254" lon="2.05542">
        <ele>81.078125</ele>
      </trkpt>
      <trkpt lat="48.70254" lon="2.05542">
        <ele>81.078125</ele>
      </trkpt>
      <trkpt lat="48.70262" lon="2.05545">
        <ele>80.6953125</ele>
      </trkpt>
      <trkpt lat="48.70271" lon="2.05549">
        <ele>80.27734375</ele>
      </trkpt>
      <trkpt lat="48.7028" lon="2.05552">
        <ele>79.83984375</ele>
      </trkpt>
      <trkpt lat="48.7029" lon="2.05553">
        <ele>79.328125</ele>
      </trkpt>
      <trkpt lat="48.703" lon="2.05553">
        <ele>78.796875</ele>
      </trkpt>
      <trkpt lat="48.70309" lon="2.05555">
        <ele>78.28515625</ele>
      </trkpt>
      <trkpt lat="48.70318" lon="2.05557">
        <ele>78.09765625</ele>
      </trkpt>
      <trkpt lat="48.70327" lon="2.05558">
        <ele>77.90625</ele>
      </trkpt>
      <trkpt lat="48.70336" lon="2.05561">
        <ele>77.71875</ele>
      </trkpt>
      <trkpt lat="48.70339" lon="2.0556">
        <ele>77.640625</ele>
      </trkpt>
      <trkpt lat="48.70349" lon="2.05562">
        <ele>77.41796875</ele>
      </trkpt>
      <trkpt lat="48.70358" lon="2.05564">
        <ele>77.19921875</ele>
      </trkpt>
      <trkpt lat="48.70368" lon="2.05564">
        <ele>76.96484375</ele>
      </trkpt>
      <trkpt lat="48.70378" lon="2.05564">
        <ele>76.78515625</ele>
      </trkpt>
      <trkpt lat="48.70388" lon="2.05564">
        <ele>76.609375</ele>
      </trkpt>
      <trkpt lat="48.70397" lon="2.05561">
        <ele>76.4453125</ele>
      </trkpt>
      <trkpt lat="48.70406" lon="2.05558">
        <ele>76.28515625</ele>
      </trkpt>
      <trkpt lat="48.70415" lon="2.05558">
        <ele>76.10546875</ele>
      </trkpt>
      <trkpt lat="48.70424" lon="2.05555">
        <ele>76.12109375</ele>
      </trkpt>
      <trkpt lat="48.7043" lon="2.0554">
        <ele>76.30078125</ele>
      </trkpt>
      <trkpt lat="48.70433" lon="2.05527">
        <ele>76.37890625</ele>
      </trkpt>
      <trkpt lat="48.70436" lon="2.05516">
        <ele>76.40625</ele>
      </trkpt>
      <trkpt lat="48.7044" lon="2.05503">
        <ele>76.4296875</ele>
      </trkpt>
      <trkpt lat="48.70445" lon="2.05491">
        <ele>76.46484375</ele>
      </trkpt>
      <trkpt lat="48.7045" lon="2.0548">
        <ele>76.5234375</ele>
      </trkpt>
      <trkpt lat="48.70454" lon="2.05467">
        <ele>76.58984375</ele>
      </trkpt>
      <trkpt lat="48.70459" lon="2.05454">
        <ele>76.6875</ele>
      </trkpt>
      <trkpt lat="48.70465" lon="2.0544">
        <ele>76.78125</ele>
      </trkpt>
      <trkpt lat="48.70472" lon="2.0543">
        <ele>76.90234375</ele>
      </trkpt>
      <trkpt lat="48.70477" lon="2.05417">
        <ele>76.796875</ele>
      </trkpt>
      <trkpt lat="48.70483" lon="2.05404">
        <ele>76.90234375</ele>
      </trkpt>
      <trkpt lat="48.70488" lon="2.0539">
        <ele>76.83203125</ele>
      </trkpt>
      <trkpt lat="48.70494" lon="2.05377">
        <ele>76.66015625</ele>
      </trkpt>
      <trkpt lat="48.70497" lon="2.05362">
        <ele>76.5625</ele>
      </trkpt>
      <trkpt lat="48.70503" lon="2.05349">
        <ele>76.49609375</ele>
      </trkpt>
      <trkpt lat="48.70508" lon="2.05336">
        <ele>76.33984375</ele>
      </trkpt>
      <trkpt lat="48.7051" lon="2.05323">
        <ele>76.08203125</ele>
      </trkpt>
      <trkpt lat="48.70513" lon="2.0531">
        <ele>76</ele>
      </trkpt>
      <trkpt lat="48.70517" lon="2.05297">
        <ele>76</ele>
      </trkpt>
      <trkpt lat="48.70521" lon="2.05282">
        <ele>76</ele>
      </trkpt>
      <trkpt lat="48.70526" lon="2.05267">
        <ele>76</ele>
      </trkpt>
      <trkpt lat="48.70531" lon="2.05256">
        <ele>76.00390625</ele>
      </trkpt>
      <trkpt lat="48.70537" lon="2.05244">
        <ele>76.05078125</ele>
      </trkpt>
      <trkpt lat="48.70544" lon="2.05234">
        <ele>76.09375</ele>
      </trkpt>
      <trkpt lat="48.70551" lon="2.05221">
        <ele>76.07421875</ele>
      </trkpt>
      <trkpt lat="48.70556" lon="2.05209">
        <ele>76.00390625</ele>
      </trkpt>
      <trkpt lat="48.70564" lon="2.05199">
        <ele>76</ele>
      </trkpt>
      <trkpt lat="48.70567" lon="2.05186">
        <ele>76</ele>
      </trkpt>
      <trkpt lat="48.70569" lon="2.05173">
        <ele>76</ele>
      </trkpt>
      <trkpt lat="48.70575" lon="2.05162">
        <ele>76</ele>
      </trkpt>
      <trkpt lat="48.70584" lon="2.05154">
        <ele>76</ele>
      </trkpt>
      <trkpt lat="48.70593" lon="2.05154">
        <ele>76.29296875</ele>
      </trkpt>
      <trkpt lat="48.70602" lon="2.05149">
        <ele>76.7734375</ele>
      </trkpt>
      <trkpt lat="48.70609" lon="2.05137">
        <ele>77.1640625</ele>
      </trkpt>
      <trkpt lat="48.70613" lon="2.05124">
        <ele>77.35546875</ele>
      </trkpt>
      <trkpt lat="48.70615" lon="2.0511">
        <ele>77.453125</ele>
      </trkpt>
      <trkpt lat="48.70617" lon="2.05097">
        <ele>77.55078125</ele>
      </trkpt>
      <trkpt lat="48.70617" lon="2.05083">
        <ele>77.67578125</ele>
      </trkpt>
      <trkpt lat="48.70617" lon="2.05067">
        <ele>77.8125</ele>
      </trkpt>
      <trkpt lat="48.7062" lon="2.05054">
        <ele>78.0703125</ele>
      </trkpt>
      <trkpt lat="48.70624" lon="2.05041">
        <ele>78.2890625</ele>
      </trkpt>
      <trkpt lat="48.70627" lon="2.05027">
        <ele>78.34765625</ele>
      </trkpt>
      <trkpt lat="48.70627" lon="2.05013">
        <ele>78.2734375</ele>
      </trkpt>
      <trkpt lat="48.70629" lon="2.05">
        <ele>78.29296875</ele>
      </trkpt>
      <trkpt lat="48.70629" lon="2.04989">
        <ele>78.24609375</ele>
      </trkpt>
      <trkpt lat="48.70631" lon="2.04976">
        <ele>78.19140625</ele>
      </trkpt>
      <trkpt lat="48.70633" lon="2.04963">
        <ele>78.09375</ele>
      </trkpt>
      <trkpt lat="48.70635" lon="2.0495">
        <ele>77.98046875</ele>
      </trkpt>
      <trkpt lat="48.70636" lon="2.04936">
        <ele>77.83203125</ele>
      </trkpt>
      <trkpt lat="48.70638" lon="2.04922">
        <ele>77.6640625</ele>
      </trkpt>
      <trkpt lat="48.7064" lon="2.04906">
        <ele>77.4609375</ele>
      </trkpt>
      <trkpt lat="48.70642" lon="2.04893">
        <ele>77.28515625</ele>
      </trkpt>
      <trkpt lat="48.70645" lon="2.0488">
        <ele>77.23046875</ele>
      </trkpt>
      <trkpt lat="48.70645" lon="2.04867">
        <ele>77.140625</ele>
      </trkpt>
      <trkpt lat="48.70649" lon="2.04841">
        <ele>77.41015625</ele>
      </trkpt>
      <trkpt lat="48.70655" lon="2.04828">
        <ele>77.80078125</ele>
      </trkpt>
      <trkpt lat="48.70656" lon="2.04813">
        <ele>77.90234375</ele>
      </trkpt>
      <trkpt lat="48.70655" lon="2.048">
        <ele>77.73046875</ele>
      </trkpt>
      <trkpt lat="48.70652" lon="2.04786">
        <ele>77.515625</ele>
      </trkpt>
      <trkpt lat="48.7065" lon="2.04772">
        <ele>77.375</ele>
      </trkpt>
      <trkpt lat="48.70649" lon="2.04758">
        <ele>77.296875</ele>
      </trkpt>
      <trkpt lat="48.70651" lon="2.04745">
        <ele>77.359375</ele>
      </trkpt>
      <trkpt lat="48.70651" lon="2.0473">
        <ele>77.32421875</ele>
      </trkpt>
      <trkpt lat="48.7065" lon="2.04717">
        <ele>77.2578125</ele>
      </trkpt>
      <trkpt lat="48.70647" lon="2.04704">
        <ele>77.21484375</ele>
      </trkpt>
      <trkpt lat="48.70647" lon="2.04691">
        <ele>77.4296875</ele>
      </trkpt>
      <trkpt lat="48.70647" lon="2.04678">
        <ele>77.6484375</ele>
      </trkpt>
      <trkpt lat="48.70651" lon="2.04665">
        <ele>77.9453125</ele>
      </trkpt>
      <trkpt lat="48.70653" lon="2.04652">
        <ele>78.16796875</ele>
      </trkpt>
      <trkpt lat="48.70655" lon="2.04638">
        <ele>78.19921875</ele>
      </trkpt>
      <trkpt lat="48.70655" lon="2.04625">
        <ele>78.19921875</ele>
      </trkpt>
      <trkpt lat="48.70655" lon="2.04612">
        <ele>78.19921875</ele>
      </trkpt>
      <trkpt lat="48.70656" lon="2.04599">
        <ele>78.23046875</ele>
      </trkpt>
      <trkpt lat="48.70658" lon="2.04586">
        <ele>78.41796875</ele>
      </trkpt>
      <trkpt lat="48.70654" lon="2.04567">
        <ele>86.18</ele>
        <time>2019-03-09T08:02:35Z</time>
      </trkpt>
      <trkpt lat="48.70656" lon="2.04563">
        <ele>86.18</ele>
        <time>2019-03-09T08:02:36Z</time>
      </trkpt>
      <trkpt lat="48.70658" lon="2.04558">
        <ele>85.69</ele>
        <time>2019-03-09T08:02:37Z</time>
      </trkpt>
      <trkpt lat="48.70659" lon="2.04554">
        <ele>85.69</ele>
        <time>2019-03-09T08:02:38Z</time>
      </trkpt>
      <trkpt lat="48.7066" lon="2.04549">
        <ele>85.69</ele>
        <time>2019-03-09T08:02:39Z</time>
      </trkpt>
      <trkpt lat="48.70668" lon="2.04471">
        <ele>85.69</ele>
        <time>2019-03-09T08:02:53Z</time>
      </trkpt>
      <trkpt lat="48.70674" lon="2.04421">
        <ele>85.21</ele>
        <time>2019-03-09T08:03:04Z</time>
      </trkpt>
      <trkpt lat="48.70675" lon="2.0442">
        <ele>85.69</ele>
        <time>2019-03-09T08:03:05Z</time>
      </trkpt>
      <trkpt lat="48.70676" lon="2.0442">
        <ele>85.69</ele>
        <time>2019-03-09T08:03:06Z</time>
      </trkpt>
      <trkpt lat="48.70677" lon="2.04419">
        <ele>85.69</ele>
        <time>2019-03-09T08:03:07Z</time>
      </trkpt>
      <trkpt lat="48.70679" lon="2.0442">
        <ele>85.69</ele>
        <time>2019-03-09T08:03:08Z</time>
      </trkpt>
      <trkpt lat="48.70681" lon="2.0442">
        <ele>85.69</ele>
        <time>2019-03-09T08:03:09Z</time>
      </trkpt>
      <trkpt lat="48.70683" lon="2.04421">
        <ele>85.69</ele>
        <time>2019-03-09T08:03:10Z</time>
      </trkpt>
      <trkpt lat="48.70686" lon="2.04421">
        <ele>85.69</ele>
        <time>2019-03-09T08:03:11Z</time>
      </trkpt>
      <trkpt lat="48.70688" lon="2.04421">
        <ele>85.21</ele>
        <time>2019-03-09T08:03:12Z</time>
      </trkpt>
      <trkpt lat="48.70691" lon="2.04422">
        <ele>85.21</ele>
        <time>2019-03-09T08:03:13Z</time>
      </trkpt>
      <trkpt lat="48.70718" lon="2.04416">
        <ele>87.14</ele>
        <time>2019-03-09T08:03:27Z</time>
      </trkpt>
      <trkpt lat="48.70722" lon="2.04396">
        <ele>89.06</ele>
        <time>2019-03-09T08:03:35Z</time>
      </trkpt>
      <trkpt lat="48.70726" lon="2.04391">
        <ele>89.06</ele>
        <time>2019-03-09T08:03:38Z</time>
      </trkpt>
      <trkpt lat="48.70743" lon="2.0438">
        <ele>91.46</ele>
        <time>2019-03-09T08:03:50Z</time>
      </trkpt>
      <trkpt lat="48.70744" lon="2.04379">
        <ele>91.46</ele>
        <time>2019-03-09T08:03:51Z</time>
      </trkpt>
      <trkpt lat="48.70746" lon="2.04378">
        <ele>91.46</ele>
        <time>2019-03-09T08:03:52Z</time>
      </trkpt>
      <trkpt lat="48.70748" lon="2.04377">
        <ele>91.46</ele>
        <time>2019-03-09T08:03:53Z</time>
      </trkpt>
      <trkpt lat="48.7075" lon="2.04376">
        <ele>91.46</ele>
        <time>2019-03-09T08:03:54Z</time>
      </trkpt>
      <trkpt lat="48.70751" lon="2.04376">
        <ele>91.94</ele>
        <time>2019-03-09T08:03:55Z</time>
      </trkpt>
      <trkpt lat="48.70753" lon="2.04377">
        <ele>91.94</ele>
        <time>2019-03-09T08:03:56Z</time>
      </trkpt>
      <trkpt lat="48.7077" lon="2.04381">
        <ele>93.39</ele>
        <time>2019-03-09T08:04:08Z</time>
      </trkpt>
      <trkpt lat="48.70773" lon="2.0438">
        <ele>93.87</ele>
        <time>2019-03-09T08:04:10Z</time>
      </trkpt>
      <trkpt lat="48.70775" lon="2.04378">
        <ele>93.87</ele>
        <time>2019-03-09T08:04:11Z</time>
      </trkpt>
      <trkpt lat="48.70776" lon="2.04376">
        <ele>94.35</ele>
        <time>2019-03-09T08:04:12Z</time>
      </trkpt>
      <trkpt lat="48.70777" lon="2.04374">
        <ele>94.35</ele>
        <time>2019-03-09T08:04:13Z</time>
      </trkpt>
      <trkpt lat="48.70778" lon="2.04372">
        <ele>94.35</ele>
        <time>2019-03-09T08:04:14Z</time>
      </trkpt>
      <trkpt lat="48.70778" lon="2.0437">
        <ele>94.83</ele>
        <time>2019-03-09T08:04:15Z</time>
      </trkpt>
      <trkpt lat="48.70779" lon="2.04368">
        <ele>94.83</ele>
        <time>2019-03-09T08:04:16Z</time>
      </trkpt>
      <trkpt lat="48.7078" lon="2.04365">
        <ele>94.83</ele>
        <time>2019-03-09T08:04:17Z</time>
      </trkpt>
      <trkpt lat="48.7078" lon="2.04363">
        <ele>94.83</ele>
        <time>2019-03-09T08:04:18Z</time>
      </trkpt>
      <trkpt lat="48.70781" lon="2.04361">
        <ele>94.83</ele>
        <time>2019-03-09T08:04:19Z</time>
      </trkpt>
      <trkpt lat="48.70781" lon="2.04358">
        <ele>94.83</ele>
        <time>2019-03-09T08:04:20Z</time>
      </trkpt>
      <trkpt lat="48.70782" lon="2.04355">
        <ele>94.83</ele>
        <time>2019-03-09T08:04:21Z</time>
      </trkpt>
      <trkpt lat="48.70783" lon="2.04352">
        <ele>95.31</ele>
        <time>2019-03-09T08:04:22Z</time>
      </trkpt>
      <trkpt lat="48.70783" lon="2.0435">
        <ele>94.83</ele>
        <time>2019-03-09T08:04:23Z</time>
      </trkpt>
      <trkpt lat="48.70784" lon="2.04347">
        <ele>95.31</ele>
        <time>2019-03-09T08:04:24Z</time>
      </trkpt>
      <trkpt lat="48.70788" lon="2.04324">
        <ele>96.27</ele>
        <time>2019-03-09T08:04:31Z</time>
      </trkpt>
      <trkpt lat="48.70789" lon="2.04321">
        <ele>96.27</ele>
        <time>2019-03-09T08:04:32Z</time>
      </trkpt>
      <trkpt lat="48.70803" lon="2.04269">
        <ele>97.23</ele>
        <time>2019-03-09T08:04:45Z</time>
      </trkpt>
      <trkpt lat="48.70813" lon="2.04214">
        <ele>98.67</ele>
        <time>2019-03-09T08:04:57Z</time>
      </trkpt>
      <trkpt lat="48.70817" lon="2.04186">
        <ele>98.67</ele>
        <time>2019-03-09T08:05:09Z</time>
      </trkpt>
      <trkpt lat="48.70831" lon="2.04191">
        <ele>101.56</ele>
        <time>2019-03-09T08:05:54Z</time>
      </trkpt>
      <trkpt lat="48.70855" lon="2.0419">
        <ele>103.96</ele>
        <time>2019-03-09T08:06:07Z</time>
      </trkpt>
      <trkpt lat="48.70857" lon="2.04163">
        <ele>106.84</ele>
        <time>2019-03-09T08:06:23Z</time>
      </trkpt>
      <trkpt lat="48.70869" lon="2.04134">
        <ele>106.84</ele>
        <time>2019-03-09T08:06:24Z</time>
      </trkpt>
      <trkpt lat="48.70879" lon="2.04102">
        <ele>110.21</ele>
        <time>2019-03-09T08:06:39Z</time>
      </trkpt>
      <trkpt lat="48.70889" lon="2.04081">
        <ele>111.65</ele>
        <time>2019-03-09T08:06:51Z</time>
      </trkpt>
      <trkpt lat="48.70896" lon="2.04082">
        <ele>111.65</ele>
        <time>2019-03-09T08:06:56Z</time>
      </trkpt>
      <trkpt lat="48.70901" lon="2.04095">
        <ele>114.05</ele>
        <time>2019-03-09T08:07:03Z</time>
      </trkpt>
      <trkpt lat="48.709" lon="2.04122">
        <ele>115.98</ele>
        <time>2019-03-09T08:07:15Z</time>
      </trkpt>
      <trkpt lat="48.70898" lon="2.04151">
        <ele>119.34</ele>
        <time>2019-03-09T08:07:30Z</time>
      </trkpt>
      <trkpt lat="48.70898" lon="2.04154">
        <ele>119.34</ele>
        <time>2019-03-09T08:07:32Z</time>
      </trkpt>
      <trkpt lat="48.70903" lon="2.04185">
        <ele>122.22</ele>
        <time>2019-03-09T08:07:46Z</time>
      </trkpt>
      <trkpt lat="48.70903" lon="2.04187">
        <ele>122.22</ele>
        <time>2019-03-09T08:07:47Z</time>
      </trkpt>
      <trkpt lat="48.70906" lon="2.04203">
        <ele>124.63</ele>
        <time>2019-03-09T08:07:57Z</time>
      </trkpt>
      <trkpt lat="48.70911" lon="2.04221">
        <ele>126.55</ele>
        <time>2019-03-09T08:08:10Z</time>
      </trkpt>
      <trkpt lat="48.70918" lon="2.04227">
        <ele>129.43</ele>
        <time>2019-03-09T08:08:17Z</time>
      </trkpt>
      <trkpt lat="48.70923" lon="2.0422">
        <ele>129.92</ele>
        <time>2019-03-09T08:08:22Z</time>
      </trkpt>
      <trkpt lat="48.70924" lon="2.04217">
        <ele>130.4</ele>
        <time>2019-03-09T08:08:24Z</time>
      </trkpt>
      <trkpt lat="48.70929" lon="2.04198">
        <ele>133.28</ele>
        <time>2019-03-09T08:08:38Z</time>
      </trkpt>
      <trkpt lat="48.70936" lon="2.04179">
        <ele>134.72</ele>
        <time>2019-03-09T08:08:52Z</time>
      </trkpt>
      <trkpt lat="48.70938" lon="2.04172">
        <ele>134.72</ele>
        <time>2019-03-09T08:08:56Z</time>
      </trkpt>
      <trkpt lat="48.70944" lon="2.04169">
        <ele>136.16</ele>
        <time>2019-03-09T08:09:01Z</time>
      </trkpt>
      <trkpt lat="48.70943" lon="2.04177">
        <ele>137.61</ele>
        <time>2019-03-09T08:09:08Z</time>
      </trkpt>
      <trkpt lat="48.70943" lon="2.04186">
        <ele>139.05</ele>
        <time>2019-03-09T08:09:13Z</time>
      </trkpt>
      <trkpt lat="48.7094" lon="2.04203">
        <ele>141.45</ele>
        <time>2019-03-09T08:09:25Z</time>
      </trkpt>
      <trkpt lat="48.70944" lon="2.04214">
        <ele>144.34</ele>
        <time>2019-03-09T08:09:32Z</time>
      </trkpt>
      <trkpt lat="48.70958" lon="2.04197">
        <ele>147.7</ele>
        <time>2019-03-09T08:09:46Z</time>
      </trkpt>
      <trkpt lat="48.7096" lon="2.04179">
        <ele>149.14</ele>
        <time>2019-03-09T08:09:56Z</time>
      </trkpt>
      <trkpt lat="48.70969" lon="2.04164">
        <ele>151.06</ele>
        <time>2019-03-09T08:10:07Z</time>
      </trkpt>
      <trkpt lat="48.70979" lon="2.04156">
        <ele>154.91</ele>
        <time>2019-03-09T08:10:18Z</time>
      </trkpt>
      <trkpt lat="48.70984" lon="2.04156">
        <ele>155.87</ele>
        <time>2019-03-09T08:10:23Z</time>
      </trkpt>
      <trkpt lat="48.70995" lon="2.04157">
        <ele>157.79</ele>
        <time>2019-03-09T08:10:32Z</time>
      </trkpt>
      <trkpt lat="48.71" lon="2.04156">
        <ele>159.24</ele>
        <time>2019-03-09T08:10:35Z</time>
      </trkpt>
      <trkpt lat="48.71023" lon="2.04128">
        <ele>160.68</ele>
        <time>2019-03-09T08:10:53Z</time>
      </trkpt>
      <trkpt lat="48.71044" lon="2.04112">
        <ele>161.16</ele>
        <time>2019-03-09T08:11:08Z</time>
      </trkpt>
      <trkpt lat="48.71044" lon="2.04112">
        <ele>159.72</ele>
        <time>2019-03-09T08:11:21Z</time>
      </trkpt>
      <trkpt lat="48.71044" lon="2.04112">
        <ele>159.72</ele>
        <time>2019-03-09T08:11:24Z</time>
      </trkpt>
      <trkpt lat="48.71038" lon="2.04115">
        <ele>158.75</ele>
        <time>2019-03-09T08:11:27Z</time>
      </trkpt>
      <trkpt lat="48.71035" lon="2.04116">
        <ele>158.75</ele>
        <time>2019-03-09T08:11:28Z</time>
      </trkpt>
      <trkpt lat="48.71032" lon="2.04116">
        <ele>157.79</ele>
        <time>2019-03-09T08:11:29Z</time>
      </trkpt>
      <trkpt lat="48.7103" lon="2.04115">
        <ele>158.27</ele>
        <time>2019-03-09T08:11:30Z</time>
      </trkpt>
      <trkpt lat="48.71029" lon="2.04113">
        <ele>157.31</ele>
        <time>2019-03-09T08:11:31Z</time>
      </trkpt>
      <trkpt lat="48.71029" lon="2.04111">
        <ele>156.83</ele>
        <time>2019-03-09T08:11:32Z</time>
      </trkpt>
      <trkpt lat="48.71029" lon="2.04109">
        <ele>155.87</ele>
        <time>2019-03-09T08:11:33Z</time>
      </trkpt>
      <trkpt lat="48.71028" lon="2.04108">
        <ele>155.39</ele>
        <time>2019-03-09T08:11:34Z</time>
      </trkpt>
      <trkpt lat="48.71028" lon="2.04106">
        <ele>155.87</ele>
        <time>2019-03-09T08:11:35Z</time>
      </trkpt>
      <trkpt lat="48.71023" lon="2.04105">
        <ele>153.47</ele>
        <time>2019-03-09T08:11:47Z</time>
      </trkpt>
      <trkpt lat="48.71022" lon="2.04106">
        <ele>152.51</ele>
        <time>2019-03-09T08:12:01Z</time>
      </trkpt>
      <trkpt lat="48.71019" lon="2.04102">
        <ele>150.1</ele>
        <time>2019-03-09T08:12:13Z</time>
      </trkpt>
      <trkpt lat="48.71019" lon="2.04099">
        <ele>149.14</ele>
        <time>2019-03-09T08:12:14Z</time>
      </trkpt>
      <trkpt lat="48.71018" lon="2.04096">
        <ele>148.18</ele>
        <time>2019-03-09T08:12:15Z</time>
      </trkpt>
      <trkpt lat="48.71017" lon="2.04093">
        <ele>147.22</ele>
        <time>2019-03-09T08:12:16Z</time>
      </trkpt>
      <trkpt lat="48.71012" lon="2.04086">
        <ele>143.85</ele>
        <time>2019-03-09T08:12:24Z</time>
      </trkpt>
      <trkpt lat="48.71011" lon="2.04082">
        <ele>143.37</ele>
        <time>2019-03-09T08:12:26Z</time>
      </trkpt>
      <trkpt lat="48.71011" lon="2.04073">
        <ele>140.49</ele>
        <time>2019-03-09T08:12:30Z</time>
      </trkpt>
      <trkpt lat="48.71011" lon="2.04064">
        <ele>137.61</ele>
        <time>2019-03-09T08:12:34Z</time>
      </trkpt>
      <trkpt lat="48.71011" lon="2.04056">
        <ele>136.16</ele>
        <time>2019-03-09T08:12:37Z</time>
      </trkpt>
      <trkpt lat="48.71008" lon="2.04038">
        <ele>131.84</ele>
        <time>2019-03-09T08:12:47Z</time>
      </trkpt>
      <trkpt lat="48.7101" lon="2.04027">
        <ele>128.95</ele>
        <time>2019-03-09T08:12:58Z</time>
      </trkpt>
      <trkpt lat="48.71018" lon="2.04023">
        <ele>129.43</ele>
        <time>2019-03-09T08:14:34Z</time>
      </trkpt>
      <trkpt lat="48.71015" lon="2.0401">
        <ele>127.51</ele>
        <time>2019-03-09T08:14:39Z</time>
      </trkpt>
      <trkpt lat="48.71011" lon="2.03998">
        <ele>125.59</ele>
        <time>2019-03-09T08:14:51Z</time>
      </trkpt>
      <trkpt lat="48.7101" lon="2.03989">
        <ele>123.67</ele>
        <time>2019-03-09T08:14:57Z</time>
      </trkpt>
      <trkpt lat="48.71006" lon="2.03981">
        <ele>122.22</ele>
        <time>2019-03-09T08:15:00Z</time>
      </trkpt>
      <trkpt lat="48.71002" lon="2.03979">
        <ele>120.78</ele>
        <time>2019-03-09T08:15:02Z</time>
      </trkpt>
      <trkpt lat="48.70998" lon="2.03973">
        <ele>120.3</ele>
        <time>2019-03-09T08:15:05Z</time>
      </trkpt>
      <trkpt lat="48.70997" lon="2.03956">
        <ele>117.9</ele>
        <time>2019-03-09T08:15:09Z</time>
      </trkpt>
      <trkpt lat="48.70996" lon="2.03947">
        <ele>116.46</ele>
        <time>2019-03-09T08:15:11Z</time>
      </trkpt>
      <trkpt lat="48.70994" lon="2.03931">
        <ele>114.05</ele>
        <time>2019-03-09T08:15:15Z</time>
      </trkpt>
      <trkpt lat="48.70983" lon="2.03917">
        <ele>111.17</ele>
        <time>2019-03-09T08:15:25Z</time>
      </trkpt>
      <trkpt lat="48.70982" lon="2.03913">
        <ele>110.69</ele>
        <time>2019-03-09T08:15:26Z</time>
      </trkpt>
      <trkpt lat="48.7096" lon="2.03884">
        <ele>108.77</ele>
        <time>2019-03-09T08:15:35Z</time>
      </trkpt>
      <trkpt lat="48.70956" lon="2.03882">
        <ele>108.77</ele>
        <time>2019-03-09T08:15:36Z</time>
      </trkpt>
      <trkpt lat="48.70946" lon="2.03877">
        <ele>107.32</ele>
        <time>2019-03-09T08:15:39Z</time>
      </trkpt>
      <trkpt lat="48.70922" lon="2.03864">
        <ele>103.96</ele>
        <time>2019-03-09T08:15:46Z</time>
      </trkpt>
      <trkpt lat="48.70919" lon="2.03862">
        <ele>103.48</ele>
        <time>2019-03-09T08:15:47Z</time>
      </trkpt>
      <trkpt lat="48.70911" lon="2.03856">
        <ele>100.11</ele>
        <time>2019-03-09T08:15:51Z</time>
      </trkpt>
      <trkpt lat="48.70909" lon="2.03857">
        <ele>100.6</ele>
        <time>2019-03-09T08:15:52Z</time>
      </trkpt>
      <trkpt lat="48.70906" lon="2.03859">
        <ele>100.6</ele>
        <time>2019-03-09T08:15:53Z</time>
      </trkpt>
      <trkpt lat="48.70896" lon="2.03867">
        <ele>100.6</ele>
        <time>2019-03-09T08:15:59Z</time>
      </trkpt>
      <trkpt lat="48.70889" lon="2.0385">
        <ele>101.08</ele>
        <time>2019-03-09T08:16:54Z</time>
      </trkpt>
      <trkpt lat="48.70879" lon="2.03834">
        <ele>97.71</ele>
        <time>2019-03-09T08:16:59Z</time>
      </trkpt>
      <trkpt lat="48.7087" lon="2.03811">
        <ele>94.35</ele>
        <time>2019-03-09T08:17:04Z</time>
      </trkpt>
      <trkpt lat="48.70866" lon="2.038">
        <ele>93.87</ele>
        <time>2019-03-09T08:17:06Z</time>
      </trkpt>
      <trkpt lat="48.70842" lon="2.03766">
        <ele>91.94</ele>
        <time>2019-03-09T08:17:14Z</time>
      </trkpt>
      <trkpt lat="48.7084" lon="2.03765">
        <ele>91.94</ele>
        <time>2019-03-09T08:17:15Z</time>
      </trkpt>
      <trkpt lat="48.70838" lon="2.03768">
        <ele>91.94</ele>
        <time>2019-03-09T08:17:16Z</time>
      </trkpt>
      <trkpt lat="48.70836" lon="2.03772">
        <ele>91.94</ele>
        <time>2019-03-09T08:17:17Z</time>
      </trkpt>
      <trkpt lat="48.70834" lon="2.03773">
        <ele>91.94</ele>
        <time>2019-03-09T08:17:18Z</time>
      </trkpt>
      <trkpt lat="48.70824" lon="2.03779">
        <ele>91.94</ele>
        <time>2019-03-09T08:17:22Z</time>
      </trkpt>
      <trkpt lat="48.70806" lon="2.03799">
        <ele>91.46</ele>
        <time>2019-03-09T08:17:31Z</time>
      </trkpt>
      <trkpt lat="48.70788" lon="2.03793">
        <ele>91.46</ele>
        <time>2019-03-09T08:17:42Z</time>
      </trkpt>
      <trkpt lat="48.70777" lon="2.03792">
        <ele>91.46</ele>
        <time>2019-03-09T08:17:51Z</time>
      </trkpt>
      <trkpt lat="48.70776" lon="2.03791">
        <ele>91.46</ele>
        <time>2019-03-09T08:17:52Z</time>
      </trkpt>
      <trkpt lat="48.70775" lon="2.0379">
        <ele>91.46</ele>
        <time>2019-03-09T08:17:53Z</time>
      </trkpt>
      <trkpt lat="48.70774" lon="2.0379">
        <ele>91.46</ele>
        <time>2019-03-09T08:17:55Z</time>
      </trkpt>
      <trkpt lat="48.70772" lon="2.0379">
        <ele>91.46</ele>
        <time>2019-03-09T08:17:56Z</time>
      </trkpt>
      <trkpt lat="48.70769" lon="2.03793">
        <ele>91.46</ele>
        <time>2019-03-09T08:17:58Z</time>
      </trkpt>
      <trkpt lat="48.70768" lon="2.03797">
        <ele>91.46</ele>
        <time>2019-03-09T08:18:00Z</time>
      </trkpt>
      <trkpt lat="48.70768" lon="2.038">
        <ele>91.94</ele>
        <time>2019-03-09T08:18:01Z</time>
      </trkpt>
      <trkpt lat="48.70769" lon="2.03842">
        <ele>91.46</ele>
        <time>2019-03-09T08:18:17Z</time>
      </trkpt>
      <trkpt lat="48.70746" lon="2.0389">
        <ele>90.98</ele>
        <time>2019-03-09T08:18:31Z</time>
      </trkpt>
      <trkpt lat="48.70743" lon="2.03893">
        <ele>91.46</ele>
        <time>2019-03-09T08:18:43Z</time>
      </trkpt>
      <trkpt lat="48.70741" lon="2.03909">
        <ele>91.46</ele>
        <time>2019-03-09T08:18:50Z</time>
      </trkpt>
      <trkpt lat="48.70742" lon="2.03911">
        <ele>91.46</ele>
        <time>2019-03-09T08:18:51Z</time>
      </trkpt>
      <trkpt lat="48.70746" lon="2.03912">
        <ele>91.94</ele>
        <time>2019-03-09T08:18:52Z</time>
      </trkpt>
      <trkpt lat="48.70749" lon="2.03914">
        <ele>91.94</ele>
        <time>2019-03-09T08:18:53Z</time>
      </trkpt>
      <trkpt lat="48.7075" lon="2.03916">
        <ele>91.94</ele>
        <time>2019-03-09T08:18:54Z</time>
      </trkpt>
      <trkpt lat="48.70752" lon="2.03919">
        <ele>91.46</ele>
        <time>2019-03-09T08:18:55Z</time>
      </trkpt>
      <trkpt lat="48.70753" lon="2.03928">
        <ele>92.42</ele>
        <time>2019-03-09T08:18:58Z</time>
      </trkpt>
      <trkpt lat="48.70753" lon="2.0393">
        <ele>92.9</ele>
        <time>2019-03-09T08:18:59Z</time>
      </trkpt>
      <trkpt lat="48.70752" lon="2.03931">
        <ele>92.42</ele>
        <time>2019-03-09T08:19:00Z</time>
      </trkpt>
      <trkpt lat="48.70744" lon="2.03941">
        <ele>91.46</ele>
        <time>2019-03-09T08:19:07Z</time>
      </trkpt>
      <trkpt lat="48.70742" lon="2.03942">
        <ele>90.98</ele>
        <time>2019-03-09T08:19:08Z</time>
      </trkpt>
      <trkpt lat="48.7074" lon="2.03943">
        <ele>90.98</ele>
        <time>2019-03-09T08:19:09Z</time>
      </trkpt>
      <trkpt lat="48.70706" lon="2.03964">
        <ele>89.06</ele>
        <time>2019-03-09T08:19:17Z</time>
      </trkpt>
      <trkpt lat="48.70694" lon="2.03966">
        <ele>88.58</ele>
        <time>2019-03-09T08:19:21Z</time>
      </trkpt>
      <trkpt lat="48.7069" lon="2.03968">
        <ele>88.58</ele>
        <time>2019-03-09T08:19:22Z</time>
      </trkpt>
      <trkpt lat="48.70676" lon="2.03972">
        <ele>88.1</ele>
        <time>2019-03-09T08:19:26Z</time>
      </trkpt>
      <trkpt lat="48.70645" lon="2.03937">
        <ele>88.1</ele>
        <time>2019-03-09T08:19:40Z</time>
      </trkpt>
      <trkpt lat="48.70643" lon="2.03937">
        <ele>87.62</ele>
        <time>2019-03-09T08:19:41Z</time>
      </trkpt>
      <trkpt lat="48.70642" lon="2.03938">
        <ele>88.58</ele>
        <time>2019-03-09T08:19:42Z</time>
      </trkpt>
      <trkpt lat="48.70636" lon="2.03946">
        <ele>89.06</ele>
        <time>2019-03-09T08:19:46Z</time>
      </trkpt>
      <trkpt lat="48.70635" lon="2.03948">
        <ele>88.58</ele>
        <time>2019-03-09T08:19:47Z</time>
      </trkpt>
      <trkpt lat="48.70629" lon="2.03954">
        <ele>88.58</ele>
        <time>2019-03-09T08:19:50Z</time>
      </trkpt>
      <trkpt lat="48.70593" lon="2.0396">
        <ele>89.06</ele>
        <time>2019-03-09T08:20:00Z</time>
      </trkpt>
      <trkpt lat="48.70566" lon="2.0396">
        <ele>89.06</ele>
        <time>2019-03-09T08:20:07Z</time>
      </trkpt>
      <trkpt lat="48.70564" lon="2.0396">
        <ele>89.06</ele>
        <time>2019-03-09T08:20:08Z</time>
      </trkpt>
      <trkpt lat="48.70561" lon="2.0396">
        <ele>88.1</ele>
        <time>2019-03-09T08:20:10Z</time>
      </trkpt>
      <trkpt lat="48.70561" lon="2.03961">
        <ele>89.06</ele>
        <time>2019-03-09T08:20:11Z</time>
      </trkpt>
      <trkpt lat="48.7056" lon="2.03965">
        <ele>88.58</ele>
        <time>2019-03-09T08:20:12Z</time>
      </trkpt>
      <trkpt lat="48.7056" lon="2.03968">
        <ele>88.58</ele>
        <time>2019-03-09T08:20:13Z</time>
      </trkpt>
      <trkpt lat="48.7056" lon="2.03974">
        <ele>88.58</ele>
        <time>2019-03-09T08:20:14Z</time>
      </trkpt>
      <trkpt lat="48.70559" lon="2.03979">
        <ele>89.06</ele>
        <time>2019-03-09T08:20:15Z</time>
      </trkpt>
      <trkpt lat="48.70544" lon="2.04017">
        <ele>89.06</ele>
        <time>2019-03-09T08:20:24Z</time>
      </trkpt>
      <trkpt lat="48.70542" lon="2.04017">
        <ele>89.06</ele>
        <time>2019-03-09T08:20:25Z</time>
      </trkpt>
      <trkpt lat="48.70539" lon="2.04014">
        <ele>88.58</ele>
        <time>2019-03-09T08:20:26Z</time>
      </trkpt>
      <trkpt lat="48.70536" lon="2.04011">
        <ele>88.58</ele>
        <time>2019-03-09T08:20:27Z</time>
      </trkpt>
      <trkpt lat="48.70533" lon="2.04008">
        <ele>88.1</ele>
        <time>2019-03-09T08:20:28Z</time>
      </trkpt>
      <trkpt lat="48.70531" lon="2.04005">
        <ele>88.1</ele>
        <time>2019-03-09T08:20:29Z</time>
      </trkpt>
      <trkpt lat="48.70528" lon="2.04001">
        <ele>88.58</ele>
        <time>2019-03-09T08:20:30Z</time>
      </trkpt>
      <trkpt lat="48.70526" lon="2.03998">
        <ele>88.58</ele>
        <time>2019-03-09T08:20:31Z</time>
      </trkpt>
      <trkpt lat="48.70524" lon="2.03994">
        <ele>88.58</ele>
        <time>2019-03-09T08:20:32Z</time>
      </trkpt>
      <trkpt lat="48.70521" lon="2.0399">
        <ele>88.1</ele>
        <time>2019-03-09T08:20:33Z</time>
      </trkpt>
      <trkpt lat="48.70487" lon="2.03969">
        <ele>87.14</ele>
        <time>2019-03-09T08:20:44Z</time>
      </trkpt>
      <trkpt lat="48.70467" lon="2.03946">
        <ele>88.1</ele>
        <time>2019-03-09T08:20:53Z</time>
      </trkpt>
      <trkpt lat="48.70466" lon="2.03943">
        <ele>88.58</ele>
        <time>2019-03-09T08:20:54Z</time>
      </trkpt>
      <trkpt lat="48.70466" lon="2.03939">
        <ele>88.1</ele>
        <time>2019-03-09T08:20:55Z</time>
      </trkpt>
      <trkpt lat="48.70466" lon="2.03936">
        <ele>88.1</ele>
        <time>2019-03-09T08:20:56Z</time>
      </trkpt>
      <trkpt lat="48.70466" lon="2.03932">
        <ele>88.1</ele>
        <time>2019-03-09T08:20:57Z</time>
      </trkpt>
      <trkpt lat="48.70466" lon="2.03922">
        <ele>88.1</ele>
        <time>2019-03-09T08:21:00Z</time>
      </trkpt>
      <trkpt lat="48.70469" lon="2.03912">
        <ele>88.1</ele>
        <time>2019-03-09T08:21:38Z</time>
      </trkpt>
      <trkpt lat="48.70477" lon="2.03906">
        <ele>88.1</ele>
        <time>2019-03-09T08:21:40Z</time>
      </trkpt>
      <trkpt lat="48.7048" lon="2.03901">
        <ele>87.62</ele>
        <time>2019-03-09T08:21:41Z</time>
      </trkpt>
      <trkpt lat="48.70482" lon="2.03894">
        <ele>87.62</ele>
        <time>2019-03-09T08:21:42Z</time>
      </trkpt>
      <trkpt lat="48.70484" lon="2.03887">
        <ele>87.14</ele>
        <time>2019-03-09T08:21:43Z</time>
      </trkpt>
      <trkpt lat="48.70486" lon="2.03881">
        <ele>87.14</ele>
        <time>2019-03-09T08:21:44Z</time>
      </trkpt>
      <trkpt lat="48.70488" lon="2.03875">
        <ele>87.62</ele>
        <time>2019-03-09T08:21:45Z</time>
      </trkpt>
      <trkpt lat="48.70493" lon="2.03821">
        <ele>88.58</ele>
        <time>2019-03-09T08:21:56Z</time>
      </trkpt>
      <trkpt lat="48.70486" lon="2.03774">
        <ele>89.54</ele>
        <time>2019-03-09T08:22:08Z</time>
      </trkpt>
      <trkpt lat="48.70483" lon="2.03774">
        <ele>88.58</ele>
        <time>2019-03-09T08:22:09Z</time>
      </trkpt>
      <trkpt lat="48.7048" lon="2.03775">
        <ele>89.06</ele>
        <time>2019-03-09T08:22:10Z</time>
      </trkpt>
      <trkpt lat="48.70476" lon="2.03775">
        <ele>89.54</ele>
        <time>2019-03-09T08:22:11Z</time>
      </trkpt>
      <trkpt lat="48.70472" lon="2.03776">
        <ele>89.06</ele>
        <time>2019-03-09T08:22:12Z</time>
      </trkpt>
      <trkpt lat="48.70469" lon="2.03777">
        <ele>89.54</ele>
        <time>2019-03-09T08:22:13Z</time>
      </trkpt>
      <trkpt lat="48.70466" lon="2.03779">
        <ele>89.54</ele>
        <time>2019-03-09T08:22:14Z</time>
      </trkpt>
      <trkpt lat="48.70451" lon="2.03814">
        <ele>90.02</ele>
        <time>2019-03-09T08:22:24Z</time>
      </trkpt>
      <trkpt lat="48.70445" lon="2.03893">
        <ele>90.98</ele>
        <time>2019-03-09T08:22:40Z</time>
      </trkpt>
      <trkpt lat="48.7042" lon="2.03939">
        <ele>91.94</ele>
        <time>2019-03-09T08:22:54Z</time>
      </trkpt>
      <trkpt lat="48.7039" lon="2.03944">
        <ele>93.39</ele>
        <time>2019-03-09T08:23:06Z</time>
      </trkpt>
      <trkpt lat="48.70361" lon="2.03955">
        <ele>95.31</ele>
        <time>2019-03-09T08:23:19Z</time>
      </trkpt>
      <trkpt lat="48.70343" lon="2.03972">
        <ele>97.71</ele>
        <time>2019-03-09T08:23:30Z</time>
      </trkpt>
      <trkpt lat="48.70343" lon="2.03974">
        <ele>97.71</ele>
        <time>2019-03-09T08:23:31Z</time>
      </trkpt>
      <trkpt lat="48.70342" lon="2.03976">
        <ele>97.71</ele>
        <time>2019-03-09T08:23:32Z</time>
      </trkpt>
      <trkpt lat="48.7034" lon="2.03978">
        <ele>97.71</ele>
        <time>2019-03-09T08:23:33Z</time>
      </trkpt>
      <trkpt lat="48.70339" lon="2.0398">
        <ele>98.19</ele>
        <time>2019-03-09T08:23:34Z</time>
      </trkpt>
      <trkpt lat="48.70337" lon="2.03982">
        <ele>98.19</ele>
        <time>2019-03-09T08:23:35Z</time>
      </trkpt>
      <trkpt lat="48.70336" lon="2.03983">
        <ele>98.19</ele>
        <time>2019-03-09T08:23:36Z</time>
      </trkpt>
      <trkpt lat="48.70326" lon="2.03994">
        <ele>99.63</ele>
        <time>2019-03-09T08:23:45Z</time>
      </trkpt>
      <trkpt lat="48.7032" lon="2.04">
        <ele>101.08</ele>
        <time>2019-03-09T08:23:50Z</time>
      </trkpt>
      <trkpt lat="48.70319" lon="2.04002">
        <ele>101.08</ele>
        <time>2019-03-09T08:23:51Z</time>
      </trkpt>
      <trkpt lat="48.70318" lon="2.04003">
        <ele>101.08</ele>
        <time>2019-03-09T08:23:52Z</time>
      </trkpt>
      <trkpt lat="48.70316" lon="2.04004">
        <ele>101.08</ele>
        <time>2019-03-09T08:23:53Z</time>
      </trkpt>
      <trkpt lat="48.70315" lon="2.04004">
        <ele>101.56</ele>
        <time>2019-03-09T08:23:54Z</time>
      </trkpt>
      <trkpt lat="48.70314" lon="2.04004">
        <ele>101.56</ele>
        <time>2019-03-09T08:23:55Z</time>
      </trkpt>
      <trkpt lat="48.70313" lon="2.04005">
        <ele>101.08</ele>
        <time>2019-03-09T08:23:56Z</time>
      </trkpt>
      <trkpt lat="48.70297" lon="2.04014">
        <ele>102.52</ele>
        <time>2019-03-09T08:24:07Z</time>
      </trkpt>
      <trkpt lat="48.70269" lon="2.04035">
        <ele>104.44</ele>
        <time>2019-03-09T08:24:23Z</time>
      </trkpt>
      <trkpt lat="48.70243" lon="2.04044">
        <ele>106.36</ele>
        <time>2019-03-09T08:24:37Z</time>
      </trkpt>
      <trkpt lat="48.70212" lon="2.04053">
        <ele>108.29</ele>
        <time>2019-03-09T08:24:54Z</time>
      </trkpt>
      <trkpt lat="48.70189" lon="2.04061">
        <ele>111.17</ele>
        <time>2019-03-09T08:25:08Z</time>
      </trkpt>
      <trkpt lat="48.70183" lon="2.04063">
        <ele>111.65</ele>
        <time>2019-03-09T08:25:12Z</time>
      </trkpt>
      <trkpt lat="48.70161" lon="2.04068">
        <ele>113.09</ele>
        <time>2019-03-09T08:25:25Z</time>
      </trkpt>
      <trkpt lat="48.70141" lon="2.04074">
        <ele>115.01</ele>
        <time>2019-03-09T08:25:37Z</time>
      </trkpt>
      <trkpt lat="48.70115" lon="2.0408">
        <ele>117.42</ele>
        <time>2019-03-09T08:25:53Z</time>
      </trkpt>
      <trkpt lat="48.70102" lon="2.04082">
        <ele>118.86</ele>
        <time>2019-03-09T08:26:04Z</time>
      </trkpt>
      <trkpt lat="48.70091" lon="2.04082">
        <ele>120.3</ele>
        <time>2019-03-09T08:26:13Z</time>
      </trkpt>
      <trkpt lat="48.70077" lon="2.04079">
        <ele>122.22</ele>
        <time>2019-03-09T08:26:24Z</time>
      </trkpt>
      <trkpt lat="48.70074" lon="2.04079">
        <ele>122.71</ele>
        <time>2019-03-09T08:26:26Z</time>
      </trkpt>
      <trkpt lat="48.7006" lon="2.04075">
        <ele>124.63</ele>
        <time>2019-03-09T08:26:37Z</time>
      </trkpt>
      <trkpt lat="48.70058" lon="2.04074">
        <ele>124.63</ele>
        <time>2019-03-09T08:26:40Z</time>
      </trkpt>
      <trkpt lat="48.70042" lon="2.04069">
        <ele>127.51</ele>
        <time>2019-03-09T08:26:52Z</time>
      </trkpt>
      <trkpt lat="48.7003" lon="2.04069">
        <ele>128.95</ele>
        <time>2019-03-09T08:27:04Z</time>
      </trkpt>
      <trkpt lat="48.70023" lon="2.04068">
        <ele>129.43</ele>
        <time>2019-03-09T08:27:13Z</time>
      </trkpt>
      <trkpt lat="48.70012" lon="2.04071">
        <ele>131.84</ele>
        <time>2019-03-09T08:27:27Z</time>
      </trkpt>
      <trkpt lat="48.70007" lon="2.04063">
        <ele>133.76</ele>
        <time>2019-03-09T08:27:39Z</time>
      </trkpt>
      <trkpt lat="48.70002" lon="2.04058">
        <ele>135.68</ele>
        <time>2019-03-09T08:27:45Z</time>
      </trkpt>
      <trkpt lat="48.70001" lon="2.04058">
        <ele>135.68</ele>
        <time>2019-03-09T08:27:48Z</time>
      </trkpt>
      <trkpt lat="48.69993" lon="2.04052">
        <ele>136.64</ele>
        <time>2019-03-09T08:27:59Z</time>
      </trkpt>
      <trkpt lat="48.69985" lon="2.04043">
        <ele>138.57</ele>
        <time>2019-03-09T08:28:11Z</time>
      </trkpt>
      <trkpt lat="48.69971" lon="2.04032">
        <ele>141.45</ele>
        <time>2019-03-09T08:28:25Z</time>
      </trkpt>
      <trkpt lat="48.69961" lon="2.04028">
        <ele>143.37</ele>
        <time>2019-03-09T08:28:36Z</time>
      </trkpt>
      <trkpt lat="48.69957" lon="2.04023">
        <ele>144.82</ele>
        <time>2019-03-09T08:28:47Z</time>
      </trkpt>
      <trkpt lat="48.69954" lon="2.04014">
        <ele>147.22</ele>
        <time>2019-03-09T08:28:58Z</time>
      </trkpt>
      <trkpt lat="48.69942" lon="2.04009">
        <ele>148.18</ele>
        <time>2019-03-09T08:29:09Z</time>
      </trkpt>
      <trkpt lat="48.69935" lon="2.04006">
        <ele>150.58</ele>
        <time>2019-03-09T08:29:21Z</time>
      </trkpt>
      <trkpt lat="48.69925" lon="2.03998">
        <ele>152.99</ele>
        <time>2019-03-09T08:29:32Z</time>
      </trkpt>
      <trkpt lat="48.69923" lon="2.03996">
        <ele>153.95</ele>
        <time>2019-03-09T08:29:34Z</time>
      </trkpt>
      <trkpt lat="48.69903" lon="2.03989">
        <ele>156.35</ele>
        <time>2019-03-09T08:29:46Z</time>
      </trkpt>
      <trkpt lat="48.69894" lon="2.03984">
        <ele>159.24</ele>
        <time>2019-03-09T08:30:00Z</time>
      </trkpt>
      <trkpt lat="48.69885" lon="2.03978">
        <ele>160.2</ele>
        <time>2019-03-09T08:30:14Z</time>
      </trkpt>
      <trkpt lat="48.69883" lon="2.03977">
        <ele>160.2</ele>
        <time>2019-03-09T08:30:15Z</time>
      </trkpt>
      <trkpt lat="48.69878" lon="2.03975">
        <ele>162.6</ele>
        <time>2019-03-09T08:30:23Z</time>
      </trkpt>
      <trkpt lat="48.69877" lon="2.03973">
        <ele>163.08</ele>
        <time>2019-03-09T08:30:25Z</time>
      </trkpt>
      <trkpt lat="48.69875" lon="2.03972">
        <ele>163.08</ele>
        <time>2019-03-09T08:30:26Z</time>
      </trkpt>
      <trkpt lat="48.69859" lon="2.03964">
        <ele>165.48</ele>
        <time>2019-03-09T08:30:38Z</time>
      </trkpt>
      <trkpt lat="48.69843" lon="2.03958">
        <ele>166.93</ele>
        <time>2019-03-09T08:30:50Z</time>
      </trkpt>
      <trkpt lat="48.69834" lon="2.03953">
        <ele>168.85</ele>
        <time>2019-03-09T08:31:00Z</time>
      </trkpt>
      <trkpt lat="48.69822" lon="2.03941">
        <ele>170.77</ele>
        <time>2019-03-09T08:31:11Z</time>
      </trkpt>
      <trkpt lat="48.69812" lon="2.03933">
        <ele>171.73</ele>
        <time>2019-03-09T08:31:20Z</time>
      </trkpt>
      <trkpt lat="48.69808" lon="2.03932">
        <ele>172.69</ele>
        <time>2019-03-09T08:31:23Z</time>
      </trkpt>
      <trkpt lat="48.69807" lon="2.03931">
        <ele>172.21</ele>
        <time>2019-03-09T08:31:24Z</time>
      </trkpt>
      <trkpt lat="48.69797" lon="2.03926">
        <ele>172.69</ele>
        <time>2019-03-09T08:31:32Z</time>
      </trkpt>
      <trkpt lat="48.69796" lon="2.03927">
        <ele>173.17</ele>
        <time>2019-03-09T08:31:33Z</time>
      </trkpt>
      <trkpt lat="48.698" lon="2.03946">
        <ele>172.69</ele>
        <time>2019-03-09T08:31:44Z</time>
      </trkpt>
      <trkpt lat="48.69809" lon="2.03991">
        <ele>173.66</ele>
        <time>2019-03-09T08:31:57Z</time>
      </trkpt>
      <trkpt lat="48.69814" lon="2.04009">
        <ele>173.66</ele>
        <time>2019-03-09T08:32:01Z</time>
      </trkpt>
      <trkpt lat="48.6982" lon="2.04065">
        <ele>173.17</ele>
        <time>2019-03-09T08:32:13Z</time>
      </trkpt>
      <trkpt lat="48.6983" lon="2.04108">
        <ele>172.69</ele>
        <time>2019-03-09T08:32:22Z</time>
      </trkpt>
      <trkpt lat="48.69826" lon="2.04135">
        <ele>172.69</ele>
        <time>2019-03-09T08:32:27Z</time>
      </trkpt>
      <trkpt lat="48.69827" lon="2.04186">
        <ele>172.69</ele>
        <time>2019-03-09T08:32:37Z</time>
      </trkpt>
      <trkpt lat="48.69825" lon="2.04204">
        <ele>172.69</ele>
        <time>2019-03-09T08:32:41Z</time>
      </trkpt>
      <trkpt lat="48.69824" lon="2.04208">
        <ele>172.69</ele>
        <time>2019-03-09T08:32:42Z</time>
      </trkpt>
      <trkpt lat="48.69821" lon="2.04212">
        <ele>172.69</ele>
        <time>2019-03-09T08:32:43Z</time>
      </trkpt>
      <trkpt lat="48.6982" lon="2.04215">
        <ele>172.21</ele>
        <time>2019-03-09T08:32:44Z</time>
      </trkpt>
      <trkpt lat="48.69819" lon="2.04219">
        <ele>172.69</ele>
        <time>2019-03-09T08:32:45Z</time>
      </trkpt>
      <trkpt lat="48.69818" lon="2.04223">
        <ele>172.69</ele>
        <time>2019-03-09T08:32:46Z</time>
      </trkpt>
      <trkpt lat="48.69806" lon="2.04255">
        <ele>173.17</ele>
        <time>2019-03-09T08:32:55Z</time>
      </trkpt>
      <trkpt lat="48.69804" lon="2.04261">
        <ele>173.17</ele>
        <time>2019-03-09T08:32:57Z</time>
      </trkpt>
      <trkpt lat="48.69802" lon="2.04264">
        <ele>173.66</ele>
        <time>2019-03-09T08:32:58Z</time>
      </trkpt>
      <trkpt lat="48.69791" lon="2.04292">
        <ele>173.17</ele>
        <time>2019-03-09T08:33:06Z</time>
      </trkpt>
      <trkpt lat="48.69788" lon="2.04294">
        <ele>173.66</ele>
        <time>2019-03-09T08:33:07Z</time>
      </trkpt>
      <trkpt lat="48.69785" lon="2.04296">
        <ele>173.66</ele>
        <time>2019-03-09T08:33:08Z</time>
      </trkpt>
      <trkpt lat="48.69783" lon="2.04298">
        <ele>173.66</ele>
        <time>2019-03-09T08:33:09Z</time>
      </trkpt>
      <trkpt lat="48.69781" lon="2.043">
        <ele>174.14</ele>
        <time>2019-03-09T08:33:10Z</time>
      </trkpt>
      <trkpt lat="48.6978" lon="2.04302">
        <ele>173.66</ele>
        <time>2019-03-09T08:33:11Z</time>
      </trkpt>
      <trkpt lat="48.69778" lon="2.04304">
        <ele>173.66</ele>
        <time>2019-03-09T08:33:12Z</time>
      </trkpt>
      <trkpt lat="48.69777" lon="2.04307">
        <ele>173.66</ele>
        <time>2019-03-09T08:33:13Z</time>
      </trkpt>
      <trkpt lat="48.69776" lon="2.0431">
        <ele>173.66</ele>
        <time>2019-03-09T08:33:14Z</time>
      </trkpt>
      <trkpt lat="48.69776" lon="2.04312">
        <ele>174.14</ele>
        <time>2019-03-09T08:33:15Z</time>
      </trkpt>
      <trkpt lat="48.69774" lon="2.04317">
        <ele>174.14</ele>
        <time>2019-03-09T08:33:17Z</time>
      </trkpt>
      <trkpt lat="48.69755" lon="2.04348">
        <ele>174.62</ele>
        <time>2019-03-09T08:33:28Z</time>
      </trkpt>
      <trkpt lat="48.69734" lon="2.04362">
        <ele>175.1</ele>
        <time>2019-03-09T08:33:36Z</time>
      </trkpt>
      <trkpt lat="48.69717" lon="2.04375">
        <ele>175.1</ele>
        <time>2019-03-09T08:33:44Z</time>
      </trkpt>
      <trkpt lat="48.69712" lon="2.04377">
        <ele>175.58</ele>
        <time>2019-03-09T08:33:46Z</time>
      </trkpt>
      <trkpt lat="48.69692" lon="2.044">
        <ele>175.58</ele>
        <time>2019-03-09T08:33:55Z</time>
      </trkpt>
      <trkpt lat="48.69691" lon="2.04403">
        <ele>176.06</ele>
        <time>2019-03-09T08:33:56Z</time>
      </trkpt>
      <trkpt lat="48.69688" lon="2.04413">
        <ele>175.1</ele>
        <time>2019-03-09T08:33:59Z</time>
      </trkpt>
      <trkpt lat="48.69682" lon="2.04425">
        <ele>176.06</ele>
        <time>2019-03-09T08:34:06Z</time>
      </trkpt>
      <trkpt lat="48.69691" lon="2.04453">
        <ele>176.54</ele>
        <time>2019-03-09T08:34:15Z</time>
      </trkpt>
      <trkpt lat="48.6969" lon="2.04458">
        <ele>176.54</ele>
        <time>2019-03-09T08:34:16Z</time>
      </trkpt>
      <trkpt lat="48.69685" lon="2.04474">
        <ele>175.58</ele>
        <time>2019-03-09T08:34:19Z</time>
      </trkpt>
      <trkpt lat="48.69685" lon="2.04504">
        <ele>175.58</ele>
        <time>2019-03-09T08:34:26Z</time>
      </trkpt>
      <trkpt lat="48.69692" lon="2.04515">
        <ele>175.58</ele>
        <time>2019-03-09T08:34:29Z</time>
      </trkpt>
      <trkpt lat="48.69713" lon="2.04529">
        <ele>175.1</ele>
        <time>2019-03-09T08:34:40Z</time>
      </trkpt>
      <trkpt lat="48.69722" lon="2.04534">
        <ele>174.62</ele>
        <time>2019-03-09T08:34:45Z</time>
      </trkpt>
      <trkpt lat="48.69736" lon="2.04539">
        <ele>174.62</ele>
        <time>2019-03-09T08:34:51Z</time>
      </trkpt>
      <trkpt lat="48.69742" lon="2.04545">
        <ele>174.14</ele>
        <time>2019-03-09T08:34:54Z</time>
      </trkpt>
      <trkpt lat="48.69749" lon="2.0456">
        <ele>173.17</ele>
        <time>2019-03-09T08:35:00Z</time>
      </trkpt>
      <trkpt lat="48.69761" lon="2.04578">
        <ele>172.69</ele>
        <time>2019-03-09T08:35:06Z</time>
      </trkpt>
      <trkpt lat="48.69778" lon="2.04589">
        <ele>171.25</ele>
        <time>2019-03-09T08:35:13Z</time>
      </trkpt>
      <trkpt lat="48.69778" lon="2.04592">
        <ele>170.77</ele>
        <time>2019-03-09T08:35:14Z</time>
      </trkpt>
      <trkpt lat="48.69773" lon="2.04606">
        <ele>171.25</ele>
        <time>2019-03-09T08:35:20Z</time>
      </trkpt>
      <trkpt lat="48.69769" lon="2.04613">
        <ele>170.77</ele>
        <time>2019-03-09T08:35:24Z</time>
      </trkpt>
      <trkpt lat="48.69771" lon="2.04626">
        <ele>169.81</ele>
        <time>2019-03-09T08:35:27Z</time>
      </trkpt>
      <trkpt lat="48.69764" lon="2.0464">
        <ele>169.81</ele>
        <time>2019-03-09T08:35:32Z</time>
      </trkpt>
      <trkpt lat="48.6976" lon="2.0466">
        <ele>169.81</ele>
        <time>2019-03-09T08:35:39Z</time>
      </trkpt>
      <trkpt lat="48.69767" lon="2.04689">
        <ele>169.81</ele>
        <time>2019-03-09T08:35:44Z</time>
      </trkpt>
      <trkpt lat="48.69778" lon="2.04728">
        <ele>169.81</ele>
        <time>2019-03-09T08:35:49Z</time>
      </trkpt>
      <trkpt lat="48.6978" lon="2.04746">
        <ele>169.33</ele>
        <time>2019-03-09T08:35:53Z</time>
      </trkpt>
      <trkpt lat="48.6979" lon="2.04789">
        <ele>168.37</ele>
        <time>2019-03-09T08:36:00Z</time>
      </trkpt>
      <trkpt lat="48.69792" lon="2.04832">
        <ele>167.41</ele>
        <time>2019-03-09T08:36:07Z</time>
      </trkpt>
      <trkpt lat="48.69779" lon="2.04893">
        <ele>165</ele>
        <time>2019-03-09T08:36:17Z</time>
      </trkpt>
      <trkpt lat="48.69777" lon="2.04896">
        <ele>165</ele>
        <time>2019-03-09T08:36:18Z</time>
      </trkpt>
      <trkpt lat="48.69766" lon="2.04933">
        <ele>165</ele>
        <time>2019-03-09T08:36:28Z</time>
      </trkpt>
      <trkpt lat="48.69767" lon="2.04942">
        <ele>165</ele>
        <time>2019-03-09T08:36:30Z</time>
      </trkpt>
      <trkpt lat="48.6976" lon="2.04957">
        <ele>165.48</ele>
        <time>2019-03-09T08:36:34Z</time>
      </trkpt>
      <trkpt lat="48.69757" lon="2.04964">
        <ele>165</ele>
        <time>2019-03-09T08:36:36Z</time>
      </trkpt>
      <trkpt lat="48.69748" lon="2.04979">
        <ele>165.48</ele>
        <time>2019-03-09T08:36:40Z</time>
      </trkpt>
      <trkpt lat="48.69734" lon="2.05012">
        <ele>165.96</ele>
        <time>2019-03-09T08:36:50Z</time>
      </trkpt>
      <trkpt lat="48.69731" lon="2.0502">
        <ele>166.45</ele>
        <time>2019-03-09T08:36:52Z</time>
      </trkpt>
      <trkpt lat="48.69726" lon="2.05065">
        <ele>165.96</ele>
        <time>2019-03-09T08:37:01Z</time>
      </trkpt>
      <trkpt lat="48.69725" lon="2.05078">
        <ele>165.48</ele>
        <time>2019-03-09T08:37:04Z</time>
      </trkpt>
      <trkpt lat="48.69721" lon="2.05093">
        <ele>165</ele>
        <time>2019-03-09T08:37:07Z</time>
      </trkpt>
      <trkpt lat="48.69716" lon="2.05162">
        <ele>166.45</ele>
        <time>2019-03-09T08:37:18Z</time>
      </trkpt>
      <trkpt lat="48.69714" lon="2.05195">
        <ele>166.45</ele>
        <time>2019-03-09T08:37:25Z</time>
      </trkpt>
      <trkpt lat="48.69703" lon="2.0523">
        <ele>166.93</ele>
        <time>2019-03-09T08:37:34Z</time>
      </trkpt>
      <trkpt lat="48.69702" lon="2.05248">
        <ele>167.41</ele>
        <time>2019-03-09T08:37:39Z</time>
      </trkpt>
      <trkpt lat="48.69701" lon="2.05261">
        <ele>166.93</ele>
        <time>2019-03-09T08:37:44Z</time>
      </trkpt>
      <trkpt lat="48.69697" lon="2.05282">
        <ele>166.93</ele>
        <time>2019-03-09T08:37:51Z</time>
      </trkpt>
      <trkpt lat="48.69702" lon="2.05336">
        <ele>167.89</ele>
        <time>2019-03-09T08:37:59Z</time>
      </trkpt>
      <trkpt lat="48.69702" lon="2.05342">
        <ele>168.85</ele>
        <time>2019-03-09T08:38:01Z</time>
      </trkpt>
      <trkpt lat="48.69686" lon="2.05351">
        <ele>170.29</ele>
        <time>2019-03-09T08:38:11Z</time>
      </trkpt>
      <trkpt lat="48.69658" lon="2.05366">
        <ele>170.29</ele>
        <time>2019-03-09T08:38:21Z</time>
      </trkpt>
      <trkpt lat="48.69658" lon="2.05369">
        <ele>171.25</ele>
        <time>2019-03-09T08:38:22Z</time>
      </trkpt>
      <trkpt lat="48.69657" lon="2.05372">
        <ele>170.77</ele>
        <time>2019-03-09T08:38:23Z</time>
      </trkpt>
      <trkpt lat="48.69655" lon="2.05377">
        <ele>171.25</ele>
        <time>2019-03-09T08:38:25Z</time>
      </trkpt>
      <trkpt lat="48.69652" lon="2.05381">
        <ele>171.25</ele>
        <time>2019-03-09T08:38:27Z</time>
      </trkpt>
      <trkpt lat="48.69649" lon="2.05382">
        <ele>171.25</ele>
        <time>2019-03-09T08:38:29Z</time>
      </trkpt>
      <trkpt lat="48.69647" lon="2.05382">
        <ele>171.25</ele>
        <time>2019-03-09T08:38:30Z</time>
      </trkpt>
      <trkpt lat="48.69645" lon="2.0538">
        <ele>171.25</ele>
        <time>2019-03-09T08:38:31Z</time>
      </trkpt>
      <trkpt lat="48.69618" lon="2.05384">
        <ele>171.25</ele>
        <time>2019-03-09T08:38:42Z</time>
      </trkpt>
      <trkpt lat="48.69588" lon="2.05404">
        <ele>172.21</ele>
        <time>2019-03-09T08:38:53Z</time>
      </trkpt>
      <trkpt lat="48.69555" lon="2.05422">
        <ele>172.21</ele>
        <time>2019-03-09T08:39:03Z</time>
      </trkpt>
      <trkpt lat="48.6953" lon="2.05435">
        <ele>171.73</ele>
        <time>2019-03-09T08:39:10Z</time>
      </trkpt>
      <trkpt lat="48.69527" lon="2.05436">
        <ele>172.21</ele>
        <time>2019-03-09T08:39:11Z</time>
      </trkpt>
      <trkpt lat="48.69492" lon="2.05458">
        <ele>172.21</ele>
        <time>2019-03-09T08:39:22Z</time>
      </trkpt>
      <trkpt lat="48.69482" lon="2.05473">
        <ele>172.21</ele>
        <time>2019-03-09T08:42:28Z</time>
      </trkpt>
      <trkpt lat="48.69483" lon="2.05475">
        <ele>172.21</ele>
        <time>2019-03-09T08:42:29Z</time>
      </trkpt>
      <trkpt lat="48.69485" lon="2.05475">
        <ele>172.21</ele>
        <time>2019-03-09T08:42:30Z</time>
      </trkpt>
      <trkpt lat="48.69489" lon="2.05475">
        <ele>172.21</ele>
        <time>2019-03-09T08:42:32Z</time>
      </trkpt>
      <trkpt lat="48.69491" lon="2.05476">
        <ele>171.73</ele>
        <time>2019-03-09T08:42:33Z</time>
      </trkpt>
      <trkpt lat="48.69493" lon="2.05476">
        <ele>171.73</ele>
        <time>2019-03-09T08:42:34Z</time>
      </trkpt>
      <trkpt lat="48.69495" lon="2.05478">
        <ele>171.73</ele>
        <time>2019-03-09T08:42:35Z</time>
      </trkpt>
      <trkpt lat="48.69498" lon="2.05479">
        <ele>172.21</ele>
        <time>2019-03-09T08:42:36Z</time>
      </trkpt>
      <trkpt lat="48.695" lon="2.0548">
        <ele>171.25</ele>
        <time>2019-03-09T08:42:37Z</time>
      </trkpt>
      <trkpt lat="48.69502" lon="2.0548">
        <ele>171.25</ele>
        <time>2019-03-09T08:42:38Z</time>
      </trkpt>
      <trkpt lat="48.69503" lon="2.0548">
        <ele>171.73</ele>
        <time>2019-03-09T08:42:39Z</time>
      </trkpt>
      <trkpt lat="48.69506" lon="2.0548">
        <ele>171.73</ele>
        <time>2019-03-09T08:42:40Z</time>
      </trkpt>
      <trkpt lat="48.69508" lon="2.05479">
        <ele>172.21</ele>
        <time>2019-03-09T08:42:41Z</time>
      </trkpt>
      <trkpt lat="48.6951" lon="2.05479">
        <ele>172.21</ele>
        <time>2019-03-09T08:42:42Z</time>
      </trkpt>
      <trkpt lat="48.69512" lon="2.05479">
        <ele>172.21</ele>
        <time>2019-03-09T08:42:43Z</time>
      </trkpt>
      <trkpt lat="48.69514" lon="2.0548">
        <ele>171.73</ele>
        <time>2019-03-09T08:42:44Z</time>
      </trkpt>
      <trkpt lat="48.69516" lon="2.05481">
        <ele>171.25</ele>
        <time>2019-03-09T08:42:45Z</time>
      </trkpt>
      <trkpt lat="48.69518" lon="2.05481">
        <ele>171.73</ele>
        <time>2019-03-09T08:42:46Z</time>
      </trkpt>
      <trkpt lat="48.69519" lon="2.05482">
        <ele>171.73</ele>
        <time>2019-03-09T08:42:47Z</time>
      </trkpt>
      <trkpt lat="48.69525" lon="2.05483">
        <ele>171.73</ele>
        <time>2019-03-09T08:42:49Z</time>
      </trkpt>
      <trkpt lat="48.69541" lon="2.055">
        <ele>171.25</ele>
        <time>2019-03-09T08:42:58Z</time>
      </trkpt>
      <trkpt lat="48.69551" lon="2.05508">
        <ele>170.77</ele>
        <time>2019-03-09T08:43:05Z</time>
      </trkpt>
      <trkpt lat="48.69564" lon="2.05519">
        <ele>170.29</ele>
        <time>2019-03-09T08:43:17Z</time>
      </trkpt>
      <trkpt lat="48.69563" lon="2.05523">
        <ele>168.37</ele>
        <time>2019-03-09T08:43:20Z</time>
      </trkpt>
      <trkpt lat="48.69558" lon="2.05528">
        <ele>163.56</ele>
        <time>2019-03-09T08:43:24Z</time>
      </trkpt>
      <trkpt lat="48.69557" lon="2.05532">
        <ele>162.12</ele>
        <time>2019-03-09T08:43:26Z</time>
      </trkpt>
      <trkpt lat="48.69554" lon="2.05537">
        <ele>159.72</ele>
        <time>2019-03-09T08:43:29Z</time>
      </trkpt>
      <trkpt lat="48.69553" lon="2.05539">
        <ele>160.2</ele>
        <time>2019-03-09T08:43:30Z</time>
      </trkpt>
      <trkpt lat="48.69553" lon="2.05549">
        <ele>160.2</ele>
        <time>2019-03-09T08:43:38Z</time>
      </trkpt>
      <trkpt lat="48.6956" lon="2.05563">
        <ele>159.72</ele>
        <time>2019-03-09T08:43:43Z</time>
      </trkpt>
      <trkpt lat="48.69564" lon="2.0557">
        <ele>159.72</ele>
        <time>2019-03-09T08:43:47Z</time>
      </trkpt>
      <trkpt lat="48.69581" lon="2.05582">
        <ele>159.72</ele>
        <time>2019-03-09T08:44:01Z</time>
      </trkpt>
      <trkpt lat="48.6958" lon="2.05581">
        <ele>160.2</ele>
        <time>2019-03-09T08:44:05Z</time>
      </trkpt>
      <trkpt lat="48.69556" lon="2.05577">
        <ele>160.68</ele>
        <time>2019-03-09T08:44:18Z</time>
      </trkpt>
      <trkpt lat="48.69534" lon="2.05569">
        <ele>161.16</ele>
        <time>2019-03-09T08:44:28Z</time>
      </trkpt>
      <trkpt lat="48.69514" lon="2.05565">
        <ele>161.64</ele>
        <time>2019-03-09T08:44:39Z</time>
      </trkpt>
      <trkpt lat="48.69513" lon="2.05567">
        <ele>161.16</ele>
        <time>2019-03-09T08:44:40Z</time>
      </trkpt>
      <trkpt lat="48.69511" lon="2.05569">
        <ele>160.68</ele>
        <time>2019-03-09T08:44:41Z</time>
      </trkpt>
      <trkpt lat="48.69509" lon="2.0557">
        <ele>160.2</ele>
        <time>2019-03-09T08:44:42Z</time>
      </trkpt>
      <trkpt lat="48.69507" lon="2.05571">
        <ele>159.72</ele>
        <time>2019-03-09T08:44:43Z</time>
      </trkpt>
      <trkpt lat="48.69505" lon="2.05572">
        <ele>159.72</ele>
        <time>2019-03-09T08:44:44Z</time>
      </trkpt>
      <trkpt lat="48.69486" lon="2.05588">
        <ele>158.75</ele>
        <time>2019-03-09T08:44:54Z</time>
      </trkpt>
      <trkpt lat="48.69479" lon="2.05602">
        <ele>156.35</ele>
        <time>2019-03-09T08:44:59Z</time>
      </trkpt>
      <trkpt lat="48.69464" lon="2.0562">
        <ele>152.51</ele>
        <time>2019-03-09T08:45:04Z</time>
      </trkpt>
      <trkpt lat="48.69462" lon="2.05626">
        <ele>152.03</ele>
        <time>2019-03-09T08:45:05Z</time>
      </trkpt>
      <trkpt lat="48.69462" lon="2.0563">
        <ele>151.06</ele>
        <time>2019-03-09T08:45:06Z</time>
      </trkpt>
      <trkpt lat="48.69463" lon="2.05633">
        <ele>150.1</ele>
        <time>2019-03-09T08:45:07Z</time>
      </trkpt>
      <trkpt lat="48.69463" lon="2.05636">
        <ele>150.1</ele>
        <time>2019-03-09T08:45:08Z</time>
      </trkpt>
      <trkpt lat="48.69465" lon="2.05644">
        <ele>148.66</ele>
        <time>2019-03-09T08:45:10Z</time>
      </trkpt>
      <trkpt lat="48.69472" lon="2.0566">
        <ele>145.3</ele>
        <time>2019-03-09T08:45:15Z</time>
      </trkpt>
      <trkpt lat="48.69483" lon="2.05678">
        <ele>141.45</ele>
        <time>2019-03-09T08:45:20Z</time>
      </trkpt>
      <trkpt lat="48.6949" lon="2.05696">
        <ele>138.09</ele>
        <time>2019-03-09T08:45:25Z</time>
      </trkpt>
      <trkpt lat="48.69493" lon="2.05702">
        <ele>137.13</ele>
        <time>2019-03-09T08:45:27Z</time>
      </trkpt>
      <trkpt lat="48.69493" lon="2.05706">
        <ele>135.68</ele>
        <time>2019-03-09T08:45:28Z</time>
      </trkpt>
      <trkpt lat="48.69493" lon="2.0571">
        <ele>135.68</ele>
        <time>2019-03-09T08:45:29Z</time>
      </trkpt>
      <trkpt lat="48.69493" lon="2.05713">
        <ele>134.72</ele>
        <time>2019-03-09T08:45:30Z</time>
      </trkpt>
      <trkpt lat="48.69492" lon="2.05717">
        <ele>134.24</ele>
        <time>2019-03-09T08:45:31Z</time>
      </trkpt>
      <trkpt lat="48.69493" lon="2.05721">
        <ele>133.28</ele>
        <time>2019-03-09T08:45:32Z</time>
      </trkpt>
      <trkpt lat="48.69494" lon="2.05724">
        <ele>133.28</ele>
        <time>2019-03-09T08:45:33Z</time>
      </trkpt>
      <trkpt lat="48.69496" lon="2.0573">
        <ele>131.84</ele>
        <time>2019-03-09T08:45:35Z</time>
      </trkpt>
      <trkpt lat="48.69496" lon="2.05734">
        <ele>130.88</ele>
        <time>2019-03-09T08:45:36Z</time>
      </trkpt>
      <trkpt lat="48.69496" lon="2.05739">
        <ele>129.92</ele>
        <time>2019-03-09T08:45:37Z</time>
      </trkpt>
      <trkpt lat="48.69503" lon="2.05769">
        <ele>126.55</ele>
        <time>2019-03-09T08:45:44Z</time>
      </trkpt>
      <trkpt lat="48.69502" lon="2.05772">
        <ele>126.07</ele>
        <time>2019-03-09T08:45:45Z</time>
      </trkpt>
      <trkpt lat="48.69502" lon="2.05778">
        <ele>125.11</ele>
        <time>2019-03-09T08:45:47Z</time>
      </trkpt>
      <trkpt lat="48.69501" lon="2.05783">
        <ele>124.63</ele>
        <time>2019-03-09T08:45:48Z</time>
      </trkpt>
      <trkpt lat="48.69501" lon="2.05788">
        <ele>124.63</ele>
        <time>2019-03-09T08:45:49Z</time>
      </trkpt>
      <trkpt lat="48.69502" lon="2.05792">
        <ele>123.67</ele>
        <time>2019-03-09T08:45:50Z</time>
      </trkpt>
      <trkpt lat="48.69502" lon="2.05796">
        <ele>123.67</ele>
        <time>2019-03-09T08:45:51Z</time>
      </trkpt>
      <trkpt lat="48.69503" lon="2.0582">
        <ele>121.26</ele>
        <time>2019-03-09T08:45:57Z</time>
      </trkpt>
      <trkpt lat="48.69504" lon="2.05825">
        <ele>121.26</ele>
        <time>2019-03-09T08:45:58Z</time>
      </trkpt>
      <trkpt lat="48.69503" lon="2.0583">
        <ele>120.78</ele>
        <time>2019-03-09T08:45:59Z</time>
      </trkpt>
      <trkpt lat="48.69503" lon="2.05839">
        <ele>120.3</ele>
        <time>2019-03-09T08:46:01Z</time>
      </trkpt>
      <trkpt lat="48.69503" lon="2.05844">
        <ele>119.82</ele>
        <time>2019-03-09T08:46:02Z</time>
      </trkpt>
      <trkpt lat="48.69501" lon="2.05868">
        <ele>118.38</ele>
        <time>2019-03-09T08:46:07Z</time>
      </trkpt>
      <trkpt lat="48.69501" lon="2.0588">
        <ele>118.38</ele>
        <time>2019-03-09T08:46:16Z</time>
      </trkpt>
      <trkpt lat="48.69507" lon="2.0588">
        <ele>119.82</ele>
        <time>2019-03-09T08:46:21Z</time>
      </trkpt>
      <trkpt lat="48.69508" lon="2.0588">
        <ele>119.82</ele>
        <time>2019-03-09T08:46:22Z</time>
      </trkpt>
      <trkpt lat="48.69511" lon="2.05881">
        <ele>120.3</ele>
        <time>2019-03-09T08:46:27Z</time>
      </trkpt>
      <trkpt lat="48.69524" lon="2.05885">
        <ele>121.26</ele>
        <time>2019-03-09T08:46:36Z</time>
      </trkpt>
      <trkpt lat="48.69546" lon="2.05884">
        <ele>120.78</ele>
        <time>2019-03-09T08:46:49Z</time>
      </trkpt>
      <trkpt lat="48.69548" lon="2.05884">
        <ele>120.78</ele>
        <time>2019-03-09T08:46:51Z</time>
      </trkpt>
      <trkpt lat="48.69551" lon="2.05885">
        <ele>120.78</ele>
        <time>2019-03-09T08:46:52Z</time>
      </trkpt>
      <trkpt lat="48.69554" lon="2.05886">
        <ele>120.3</ele>
        <time>2019-03-09T08:46:53Z</time>
      </trkpt>
      <trkpt lat="48.69557" lon="2.05886">
        <ele>120.78</ele>
        <time>2019-03-09T08:46:54Z</time>
      </trkpt>
      <trkpt lat="48.6956" lon="2.05887">
        <ele>120.78</ele>
        <time>2019-03-09T08:46:55Z</time>
      </trkpt>
      <trkpt lat="48.69562" lon="2.05887">
        <ele>120.78</ele>
        <time>2019-03-09T08:46:56Z</time>
      </trkpt>
      <trkpt lat="48.69566" lon="2.05888">
        <ele>120.3</ele>
        <time>2019-03-09T08:46:57Z</time>
      </trkpt>
      <trkpt lat="48.69569" lon="2.05889">
        <ele>120.3</ele>
        <time>2019-03-09T08:46:58Z</time>
      </trkpt>
      <trkpt lat="48.69572" lon="2.0589">
        <ele>119.34</ele>
        <time>2019-03-09T08:46:59Z</time>
      </trkpt>
      <trkpt lat="48.69616" lon="2.05908">
        <ele>119.82</ele>
        <time>2019-03-09T08:47:12Z</time>
      </trkpt>
      <trkpt lat="48.69653" lon="2.05922">
        <ele>120.78</ele>
        <time>2019-03-09T08:47:26Z</time>
      </trkpt>
      <trkpt lat="48.69689" lon="2.05924">
        <ele>121.74</ele>
        <time>2019-03-09T08:47:34Z</time>
      </trkpt>
      <trkpt lat="48.69739" lon="2.05936">
        <ele>121.26</ele>
        <time>2019-03-09T08:47:44Z</time>
      </trkpt>
      <trkpt lat="48.69773" lon="2.05942">
        <ele>120.3</ele>
        <time>2019-03-09T08:47:54Z</time>
      </trkpt>
      <trkpt lat="48.69773" lon="2.05944">
        <ele>119.82</ele>
        <time>2019-03-09T08:47:55Z</time>
      </trkpt>
      <trkpt lat="48.69766" lon="2.05953">
        <ele>120.3</ele>
        <time>2019-03-09T08:47:59Z</time>
      </trkpt>
      <trkpt lat="48.69765" lon="2.05957">
        <ele>119.82</ele>
        <time>2019-03-09T08:48:00Z</time>
      </trkpt>
      <trkpt lat="48.69768" lon="2.05967">
        <ele>120.3</ele>
        <time>2019-03-09T08:48:01Z</time>
      </trkpt>
      <trkpt lat="48.69769" lon="2.05975">
        <ele>120.3</ele>
        <time>2019-03-09T08:48:02Z</time>
      </trkpt>
      <trkpt lat="48.6977" lon="2.05982">
        <ele>120.3</ele>
        <time>2019-03-09T08:48:03Z</time>
      </trkpt>
      <trkpt lat="48.6977" lon="2.05988">
        <ele>120.3</ele>
        <time>2019-03-09T08:48:04Z</time>
      </trkpt>
      <trkpt lat="48.6977" lon="2.05995">
        <ele>119.34</ele>
        <time>2019-03-09T08:48:05Z</time>
      </trkpt>
      <trkpt lat="48.69769" lon="2.06001">
        <ele>119.34</ele>
        <time>2019-03-09T08:48:06Z</time>
      </trkpt>
      <trkpt lat="48.69763" lon="2.06056">
        <ele>117.42</ele>
        <time>2019-03-09T08:48:12Z</time>
      </trkpt>
      <trkpt lat="48.69752" lon="2.0611">
        <ele>114.53</ele>
        <time>2019-03-09T08:48:20Z</time>
      </trkpt>
      <trkpt lat="48.6975" lon="2.06128">
        <ele>114.05</ele>
        <time>2019-03-09T08:48:23Z</time>
      </trkpt>
      <trkpt lat="48.69739" lon="2.06192">
        <ele>111.17</ele>
        <time>2019-03-09T08:48:31Z</time>
      </trkpt>
      <trkpt lat="48.69737" lon="2.06201">
        <ele>111.17</ele>
        <time>2019-03-09T08:48:32Z</time>
      </trkpt>
      <trkpt lat="48.69734" lon="2.06218">
        <ele>110.21</ele>
        <time>2019-03-09T08:48:34Z</time>
      </trkpt>
      <trkpt lat="48.69728" lon="2.06243">
        <ele>109.25</ele>
        <time>2019-03-09T08:48:37Z</time>
      </trkpt>
      <trkpt lat="48.69712" lon="2.06321">
        <ele>105.4</ele>
        <time>2019-03-09T08:48:45Z</time>
      </trkpt>
      <trkpt lat="48.69704" lon="2.06359">
        <ele>103.48</ele>
        <time>2019-03-09T08:48:49Z</time>
      </trkpt>
      <trkpt lat="48.69689" lon="2.06427">
        <ele>100.11</ele>
        <time>2019-03-09T08:48:56Z</time>
      </trkpt>
      <trkpt lat="48.69688" lon="2.06435">
        <ele>100.11</ele>
        <time>2019-03-09T08:48:57Z</time>
      </trkpt>
      <trkpt lat="48.69687" lon="2.06442">
        <ele>99.63</ele>
        <time>2019-03-09T08:48:58Z</time>
      </trkpt>
      <trkpt lat="48.69686" lon="2.06448">
        <ele>99.63</ele>
        <time>2019-03-09T08:48:59Z</time>
      </trkpt>
      <trkpt lat="48.69686" lon="2.06452">
        <ele>99.15</ele>
        <time>2019-03-09T08:49:00Z</time>
      </trkpt>
      <trkpt lat="48.69685" lon="2.06456">
        <ele>99.15</ele>
        <time>2019-03-09T08:49:01Z</time>
      </trkpt>
      <trkpt lat="48.69684" lon="2.0646">
        <ele>99.15</ele>
        <time>2019-03-09T08:49:02Z</time>
      </trkpt>
      <trkpt lat="48.69683" lon="2.06465">
        <ele>98.67</ele>
        <time>2019-03-09T08:49:03Z</time>
      </trkpt>
      <trkpt lat="48.69674" lon="2.06494">
        <ele>100.11</ele>
        <time>2019-03-09T08:49:10Z</time>
      </trkpt>
      <trkpt lat="48.69675" lon="2.06496">
        <ele>100.6</ele>
        <time>2019-03-09T08:49:11Z</time>
      </trkpt>
      <trkpt lat="48.69676" lon="2.06497">
        <ele>100.11</ele>
        <time>2019-03-09T08:49:12Z</time>
      </trkpt>
      <trkpt lat="48.69679" lon="2.06498">
        <ele>100.11</ele>
        <time>2019-03-09T08:49:13Z</time>
      </trkpt>
      <trkpt lat="48.69681" lon="2.065">
        <ele>99.63</ele>
        <time>2019-03-09T08:49:14Z</time>
      </trkpt>
      <trkpt lat="48.69683" lon="2.06501">
        <ele>100.11</ele>
        <time>2019-03-09T08:49:15Z</time>
      </trkpt>
      <trkpt lat="48.69686" lon="2.06501">
        <ele>100.11</ele>
        <time>2019-03-09T08:49:16Z</time>
      </trkpt>
      <trkpt lat="48.69727" lon="2.06522">
        <ele>99.15</ele>
        <time>2019-03-09T08:49:27Z</time>
      </trkpt>
      <trkpt lat="48.69741" lon="2.06528">
        <ele>99.15</ele>
        <time>2019-03-09T08:49:31Z</time>
      </trkpt>
      <trkpt lat="48.69743" lon="2.06531">
        <ele>98.67</ele>
        <time>2019-03-09T08:49:32Z</time>
      </trkpt>
      <trkpt lat="48.69745" lon="2.06534">
        <ele>98.67</ele>
        <time>2019-03-09T08:49:33Z</time>
      </trkpt>
      <trkpt lat="48.69747" lon="2.06536">
        <ele>98.67</ele>
        <time>2019-03-09T08:49:34Z</time>
      </trkpt>
      <trkpt lat="48.69749" lon="2.06538">
        <ele>99.15</ele>
        <time>2019-03-09T08:49:35Z</time>
      </trkpt>
      <trkpt lat="48.69783" lon="2.06562">
        <ele>99.63</ele>
        <time>2019-03-09T08:49:44Z</time>
      </trkpt>
      <trkpt lat="48.69834" lon="2.06606">
        <ele>99.15</ele>
        <time>2019-03-09T08:49:57Z</time>
      </trkpt>
      <trkpt lat="48.69851" lon="2.06623">
        <ele>99.15</ele>
        <time>2019-03-09T08:50:03Z</time>
      </trkpt>
      <trkpt lat="48.69864" lon="2.06646">
        <ele>99.63</ele>
        <time>2019-03-09T08:50:08Z</time>
      </trkpt>
      <trkpt lat="48.69875" lon="2.06656">
        <ele>98.67</ele>
        <time>2019-03-09T08:50:11Z</time>
      </trkpt>
      <trkpt lat="48.69886" lon="2.06677">
        <ele>98.19</ele>
        <time>2019-03-09T08:50:15Z</time>
      </trkpt>
      <trkpt lat="48.69886" lon="2.0668">
        <ele>98.19</ele>
        <time>2019-03-09T08:50:16Z</time>
      </trkpt>
      <trkpt lat="48.6989" lon="2.06714">
        <ele>98.67</ele>
        <time>2019-03-09T08:50:26Z</time>
      </trkpt>
      <trkpt lat="48.6989" lon="2.06716">
        <ele>98.67</ele>
        <time>2019-03-09T08:50:39Z</time>
      </trkpt>
      <trkpt lat="48.6989" lon="2.06719">
        <ele>98.67</ele>
        <time>2019-03-09T08:50:46Z</time>
      </trkpt>
      <trkpt lat="48.6989" lon="2.06723">
        <ele>99.15</ele>
        <time>2019-03-09T08:50:48Z</time>
      </trkpt>
      <trkpt lat="48.6989" lon="2.06725">
        <ele>99.63</ele>
        <time>2019-03-09T08:50:49Z</time>
      </trkpt>
      <trkpt lat="48.69889" lon="2.06727">
        <ele>99.63</ele>
        <time>2019-03-09T08:50:50Z</time>
      </trkpt>
      <trkpt lat="48.69887" lon="2.06728">
        <ele>100.11</ele>
        <time>2019-03-09T08:50:51Z</time>
      </trkpt>
      <trkpt lat="48.69886" lon="2.06729">
        <ele>100.11</ele>
        <time>2019-03-09T08:50:52Z</time>
      </trkpt>
      <trkpt lat="48.69884" lon="2.06744">
        <ele>103</ele>
        <time>2019-03-09T08:51:03Z</time>
      </trkpt>
      <trkpt lat="48.69881" lon="2.06762">
        <ele>105.88</ele>
        <time>2019-03-09T08:51:16Z</time>
      </trkpt>
      <trkpt lat="48.69878" lon="2.06776">
        <ele>109.25</ele>
        <time>2019-03-09T08:51:31Z</time>
      </trkpt>
      <trkpt lat="48.69875" lon="2.06793">
        <ele>111.65</ele>
        <time>2019-03-09T08:51:46Z</time>
      </trkpt>
      <trkpt lat="48.69873" lon="2.06805">
        <ele>114.05</ele>
        <time>2019-03-09T08:51:59Z</time>
      </trkpt>
      <trkpt lat="48.69865" lon="2.06806">
        <ele>114.05</ele>
        <time>2019-03-09T08:52:10Z</time>
      </trkpt>
      <trkpt lat="48.69853" lon="2.06798">
        <ele>114.05</ele>
        <time>2019-03-09T08:52:23Z</time>
      </trkpt>
      <trkpt lat="48.69852" lon="2.068">
        <ele>114.53</ele>
        <time>2019-03-09T08:52:24Z</time>
      </trkpt>
      <trkpt lat="48.69851" lon="2.06801">
        <ele>114.53</ele>
        <time>2019-03-09T08:52:25Z</time>
      </trkpt>
      <trkpt lat="48.6984" lon="2.0681">
        <ele>116.94</ele>
        <time>2019-03-09T08:52:35Z</time>
      </trkpt>
      <trkpt lat="48.69822" lon="2.06831">
        <ele>118.38</ele>
        <time>2019-03-09T08:52:49Z</time>
      </trkpt>
      <trkpt lat="48.69815" lon="2.06849">
        <ele>119.34</ele>
        <time>2019-03-09T08:52:58Z</time>
      </trkpt>
      <trkpt lat="48.69817" lon="2.06855">
        <ele>120.3</ele>
        <time>2019-03-09T08:53:01Z</time>
      </trkpt>
      <trkpt lat="48.69807" lon="2.06869">
        <ele>122.22</ele>
        <time>2019-03-09T08:53:13Z</time>
      </trkpt>
      <trkpt lat="48.69795" lon="2.06875">
        <ele>125.11</ele>
        <time>2019-03-09T08:53:26Z</time>
      </trkpt>
      <trkpt lat="48.6978" lon="2.06882">
        <ele>126.55</ele>
        <time>2019-03-09T08:53:39Z</time>
      </trkpt>
      <trkpt lat="48.69768" lon="2.06889">
        <ele>128.47</ele>
        <time>2019-03-09T08:53:52Z</time>
      </trkpt>
      <trkpt lat="48.69763" lon="2.0689">
        <ele>129.43</ele>
        <time>2019-03-09T08:53:55Z</time>
      </trkpt>
      <trkpt lat="48.69746" lon="2.06899">
        <ele>131.84</ele>
        <time>2019-03-09T08:54:10Z</time>
      </trkpt>
      <trkpt lat="48.69733" lon="2.06909">
        <ele>134.24</ele>
        <time>2019-03-09T08:54:24Z</time>
      </trkpt>
      <trkpt lat="48.69721" lon="2.06919">
        <ele>135.68</ele>
        <time>2019-03-09T08:54:38Z</time>
      </trkpt>
      <trkpt lat="48.69709" lon="2.06922">
        <ele>138.57</ele>
        <time>2019-03-09T08:54:49Z</time>
      </trkpt>
      <trkpt lat="48.69696" lon="2.06924">
        <ele>140.49</ele>
        <time>2019-03-09T08:54:58Z</time>
      </trkpt>
      <trkpt lat="48.69682" lon="2.06923">
        <ele>143.85</ele>
        <time>2019-03-09T08:55:11Z</time>
      </trkpt>
      <trkpt lat="48.69665" lon="2.06918">
        <ele>146.26</ele>
        <time>2019-03-09T08:55:25Z</time>
      </trkpt>
      <trkpt lat="48.6966" lon="2.06923">
        <ele>147.7</ele>
        <time>2019-03-09T08:55:35Z</time>
      </trkpt>
      <trkpt lat="48.69653" lon="2.06928">
        <ele>150.58</ele>
        <time>2019-03-09T08:55:49Z</time>
      </trkpt>
      <trkpt lat="48.69647" lon="2.06931">
        <ele>152.99</ele>
        <time>2019-03-09T08:55:58Z</time>
      </trkpt>
      <trkpt lat="48.69636" lon="2.06943">
        <ele>155.39</ele>
        <time>2019-03-09T08:56:14Z</time>
      </trkpt>
      <trkpt lat="48.69627" lon="2.06955">
        <ele>157.79</ele>
        <time>2019-03-09T08:56:28Z</time>
      </trkpt>
      <trkpt lat="48.69619" lon="2.06964">
        <ele>159.72</ele>
        <time>2019-03-09T08:56:40Z</time>
      </trkpt>
      <trkpt lat="48.69612" lon="2.06978">
        <ele>162.6</ele>
        <time>2019-03-09T08:56:55Z</time>
      </trkpt>
      <trkpt lat="48.69609" lon="2.06984">
        <ele>164.52</ele>
        <time>2019-03-09T08:57:03Z</time>
      </trkpt>
      <trkpt lat="48.69602" lon="2.06997">
        <ele>166.45</ele>
        <time>2019-03-09T08:57:17Z</time>
      </trkpt>
      <trkpt lat="48.69597" lon="2.07004">
        <ele>167.41</ele>
        <time>2019-03-09T08:57:28Z</time>
      </trkpt>
      <trkpt lat="48.69586" lon="2.07018">
        <ele>168.85</ele>
        <time>2019-03-09T08:57:40Z</time>
      </trkpt>
      <trkpt lat="48.69576" lon="2.07028">
        <ele>170.77</ele>
        <time>2019-03-09T08:57:50Z</time>
      </trkpt>
      <trkpt lat="48.69558" lon="2.07051">
        <ele>170.77</ele>
        <time>2019-03-09T08:58:05Z</time>
      </trkpt>
      <trkpt lat="48.69548" lon="2.07064">
        <ele>171.25</ele>
        <time>2019-03-09T08:58:13Z</time>
      </trkpt>
      <trkpt lat="48.69537" lon="2.07067">
        <ele>171.25</ele>
        <time>2019-03-09T08:58:20Z</time>
      </trkpt>
      <trkpt lat="48.69523" lon="2.07082">
        <ele>171.25</ele>
        <time>2019-03-09T08:58:29Z</time>
      </trkpt>
      <trkpt lat="48.6952" lon="2.07084">
        <ele>171.73</ele>
        <time>2019-03-09T08:58:31Z</time>
      </trkpt>
      <trkpt lat="48.69521" lon="2.07088">
        <ele>171.25</ele>
        <time>2019-03-09T08:58:34Z</time>
      </trkpt>
      <trkpt lat="48.69523" lon="2.07103">
        <ele>171.73</ele>
        <time>2019-03-09T08:58:43Z</time>
      </trkpt>
      <trkpt lat="48.69525" lon="2.0711">
        <ele>171.73</ele>
        <time>2019-03-09T08:59:15Z</time>
      </trkpt>
      <trkpt lat="48.69529" lon="2.07111">
        <ele>171.73</ele>
        <time>2019-03-09T08:59:26Z</time>
      </trkpt>
      <trkpt lat="48.69537" lon="2.07108">
        <ele>172.21</ele>
        <time>2019-03-09T08:59:38Z</time>
      </trkpt>
      <trkpt lat="48.6954" lon="2.07104">
        <ele>171.73</ele>
        <time>2019-03-09T09:00:15Z</time>
      </trkpt>
      <trkpt lat="48.69542" lon="2.07116">
        <ele>171.73</ele>
        <time>2019-03-09T09:00:37Z</time>
      </trkpt>
      <trkpt lat="48.69543" lon="2.07119">
        <ele>171.73</ele>
        <time>2019-03-09T09:00:41Z</time>
      </trkpt>
      <trkpt lat="48.69547" lon="2.07144">
        <ele>172.69</ele>
        <time>2019-03-09T09:00:51Z</time>
      </trkpt>
      <trkpt lat="48.69546" lon="2.07152">
        <ele>172.69</ele>
        <time>2019-03-09T09:00:54Z</time>
      </trkpt>
      <trkpt lat="48.69545" lon="2.07167">
        <ele>173.17</ele>
        <time>2019-03-09T09:01:00Z</time>
      </trkpt>
      <trkpt lat="48.69538" lon="2.07213">
        <ele>173.66</ele>
        <time>2019-03-09T09:01:14Z</time>
      </trkpt>
      <trkpt lat="48.69536" lon="2.07233">
        <ele>173.66</ele>
        <time>2019-03-09T09:01:19Z</time>
      </trkpt>
      <trkpt lat="48.69536" lon="2.07251">
        <ele>173.17</ele>
        <time>2019-03-09T09:01:24Z</time>
      </trkpt>
      <trkpt lat="48.69544" lon="2.07291">
        <ele>174.14</ele>
        <time>2019-03-09T09:01:31Z</time>
      </trkpt>
      <trkpt lat="48.69545" lon="2.07297">
        <ele>173.66</ele>
        <time>2019-03-09T09:01:32Z</time>
      </trkpt>
      <trkpt lat="48.69556" lon="2.07353">
        <ele>174.14</ele>
        <time>2019-03-09T09:01:43Z</time>
      </trkpt>
      <trkpt lat="48.69563" lon="2.0738">
        <ele>174.14</ele>
        <time>2019-03-09T09:01:48Z</time>
      </trkpt>
      <trkpt lat="48.69564" lon="2.07385">
        <ele>174.14</ele>
        <time>2019-03-09T09:01:49Z</time>
      </trkpt>
      <trkpt lat="48.69581" lon="2.07446">
        <ele>174.62</ele>
        <time>2019-03-09T09:02:01Z</time>
      </trkpt>
      <trkpt lat="48.69595" lon="2.07497">
        <ele>174.14</ele>
        <time>2019-03-09T09:02:11Z</time>
      </trkpt>
      <trkpt lat="48.69611" lon="2.07552">
        <ele>174.14</ele>
        <time>2019-03-09T09:02:21Z</time>
      </trkpt>
      <trkpt lat="48.69627" lon="2.07607">
        <ele>173.66</ele>
        <time>2019-03-09T09:02:31Z</time>
      </trkpt>
      <trkpt lat="48.69645" lon="2.07662">
        <ele>172.69</ele>
        <time>2019-03-09T09:02:42Z</time>
      </trkpt>
      <trkpt lat="48.69654" lon="2.07688">
        <ele>170.77</ele>
        <time>2019-03-09T09:02:46Z</time>
      </trkpt>
      <trkpt lat="48.69654" lon="2.07705">
        <ele>171.25</ele>
        <time>2019-03-09T09:02:50Z</time>
      </trkpt>
      <trkpt lat="48.69638" lon="2.07735">
        <ele>172.21</ele>
        <time>2019-03-09T09:03:03Z</time>
      </trkpt>
      <trkpt lat="48.69605" lon="2.07773">
        <ele>172.69</ele>
        <time>2019-03-09T09:03:16Z</time>
      </trkpt>
      <trkpt lat="48.69588" lon="2.07793">
        <ele>172.69</ele>
        <time>2019-03-09T09:03:23Z</time>
      </trkpt>
      <trkpt lat="48.69585" lon="2.07795">
        <ele>172.69</ele>
        <time>2019-03-09T09:03:24Z</time>
      </trkpt>
      <trkpt lat="48.69583" lon="2.07797">
        <ele>172.69</ele>
        <time>2019-03-09T09:03:25Z</time>
      </trkpt>
      <trkpt lat="48.69578" lon="2.07802">
        <ele>173.17</ele>
        <time>2019-03-09T09:03:28Z</time>
      </trkpt>
      <trkpt lat="48.69565" lon="2.07812">
        <ele>173.17</ele>
        <time>2019-03-09T09:03:33Z</time>
      </trkpt>
      <trkpt lat="48.69562" lon="2.07815">
        <ele>172.69</ele>
        <time>2019-03-09T09:03:34Z</time>
      </trkpt>
      <trkpt lat="48.69559" lon="2.07817">
        <ele>172.69</ele>
        <time>2019-03-09T09:03:35Z</time>
      </trkpt>
      <trkpt lat="48.69554" lon="2.07827">
        <ele>173.17</ele>
        <time>2019-03-09T09:03:38Z</time>
      </trkpt>
      <trkpt lat="48.69551" lon="2.07832">
        <ele>172.69</ele>
        <time>2019-03-09T09:03:39Z</time>
      </trkpt>
      <trkpt lat="48.69538" lon="2.07866">
        <ele>172.21</ele>
        <time>2019-03-09T09:03:49Z</time>
      </trkpt>
      <trkpt lat="48.69537" lon="2.07869">
        <ele>172.21</ele>
        <time>2019-03-09T09:03:50Z</time>
      </trkpt>
      <trkpt lat="48.69534" lon="2.07882">
        <ele>171.73</ele>
        <time>2019-03-09T09:03:54Z</time>
      </trkpt>
      <trkpt lat="48.69533" lon="2.07886">
        <ele>171.73</ele>
        <time>2019-03-09T09:03:55Z</time>
      </trkpt>
      <trkpt lat="48.69532" lon="2.07889">
        <ele>171.73</ele>
        <time>2019-03-09T09:03:56Z</time>
      </trkpt>
      <trkpt lat="48.69529" lon="2.07894">
        <ele>172.21</ele>
        <time>2019-03-09T09:03:58Z</time>
      </trkpt>
      <trkpt lat="48.69528" lon="2.07896">
        <ele>171.73</ele>
        <time>2019-03-09T09:03:59Z</time>
      </trkpt>
      <trkpt lat="48.69525" lon="2.07905">
        <ele>172.21</ele>
        <time>2019-03-09T09:04:02Z</time>
      </trkpt>
      <trkpt lat="48.69525" lon="2.07908">
        <ele>172.21</ele>
        <time>2019-03-09T09:04:03Z</time>
      </trkpt>
      <trkpt lat="48.69524" lon="2.0791">
        <ele>172.21</ele>
        <time>2019-03-09T09:04:04Z</time>
      </trkpt>
      <trkpt lat="48.69517" lon="2.07937">
        <ele>172.69</ele>
        <time>2019-03-09T09:04:13Z</time>
      </trkpt>
      <trkpt lat="48.69517" lon="2.07939">
        <ele>173.66</ele>
        <time>2019-03-09T09:04:14Z</time>
      </trkpt>
      <trkpt lat="48.69517" lon="2.07942">
        <ele>173.17</ele>
        <time>2019-03-09T09:04:15Z</time>
      </trkpt>
      <trkpt lat="48.69516" lon="2.07954">
        <ele>173.66</ele>
        <time>2019-03-09T09:04:19Z</time>
      </trkpt>
      <trkpt lat="48.69516" lon="2.07957">
        <ele>173.66</ele>
        <time>2019-03-09T09:04:20Z</time>
      </trkpt>
      <trkpt lat="48.69514" lon="2.07964">
        <ele>173.66</ele>
        <time>2019-03-09T09:04:23Z</time>
      </trkpt>
      <trkpt lat="48.69512" lon="2.07967">
        <ele>173.66</ele>
        <time>2019-03-09T09:04:24Z</time>
      </trkpt>
      <trkpt lat="48.69512" lon="2.0797">
        <ele>173.66</ele>
        <time>2019-03-09T09:04:25Z</time>
      </trkpt>
      <trkpt lat="48.69512" lon="2.07974">
        <ele>174.14</ele>
        <time>2019-03-09T09:04:26Z</time>
      </trkpt>
      <trkpt lat="48.6951" lon="2.07983">
        <ele>174.14</ele>
        <time>2019-03-09T09:04:29Z</time>
      </trkpt>
      <trkpt lat="48.6951" lon="2.07991">
        <ele>174.14</ele>
        <time>2019-03-09T09:04:32Z</time>
      </trkpt>
      <trkpt lat="48.6951" lon="2.07993">
        <ele>174.62</ele>
        <time>2019-03-09T09:04:33Z</time>
      </trkpt>
      <trkpt lat="48.69517" lon="2.08018">
        <ele>174.62</ele>
        <time>2019-03-09T09:04:40Z</time>
      </trkpt>
      <trkpt lat="48.69519" lon="2.08024">
        <ele>174.14</ele>
        <time>2019-03-09T09:04:42Z</time>
      </trkpt>
      <trkpt lat="48.6952" lon="2.08031">
        <ele>174.14</ele>
        <time>2019-03-09T09:04:45Z</time>
      </trkpt>
      <trkpt lat="48.6952" lon="2.08033">
        <ele>174.14</ele>
        <time>2019-03-09T09:04:46Z</time>
      </trkpt>
      <trkpt lat="48.69522" lon="2.08045">
        <ele>174.14</ele>
        <time>2019-03-09T09:04:51Z</time>
      </trkpt>
      <trkpt lat="48.69522" lon="2.08048">
        <ele>174.62</ele>
        <time>2019-03-09T09:04:52Z</time>
      </trkpt>
      <trkpt lat="48.69521" lon="2.08052">
        <ele>174.14</ele>
        <time>2019-03-09T09:04:53Z</time>
      </trkpt>
      <trkpt lat="48.69522" lon="2.08058">
        <ele>174.14</ele>
        <time>2019-03-09T09:04:54Z</time>
      </trkpt>
      <trkpt lat="48.69523" lon="2.08064">
        <ele>174.62</ele>
        <time>2019-03-09T09:04:55Z</time>
      </trkpt>
      <trkpt lat="48.69523" lon="2.08068">
        <ele>175.1</ele>
        <time>2019-03-09T09:04:56Z</time>
      </trkpt>
      <trkpt lat="48.69522" lon="2.08071">
        <ele>174.62</ele>
        <time>2019-03-09T09:04:57Z</time>
      </trkpt>
      <trkpt lat="48.6952" lon="2.08073">
        <ele>175.58</ele>
        <time>2019-03-09T09:04:58Z</time>
      </trkpt>
      <trkpt lat="48.69519" lon="2.08074">
        <ele>175.1</ele>
        <time>2019-03-09T09:04:59Z</time>
      </trkpt>
      <trkpt lat="48.69516" lon="2.08085">
        <ele>175.58</ele>
        <time>2019-03-09T09:05:03Z</time>
      </trkpt>
      <trkpt lat="48.69516" lon="2.08089">
        <ele>176.06</ele>
        <time>2019-03-09T09:05:04Z</time>
      </trkpt>
      <trkpt lat="48.69508" lon="2.08118">
        <ele>175.58</ele>
        <time>2019-03-09T09:05:14Z</time>
      </trkpt>
      <trkpt lat="48.69509" lon="2.08123">
        <ele>176.54</ele>
        <time>2019-03-09T09:05:15Z</time>
      </trkpt>
      <trkpt lat="48.69508" lon="2.08169">
        <ele>176.54</ele>
        <time>2019-03-09T09:05:27Z</time>
      </trkpt>
      <trkpt lat="48.69508" lon="2.08177">
        <ele>176.06</ele>
        <time>2019-03-09T09:05:30Z</time>
      </trkpt>
      <trkpt lat="48.69533" lon="2.08206">
        <ele>176.54</ele>
        <time>2019-03-09T09:05:41Z</time>
      </trkpt>
      <trkpt lat="48.69537" lon="2.08208">
        <ele>175.1</ele>
        <time>2019-03-09T09:05:43Z</time>
      </trkpt>
      <trkpt lat="48.69547" lon="2.08227">
        <ele>175.1</ele>
        <time>2019-03-09T09:05:50Z</time>
      </trkpt>
      <trkpt lat="48.69553" lon="2.08239">
        <ele>174.62</ele>
        <time>2019-03-09T09:05:54Z</time>
      </trkpt>
      <trkpt lat="48.69567" lon="2.08278">
        <ele>174.14</ele>
        <time>2019-03-09T09:06:05Z</time>
      </trkpt>
      <trkpt lat="48.69568" lon="2.08281">
        <ele>174.14</ele>
        <time>2019-03-09T09:06:06Z</time>
      </trkpt>
      <trkpt lat="48.69569" lon="2.08303">
        <ele>174.14</ele>
        <time>2019-03-09T09:06:15Z</time>
      </trkpt>
      <trkpt lat="48.69564" lon="2.08312">
        <ele>174.14</ele>
        <time>2019-03-09T09:06:21Z</time>
      </trkpt>
      <trkpt lat="48.6956" lon="2.08329">
        <ele>174.14</ele>
        <time>2019-03-09T09:06:28Z</time>
      </trkpt>
      <trkpt lat="48.69548" lon="2.08349">
        <ele>174.14</ele>
        <time>2019-03-09T09:06:40Z</time>
      </trkpt>
      <trkpt lat="48.69547" lon="2.08352">
        <ele>173.66</ele>
        <time>2019-03-09T09:06:42Z</time>
      </trkpt>
      <trkpt lat="48.69545" lon="2.08376">
        <ele>173.17</ele>
        <time>2019-03-09T09:06:52Z</time>
      </trkpt>
      <trkpt lat="48.69547" lon="2.08387">
        <ele>173.66</ele>
        <time>2019-03-09T09:06:56Z</time>
      </trkpt>
      <trkpt lat="48.69545" lon="2.084">
        <ele>172.69</ele>
        <time>2019-03-09T09:07:00Z</time>
      </trkpt>
      <trkpt lat="48.69537" lon="2.08408">
        <ele>172.69</ele>
        <time>2019-03-09T09:07:05Z</time>
      </trkpt>
      <trkpt lat="48.69524" lon="2.08429">
        <ele>170.77</ele>
        <time>2019-03-09T09:07:13Z</time>
      </trkpt>
      <trkpt lat="48.69523" lon="2.08441">
        <ele>169.33</ele>
        <time>2019-03-09T09:07:16Z</time>
      </trkpt>
      <trkpt lat="48.69521" lon="2.08444">
        <ele>169.33</ele>
        <time>2019-03-09T09:07:17Z</time>
      </trkpt>
      <trkpt lat="48.69516" lon="2.08467">
        <ele>167.41</ele>
        <time>2019-03-09T09:07:22Z</time>
      </trkpt>
      <trkpt lat="48.6952" lon="2.08482">
        <ele>164.52</ele>
        <time>2019-03-09T09:07:26Z</time>
      </trkpt>
      <trkpt lat="48.69511" lon="2.08515">
        <ele>163.56</ele>
        <time>2019-03-09T09:07:37Z</time>
      </trkpt>
      <trkpt lat="48.69505" lon="2.08523">
        <ele>164.52</ele>
        <time>2019-03-09T09:07:49Z</time>
      </trkpt>
      <trkpt lat="48.69501" lon="2.08525">
        <ele>164.52</ele>
        <time>2019-03-09T09:07:52Z</time>
      </trkpt>
      <trkpt lat="48.69489" lon="2.08538">
        <ele>165.48</ele>
        <time>2019-03-09T09:08:07Z</time>
      </trkpt>
      <trkpt lat="48.69482" lon="2.0855">
        <ele>165.96</ele>
        <time>2019-03-09T09:08:20Z</time>
      </trkpt>
      <trkpt lat="48.69476" lon="2.08555">
        <ele>166.45</ele>
        <time>2019-03-09T09:08:29Z</time>
      </trkpt>
      <trkpt lat="48.69465" lon="2.08561">
        <ele>167.89</ele>
        <time>2019-03-09T09:08:39Z</time>
      </trkpt>
      <trkpt lat="48.69447" lon="2.0856">
        <ele>170.29</ele>
        <time>2019-03-09T09:08:51Z</time>
      </trkpt>
      <trkpt lat="48.69428" lon="2.08549">
        <ele>171.25</ele>
        <time>2019-03-09T09:09:04Z</time>
      </trkpt>
      <trkpt lat="48.694" lon="2.08541">
        <ele>172.21</ele>
        <time>2019-03-09T09:09:19Z</time>
      </trkpt>
      <trkpt lat="48.69393" lon="2.08538">
        <ele>172.21</ele>
        <time>2019-03-09T09:09:23Z</time>
      </trkpt>
      <trkpt lat="48.69373" lon="2.08531">
        <ele>172.69</ele>
        <time>2019-03-09T09:09:35Z</time>
      </trkpt>
      <trkpt lat="48.69366" lon="2.08542">
        <ele>173.66</ele>
        <time>2019-03-09T09:09:41Z</time>
      </trkpt>
      <trkpt lat="48.69353" lon="2.08584">
        <ele>174.14</ele>
        <time>2019-03-09T09:09:53Z</time>
      </trkpt>
      <trkpt lat="48.6934" lon="2.08634">
        <ele>175.1</ele>
        <time>2019-03-09T09:10:04Z</time>
      </trkpt>
      <trkpt lat="48.69327" lon="2.08688">
        <ele>175.1</ele>
        <time>2019-03-09T09:10:15Z</time>
      </trkpt>
      <trkpt lat="48.69314" lon="2.08755">
        <ele>174.62</ele>
        <time>2019-03-09T09:10:28Z</time>
      </trkpt>
      <trkpt lat="48.69315" lon="2.08828">
        <ele>174.62</ele>
        <time>2019-03-09T09:10:41Z</time>
      </trkpt>
      <trkpt lat="48.69317" lon="2.08892">
        <ele>175.1</ele>
        <time>2019-03-09T09:10:53Z</time>
      </trkpt>
      <trkpt lat="48.69312" lon="2.08967">
        <ele>175.1</ele>
        <time>2019-03-09T09:11:07Z</time>
      </trkpt>
      <trkpt lat="48.69305" lon="2.09011">
        <ele>175.1</ele>
        <time>2019-03-09T09:11:18Z</time>
      </trkpt>
      <trkpt lat="48.69294" lon="2.09081">
        <ele>175.58</ele>
        <time>2019-03-09T09:11:31Z</time>
      </trkpt>
      <trkpt lat="48.69283" lon="2.09155">
        <ele>175.58</ele>
        <time>2019-03-09T09:11:46Z</time>
      </trkpt>
      <trkpt lat="48.69268" lon="2.09234">
        <ele>176.54</ele>
        <time>2019-03-09T09:12:01Z</time>
      </trkpt>
      <trkpt lat="48.69247" lon="2.09297">
        <ele>177.02</ele>
        <time>2019-03-09T09:12:14Z</time>
      </trkpt>
      <trkpt lat="48.69219" lon="2.09365">
        <ele>177.5</ele>
        <time>2019-03-09T09:12:29Z</time>
      </trkpt>
      <trkpt lat="48.6919" lon="2.0943">
        <ele>178.94</ele>
        <time>2019-03-09T09:12:44Z</time>
      </trkpt>
      <trkpt lat="48.69155" lon="2.09492">
        <ele>179.42</ele>
        <time>2019-03-09T09:12:59Z</time>
      </trkpt>
      <trkpt lat="48.69124" lon="2.09547">
        <ele>177.98</ele>
        <time>2019-03-09T09:13:12Z</time>
      </trkpt>
      <trkpt lat="48.6909" lon="2.096">
        <ele>175.1</ele>
        <time>2019-03-09T09:13:25Z</time>
      </trkpt>
      <trkpt lat="48.69043" lon="2.09668">
        <ele>173.17</ele>
        <time>2019-03-09T09:13:41Z</time>
      </trkpt>
      <trkpt lat="48.69006" lon="2.0972">
        <ele>171.73</ele>
        <time>2019-03-09T09:13:54Z</time>
      </trkpt>
      <trkpt lat="48.68985" lon="2.09755">
        <ele>170.77</ele>
        <time>2019-03-09T09:14:02Z</time>
      </trkpt>
      <trkpt lat="48.68982" lon="2.0976">
        <ele>170.77</ele>
        <time>2019-03-09T09:14:03Z</time>
      </trkpt>
      <trkpt lat="48.68953" lon="2.09812">
        <ele>171.25</ele>
        <time>2019-03-09T09:14:16Z</time>
      </trkpt>
      <trkpt lat="48.68925" lon="2.09865">
        <ele>172.21</ele>
        <time>2019-03-09T09:14:28Z</time>
      </trkpt>
      <trkpt lat="48.68898" lon="2.09912">
        <ele>172.69</ele>
        <time>2019-03-09T09:14:39Z</time>
      </trkpt>
      <trkpt lat="48.68858" lon="2.09983">
        <ele>172.69</ele>
        <time>2019-03-09T09:14:54Z</time>
      </trkpt>
      <trkpt lat="48.68834" lon="2.10043">
        <ele>172.69</ele>
        <time>2019-03-09T09:15:07Z</time>
      </trkpt>
      <trkpt lat="48.68814" lon="2.10113">
        <ele>174.14</ele>
        <time>2019-03-09T09:15:22Z</time>
      </trkpt>
      <trkpt lat="48.688" lon="2.10166">
        <ele>175.1</ele>
        <time>2019-03-09T09:15:34Z</time>
      </trkpt>
      <trkpt lat="48.68788" lon="2.10226">
        <ele>176.06</ele>
        <time>2019-03-09T09:15:46Z</time>
      </trkpt>
      <trkpt lat="48.68779" lon="2.10299">
        <ele>176.06</ele>
        <time>2019-03-09T09:16:00Z</time>
      </trkpt>
      <trkpt lat="48.68762" lon="2.10392">
        <ele>175.58</ele>
        <time>2019-03-09T09:16:17Z</time>
      </trkpt>
      <trkpt lat="48.68763" lon="2.10396">
        <ele>176.06</ele>
        <time>2019-03-09T09:16:18Z</time>
      </trkpt>
      <trkpt lat="48.68766" lon="2.104">
        <ele>176.06</ele>
        <time>2019-03-09T09:16:19Z</time>
      </trkpt>
      <trkpt lat="48.6877" lon="2.10402">
        <ele>176.06</ele>
        <time>2019-03-09T09:16:20Z</time>
      </trkpt>
      <trkpt lat="48.68774" lon="2.10405">
        <ele>175.1</ele>
        <time>2019-03-09T09:16:21Z</time>
      </trkpt>
      <trkpt lat="48.68779" lon="2.10407">
        <ele>175.1</ele>
        <time>2019-03-09T09:16:22Z</time>
      </trkpt>
      <trkpt lat="48.68824" lon="2.1043">
        <ele>174.14</ele>
        <time>2019-03-09T09:16:34Z</time>
      </trkpt>
      <trkpt lat="48.68832" lon="2.10434">
        <ele>175.1</ele>
        <time>2019-03-09T09:16:36Z</time>
      </trkpt>
      <trkpt lat="48.68836" lon="2.10437">
        <ele>174.14</ele>
        <time>2019-03-09T09:16:37Z</time>
      </trkpt>
      <trkpt lat="48.68841" lon="2.10439">
        <ele>174.14</ele>
        <time>2019-03-09T09:16:38Z</time>
      </trkpt>
      <trkpt lat="48.68855" lon="2.10447">
        <ele>173.66</ele>
        <time>2019-03-09T09:16:41Z</time>
      </trkpt>
      <trkpt lat="48.6886" lon="2.1045">
        <ele>173.66</ele>
        <time>2019-03-09T09:16:42Z</time>
      </trkpt>
      <trkpt lat="48.68896" lon="2.1047">
        <ele>173.66</ele>
        <time>2019-03-09T09:16:50Z</time>
      </trkpt>
      <trkpt lat="48.6891" lon="2.10479">
        <ele>172.69</ele>
        <time>2019-03-09T09:16:53Z</time>
      </trkpt>
      <trkpt lat="48.68985" lon="2.10524">
        <ele>171.25</ele>
        <time>2019-03-09T09:17:09Z</time>
      </trkpt>
      <trkpt lat="48.69006" lon="2.10541">
        <ele>170.77</ele>
        <time>2019-03-09T09:17:14Z</time>
      </trkpt>
      <trkpt lat="48.6901" lon="2.10545">
        <ele>170.77</ele>
        <time>2019-03-09T09:17:15Z</time>
      </trkpt>
      <trkpt lat="48.69013" lon="2.1055">
        <ele>170.77</ele>
        <time>2019-03-09T09:17:16Z</time>
      </trkpt>
      <trkpt lat="48.69014" lon="2.10557">
        <ele>170.77</ele>
        <time>2019-03-09T09:17:17Z</time>
      </trkpt>
      <trkpt lat="48.69014" lon="2.10564">
        <ele>170.77</ele>
        <time>2019-03-09T09:17:18Z</time>
      </trkpt>
      <trkpt lat="48.69014" lon="2.10572">
        <ele>169.81</ele>
        <time>2019-03-09T09:17:19Z</time>
      </trkpt>
      <trkpt lat="48.69018" lon="2.10718">
        <ele>170.77</ele>
        <time>2019-03-09T09:17:37Z</time>
      </trkpt>
      <trkpt lat="48.69013" lon="2.10782">
        <ele>170.77</ele>
        <time>2019-03-09T09:17:45Z</time>
      </trkpt>
      <trkpt lat="48.69011" lon="2.10789">
        <ele>170.77</ele>
        <time>2019-03-09T09:17:46Z</time>
      </trkpt>
      <trkpt lat="48.69009" lon="2.10796">
        <ele>170.77</ele>
        <time>2019-03-09T09:17:47Z</time>
      </trkpt>
      <trkpt lat="48.69007" lon="2.10803">
        <ele>170.77</ele>
        <time>2019-03-09T09:17:48Z</time>
      </trkpt>
      <trkpt lat="48.69005" lon="2.1081">
        <ele>170.77</ele>
        <time>2019-03-09T09:17:49Z</time>
      </trkpt>
      <trkpt lat="48.69004" lon="2.10817">
        <ele>170.29</ele>
        <time>2019-03-09T09:17:50Z</time>
      </trkpt>
      <trkpt lat="48.69003" lon="2.10824">
        <ele>170.29</ele>
        <time>2019-03-09T09:17:51Z</time>
      </trkpt>
      <trkpt lat="48.69002" lon="2.10831">
        <ele>170.77</ele>
        <time>2019-03-09T09:17:52Z</time>
      </trkpt>
      <trkpt lat="48.69002" lon="2.10839">
        <ele>170.29</ele>
        <time>2019-03-09T09:17:53Z</time>
      </trkpt>
      <trkpt lat="48.69002" lon="2.10846">
        <ele>170.77</ele>
        <time>2019-03-09T09:17:54Z</time>
      </trkpt>
      <trkpt lat="48.69002" lon="2.10853">
        <ele>170.77</ele>
        <time>2019-03-09T09:17:55Z</time>
      </trkpt>
      <trkpt lat="48.69003" lon="2.1086">
        <ele>170.29</ele>
        <time>2019-03-09T09:17:56Z</time>
      </trkpt>
      <trkpt lat="48.69004" lon="2.10868">
        <ele>170.77</ele>
        <time>2019-03-09T09:17:57Z</time>
      </trkpt>
      <trkpt lat="48.69011" lon="2.1094">
        <ele>168.85</ele>
        <time>2019-03-09T09:18:06Z</time>
      </trkpt>
      <trkpt lat="48.69015" lon="2.10971">
        <ele>168.85</ele>
        <time>2019-03-09T09:18:10Z</time>
      </trkpt>
      <trkpt lat="48.69016" lon="2.10979">
        <ele>168.85</ele>
        <time>2019-03-09T09:18:11Z</time>
      </trkpt>
      <trkpt lat="48.69017" lon="2.10986">
        <ele>168.85</ele>
        <time>2019-03-09T09:18:12Z</time>
      </trkpt>
      <trkpt lat="48.69017" lon="2.10994">
        <ele>168.37</ele>
        <time>2019-03-09T09:18:13Z</time>
      </trkpt>
      <trkpt lat="48.69015" lon="2.11002">
        <ele>168.37</ele>
        <time>2019-03-09T09:18:14Z</time>
      </trkpt>
      <trkpt lat="48.69014" lon="2.11007">
        <ele>168.37</ele>
        <time>2019-03-09T09:18:15Z</time>
      </trkpt>
      <trkpt lat="48.69012" lon="2.11012">
        <ele>168.85</ele>
        <time>2019-03-09T09:18:16Z</time>
      </trkpt>
      <trkpt lat="48.6901" lon="2.11015">
        <ele>169.33</ele>
        <time>2019-03-09T09:18:17Z</time>
      </trkpt>
      <trkpt lat="48.69008" lon="2.11018">
        <ele>169.33</ele>
        <time>2019-03-09T09:18:18Z</time>
      </trkpt>
      <trkpt lat="48.69007" lon="2.11021">
        <ele>168.85</ele>
        <time>2019-03-09T09:18:19Z</time>
      </trkpt>
      <trkpt lat="48.68997" lon="2.1105">
        <ele>167.89</ele>
        <time>2019-03-09T09:18:26Z</time>
      </trkpt>
      <trkpt lat="48.68995" lon="2.11053">
        <ele>168.37</ele>
        <time>2019-03-09T09:18:27Z</time>
      </trkpt>
      <trkpt lat="48.68993" lon="2.11056">
        <ele>168.37</ele>
        <time>2019-03-09T09:18:28Z</time>
      </trkpt>
      <trkpt lat="48.68991" lon="2.11059">
        <ele>168.85</ele>
        <time>2019-03-09T09:18:29Z</time>
      </trkpt>
      <trkpt lat="48.68989" lon="2.11062">
        <ele>168.37</ele>
        <time>2019-03-09T09:18:30Z</time>
      </trkpt>
      <trkpt lat="48.68987" lon="2.11066">
        <ele>168.37</ele>
        <time>2019-03-09T09:18:31Z</time>
      </trkpt>
      <trkpt lat="48.68986" lon="2.1107">
        <ele>168.85</ele>
        <time>2019-03-09T09:18:32Z</time>
      </trkpt>
      <trkpt lat="48.68985" lon="2.11073">
        <ele>168.85</ele>
        <time>2019-03-09T09:18:33Z</time>
      </trkpt>
      <trkpt lat="48.68984" lon="2.11076">
        <ele>168.85</ele>
        <time>2019-03-09T09:18:34Z</time>
      </trkpt>
      <trkpt lat="48.68983" lon="2.11081">
        <ele>169.33</ele>
        <time>2019-03-09T09:18:35Z</time>
      </trkpt>
      <trkpt lat="48.68981" lon="2.11086">
        <ele>168.85</ele>
        <time>2019-03-09T09:18:36Z</time>
      </trkpt>
      <trkpt lat="48.68982" lon="2.11091">
        <ele>168.85</ele>
        <time>2019-03-09T09:18:37Z</time>
      </trkpt>
      <trkpt lat="48.68983" lon="2.11097">
        <ele>168.85</ele>
        <time>2019-03-09T09:18:38Z</time>
      </trkpt>
      <trkpt lat="48.68984" lon="2.11104">
        <ele>169.33</ele>
        <time>2019-03-09T09:18:39Z</time>
      </trkpt>
      <trkpt lat="48.68985" lon="2.11108">
        <ele>168.85</ele>
        <time>2019-03-09T09:18:40Z</time>
      </trkpt>
      <trkpt lat="48.69002" lon="2.11149">
        <ele>169.33</ele>
        <time>2019-03-09T09:18:49Z</time>
      </trkpt>
      <trkpt lat="48.69009" lon="2.11206">
        <ele>169.81</ele>
        <time>2019-03-09T09:18:58Z</time>
      </trkpt>
      <trkpt lat="48.69005" lon="2.11272">
        <ele>170.77</ele>
        <time>2019-03-09T09:19:09Z</time>
      </trkpt>
      <trkpt lat="48.69003" lon="2.11344">
        <ele>170.29</ele>
        <time>2019-03-09T09:19:20Z</time>
      </trkpt>
      <trkpt lat="48.69007" lon="2.11412">
        <ele>171.73</ele>
        <time>2019-03-09T09:19:32Z</time>
      </trkpt>
      <trkpt lat="48.68997" lon="2.11461">
        <ele>171.25</ele>
        <time>2019-03-09T09:19:41Z</time>
      </trkpt>
      <trkpt lat="48.68982" lon="2.11503">
        <ele>171.25</ele>
        <time>2019-03-09T09:19:50Z</time>
      </trkpt>
      <trkpt lat="48.68985" lon="2.11509">
        <ele>171.25</ele>
        <time>2019-03-09T09:19:53Z</time>
      </trkpt>
      <trkpt lat="48.68986" lon="2.11512">
        <ele>171.73</ele>
        <time>2019-03-09T09:19:54Z</time>
      </trkpt>
      <trkpt lat="48.68986" lon="2.11515">
        <ele>171.25</ele>
        <time>2019-03-09T09:19:55Z</time>
      </trkpt>
      <trkpt lat="48.68985" lon="2.11518">
        <ele>171.73</ele>
        <time>2019-03-09T09:19:56Z</time>
      </trkpt>
      <trkpt lat="48.68984" lon="2.11521">
        <ele>171.73</ele>
        <time>2019-03-09T09:19:57Z</time>
      </trkpt>
      <trkpt lat="48.68983" lon="2.11523">
        <ele>171.73</ele>
        <time>2019-03-09T09:19:58Z</time>
      </trkpt>
      <trkpt lat="48.68983" lon="2.11526">
        <ele>171.25</ele>
        <time>2019-03-09T09:19:59Z</time>
      </trkpt>
      <trkpt lat="48.68983" lon="2.11528">
        <ele>171.73</ele>
        <time>2019-03-09T09:20:00Z</time>
      </trkpt>
      <trkpt lat="48.6898" lon="2.11564">
        <ele>172.21</ele>
        <time>2019-03-09T09:20:11Z</time>
      </trkpt>
      <trkpt lat="48.68981" lon="2.11569">
        <ele>172.69</ele>
        <time>2019-03-09T09:20:13Z</time>
      </trkpt>
      <trkpt lat="48.68986" lon="2.11584">
        <ele>172.21</ele>
        <time>2019-03-09T09:20:20Z</time>
      </trkpt>
      <trkpt lat="48.69001" lon="2.11598">
        <ele>171.73</ele>
        <time>2019-03-09T09:20:26Z</time>
      </trkpt>
      <trkpt lat="48.69002" lon="2.11602">
        <ele>172.69</ele>
        <time>2019-03-09T09:20:27Z</time>
      </trkpt>
      <trkpt lat="48.69003" lon="2.11604">
        <ele>172.69</ele>
        <time>2019-03-09T09:20:28Z</time>
      </trkpt>
      <trkpt lat="48.69005" lon="2.11606">
        <ele>173.17</ele>
        <time>2019-03-09T09:20:29Z</time>
      </trkpt>
      <trkpt lat="48.69006" lon="2.11609">
        <ele>173.17</ele>
        <time>2019-03-09T09:20:30Z</time>
      </trkpt>
      <trkpt lat="48.69008" lon="2.11613">
        <ele>173.17</ele>
        <time>2019-03-09T09:20:31Z</time>
      </trkpt>
      <trkpt lat="48.69009" lon="2.11616">
        <ele>173.17</ele>
        <time>2019-03-09T09:20:32Z</time>
      </trkpt>
      <trkpt lat="48.69036" lon="2.11669">
        <ele>174.14</ele>
        <time>2019-03-09T09:20:44Z</time>
      </trkpt>
      <trkpt lat="48.69045" lon="2.11681">
        <ele>174.62</ele>
        <time>2019-03-09T09:20:47Z</time>
      </trkpt>
      <trkpt lat="48.69048" lon="2.11683">
        <ele>174.14</ele>
        <time>2019-03-09T09:20:48Z</time>
      </trkpt>
      <trkpt lat="48.69068" lon="2.11724">
        <ele>175.58</ele>
        <time>2019-03-09T09:20:58Z</time>
      </trkpt>
      <trkpt lat="48.69089" lon="2.11771">
        <ele>176.54</ele>
        <time>2019-03-09T09:21:10Z</time>
      </trkpt>
      <trkpt lat="48.69109" lon="2.11807">
        <ele>176.54</ele>
        <time>2019-03-09T09:21:21Z</time>
      </trkpt>
      <trkpt lat="48.69126" lon="2.11845">
        <ele>177.5</ele>
        <time>2019-03-09T09:21:29Z</time>
      </trkpt>
      <trkpt lat="48.69158" lon="2.11913">
        <ele>177.5</ele>
        <time>2019-03-09T09:21:42Z</time>
      </trkpt>
      <trkpt lat="48.69168" lon="2.11929">
        <ele>177.98</ele>
        <time>2019-03-09T09:21:45Z</time>
      </trkpt>
      <trkpt lat="48.69177" lon="2.11943">
        <ele>177.5</ele>
        <time>2019-03-09T09:21:48Z</time>
      </trkpt>
      <trkpt lat="48.6918" lon="2.11949">
        <ele>177.5</ele>
        <time>2019-03-09T09:21:49Z</time>
      </trkpt>
      <trkpt lat="48.69183" lon="2.11954">
        <ele>177.98</ele>
        <time>2019-03-09T09:21:50Z</time>
      </trkpt>
      <trkpt lat="48.69186" lon="2.11958">
        <ele>177.5</ele>
        <time>2019-03-09T09:21:51Z</time>
      </trkpt>
      <trkpt lat="48.69188" lon="2.11962">
        <ele>177.5</ele>
        <time>2019-03-09T09:21:52Z</time>
      </trkpt>
      <trkpt lat="48.69203" lon="2.11986">
        <ele>177.98</ele>
        <time>2019-03-09T09:21:57Z</time>
      </trkpt>
      <trkpt lat="48.69221" lon="2.12021">
        <ele>177.02</ele>
        <time>2019-03-09T09:22:03Z</time>
      </trkpt>
      <trkpt lat="48.69225" lon="2.12026">
        <ele>177.02</ele>
        <time>2019-03-09T09:22:04Z</time>
      </trkpt>
      <trkpt lat="48.69229" lon="2.1203">
        <ele>177.5</ele>
        <time>2019-03-09T09:22:05Z</time>
      </trkpt>
      <trkpt lat="48.69288" lon="2.12059">
        <ele>176.54</ele>
        <time>2019-03-09T09:22:18Z</time>
      </trkpt>
      <trkpt lat="48.69355" lon="2.12089">
        <ele>174.62</ele>
        <time>2019-03-09T09:22:32Z</time>
      </trkpt>
      <trkpt lat="48.69359" lon="2.12093">
        <ele>174.14</ele>
        <time>2019-03-09T09:22:33Z</time>
      </trkpt>
      <trkpt lat="48.69376" lon="2.12116">
        <ele>173.17</ele>
        <time>2019-03-09T09:22:38Z</time>
      </trkpt>
      <trkpt lat="48.6938" lon="2.12118">
        <ele>173.17</ele>
        <time>2019-03-09T09:22:39Z</time>
      </trkpt>
      <trkpt lat="48.69384" lon="2.12121">
        <ele>172.69</ele>
        <time>2019-03-09T09:22:40Z</time>
      </trkpt>
      <trkpt lat="48.69387" lon="2.12124">
        <ele>172.69</ele>
        <time>2019-03-09T09:22:41Z</time>
      </trkpt>
      <trkpt lat="48.69393" lon="2.12137">
        <ele>172.69</ele>
        <time>2019-03-09T09:22:44Z</time>
      </trkpt>
      <trkpt lat="48.69394" lon="2.12143">
        <ele>172.21</ele>
        <time>2019-03-09T09:22:45Z</time>
      </trkpt>
      <trkpt lat="48.69393" lon="2.12148">
        <ele>171.73</ele>
        <time>2019-03-09T09:22:46Z</time>
      </trkpt>
      <trkpt lat="48.69391" lon="2.12154">
        <ele>172.21</ele>
        <time>2019-03-09T09:22:47Z</time>
      </trkpt>
      <trkpt lat="48.69377" lon="2.12198">
        <ele>172.69</ele>
        <time>2019-03-09T09:22:56Z</time>
      </trkpt>
      <trkpt lat="48.6936" lon="2.12259">
        <ele>173.17</ele>
        <time>2019-03-09T09:23:07Z</time>
      </trkpt>
      <trkpt lat="48.69343" lon="2.12315">
        <ele>173.17</ele>
        <time>2019-03-09T09:23:18Z</time>
      </trkpt>
      <trkpt lat="48.6933" lon="2.12361">
        <ele>173.66</ele>
        <time>2019-03-09T09:23:24Z</time>
      </trkpt>
      <trkpt lat="48.69323" lon="2.1238">
        <ele>172.69</ele>
        <time>2019-03-09T09:23:27Z</time>
      </trkpt>
      <trkpt lat="48.69321" lon="2.12388">
        <ele>172.69</ele>
        <time>2019-03-09T09:23:28Z</time>
      </trkpt>
      <trkpt lat="48.69319" lon="2.12395">
        <ele>172.69</ele>
        <time>2019-03-09T09:23:29Z</time>
      </trkpt>
      <trkpt lat="48.69298" lon="2.12456">
        <ele>172.69</ele>
        <time>2019-03-09T09:23:40Z</time>
      </trkpt>
      <trkpt lat="48.69286" lon="2.12503">
        <ele>169.81</ele>
        <time>2019-03-09T09:23:51Z</time>
      </trkpt>
      <trkpt lat="48.69286" lon="2.12505">
        <ele>169.81</ele>
        <time>2019-03-09T09:23:52Z</time>
      </trkpt>
      <trkpt lat="48.69285" lon="2.12507">
        <ele>168.37</ele>
        <time>2019-03-09T09:23:53Z</time>
      </trkpt>
      <trkpt lat="48.69283" lon="2.12509">
        <ele>168.37</ele>
        <time>2019-03-09T09:23:54Z</time>
      </trkpt>
      <trkpt lat="48.6928" lon="2.12512">
        <ele>168.37</ele>
        <time>2019-03-09T09:23:55Z</time>
      </trkpt>
      <trkpt lat="48.69256" lon="2.12543">
        <ele>170.29</ele>
        <time>2019-03-09T09:24:03Z</time>
      </trkpt>
      <trkpt lat="48.69228" lon="2.12593">
        <ele>171.25</ele>
        <time>2019-03-09T09:24:14Z</time>
      </trkpt>
      <trkpt lat="48.69222" lon="2.12618">
        <ele>171.73</ele>
        <time>2019-03-09T09:24:19Z</time>
      </trkpt>
      <trkpt lat="48.69215" lon="2.12688">
        <ele>171.25</ele>
        <time>2019-03-09T09:24:30Z</time>
      </trkpt>
      <trkpt lat="48.69221" lon="2.12754">
        <ele>169.33</ele>
        <time>2019-03-09T09:24:42Z</time>
      </trkpt>
      <trkpt lat="48.69228" lon="2.12817">
        <ele>168.85</ele>
        <time>2019-03-09T09:24:52Z</time>
      </trkpt>
      <trkpt lat="48.69234" lon="2.1288">
        <ele>169.81</ele>
        <time>2019-03-09T09:25:02Z</time>
      </trkpt>
      <trkpt lat="48.69244" lon="2.12952">
        <ele>169.33</ele>
        <time>2019-03-09T09:25:13Z</time>
      </trkpt>
      <trkpt lat="48.69245" lon="2.12959">
        <ele>169.33</ele>
        <time>2019-03-09T09:25:14Z</time>
      </trkpt>
      <trkpt lat="48.69251" lon="2.13015">
        <ele>168.85</ele>
        <time>2019-03-09T09:25:23Z</time>
      </trkpt>
      <trkpt lat="48.69256" lon="2.1306">
        <ele>168.85</ele>
        <time>2019-03-09T09:25:31Z</time>
      </trkpt>
      <trkpt lat="48.69257" lon="2.13073">
        <ele>169.33</ele>
        <time>2019-03-09T09:25:33Z</time>
      </trkpt>
      <trkpt lat="48.69258" lon="2.13085">
        <ele>168.85</ele>
        <time>2019-03-09T09:25:35Z</time>
      </trkpt>
      <trkpt lat="48.69259" lon="2.13091">
        <ele>168.85</ele>
        <time>2019-03-09T09:25:36Z</time>
      </trkpt>
      <trkpt lat="48.69267" lon="2.13142">
        <ele>169.81</ele>
        <time>2019-03-09T09:25:46Z</time>
      </trkpt>
      <trkpt lat="48.69272" lon="2.13209">
        <ele>170.29</ele>
        <time>2019-03-09T09:25:57Z</time>
      </trkpt>
      <trkpt lat="48.69268" lon="2.13274">
        <ele>170.29</ele>
        <time>2019-03-09T09:26:08Z</time>
      </trkpt>
      <trkpt lat="48.69265" lon="2.13342">
        <ele>170.77</ele>
        <time>2019-03-09T09:26:19Z</time>
      </trkpt>
      <trkpt lat="48.69253" lon="2.13395">
        <ele>170.77</ele>
        <time>2019-03-09T09:26:30Z</time>
      </trkpt>
      <trkpt lat="48.69253" lon="2.13408">
        <ele>171.25</ele>
        <time>2019-03-09T09:26:33Z</time>
      </trkpt>
      <trkpt lat="48.6925" lon="2.13409">
        <ele>171.73</ele>
        <time>2019-03-09T09:26:34Z</time>
      </trkpt>
      <trkpt lat="48.6925" lon="2.13414">
        <ele>171.25</ele>
        <time>2019-03-09T09:26:35Z</time>
      </trkpt>
      <trkpt lat="48.69241" lon="2.13428">
        <ele>171.25</ele>
        <time>2019-03-09T09:26:40Z</time>
      </trkpt>
      <trkpt lat="48.6924" lon="2.1343">
        <ele>171.73</ele>
        <time>2019-03-09T09:26:41Z</time>
      </trkpt>
      <trkpt lat="48.69239" lon="2.13433">
        <ele>171.25</ele>
        <time>2019-03-09T09:26:42Z</time>
      </trkpt>
      <trkpt lat="48.69215" lon="2.13466">
        <ele>172.69</ele>
        <time>2019-03-09T09:26:53Z</time>
      </trkpt>
      <trkpt lat="48.69193" lon="2.13481">
        <ele>173.17</ele>
        <time>2019-03-09T09:27:02Z</time>
      </trkpt>
      <trkpt lat="48.6915" lon="2.13504">
        <ele>173.66</ele>
        <time>2019-03-09T09:27:14Z</time>
      </trkpt>
      <trkpt lat="48.69112" lon="2.13524">
        <ele>174.62</ele>
        <time>2019-03-09T09:27:25Z</time>
      </trkpt>
      <trkpt lat="48.69067" lon="2.13557">
        <ele>174.14</ele>
        <time>2019-03-09T09:27:37Z</time>
      </trkpt>
      <trkpt lat="48.69012" lon="2.13584">
        <ele>175.1</ele>
        <time>2019-03-09T09:27:51Z</time>
      </trkpt>
      <trkpt lat="48.68994" lon="2.13604">
        <ele>175.1</ele>
        <time>2019-03-09T09:28:01Z</time>
      </trkpt>
      <trkpt lat="48.68993" lon="2.13609">
        <ele>175.1</ele>
        <time>2019-03-09T09:28:03Z</time>
      </trkpt>
      <trkpt lat="48.68992" lon="2.13612">
        <ele>175.1</ele>
        <time>2019-03-09T09:28:04Z</time>
      </trkpt>
      <trkpt lat="48.6899" lon="2.13614">
        <ele>175.1</ele>
        <time>2019-03-09T09:28:05Z</time>
      </trkpt>
      <trkpt lat="48.68987" lon="2.13616">
        <ele>175.1</ele>
        <time>2019-03-09T09:28:06Z</time>
      </trkpt>
      <trkpt lat="48.68969" lon="2.13627">
        <ele>175.58</ele>
        <time>2019-03-09T09:28:12Z</time>
      </trkpt>
      <trkpt lat="48.68967" lon="2.1363">
        <ele>175.58</ele>
        <time>2019-03-09T09:28:13Z</time>
      </trkpt>
      <trkpt lat="48.6893" lon="2.13655">
        <ele>175.1</ele>
        <time>2019-03-09T09:28:25Z</time>
      </trkpt>
      <trkpt lat="48.68893" lon="2.13686">
        <ele>175.58</ele>
        <time>2019-03-09T09:28:36Z</time>
      </trkpt>
      <trkpt lat="48.68889" lon="2.13686">
        <ele>175.58</ele>
        <time>2019-03-09T09:28:37Z</time>
      </trkpt>
      <trkpt lat="48.68852" lon="2.13694">
        <ele>175.1</ele>
        <time>2019-03-09T09:28:44Z</time>
      </trkpt>
      <trkpt lat="48.68818" lon="2.13694">
        <ele>175.58</ele>
        <time>2019-03-09T09:28:53Z</time>
      </trkpt>
      <trkpt lat="48.68816" lon="2.13691">
        <ele>175.1</ele>
        <time>2019-03-09T09:28:54Z</time>
      </trkpt>
      <trkpt lat="48.68798" lon="2.13682">
        <ele>174.62</ele>
        <time>2019-03-09T09:28:57Z</time>
      </trkpt>
      <trkpt lat="48.68797" lon="2.13678">
        <ele>174.62</ele>
        <time>2019-03-09T09:28:58Z</time>
      </trkpt>
      <trkpt lat="48.68775" lon="2.13631">
        <ele>174.62</ele>
        <time>2019-03-09T09:29:08Z</time>
      </trkpt>
      <trkpt lat="48.68761" lon="2.13581">
        <ele>174.14</ele>
        <time>2019-03-09T09:29:19Z</time>
      </trkpt>
      <trkpt lat="48.68752" lon="2.13532">
        <ele>174.14</ele>
        <time>2019-03-09T09:29:30Z</time>
      </trkpt>
      <trkpt lat="48.6874" lon="2.13473">
        <ele>174.62</ele>
        <time>2019-03-09T09:29:42Z</time>
      </trkpt>
      <trkpt lat="48.6873" lon="2.13406">
        <ele>174.62</ele>
        <time>2019-03-09T09:29:55Z</time>
      </trkpt>
      <trkpt lat="48.68726" lon="2.13386">
        <ele>173.17</ele>
        <time>2019-03-09T09:29:58Z</time>
      </trkpt>
      <trkpt lat="48.68723" lon="2.13345">
        <ele>172.21</ele>
        <time>2019-03-09T09:30:03Z</time>
      </trkpt>
      <trkpt lat="48.68723" lon="2.13335">
        <ele>171.73</ele>
        <time>2019-03-09T09:30:04Z</time>
      </trkpt>
      <trkpt lat="48.68723" lon="2.13326">
        <ele>171.25</ele>
        <time>2019-03-09T09:30:05Z</time>
      </trkpt>
      <trkpt lat="48.68722" lon="2.1332">
        <ele>171.25</ele>
        <time>2019-03-09T09:30:06Z</time>
      </trkpt>
      <trkpt lat="48.68713" lon="2.13245">
        <ele>171.25</ele>
        <time>2019-03-09T09:30:17Z</time>
      </trkpt>
      <trkpt lat="48.68712" lon="2.13207">
        <ele>171.25</ele>
        <time>2019-03-09T09:30:22Z</time>
      </trkpt>
      <trkpt lat="48.68704" lon="2.13127">
        <ele>169.33</ele>
        <time>2019-03-09T09:30:33Z</time>
      </trkpt>
      <trkpt lat="48.68689" lon="2.13034">
        <ele>169.81</ele>
        <time>2019-03-09T09:30:46Z</time>
      </trkpt>
      <trkpt lat="48.68691" lon="2.13">
        <ele>170.29</ele>
        <time>2019-03-09T09:30:51Z</time>
      </trkpt>
      <trkpt lat="48.68691" lon="2.12989">
        <ele>170.77</ele>
        <time>2019-03-09T09:30:52Z</time>
      </trkpt>
      <trkpt lat="48.68688" lon="2.12982">
        <ele>169.81</ele>
        <time>2019-03-09T09:30:53Z</time>
      </trkpt>
      <trkpt lat="48.68685" lon="2.12973">
        <ele>169.33</ele>
        <time>2019-03-09T09:30:54Z</time>
      </trkpt>
      <trkpt lat="48.68681" lon="2.12961">
        <ele>169.81</ele>
        <time>2019-03-09T09:30:55Z</time>
      </trkpt>
      <trkpt lat="48.68663" lon="2.12894">
        <ele>169.33</ele>
        <time>2019-03-09T09:31:02Z</time>
      </trkpt>
      <trkpt lat="48.68638" lon="2.12818">
        <ele>167.41</ele>
        <time>2019-03-09T09:31:13Z</time>
      </trkpt>
      <trkpt lat="48.68638" lon="2.12811">
        <ele>167.41</ele>
        <time>2019-03-09T09:31:14Z</time>
      </trkpt>
      <trkpt lat="48.68638" lon="2.12805">
        <ele>167.89</ele>
        <time>2019-03-09T09:31:15Z</time>
      </trkpt>
      <trkpt lat="48.68637" lon="2.128">
        <ele>167.89</ele>
        <time>2019-03-09T09:31:16Z</time>
      </trkpt>
      <trkpt lat="48.68636" lon="2.12796">
        <ele>167.89</ele>
        <time>2019-03-09T09:31:17Z</time>
      </trkpt>
      <trkpt lat="48.68634" lon="2.12794">
        <ele>167.89</ele>
        <time>2019-03-09T09:31:18Z</time>
      </trkpt>
      <trkpt lat="48.68631" lon="2.12793">
        <ele>166.93</ele>
        <time>2019-03-09T09:31:19Z</time>
      </trkpt>
      <trkpt lat="48.68609" lon="2.1279">
        <ele>164.52</ele>
        <time>2019-03-09T09:31:25Z</time>
      </trkpt>
      <trkpt lat="48.68605" lon="2.12793">
        <ele>163.56</ele>
        <time>2019-03-09T09:31:26Z</time>
      </trkpt>
      <trkpt lat="48.686" lon="2.12803">
        <ele>163.56</ele>
        <time>2019-03-09T09:31:28Z</time>
      </trkpt>
      <trkpt lat="48.68599" lon="2.12808">
        <ele>163.08</ele>
        <time>2019-03-09T09:31:29Z</time>
      </trkpt>
      <trkpt lat="48.68598" lon="2.12814">
        <ele>162.6</ele>
        <time>2019-03-09T09:31:30Z</time>
      </trkpt>
      <trkpt lat="48.68599" lon="2.1282">
        <ele>162.6</ele>
        <time>2019-03-09T09:31:31Z</time>
      </trkpt>
      <trkpt lat="48.686" lon="2.12826">
        <ele>162.12</ele>
        <time>2019-03-09T09:31:32Z</time>
      </trkpt>
      <trkpt lat="48.686" lon="2.12832">
        <ele>161.64</ele>
        <time>2019-03-09T09:31:33Z</time>
      </trkpt>
      <trkpt lat="48.686" lon="2.12838">
        <ele>161.64</ele>
        <time>2019-03-09T09:31:34Z</time>
      </trkpt>
      <trkpt lat="48.686" lon="2.12845">
        <ele>161.64</ele>
        <time>2019-03-09T09:31:35Z</time>
      </trkpt>
      <trkpt lat="48.68599" lon="2.12851">
        <ele>161.64</ele>
        <time>2019-03-09T09:31:36Z</time>
      </trkpt>
      <trkpt lat="48.68605" lon="2.12898">
        <ele>158.75</ele>
        <time>2019-03-09T09:31:43Z</time>
      </trkpt>
      <trkpt lat="48.68602" lon="2.12908">
        <ele>157.79</ele>
        <time>2019-03-09T09:31:44Z</time>
      </trkpt>
      <trkpt lat="48.68599" lon="2.12924">
        <ele>155.87</ele>
        <time>2019-03-09T09:31:46Z</time>
      </trkpt>
      <trkpt lat="48.68598" lon="2.12932">
        <ele>155.87</ele>
        <time>2019-03-09T09:31:47Z</time>
      </trkpt>
      <trkpt lat="48.68598" lon="2.1296">
        <ele>152.51</ele>
        <time>2019-03-09T09:31:50Z</time>
      </trkpt>
      <trkpt lat="48.68598" lon="2.12969">
        <ele>152.51</ele>
        <time>2019-03-09T09:31:51Z</time>
      </trkpt>
      <trkpt lat="48.68598" lon="2.13024">
        <ele>150.1</ele>
        <time>2019-03-09T09:31:57Z</time>
      </trkpt>
      <trkpt lat="48.68599" lon="2.13033">
        <ele>149.62</ele>
        <time>2019-03-09T09:31:58Z</time>
      </trkpt>
      <trkpt lat="48.68608" lon="2.13095">
        <ele>147.22</ele>
        <time>2019-03-09T09:32:04Z</time>
      </trkpt>
      <trkpt lat="48.68616" lon="2.13153">
        <ele>145.78</ele>
        <time>2019-03-09T09:32:10Z</time>
      </trkpt>
      <trkpt lat="48.68623" lon="2.13183">
        <ele>145.3</ele>
        <time>2019-03-09T09:32:13Z</time>
      </trkpt>
      <trkpt lat="48.6863" lon="2.13289">
        <ele>141.45</ele>
        <time>2019-03-09T09:32:21Z</time>
      </trkpt>
      <trkpt lat="48.68631" lon="2.13302">
        <ele>141.45</ele>
        <time>2019-03-09T09:32:22Z</time>
      </trkpt>
      <trkpt lat="48.68627" lon="2.1339">
        <ele>139.05</ele>
        <time>2019-03-09T09:32:29Z</time>
      </trkpt>
      <trkpt lat="48.68609" lon="2.13437">
        <ele>137.61</ele>
        <time>2019-03-09T09:32:34Z</time>
      </trkpt>
      <trkpt lat="48.68604" lon="2.13442">
        <ele>137.13</ele>
        <time>2019-03-09T09:32:35Z</time>
      </trkpt>
      <trkpt lat="48.686" lon="2.13447">
        <ele>137.13</ele>
        <time>2019-03-09T09:32:36Z</time>
      </trkpt>
      <trkpt lat="48.68596" lon="2.13461">
        <ele>137.61</ele>
        <time>2019-03-09T09:32:38Z</time>
      </trkpt>
      <trkpt lat="48.68595" lon="2.13469">
        <ele>138.09</ele>
        <time>2019-03-09T09:32:39Z</time>
      </trkpt>
      <trkpt lat="48.68593" lon="2.13476">
        <ele>137.61</ele>
        <time>2019-03-09T09:32:40Z</time>
      </trkpt>
      <trkpt lat="48.68585" lon="2.13519">
        <ele>135.68</ele>
        <time>2019-03-09T09:32:46Z</time>
      </trkpt>
      <trkpt lat="48.68581" lon="2.13536">
        <ele>134.24</ele>
        <time>2019-03-09T09:32:48Z</time>
      </trkpt>
      <trkpt lat="48.68581" lon="2.13545">
        <ele>133.28</ele>
        <time>2019-03-09T09:32:49Z</time>
      </trkpt>
      <trkpt lat="48.68582" lon="2.13554">
        <ele>132.32</ele>
        <time>2019-03-09T09:32:50Z</time>
      </trkpt>
      <trkpt lat="48.68582" lon="2.13565">
        <ele>132.32</ele>
        <time>2019-03-09T09:32:51Z</time>
      </trkpt>
      <trkpt lat="48.68582" lon="2.13576">
        <ele>131.36</ele>
        <time>2019-03-09T09:32:52Z</time>
      </trkpt>
      <trkpt lat="48.68583" lon="2.13586">
        <ele>131.36</ele>
        <time>2019-03-09T09:32:53Z</time>
      </trkpt>
      <trkpt lat="48.68584" lon="2.13596">
        <ele>130.88</ele>
        <time>2019-03-09T09:32:54Z</time>
      </trkpt>
      <trkpt lat="48.68594" lon="2.13662">
        <ele>127.99</ele>
        <time>2019-03-09T09:33:03Z</time>
      </trkpt>
      <trkpt lat="48.68593" lon="2.13685">
        <ele>127.03</ele>
        <time>2019-03-09T09:33:08Z</time>
      </trkpt>
      <trkpt lat="48.68579" lon="2.13707">
        <ele>128.47</ele>
        <time>2019-03-09T09:33:19Z</time>
      </trkpt>
      <trkpt lat="48.6856" lon="2.13721">
        <ele>131.84</ele>
        <time>2019-03-09T09:33:29Z</time>
      </trkpt>
      <trkpt lat="48.68555" lon="2.1373">
        <ele>132.8</ele>
        <time>2019-03-09T09:33:33Z</time>
      </trkpt>
      <trkpt lat="48.68555" lon="2.13736">
        <ele>132.8</ele>
        <time>2019-03-09T09:33:34Z</time>
      </trkpt>
      <trkpt lat="48.68531" lon="2.13763">
        <ele>133.28</ele>
        <time>2019-03-09T09:33:48Z</time>
      </trkpt>
      <trkpt lat="48.68491" lon="2.13803">
        <ele>134.72</ele>
        <time>2019-03-09T09:34:04Z</time>
      </trkpt>
      <trkpt lat="48.68475" lon="2.13828">
        <ele>137.13</ele>
        <time>2019-03-09T09:34:17Z</time>
      </trkpt>
      <trkpt lat="48.68474" lon="2.1383">
        <ele>137.13</ele>
        <time>2019-03-09T09:34:18Z</time>
      </trkpt>
      <trkpt lat="48.68468" lon="2.13837">
        <ele>139.05</ele>
        <time>2019-03-09T09:34:23Z</time>
      </trkpt>
      <trkpt lat="48.68454" lon="2.13864">
        <ele>142.41</ele>
        <time>2019-03-09T09:34:39Z</time>
      </trkpt>
      <trkpt lat="48.6843" lon="2.13908">
        <ele>141.45</ele>
        <time>2019-03-09T09:34:53Z</time>
      </trkpt>
      <trkpt lat="48.68421" lon="2.13924">
        <ele>140.97</ele>
        <time>2019-03-09T09:34:56Z</time>
      </trkpt>
      <trkpt lat="48.68418" lon="2.13928">
        <ele>141.45</ele>
        <time>2019-03-09T09:34:57Z</time>
      </trkpt>
      <trkpt lat="48.68398" lon="2.13948">
        <ele>142.89</ele>
        <time>2019-03-09T09:35:07Z</time>
      </trkpt>
      <trkpt lat="48.68392" lon="2.13953">
        <ele>144.34</ele>
        <time>2019-03-09T09:35:12Z</time>
      </trkpt>
      <trkpt lat="48.68376" lon="2.1398">
        <ele>147.22</ele>
        <time>2019-03-09T09:35:28Z</time>
      </trkpt>
      <trkpt lat="48.68356" lon="2.13988">
        <ele>147.22</ele>
        <time>2019-03-09T09:35:38Z</time>
      </trkpt>
      <trkpt lat="48.68352" lon="2.13986">
        <ele>147.22</ele>
        <time>2019-03-09T09:35:39Z</time>
      </trkpt>
      <trkpt lat="48.68349" lon="2.13981">
        <ele>147.22</ele>
        <time>2019-03-09T09:35:40Z</time>
      </trkpt>
      <trkpt lat="48.68345" lon="2.13976">
        <ele>146.26</ele>
        <time>2019-03-09T09:35:41Z</time>
      </trkpt>
      <trkpt lat="48.6834" lon="2.13973">
        <ele>145.3</ele>
        <time>2019-03-09T09:35:42Z</time>
      </trkpt>
      <trkpt lat="48.68334" lon="2.13971">
        <ele>144.82</ele>
        <time>2019-03-09T09:35:43Z</time>
      </trkpt>
      <trkpt lat="48.68328" lon="2.1397">
        <ele>144.34</ele>
        <time>2019-03-09T09:35:44Z</time>
      </trkpt>
      <trkpt lat="48.68321" lon="2.13971">
        <ele>143.37</ele>
        <time>2019-03-09T09:35:45Z</time>
      </trkpt>
      <trkpt lat="48.68315" lon="2.13972">
        <ele>143.37</ele>
        <time>2019-03-09T09:35:46Z</time>
      </trkpt>
      <trkpt lat="48.68308" lon="2.13974">
        <ele>141.93</ele>
        <time>2019-03-09T09:35:47Z</time>
      </trkpt>
      <trkpt lat="48.68284" lon="2.13984">
        <ele>140.01</ele>
        <time>2019-03-09T09:35:50Z</time>
      </trkpt>
      <trkpt lat="48.68269" lon="2.13993">
        <ele>139.05</ele>
        <time>2019-03-09T09:35:52Z</time>
      </trkpt>
      <trkpt lat="48.68238" lon="2.14011">
        <ele>138.57</ele>
        <time>2019-03-09T09:35:57Z</time>
      </trkpt>
      <trkpt lat="48.68234" lon="2.14013">
        <ele>139.53</ele>
        <time>2019-03-09T09:35:58Z</time>
      </trkpt>
      <trkpt lat="48.68222" lon="2.14021">
        <ele>139.05</ele>
        <time>2019-03-09T09:36:01Z</time>
      </trkpt>
      <trkpt lat="48.68213" lon="2.14023">
        <ele>138.57</ele>
        <time>2019-03-09T09:36:03Z</time>
      </trkpt>
      <trkpt lat="48.68207" lon="2.14023">
        <ele>138.09</ele>
        <time>2019-03-09T09:36:04Z</time>
      </trkpt>
      <trkpt lat="48.68185" lon="2.1402">
        <ele>134.24</ele>
        <time>2019-03-09T09:36:08Z</time>
      </trkpt>
      <trkpt lat="48.68161" lon="2.14016">
        <ele>130.88</ele>
        <time>2019-03-09T09:36:12Z</time>
      </trkpt>
      <trkpt lat="48.68154" lon="2.14016">
        <ele>129.92</ele>
        <time>2019-03-09T09:36:13Z</time>
      </trkpt>
      <trkpt lat="48.68148" lon="2.14018">
        <ele>129.92</ele>
        <time>2019-03-09T09:36:14Z</time>
      </trkpt>
      <trkpt lat="48.68141" lon="2.1402">
        <ele>128.95</ele>
        <time>2019-03-09T09:36:15Z</time>
      </trkpt>
      <trkpt lat="48.68109" lon="2.14036">
        <ele>125.59</ele>
        <time>2019-03-09T09:36:20Z</time>
      </trkpt>
      <trkpt lat="48.68102" lon="2.14039">
        <ele>125.59</ele>
        <time>2019-03-09T09:36:21Z</time>
      </trkpt>
      <trkpt lat="48.68087" lon="2.14049">
        <ele>123.67</ele>
        <time>2019-03-09T09:36:24Z</time>
      </trkpt>
      <trkpt lat="48.68083" lon="2.14052">
        <ele>123.19</ele>
        <time>2019-03-09T09:36:25Z</time>
      </trkpt>
      <trkpt lat="48.68079" lon="2.14055">
        <ele>123.67</ele>
        <time>2019-03-09T09:36:26Z</time>
      </trkpt>
      <trkpt lat="48.68076" lon="2.14057">
        <ele>122.22</ele>
        <time>2019-03-09T09:36:27Z</time>
      </trkpt>
      <trkpt lat="48.68074" lon="2.14059">
        <ele>122.22</ele>
        <time>2019-03-09T09:36:28Z</time>
      </trkpt>
      <trkpt lat="48.68072" lon="2.14059">
        <ele>122.22</ele>
        <time>2019-03-09T09:36:29Z</time>
      </trkpt>
      <trkpt lat="48.68069" lon="2.14059">
        <ele>121.74</ele>
        <time>2019-03-09T09:36:30Z</time>
      </trkpt>
      <trkpt lat="48.68067" lon="2.14059">
        <ele>122.22</ele>
        <time>2019-03-09T09:36:31Z</time>
      </trkpt>
      <trkpt lat="48.68064" lon="2.14058">
        <ele>121.74</ele>
        <time>2019-03-09T09:36:32Z</time>
      </trkpt>
      <trkpt lat="48.68061" lon="2.14058">
        <ele>122.22</ele>
        <time>2019-03-09T09:36:33Z</time>
      </trkpt>
      <trkpt lat="48.68058" lon="2.14058">
        <ele>122.22</ele>
        <time>2019-03-09T09:36:34Z</time>
      </trkpt>
      <trkpt lat="48.68056" lon="2.14058">
        <ele>123.19</ele>
        <time>2019-03-09T09:36:35Z</time>
      </trkpt>
      <trkpt lat="48.68053" lon="2.14058">
        <ele>122.22</ele>
        <time>2019-03-09T09:36:36Z</time>
      </trkpt>
      <trkpt lat="48.68037" lon="2.14059">
        <ele>123.67</ele>
        <time>2019-03-09T09:36:48Z</time>
      </trkpt>
      <trkpt lat="48.68033" lon="2.14067">
        <ele>124.63</ele>
        <time>2019-03-09T09:36:56Z</time>
      </trkpt>
      <trkpt lat="48.68032" lon="2.14065">
        <ele>124.63</ele>
        <time>2019-03-09T09:36:57Z</time>
      </trkpt>
      <trkpt lat="48.68031" lon="2.14064">
        <ele>125.11</ele>
        <time>2019-03-09T09:36:58Z</time>
      </trkpt>
      <trkpt lat="48.68029" lon="2.14063">
        <ele>124.63</ele>
        <time>2019-03-09T09:36:59Z</time>
      </trkpt>
      <trkpt lat="48.68028" lon="2.14063">
        <ele>125.11</ele>
        <time>2019-03-09T09:37:00Z</time>
      </trkpt>
      <trkpt lat="48.68026" lon="2.14064">
        <ele>125.11</ele>
        <time>2019-03-09T09:37:01Z</time>
      </trkpt>
      <trkpt lat="48.68025" lon="2.14065">
        <ele>125.11</ele>
        <time>2019-03-09T09:37:02Z</time>
      </trkpt>
      <trkpt lat="48.6801" lon="2.14086">
        <ele>124.63</ele>
        <time>2019-03-09T09:37:13Z</time>
      </trkpt>
      <trkpt lat="48.67999" lon="2.14127">
        <ele>125.11</ele>
        <time>2019-03-09T09:37:25Z</time>
      </trkpt>
      <trkpt lat="48.6799" lon="2.14151">
        <ele>125.59</ele>
        <time>2019-03-09T09:37:35Z</time>
      </trkpt>
      <trkpt lat="48.6799" lon="2.1416">
        <ele>125.59</ele>
        <time>2019-03-09T09:37:38Z</time>
      </trkpt>
      <trkpt lat="48.67991" lon="2.14162">
        <ele>125.11</ele>
        <time>2019-03-09T09:37:39Z</time>
      </trkpt>
      <trkpt lat="48.67993" lon="2.14164">
        <ele>125.11</ele>
        <time>2019-03-09T09:37:40Z</time>
      </trkpt>
      <trkpt lat="48.67995" lon="2.14167">
        <ele>124.15</ele>
        <time>2019-03-09T09:37:41Z</time>
      </trkpt>
      <trkpt lat="48.67998" lon="2.14171">
        <ele>124.15</ele>
        <time>2019-03-09T09:37:42Z</time>
      </trkpt>
      <trkpt lat="48.68001" lon="2.14176">
        <ele>123.19</ele>
        <time>2019-03-09T09:37:43Z</time>
      </trkpt>
      <trkpt lat="48.68005" lon="2.14182">
        <ele>123.19</ele>
        <time>2019-03-09T09:37:44Z</time>
      </trkpt>
      <trkpt lat="48.68009" lon="2.14187">
        <ele>122.71</ele>
        <time>2019-03-09T09:37:45Z</time>
      </trkpt>
      <trkpt lat="48.68013" lon="2.14193">
        <ele>121.74</ele>
        <time>2019-03-09T09:37:46Z</time>
      </trkpt>
      <trkpt lat="48.68016" lon="2.14198">
        <ele>120.78</ele>
        <time>2019-03-09T09:37:47Z</time>
      </trkpt>
      <trkpt lat="48.68019" lon="2.14205">
        <ele>120.78</ele>
        <time>2019-03-09T09:37:48Z</time>
      </trkpt>
      <trkpt lat="48.68021" lon="2.14211">
        <ele>120.3</ele>
        <time>2019-03-09T09:37:49Z</time>
      </trkpt>
      <trkpt lat="48.68023" lon="2.14217">
        <ele>120.3</ele>
        <time>2019-03-09T09:37:50Z</time>
      </trkpt>
      <trkpt lat="48.68025" lon="2.14223">
        <ele>119.82</ele>
        <time>2019-03-09T09:37:52Z</time>
      </trkpt>
      <trkpt lat="48.68024" lon="2.14225">
        <ele>119.82</ele>
        <time>2019-03-09T09:37:53Z</time>
      </trkpt>
      <trkpt lat="48.68023" lon="2.14227">
        <ele>119.82</ele>
        <time>2019-03-09T09:37:54Z</time>
      </trkpt>
      <trkpt lat="48.68022" lon="2.14228">
        <ele>120.3</ele>
        <time>2019-03-09T09:37:55Z</time>
      </trkpt>
      <trkpt lat="48.68021" lon="2.14229">
        <ele>120.3</ele>
        <time>2019-03-09T09:37:56Z</time>
      </trkpt>
      <trkpt lat="48.68003" lon="2.14246">
        <ele>120.3</ele>
        <time>2019-03-09T09:38:07Z</time>
      </trkpt>
      <trkpt lat="48.68001" lon="2.14246">
        <ele>120.3</ele>
        <time>2019-03-09T09:38:08Z</time>
      </trkpt>
      <trkpt lat="48.68" lon="2.14248">
        <ele>120.78</ele>
        <time>2019-03-09T09:38:09Z</time>
      </trkpt>
      <trkpt lat="48.67997" lon="2.14253">
        <ele>120.3</ele>
        <time>2019-03-09T09:38:14Z</time>
      </trkpt>
      <trkpt lat="48.67985" lon="2.14288">
        <ele>118.86</ele>
        <time>2019-03-09T09:38:25Z</time>
      </trkpt>
      <trkpt lat="48.67978" lon="2.14312">
        <ele>120.78</ele>
        <time>2019-03-09T09:38:37Z</time>
      </trkpt>
      <trkpt lat="48.67968" lon="2.14317">
        <ele>121.26</ele>
        <time>2019-03-09T09:38:42Z</time>
      </trkpt>
      <trkpt lat="48.67966" lon="2.14318">
        <ele>121.74</ele>
        <time>2019-03-09T09:38:43Z</time>
      </trkpt>
      <trkpt lat="48.67965" lon="2.14319">
        <ele>122.22</ele>
        <time>2019-03-09T09:38:44Z</time>
      </trkpt>
      <trkpt lat="48.67964" lon="2.1432">
        <ele>122.22</ele>
        <time>2019-03-09T09:38:45Z</time>
      </trkpt>
      <trkpt lat="48.67953" lon="2.1433">
        <ele>125.11</ele>
        <time>2019-03-09T09:38:57Z</time>
      </trkpt>
      <trkpt lat="48.6794" lon="2.14339">
        <ele>127.03</ele>
        <time>2019-03-09T09:39:11Z</time>
      </trkpt>
      <trkpt lat="48.67929" lon="2.14354">
        <ele>128.95</ele>
        <time>2019-03-09T09:39:24Z</time>
      </trkpt>
      <trkpt lat="48.67918" lon="2.14361">
        <ele>131.36</ele>
        <time>2019-03-09T09:39:38Z</time>
      </trkpt>
      <trkpt lat="48.67909" lon="2.14378">
        <ele>134.72</ele>
        <time>2019-03-09T09:39:53Z</time>
      </trkpt>
      <trkpt lat="48.67908" lon="2.1439">
        <ele>136.16</ele>
        <time>2019-03-09T09:40:02Z</time>
      </trkpt>
      <trkpt lat="48.679" lon="2.14403">
        <ele>138.09</ele>
        <time>2019-03-09T09:40:17Z</time>
      </trkpt>
      <trkpt lat="48.67894" lon="2.14415">
        <ele>140.97</ele>
        <time>2019-03-09T09:40:33Z</time>
      </trkpt>
      <trkpt lat="48.67885" lon="2.1443">
        <ele>144.34</ele>
        <time>2019-03-09T09:40:47Z</time>
      </trkpt>
      <trkpt lat="48.67879" lon="2.14436">
        <ele>147.7</ele>
        <time>2019-03-09T09:41:01Z</time>
      </trkpt>
      <trkpt lat="48.67876" lon="2.14447">
        <ele>149.62</ele>
        <time>2019-03-09T09:41:15Z</time>
      </trkpt>
      <trkpt lat="48.67863" lon="2.14456">
        <ele>152.51</ele>
        <time>2019-03-09T09:41:26Z</time>
      </trkpt>
      <trkpt lat="48.67858" lon="2.14468">
        <ele>154.43</ele>
        <time>2019-03-09T09:41:41Z</time>
      </trkpt>
      <trkpt lat="48.67855" lon="2.14475">
        <ele>156.35</ele>
        <time>2019-03-09T09:41:55Z</time>
      </trkpt>
      <trkpt lat="48.67853" lon="2.1448">
        <ele>158.75</ele>
        <time>2019-03-09T09:42:10Z</time>
      </trkpt>
      <trkpt lat="48.67846" lon="2.14485">
        <ele>160.2</ele>
        <time>2019-03-09T09:42:22Z</time>
      </trkpt>
      <trkpt lat="48.67827" lon="2.14491">
        <ele>162.12</ele>
        <time>2019-03-09T09:42:37Z</time>
      </trkpt>
      <trkpt lat="48.67812" lon="2.14507">
        <ele>158.75</ele>
        <time>2019-03-09T09:42:50Z</time>
      </trkpt>
      <trkpt lat="48.67812" lon="2.14509">
        <ele>165.48</ele>
        <time>2019-03-09T09:42:51Z</time>
      </trkpt>
      <trkpt lat="48.67809" lon="2.14511">
        <ele>163.56</ele>
        <time>2019-03-09T09:42:53Z</time>
      </trkpt>
      <trkpt lat="48.67805" lon="2.14535">
        <ele>162.6</ele>
        <time>2019-03-09T09:43:02Z</time>
      </trkpt>
      <trkpt lat="48.67803" lon="2.1454">
        <ele>163.08</ele>
        <time>2019-03-09T09:43:04Z</time>
      </trkpt>
      <trkpt lat="48.67791" lon="2.14575">
        <ele>162.12</ele>
        <time>2019-03-09T09:43:17Z</time>
      </trkpt>
      <trkpt lat="48.67783" lon="2.14598">
        <ele>162.6</ele>
        <time>2019-03-09T09:43:28Z</time>
      </trkpt>
      <trkpt lat="48.67773" lon="2.14621">
        <ele>162.6</ele>
        <time>2019-03-09T09:43:39Z</time>
      </trkpt>
      <trkpt lat="48.67771" lon="2.14626">
        <ele>162.12</ele>
        <time>2019-03-09T09:43:41Z</time>
      </trkpt>
      <trkpt lat="48.67769" lon="2.14634">
        <ele>162.12</ele>
        <time>2019-03-09T09:43:46Z</time>
      </trkpt>
      <trkpt lat="48.67766" lon="2.14641">
        <ele>161.16</ele>
        <time>2019-03-09T09:43:50Z</time>
      </trkpt>
      <trkpt lat="48.67765" lon="2.14643">
        <ele>161.16</ele>
        <time>2019-03-09T09:43:51Z</time>
      </trkpt>
      <trkpt lat="48.67764" lon="2.14645">
        <ele>161.16</ele>
        <time>2019-03-09T09:43:52Z</time>
      </trkpt>
      <trkpt lat="48.67756" lon="2.14706">
        <ele>160.68</ele>
        <time>2019-03-09T09:44:03Z</time>
      </trkpt>
      <trkpt lat="48.67742" lon="2.14728">
        <ele>160.2</ele>
        <time>2019-03-09T09:44:10Z</time>
      </trkpt>
      <trkpt lat="48.6774" lon="2.14729">
        <ele>160.68</ele>
        <time>2019-03-09T09:44:11Z</time>
      </trkpt>
      <trkpt lat="48.67735" lon="2.14733">
        <ele>160.68</ele>
        <time>2019-03-09T09:44:14Z</time>
      </trkpt>
      <trkpt lat="48.67734" lon="2.14734">
        <ele>160.68</ele>
        <time>2019-03-09T09:44:15Z</time>
      </trkpt>
      <trkpt lat="48.67733" lon="2.14735">
        <ele>160.2</ele>
        <time>2019-03-09T09:44:16Z</time>
      </trkpt>
      <trkpt lat="48.67731" lon="2.14737">
        <ele>160.68</ele>
        <time>2019-03-09T09:44:17Z</time>
      </trkpt>
      <trkpt lat="48.67729" lon="2.14738">
        <ele>160.68</ele>
        <time>2019-03-09T09:44:18Z</time>
      </trkpt>
      <trkpt lat="48.67727" lon="2.1474">
        <ele>160.68</ele>
        <time>2019-03-09T09:44:19Z</time>
      </trkpt>
      <trkpt lat="48.67725" lon="2.14742">
        <ele>160.68</ele>
        <time>2019-03-09T09:44:20Z</time>
      </trkpt>
      <trkpt lat="48.67724" lon="2.14744">
        <ele>160.68</ele>
        <time>2019-03-09T09:44:21Z</time>
      </trkpt>
      <trkpt lat="48.67721" lon="2.14746">
        <ele>160.68</ele>
        <time>2019-03-09T09:44:22Z</time>
      </trkpt>
      <trkpt lat="48.67719" lon="2.14748">
        <ele>160.68</ele>
        <time>2019-03-09T09:44:23Z</time>
      </trkpt>
      <trkpt lat="48.67698" lon="2.14776">
        <ele>160.68</ele>
        <time>2019-03-09T09:44:35Z</time>
      </trkpt>
      <trkpt lat="48.67664" lon="2.14824">
        <ele>162.12</ele>
        <time>2019-03-09T09:44:51Z</time>
      </trkpt>
      <trkpt lat="48.67639" lon="2.14866">
        <ele>163.08</ele>
        <time>2019-03-09T09:45:06Z</time>
      </trkpt>
      <trkpt lat="48.67627" lon="2.14884">
        <ele>163.56</ele>
        <time>2019-03-09T09:45:14Z</time>
      </trkpt>
      <trkpt lat="48.67627" lon="2.14886">
        <ele>163.08</ele>
        <time>2019-03-09T09:45:15Z</time>
      </trkpt>
      <trkpt lat="48.67627" lon="2.14889">
        <ele>163.08</ele>
        <time>2019-03-09T09:45:16Z</time>
      </trkpt>
      <trkpt lat="48.67627" lon="2.14892">
        <ele>162.6</ele>
        <time>2019-03-09T09:45:17Z</time>
      </trkpt>
      <trkpt lat="48.67628" lon="2.14895">
        <ele>163.08</ele>
        <time>2019-03-09T09:45:18Z</time>
      </trkpt>
      <trkpt lat="48.67628" lon="2.14898">
        <ele>162.6</ele>
        <time>2019-03-09T09:45:19Z</time>
      </trkpt>
      <trkpt lat="48.67629" lon="2.14901">
        <ele>162.6</ele>
        <time>2019-03-09T09:45:20Z</time>
      </trkpt>
      <trkpt lat="48.6763" lon="2.14904">
        <ele>163.08</ele>
        <time>2019-03-09T09:45:21Z</time>
      </trkpt>
      <trkpt lat="48.67631" lon="2.14907">
        <ele>163.08</ele>
        <time>2019-03-09T09:45:22Z</time>
      </trkpt>
      <trkpt lat="48.67642" lon="2.1493">
        <ele>161.16</ele>
        <time>2019-03-09T09:45:32Z</time>
      </trkpt>
      <trkpt lat="48.67647" lon="2.14933">
        <ele>161.16</ele>
        <time>2019-03-09T09:45:36Z</time>
      </trkpt>
      <trkpt lat="48.67648" lon="2.14932">
        <ele>160.68</ele>
        <time>2019-03-09T09:45:37Z</time>
      </trkpt>
      <trkpt lat="48.6765" lon="2.14931">
        <ele>161.16</ele>
        <time>2019-03-09T09:45:38Z</time>
      </trkpt>
      <trkpt lat="48.67652" lon="2.14932">
        <ele>160.68</ele>
        <time>2019-03-09T09:45:39Z</time>
      </trkpt>
      <trkpt lat="48.67653" lon="2.14934">
        <ele>160.2</ele>
        <time>2019-03-09T09:45:40Z</time>
      </trkpt>
      <trkpt lat="48.67655" lon="2.14936">
        <ele>160.2</ele>
        <time>2019-03-09T09:45:41Z</time>
      </trkpt>
      <trkpt lat="48.67659" lon="2.14947">
        <ele>159.72</ele>
        <time>2019-03-09T09:45:45Z</time>
      </trkpt>
      <trkpt lat="48.67657" lon="2.14952">
        <ele>159.72</ele>
        <time>2019-03-09T09:45:48Z</time>
      </trkpt>
      <trkpt lat="48.67656" lon="2.14956">
        <ele>159.72</ele>
        <time>2019-03-09T09:45:50Z</time>
      </trkpt>
      <trkpt lat="48.6767" lon="2.14986">
        <ele>160.2</ele>
        <time>2019-03-09T09:46:02Z</time>
      </trkpt>
      <trkpt lat="48.67689" lon="2.15019">
        <ele>159.24</ele>
        <time>2019-03-09T09:46:13Z</time>
      </trkpt>
      <trkpt lat="48.67713" lon="2.15066">
        <ele>157.79</ele>
        <time>2019-03-09T09:46:22Z</time>
      </trkpt>
      <trkpt lat="48.67743" lon="2.15098">
        <ele>157.31</ele>
        <time>2019-03-09T09:46:31Z</time>
      </trkpt>
      <trkpt lat="48.67746" lon="2.15102">
        <ele>157.79</ele>
        <time>2019-03-09T09:46:32Z</time>
      </trkpt>
      <trkpt lat="48.6778" lon="2.15144">
        <ele>157.79</ele>
        <time>2019-03-09T09:46:44Z</time>
      </trkpt>
      <trkpt lat="48.67827" lon="2.15196">
        <ele>157.79</ele>
        <time>2019-03-09T09:46:56Z</time>
      </trkpt>
      <trkpt lat="48.67916" lon="2.15273">
        <ele>156.83</ele>
        <time>2019-03-09T09:47:16Z</time>
      </trkpt>
      <trkpt lat="48.67982" lon="2.15311">
        <ele>155.87</ele>
        <time>2019-03-09T09:47:31Z</time>
      </trkpt>
      <trkpt lat="48.67987" lon="2.15312">
        <ele>155.39</ele>
        <time>2019-03-09T09:47:32Z</time>
      </trkpt>
      <trkpt lat="48.67991" lon="2.15314">
        <ele>155.87</ele>
        <time>2019-03-09T09:47:33Z</time>
      </trkpt>
      <trkpt lat="48.67996" lon="2.15315">
        <ele>155.39</ele>
        <time>2019-03-09T09:47:34Z</time>
      </trkpt>
      <trkpt lat="48.67999" lon="2.15316">
        <ele>155.39</ele>
        <time>2019-03-09T09:47:35Z</time>
      </trkpt>
      <trkpt lat="48.68003" lon="2.15318">
        <ele>154.91</ele>
        <time>2019-03-09T09:47:36Z</time>
      </trkpt>
      <trkpt lat="48.68053" lon="2.15343">
        <ele>154.91</ele>
        <time>2019-03-09T09:47:49Z</time>
      </trkpt>
      <trkpt lat="48.6809" lon="2.15362">
        <ele>155.39</ele>
        <time>2019-03-09T09:47:58Z</time>
      </trkpt>
      <trkpt lat="48.68094" lon="2.15364">
        <ele>155.39</ele>
        <time>2019-03-09T09:47:59Z</time>
      </trkpt>
      <trkpt lat="48.68098" lon="2.15367">
        <ele>155.39</ele>
        <time>2019-03-09T09:48:00Z</time>
      </trkpt>
      <trkpt lat="48.68102" lon="2.1537">
        <ele>154.43</ele>
        <time>2019-03-09T09:48:01Z</time>
      </trkpt>
      <trkpt lat="48.68105" lon="2.15373">
        <ele>154.43</ele>
        <time>2019-03-09T09:48:02Z</time>
      </trkpt>
      <trkpt lat="48.68141" lon="2.1539">
        <ele>153.95</ele>
        <time>2019-03-09T09:48:10Z</time>
      </trkpt>
      <trkpt lat="48.68146" lon="2.15392">
        <ele>154.43</ele>
        <time>2019-03-09T09:48:11Z</time>
      </trkpt>
      <trkpt lat="48.68186" lon="2.1541">
        <ele>154.43</ele>
        <time>2019-03-09T09:48:21Z</time>
      </trkpt>
      <trkpt lat="48.68234" lon="2.15434">
        <ele>153.95</ele>
        <time>2019-03-09T09:48:33Z</time>
      </trkpt>
      <trkpt lat="48.68284" lon="2.15464">
        <ele>152.51</ele>
        <time>2019-03-09T09:48:46Z</time>
      </trkpt>
      <trkpt lat="48.68328" lon="2.15501">
        <ele>151.54</ele>
        <time>2019-03-09T09:48:57Z</time>
      </trkpt>
      <trkpt lat="48.68319" lon="2.15492">
        <ele>152.03</ele>
        <time>2019-03-09T09:48:58Z</time>
      </trkpt>
      <trkpt lat="48.6838" lon="2.15572">
        <ele>152.03</ele>
        <time>2019-03-09T09:49:13Z</time>
      </trkpt>
      <trkpt lat="48.68437" lon="2.15604">
        <ele>151.54</ele>
        <time>2019-03-09T09:49:25Z</time>
      </trkpt>
      <trkpt lat="48.68444" lon="2.15611">
        <ele>151.54</ele>
        <time>2019-03-09T09:49:37Z</time>
      </trkpt>
      <trkpt lat="48.68445" lon="2.15612">
        <ele>151.54</ele>
        <time>2019-03-09T09:49:38Z</time>
      </trkpt>
      <trkpt lat="48.68456" lon="2.15622">
        <ele>151.06</ele>
        <time>2019-03-09T09:49:44Z</time>
      </trkpt>
      <trkpt lat="48.68446" lon="2.15626">
        <ele>152.03</ele>
        <time>2019-03-09T09:50:15Z</time>
      </trkpt>
      <trkpt lat="48.68445" lon="2.15634">
        <ele>151.06</ele>
        <time>2019-03-09T09:50:19Z</time>
      </trkpt>
      <trkpt lat="48.68447" lon="2.15637">
        <ele>150.1</ele>
        <time>2019-03-09T09:50:21Z</time>
      </trkpt>
      <trkpt lat="48.68455" lon="2.1565">
        <ele>149.62</ele>
        <time>2019-03-09T09:50:25Z</time>
      </trkpt>
      <trkpt lat="48.6846" lon="2.15651">
        <ele>148.66</ele>
        <time>2019-03-09T09:50:26Z</time>
      </trkpt>
      <trkpt lat="48.68464" lon="2.15653">
        <ele>147.7</ele>
        <time>2019-03-09T09:50:27Z</time>
      </trkpt>
      <trkpt lat="48.68489" lon="2.15661">
        <ele>144.82</ele>
        <time>2019-03-09T09:50:31Z</time>
      </trkpt>
      <trkpt lat="48.68495" lon="2.1566">
        <ele>144.34</ele>
        <time>2019-03-09T09:50:32Z</time>
      </trkpt>
      <trkpt lat="48.68501" lon="2.15658">
        <ele>143.85</ele>
        <time>2019-03-09T09:50:33Z</time>
      </trkpt>
      <trkpt lat="48.68508" lon="2.15656">
        <ele>142.89</ele>
        <time>2019-03-09T09:50:34Z</time>
      </trkpt>
      <trkpt lat="48.68515" lon="2.15654">
        <ele>142.41</ele>
        <time>2019-03-09T09:50:35Z</time>
      </trkpt>
      <trkpt lat="48.68522" lon="2.15653">
        <ele>142.41</ele>
        <time>2019-03-09T09:50:36Z</time>
      </trkpt>
      <trkpt lat="48.68529" lon="2.15653">
        <ele>141.45</ele>
        <time>2019-03-09T09:50:37Z</time>
      </trkpt>
      <trkpt lat="48.68565" lon="2.15649">
        <ele>137.61</ele>
        <time>2019-03-09T09:50:42Z</time>
      </trkpt>
      <trkpt lat="48.68576" lon="2.15653">
        <ele>137.61</ele>
        <time>2019-03-09T09:50:44Z</time>
      </trkpt>
      <trkpt lat="48.68579" lon="2.15656">
        <ele>138.09</ele>
        <time>2019-03-09T09:50:45Z</time>
      </trkpt>
      <trkpt lat="48.6858" lon="2.15659">
        <ele>140.01</ele>
        <time>2019-03-09T09:50:46Z</time>
      </trkpt>
      <trkpt lat="48.68582" lon="2.15662">
        <ele>139.53</ele>
        <time>2019-03-09T09:50:47Z</time>
      </trkpt>
      <trkpt lat="48.68583" lon="2.15665">
        <ele>139.53</ele>
        <time>2019-03-09T09:50:48Z</time>
      </trkpt>
      <trkpt lat="48.68585" lon="2.15667">
        <ele>140.49</ele>
        <time>2019-03-09T09:50:49Z</time>
      </trkpt>
      <trkpt lat="48.68587" lon="2.15671">
        <ele>140.49</ele>
        <time>2019-03-09T09:50:50Z</time>
      </trkpt>
      <trkpt lat="48.6859" lon="2.15674">
        <ele>140.97</ele>
        <time>2019-03-09T09:50:51Z</time>
      </trkpt>
      <trkpt lat="48.68592" lon="2.1568">
        <ele>141.45</ele>
        <time>2019-03-09T09:50:53Z</time>
      </trkpt>
      <trkpt lat="48.68593" lon="2.15683">
        <ele>141.93</ele>
        <time>2019-03-09T09:50:54Z</time>
      </trkpt>
      <trkpt lat="48.68594" lon="2.15687">
        <ele>141.93</ele>
        <time>2019-03-09T09:50:55Z</time>
      </trkpt>
      <trkpt lat="48.68595" lon="2.1569">
        <ele>141.93</ele>
        <time>2019-03-09T09:50:56Z</time>
      </trkpt>
      <trkpt lat="48.68595" lon="2.15692">
        <ele>141.93</ele>
        <time>2019-03-09T09:50:57Z</time>
      </trkpt>
      <trkpt lat="48.68596" lon="2.15695">
        <ele>141.93</ele>
        <time>2019-03-09T09:50:58Z</time>
      </trkpt>
      <trkpt lat="48.68597" lon="2.15699">
        <ele>142.89</ele>
        <time>2019-03-09T09:50:59Z</time>
      </trkpt>
      <trkpt lat="48.68598" lon="2.15701">
        <ele>141.93</ele>
        <time>2019-03-09T09:51:00Z</time>
      </trkpt>
      <trkpt lat="48.686" lon="2.15704">
        <ele>141.93</ele>
        <time>2019-03-09T09:51:01Z</time>
      </trkpt>
      <trkpt lat="48.68601" lon="2.15708">
        <ele>141.93</ele>
        <time>2019-03-09T09:51:02Z</time>
      </trkpt>
      <trkpt lat="48.68603" lon="2.15712">
        <ele>141.45</ele>
        <time>2019-03-09T09:51:03Z</time>
      </trkpt>
      <trkpt lat="48.68605" lon="2.15716">
        <ele>140.49</ele>
        <time>2019-03-09T09:51:04Z</time>
      </trkpt>
      <trkpt lat="48.68608" lon="2.15723">
        <ele>140.49</ele>
        <time>2019-03-09T09:51:05Z</time>
      </trkpt>
      <trkpt lat="48.68615" lon="2.15735">
        <ele>139.05</ele>
        <time>2019-03-09T09:51:07Z</time>
      </trkpt>
      <trkpt lat="48.68626" lon="2.15737">
        <ele>138.09</ele>
        <time>2019-03-09T09:51:10Z</time>
      </trkpt>
      <trkpt lat="48.68639" lon="2.15731">
        <ele>133.28</ele>
        <time>2019-03-09T09:51:14Z</time>
      </trkpt>
      <trkpt lat="48.68653" lon="2.15716">
        <ele>127.99</ele>
        <time>2019-03-09T09:51:18Z</time>
      </trkpt>
      <trkpt lat="48.68665" lon="2.15698">
        <ele>126.07</ele>
        <time>2019-03-09T09:51:22Z</time>
      </trkpt>
      <trkpt lat="48.68669" lon="2.15697">
        <ele>125.11</ele>
        <time>2019-03-09T09:51:23Z</time>
      </trkpt>
      <trkpt lat="48.68691" lon="2.15704">
        <ele>122.71</ele>
        <time>2019-03-09T09:51:29Z</time>
      </trkpt>
      <trkpt lat="48.68716" lon="2.15703">
        <ele>118.86</ele>
        <time>2019-03-09T09:51:36Z</time>
      </trkpt>
      <trkpt lat="48.68747" lon="2.15714">
        <ele>119.34</ele>
        <time>2019-03-09T09:51:44Z</time>
      </trkpt>
      <trkpt lat="48.68761" lon="2.15713">
        <ele>117.9</ele>
        <time>2019-03-09T09:51:49Z</time>
      </trkpt>
      <trkpt lat="48.68781" lon="2.15718">
        <ele>117.9</ele>
        <time>2019-03-09T09:51:53Z</time>
      </trkpt>
      <trkpt lat="48.68803" lon="2.15712">
        <ele>115.98</ele>
        <time>2019-03-09T09:51:59Z</time>
      </trkpt>
      <trkpt lat="48.6881" lon="2.15711">
        <ele>115.01</ele>
        <time>2019-03-09T09:52:00Z</time>
      </trkpt>
      <trkpt lat="48.68817" lon="2.1571">
        <ele>114.05</ele>
        <time>2019-03-09T09:52:02Z</time>
      </trkpt>
      <trkpt lat="48.68826" lon="2.15714">
        <ele>112.13</ele>
        <time>2019-03-09T09:52:05Z</time>
      </trkpt>
      <trkpt lat="48.68838" lon="2.15726">
        <ele>109.73</ele>
        <time>2019-03-09T09:52:08Z</time>
      </trkpt>
      <trkpt lat="48.68855" lon="2.1574">
        <ele>109.73</ele>
        <time>2019-03-09T09:52:11Z</time>
      </trkpt>
      <trkpt lat="48.68888" lon="2.15748">
        <ele>111.17</ele>
        <time>2019-03-09T09:52:19Z</time>
      </trkpt>
      <trkpt lat="48.68912" lon="2.15758">
        <ele>111.17</ele>
        <time>2019-03-09T09:52:35Z</time>
      </trkpt>
      <trkpt lat="48.68921" lon="2.15763">
        <ele>111.17</ele>
        <time>2019-03-09T09:53:47Z</time>
      </trkpt>
      <trkpt lat="48.68932" lon="2.15769">
        <ele>110.21</ele>
        <time>2019-03-09T09:54:59Z</time>
      </trkpt>
      <trkpt lat="48.68929" lon="2.15765">
        <ele>109.73</ele>
        <time>2019-03-09T09:55:35Z</time>
      </trkpt>
      <trkpt lat="48.68928" lon="2.15767">
        <ele>109.73</ele>
        <time>2019-03-09T09:57:42Z</time>
      </trkpt>
      <trkpt lat="48.68954" lon="2.15784">
        <ele>107.32</ele>
        <time>2019-03-09T09:57:51Z</time>
      </trkpt>
      <trkpt lat="48.68968" lon="2.15789">
        <ele>110.69</ele>
        <time>2019-03-09T09:58:00Z</time>
      </trkpt>
      <trkpt lat="48.68974" lon="2.15792">
        <ele>112.13</ele>
        <time>2019-03-09T09:58:05Z</time>
      </trkpt>
      <trkpt lat="48.68996" lon="2.158">
        <ele>112.13</ele>
        <time>2019-03-09T09:58:17Z</time>
      </trkpt>
      <trkpt lat="48.69012" lon="2.15793">
        <ele>110.69</ele>
        <time>2019-03-09T09:58:21Z</time>
      </trkpt>
      <trkpt lat="48.69027" lon="2.15802">
        <ele>108.77</ele>
        <time>2019-03-09T09:58:25Z</time>
      </trkpt>
      <trkpt lat="48.69035" lon="2.15813">
        <ele>107.81</ele>
        <time>2019-03-09T09:58:27Z</time>
      </trkpt>
      <trkpt lat="48.69062" lon="2.15854">
        <ele>109.73</ele>
        <time>2019-03-09T09:58:36Z</time>
      </trkpt>
      <trkpt lat="48.69072" lon="2.15869">
        <ele>111.17</ele>
        <time>2019-03-09T09:58:41Z</time>
      </trkpt>
      <trkpt lat="48.69073" lon="2.15871">
        <ele>111.65</ele>
        <time>2019-03-09T09:58:42Z</time>
      </trkpt>
      <trkpt lat="48.69075" lon="2.15874">
        <ele>112.13</ele>
        <time>2019-03-09T09:58:43Z</time>
      </trkpt>
      <trkpt lat="48.69079" lon="2.15879">
        <ele>113.09</ele>
        <time>2019-03-09T09:58:45Z</time>
      </trkpt>
      <trkpt lat="48.69082" lon="2.15882">
        <ele>113.09</ele>
        <time>2019-03-09T09:58:46Z</time>
      </trkpt>
      <trkpt lat="48.69089" lon="2.15893">
        <ele>113.09</ele>
        <time>2019-03-09T09:58:50Z</time>
      </trkpt>
      <trkpt lat="48.69091" lon="2.15896">
        <ele>113.09</ele>
        <time>2019-03-09T09:58:51Z</time>
      </trkpt>
      <trkpt lat="48.69098" lon="2.15904">
        <ele>113.09</ele>
        <time>2019-03-09T09:58:55Z</time>
      </trkpt>
      <trkpt lat="48.69107" lon="2.15912">
        <ele>113.09</ele>
        <time>2019-03-09T09:58:59Z</time>
      </trkpt>
      <trkpt lat="48.69109" lon="2.15914">
        <ele>113.09</ele>
        <time>2019-03-09T09:59:00Z</time>
      </trkpt>
      <trkpt lat="48.69111" lon="2.15917">
        <ele>113.09</ele>
        <time>2019-03-09T09:59:01Z</time>
      </trkpt>
      <trkpt lat="48.69113" lon="2.15919">
        <ele>113.09</ele>
        <time>2019-03-09T09:59:02Z</time>
      </trkpt>
      <trkpt lat="48.69115" lon="2.1592">
        <ele>112.61</ele>
        <time>2019-03-09T09:59:03Z</time>
      </trkpt>
      <trkpt lat="48.69118" lon="2.15921">
        <ele>112.61</ele>
        <time>2019-03-09T09:59:04Z</time>
      </trkpt>
      <trkpt lat="48.69122" lon="2.15923">
        <ele>111.17</ele>
        <time>2019-03-09T09:59:05Z</time>
      </trkpt>
      <trkpt lat="48.69157" lon="2.15949">
        <ele>107.81</ele>
        <time>2019-03-09T09:59:12Z</time>
      </trkpt>
      <trkpt lat="48.69187" lon="2.15996">
        <ele>110.21</ele>
        <time>2019-03-09T09:59:23Z</time>
      </trkpt>
      <trkpt lat="48.69191" lon="2.16011">
        <ele>110.69</ele>
        <time>2019-03-09T09:59:26Z</time>
      </trkpt>
      <trkpt lat="48.69193" lon="2.16014">
        <ele>111.17</ele>
        <time>2019-03-09T09:59:27Z</time>
      </trkpt>
      <trkpt lat="48.69196" lon="2.16017">
        <ele>111.17</ele>
        <time>2019-03-09T09:59:28Z</time>
      </trkpt>
      <trkpt lat="48.69198" lon="2.1602">
        <ele>110.69</ele>
        <time>2019-03-09T09:59:29Z</time>
      </trkpt>
      <trkpt lat="48.69201" lon="2.16023">
        <ele>110.69</ele>
        <time>2019-03-09T09:59:30Z</time>
      </trkpt>
      <trkpt lat="48.69216" lon="2.16045">
        <ele>107.81</ele>
        <time>2019-03-09T09:59:35Z</time>
      </trkpt>
      <trkpt lat="48.69221" lon="2.16047">
        <ele>107.81</ele>
        <time>2019-03-09T09:59:36Z</time>
      </trkpt>
      <trkpt lat="48.69226" lon="2.16048">
        <ele>107.32</ele>
        <time>2019-03-09T09:59:37Z</time>
      </trkpt>
      <trkpt lat="48.69232" lon="2.1605">
        <ele>106.84</ele>
        <time>2019-03-09T09:59:38Z</time>
      </trkpt>
      <trkpt lat="48.69237" lon="2.16053">
        <ele>106.84</ele>
        <time>2019-03-09T09:59:39Z</time>
      </trkpt>
      <trkpt lat="48.69242" lon="2.16057">
        <ele>107.32</ele>
        <time>2019-03-09T09:59:40Z</time>
      </trkpt>
      <trkpt lat="48.69245" lon="2.16062">
        <ele>107.81</ele>
        <time>2019-03-09T09:59:41Z</time>
      </trkpt>
      <trkpt lat="48.69249" lon="2.16066">
        <ele>107.81</ele>
        <time>2019-03-09T09:59:42Z</time>
      </trkpt>
      <trkpt lat="48.69252" lon="2.16069">
        <ele>107.81</ele>
        <time>2019-03-09T09:59:43Z</time>
      </trkpt>
      <trkpt lat="48.69256" lon="2.16072">
        <ele>107.81</ele>
        <time>2019-03-09T09:59:44Z</time>
      </trkpt>
      <trkpt lat="48.69259" lon="2.16074">
        <ele>108.29</ele>
        <time>2019-03-09T09:59:45Z</time>
      </trkpt>
      <trkpt lat="48.69262" lon="2.16075">
        <ele>108.29</ele>
        <time>2019-03-09T09:59:46Z</time>
      </trkpt>
      <trkpt lat="48.69265" lon="2.16076">
        <ele>108.29</ele>
        <time>2019-03-09T09:59:47Z</time>
      </trkpt>
      <trkpt lat="48.69268" lon="2.16075">
        <ele>107.81</ele>
        <time>2019-03-09T09:59:48Z</time>
      </trkpt>
      <trkpt lat="48.69271" lon="2.16074">
        <ele>108.29</ele>
        <time>2019-03-09T09:59:49Z</time>
      </trkpt>
      <trkpt lat="48.69274" lon="2.16072">
        <ele>107.81</ele>
        <time>2019-03-09T09:59:50Z</time>
      </trkpt>
      <trkpt lat="48.69278" lon="2.16071">
        <ele>107.81</ele>
        <time>2019-03-09T09:59:51Z</time>
      </trkpt>
      <trkpt lat="48.69281" lon="2.16072">
        <ele>107.32</ele>
        <time>2019-03-09T09:59:52Z</time>
      </trkpt>
      <trkpt lat="48.69285" lon="2.16073">
        <ele>107.81</ele>
        <time>2019-03-09T09:59:53Z</time>
      </trkpt>
      <trkpt lat="48.69289" lon="2.16075">
        <ele>107.32</ele>
        <time>2019-03-09T09:59:54Z</time>
      </trkpt>
      <trkpt lat="48.69294" lon="2.16076">
        <ele>107.32</ele>
        <time>2019-03-09T09:59:55Z</time>
      </trkpt>
      <trkpt lat="48.69299" lon="2.16078">
        <ele>106.36</ele>
        <time>2019-03-09T09:59:56Z</time>
      </trkpt>
      <trkpt lat="48.6935" lon="2.16094">
        <ele>103.96</ele>
        <time>2019-03-09T10:00:07Z</time>
      </trkpt>
      <trkpt lat="48.69364" lon="2.16099">
        <ele>103.48</ele>
        <time>2019-03-09T10:00:10Z</time>
      </trkpt>
      <trkpt lat="48.69416" lon="2.16115">
        <ele>102.52</ele>
        <time>2019-03-09T10:00:21Z</time>
      </trkpt>
      <trkpt lat="48.69437" lon="2.16137">
        <ele>102.52</ele>
        <time>2019-03-09T10:00:26Z</time>
      </trkpt>
      <trkpt lat="48.6944" lon="2.16142">
        <ele>102.52</ele>
        <time>2019-03-09T10:00:27Z</time>
      </trkpt>
      <trkpt lat="48.69459" lon="2.16175">
        <ele>101.56</ele>
        <time>2019-03-09T10:00:32Z</time>
      </trkpt>
      <trkpt lat="48.69473" lon="2.16197">
        <ele>101.56</ele>
        <time>2019-03-09T10:00:36Z</time>
      </trkpt>
      <trkpt lat="48.69475" lon="2.16203">
        <ele>101.08</ele>
        <time>2019-03-09T10:00:37Z</time>
      </trkpt>
      <trkpt lat="48.69478" lon="2.16208">
        <ele>101.56</ele>
        <time>2019-03-09T10:00:38Z</time>
      </trkpt>
      <trkpt lat="48.69481" lon="2.16211">
        <ele>100.6</ele>
        <time>2019-03-09T10:00:39Z</time>
      </trkpt>
      <trkpt lat="48.69484" lon="2.16214">
        <ele>100.6</ele>
        <time>2019-03-09T10:00:40Z</time>
      </trkpt>
      <trkpt lat="48.69486" lon="2.16217">
        <ele>100.11</ele>
        <time>2019-03-09T10:00:41Z</time>
      </trkpt>
      <trkpt lat="48.69488" lon="2.16221">
        <ele>100.11</ele>
        <time>2019-03-09T10:00:42Z</time>
      </trkpt>
      <trkpt lat="48.69492" lon="2.16225">
        <ele>100.11</ele>
        <time>2019-03-09T10:00:43Z</time>
      </trkpt>
      <trkpt lat="48.69495" lon="2.1623">
        <ele>98.67</ele>
        <time>2019-03-09T10:00:44Z</time>
      </trkpt>
      <trkpt lat="48.695" lon="2.16234">
        <ele>98.19</ele>
        <time>2019-03-09T10:00:45Z</time>
      </trkpt>
      <trkpt lat="48.69504" lon="2.16237">
        <ele>97.71</ele>
        <time>2019-03-09T10:00:46Z</time>
      </trkpt>
      <trkpt lat="48.69513" lon="2.16245">
        <ele>96.75</ele>
        <time>2019-03-09T10:00:48Z</time>
      </trkpt>
      <trkpt lat="48.69518" lon="2.16251">
        <ele>96.75</ele>
        <time>2019-03-09T10:00:49Z</time>
      </trkpt>
      <trkpt lat="48.69522" lon="2.16257">
        <ele>96.75</ele>
        <time>2019-03-09T10:00:50Z</time>
      </trkpt>
      <trkpt lat="48.69534" lon="2.16278">
        <ele>97.71</ele>
        <time>2019-03-09T10:00:54Z</time>
      </trkpt>
      <trkpt lat="48.69537" lon="2.16284">
        <ele>97.23</ele>
        <time>2019-03-09T10:00:55Z</time>
      </trkpt>
      <trkpt lat="48.69543" lon="2.16305">
        <ele>98.19</ele>
        <time>2019-03-09T10:00:59Z</time>
      </trkpt>
      <trkpt lat="48.69579" lon="2.16364">
        <ele>100.11</ele>
        <time>2019-03-09T10:01:13Z</time>
      </trkpt>
      <trkpt lat="48.69596" lon="2.16409">
        <ele>100.6</ele>
        <time>2019-03-09T10:01:21Z</time>
      </trkpt>
      <trkpt lat="48.696" lon="2.1642">
        <ele>101.08</ele>
        <time>2019-03-09T10:01:23Z</time>
      </trkpt>
      <trkpt lat="48.6963" lon="2.16528">
        <ele>98.67</ele>
        <time>2019-03-09T10:01:37Z</time>
      </trkpt>
      <trkpt lat="48.69635" lon="2.16553">
        <ele>98.19</ele>
        <time>2019-03-09T10:01:40Z</time>
      </trkpt>
      <trkpt lat="48.69637" lon="2.16578">
        <ele>97.23</ele>
        <time>2019-03-09T10:01:43Z</time>
      </trkpt>
      <trkpt lat="48.69636" lon="2.16698">
        <ele>98.19</ele>
        <time>2019-03-09T10:01:58Z</time>
      </trkpt>
      <trkpt lat="48.69621" lon="2.16782">
        <ele>100.11</ele>
        <time>2019-03-09T10:02:12Z</time>
      </trkpt>
      <trkpt lat="48.69607" lon="2.16858">
        <ele>101.08</ele>
        <time>2019-03-09T10:02:26Z</time>
      </trkpt>
      <trkpt lat="48.69605" lon="2.16886">
        <ele>100.6</ele>
        <time>2019-03-09T10:02:31Z</time>
      </trkpt>
      <trkpt lat="48.69606" lon="2.16888">
        <ele>100.6</ele>
        <time>2019-03-09T10:02:32Z</time>
      </trkpt>
      <trkpt lat="48.69607" lon="2.16889">
        <ele>100.6</ele>
        <time>2019-03-09T10:02:33Z</time>
      </trkpt>
      <trkpt lat="48.69609" lon="2.16891">
        <ele>100.6</ele>
        <time>2019-03-09T10:02:34Z</time>
      </trkpt>
      <trkpt lat="48.69612" lon="2.16891">
        <ele>100.6</ele>
        <time>2019-03-09T10:02:35Z</time>
      </trkpt>
      <trkpt lat="48.69637" lon="2.16886">
        <ele>99.63</ele>
        <time>2019-03-09T10:02:43Z</time>
      </trkpt>
      <trkpt lat="48.6964" lon="2.16881">
        <ele>98.67</ele>
        <time>2019-03-09T10:02:44Z</time>
      </trkpt>
      <trkpt lat="48.69644" lon="2.16875">
        <ele>98.19</ele>
        <time>2019-03-09T10:02:45Z</time>
      </trkpt>
      <trkpt lat="48.69648" lon="2.16868">
        <ele>98.19</ele>
        <time>2019-03-09T10:02:46Z</time>
      </trkpt>
      <trkpt lat="48.69652" lon="2.16861">
        <ele>97.71</ele>
        <time>2019-03-09T10:02:47Z</time>
      </trkpt>
      <trkpt lat="48.69656" lon="2.16853">
        <ele>97.23</ele>
        <time>2019-03-09T10:02:48Z</time>
      </trkpt>
      <trkpt lat="48.69661" lon="2.16846">
        <ele>96.27</ele>
        <time>2019-03-09T10:02:49Z</time>
      </trkpt>
      <trkpt lat="48.69676" lon="2.16818">
        <ele>94.83</ele>
        <time>2019-03-09T10:02:53Z</time>
      </trkpt>
      <trkpt lat="48.69681" lon="2.16813">
        <ele>94.83</ele>
        <time>2019-03-09T10:02:54Z</time>
      </trkpt>
      <trkpt lat="48.69687" lon="2.1681">
        <ele>94.35</ele>
        <time>2019-03-09T10:02:55Z</time>
      </trkpt>
      <trkpt lat="48.69701" lon="2.1682">
        <ele>92.42</ele>
        <time>2019-03-09T10:02:58Z</time>
      </trkpt>
      <trkpt lat="48.69705" lon="2.16827">
        <ele>91.94</ele>
        <time>2019-03-09T10:02:59Z</time>
      </trkpt>
      <trkpt lat="48.69708" lon="2.16836">
        <ele>91.46</ele>
        <time>2019-03-09T10:03:00Z</time>
      </trkpt>
      <trkpt lat="48.69711" lon="2.16844">
        <ele>90.98</ele>
        <time>2019-03-09T10:03:01Z</time>
      </trkpt>
      <trkpt lat="48.69716" lon="2.16867">
        <ele>89.54</ele>
        <time>2019-03-09T10:03:04Z</time>
      </trkpt>
      <trkpt lat="48.69716" lon="2.16875">
        <ele>89.54</ele>
        <time>2019-03-09T10:03:05Z</time>
      </trkpt>
      <trkpt lat="48.69714" lon="2.16882">
        <ele>88.1</ele>
        <time>2019-03-09T10:03:06Z</time>
      </trkpt>
      <trkpt lat="48.69711" lon="2.16887">
        <ele>88.1</ele>
        <time>2019-03-09T10:03:07Z</time>
      </trkpt>
      <trkpt lat="48.69708" lon="2.16891">
        <ele>88.58</ele>
        <time>2019-03-09T10:03:08Z</time>
      </trkpt>
      <trkpt lat="48.69704" lon="2.16893">
        <ele>88.58</ele>
        <time>2019-03-09T10:03:09Z</time>
      </trkpt>
      <trkpt lat="48.69678" lon="2.16928">
        <ele>89.54</ele>
        <time>2019-03-09T10:03:20Z</time>
      </trkpt>
      <trkpt lat="48.69679" lon="2.16931">
        <ele>89.54</ele>
        <time>2019-03-09T10:03:21Z</time>
      </trkpt>
      <trkpt lat="48.69682" lon="2.16934">
        <ele>88.58</ele>
        <time>2019-03-09T10:03:22Z</time>
      </trkpt>
      <trkpt lat="48.69685" lon="2.16937">
        <ele>89.06</ele>
        <time>2019-03-09T10:03:23Z</time>
      </trkpt>
      <trkpt lat="48.69688" lon="2.16939">
        <ele>88.58</ele>
        <time>2019-03-09T10:03:24Z</time>
      </trkpt>
      <trkpt lat="48.69696" lon="2.16944">
        <ele>88.58</ele>
        <time>2019-03-09T10:03:26Z</time>
      </trkpt>
      <trkpt lat="48.69701" lon="2.16946">
        <ele>88.58</ele>
        <time>2019-03-09T10:03:27Z</time>
      </trkpt>
      <trkpt lat="48.6971" lon="2.1695">
        <ele>87.62</ele>
        <time>2019-03-09T10:03:29Z</time>
      </trkpt>
      <trkpt lat="48.69716" lon="2.16953">
        <ele>88.1</ele>
        <time>2019-03-09T10:03:30Z</time>
      </trkpt>
      <trkpt lat="48.69722" lon="2.16956">
        <ele>87.14</ele>
        <time>2019-03-09T10:03:31Z</time>
      </trkpt>
      <trkpt lat="48.69727" lon="2.1696">
        <ele>86.18</ele>
        <time>2019-03-09T10:03:32Z</time>
      </trkpt>
      <trkpt lat="48.69733" lon="2.16965">
        <ele>85.21</ele>
        <time>2019-03-09T10:03:33Z</time>
      </trkpt>
      <trkpt lat="48.69738" lon="2.16972">
        <ele>85.21</ele>
        <time>2019-03-09T10:03:34Z</time>
      </trkpt>
      <trkpt lat="48.69742" lon="2.16981">
        <ele>84.73</ele>
        <time>2019-03-09T10:03:35Z</time>
      </trkpt>
      <trkpt lat="48.69745" lon="2.1699">
        <ele>84.73</ele>
        <time>2019-03-09T10:03:36Z</time>
      </trkpt>
      <trkpt lat="48.69747" lon="2.16998">
        <ele>85.21</ele>
        <time>2019-03-09T10:03:37Z</time>
      </trkpt>
      <trkpt lat="48.69748" lon="2.17004">
        <ele>85.69</ele>
        <time>2019-03-09T10:03:38Z</time>
      </trkpt>
      <trkpt lat="48.69749" lon="2.17011">
        <ele>86.66</ele>
        <time>2019-03-09T10:03:39Z</time>
      </trkpt>
      <trkpt lat="48.69749" lon="2.17017">
        <ele>86.66</ele>
        <time>2019-03-09T10:03:40Z</time>
      </trkpt>
      <trkpt lat="48.69732" lon="2.17077">
        <ele>88.58</ele>
        <time>2019-03-09T10:03:50Z</time>
      </trkpt>
      <trkpt lat="48.69729" lon="2.17083">
        <ele>88.58</ele>
        <time>2019-03-09T10:03:51Z</time>
      </trkpt>
      <trkpt lat="48.69725" lon="2.17089">
        <ele>89.06</ele>
        <time>2019-03-09T10:03:52Z</time>
      </trkpt>
      <trkpt lat="48.69719" lon="2.171">
        <ele>89.06</ele>
        <time>2019-03-09T10:03:54Z</time>
      </trkpt>
      <trkpt lat="48.69716" lon="2.1712">
        <ele>90.02</ele>
        <time>2019-03-09T10:03:58Z</time>
      </trkpt>
      <trkpt lat="48.69714" lon="2.17122">
        <ele>90.5</ele>
        <time>2019-03-09T10:03:59Z</time>
      </trkpt>
      <trkpt lat="48.69701" lon="2.17127">
        <ele>91.94</ele>
        <time>2019-03-09T10:04:02Z</time>
      </trkpt>
      <trkpt lat="48.69698" lon="2.17131">
        <ele>90.98</ele>
        <time>2019-03-09T10:04:03Z</time>
      </trkpt>
      <trkpt lat="48.69679" lon="2.17165">
        <ele>91.46</ele>
        <time>2019-03-09T10:04:09Z</time>
      </trkpt>
      <trkpt lat="48.69677" lon="2.17171">
        <ele>90.98</ele>
        <time>2019-03-09T10:04:10Z</time>
      </trkpt>
      <trkpt lat="48.69674" lon="2.17244">
        <ele>90.5</ele>
        <time>2019-03-09T10:04:23Z</time>
      </trkpt>
      <trkpt lat="48.69675" lon="2.1728">
        <ele>91.46</ele>
        <time>2019-03-09T10:04:31Z</time>
      </trkpt>
      <trkpt lat="48.69674" lon="2.17283">
        <ele>90.98</ele>
        <time>2019-03-09T10:04:32Z</time>
      </trkpt>
      <trkpt lat="48.6967" lon="2.17284">
        <ele>90.98</ele>
        <time>2019-03-09T10:04:34Z</time>
      </trkpt>
      <trkpt lat="48.69652" lon="2.17303">
        <ele>91.46</ele>
        <time>2019-03-09T10:04:45Z</time>
      </trkpt>
      <trkpt lat="48.69654" lon="2.17308">
        <ele>93.39</ele>
        <time>2019-03-09T10:04:57Z</time>
      </trkpt>
      <trkpt lat="48.69658" lon="2.1731">
        <ele>95.79</ele>
        <time>2019-03-09T10:05:07Z</time>
      </trkpt>
      <trkpt lat="48.69656" lon="2.17313">
        <ele>96.75</ele>
        <time>2019-03-09T10:05:19Z</time>
      </trkpt>
      <trkpt lat="48.69655" lon="2.17314">
        <ele>96.27</ele>
        <time>2019-03-09T10:05:21Z</time>
      </trkpt>
      <trkpt lat="48.69656" lon="2.17315">
        <ele>96.75</ele>
        <time>2019-03-09T10:05:24Z</time>
      </trkpt>
      <trkpt lat="48.69645" lon="2.1732">
        <ele>96.27</ele>
        <time>2019-03-09T10:05:30Z</time>
      </trkpt>
      <trkpt lat="48.69624" lon="2.17328">
        <ele>96.27</ele>
        <time>2019-03-09T10:05:40Z</time>
      </trkpt>
      <trkpt lat="48.69623" lon="2.17334">
        <ele>95.79</ele>
        <time>2019-03-09T10:05:49Z</time>
      </trkpt>
      <trkpt lat="48.6962" lon="2.17336">
        <ele>94.35</ele>
        <time>2019-03-09T10:05:56Z</time>
      </trkpt>
      <trkpt lat="48.69613" lon="2.17342">
        <ele>94.35</ele>
        <time>2019-03-09T10:06:01Z</time>
      </trkpt>
      <trkpt lat="48.6961" lon="2.17359">
        <ele>95.31</ele>
        <time>2019-03-09T10:06:08Z</time>
      </trkpt>
      <trkpt lat="48.69609" lon="2.17367">
        <ele>94.83</ele>
        <time>2019-03-09T10:06:10Z</time>
      </trkpt>
      <trkpt lat="48.69607" lon="2.1737">
        <ele>94.83</ele>
        <time>2019-03-09T10:06:11Z</time>
      </trkpt>
      <trkpt lat="48.69605" lon="2.17371">
        <ele>95.31</ele>
        <time>2019-03-09T10:06:12Z</time>
      </trkpt>
      <trkpt lat="48.69602" lon="2.17373">
        <ele>95.79</ele>
        <time>2019-03-09T10:06:13Z</time>
      </trkpt>
      <trkpt lat="48.69599" lon="2.17374">
        <ele>95.79</ele>
        <time>2019-03-09T10:06:14Z</time>
      </trkpt>
      <trkpt lat="48.69585" lon="2.17382">
        <ele>95.79</ele>
        <time>2019-03-09T10:06:18Z</time>
      </trkpt>
      <trkpt lat="48.69584" lon="2.17392">
        <ele>96.75</ele>
        <time>2019-03-09T10:06:27Z</time>
      </trkpt>
      <trkpt lat="48.69589" lon="2.17408">
        <ele>98.19</ele>
        <time>2019-03-09T10:06:37Z</time>
      </trkpt>
      <trkpt lat="48.69594" lon="2.17431">
        <ele>99.63</ele>
        <time>2019-03-09T10:06:44Z</time>
      </trkpt>
      <trkpt lat="48.69593" lon="2.17493">
        <ele>99.63</ele>
        <time>2019-03-09T10:06:56Z</time>
      </trkpt>
      <trkpt lat="48.69588" lon="2.17552">
        <ele>99.63</ele>
        <time>2019-03-09T10:07:08Z</time>
      </trkpt>
      <trkpt lat="48.69587" lon="2.17556">
        <ele>99.15</ele>
        <time>2019-03-09T10:07:09Z</time>
      </trkpt>
      <trkpt lat="48.69596" lon="2.17618">
        <ele>98.67</ele>
        <time>2019-03-09T10:07:20Z</time>
      </trkpt>
      <trkpt lat="48.69599" lon="2.1763">
        <ele>98.67</ele>
        <time>2019-03-09T10:07:22Z</time>
      </trkpt>
      <trkpt lat="48.69599" lon="2.17636">
        <ele>98.19</ele>
        <time>2019-03-09T10:07:23Z</time>
      </trkpt>
      <trkpt lat="48.69598" lon="2.17641">
        <ele>97.71</ele>
        <time>2019-03-09T10:07:24Z</time>
      </trkpt>
      <trkpt lat="48.69595" lon="2.17645">
        <ele>98.19</ele>
        <time>2019-03-09T10:07:25Z</time>
      </trkpt>
      <trkpt lat="48.69592" lon="2.17648">
        <ele>97.71</ele>
        <time>2019-03-09T10:07:26Z</time>
      </trkpt>
      <trkpt lat="48.69587" lon="2.1765">
        <ele>98.19</ele>
        <time>2019-03-09T10:07:27Z</time>
      </trkpt>
      <trkpt lat="48.69582" lon="2.17652">
        <ele>98.19</ele>
        <time>2019-03-09T10:07:28Z</time>
      </trkpt>
      <trkpt lat="48.69551" lon="2.17653">
        <ele>99.63</ele>
        <time>2019-03-09T10:07:36Z</time>
      </trkpt>
      <trkpt lat="48.69546" lon="2.17693">
        <ele>98.19</ele>
        <time>2019-03-09T10:07:45Z</time>
      </trkpt>
      <trkpt lat="48.69547" lon="2.1778">
        <ele>95.31</ele>
        <time>2019-03-09T10:07:56Z</time>
      </trkpt>
      <trkpt lat="48.69546" lon="2.17785">
        <ele>94.83</ele>
        <time>2019-03-09T10:07:57Z</time>
      </trkpt>
      <trkpt lat="48.69544" lon="2.17792">
        <ele>94.83</ele>
        <time>2019-03-09T10:07:58Z</time>
      </trkpt>
      <trkpt lat="48.69542" lon="2.178">
        <ele>94.83</ele>
        <time>2019-03-09T10:07:59Z</time>
      </trkpt>
      <trkpt lat="48.69541" lon="2.17808">
        <ele>94.83</ele>
        <time>2019-03-09T10:08:00Z</time>
      </trkpt>
      <trkpt lat="48.69541" lon="2.17815">
        <ele>93.87</ele>
        <time>2019-03-09T10:08:01Z</time>
      </trkpt>
      <trkpt lat="48.69541" lon="2.17824">
        <ele>94.35</ele>
        <time>2019-03-09T10:08:02Z</time>
      </trkpt>
      <trkpt lat="48.69549" lon="2.17886">
        <ele>93.39</ele>
        <time>2019-03-09T10:08:10Z</time>
      </trkpt>
      <trkpt lat="48.6955" lon="2.17893">
        <ele>93.87</ele>
        <time>2019-03-09T10:08:11Z</time>
      </trkpt>
      <trkpt lat="48.69563" lon="2.17948">
        <ele>96.27</ele>
        <time>2019-03-09T10:08:23Z</time>
      </trkpt>
      <trkpt lat="48.69562" lon="2.17991">
        <ele>98.19</ele>
        <time>2019-03-09T10:08:34Z</time>
      </trkpt>
      <trkpt lat="48.69558" lon="2.18035">
        <ele>101.08</ele>
        <time>2019-03-09T10:08:51Z</time>
      </trkpt>
      <trkpt lat="48.69561" lon="2.1806">
        <ele>102.04</ele>
        <time>2019-03-09T10:09:00Z</time>
      </trkpt>
      <trkpt lat="48.69562" lon="2.18063">
        <ele>102.04</ele>
        <time>2019-03-09T10:09:01Z</time>
      </trkpt>
      <trkpt lat="48.69562" lon="2.18066">
        <ele>102.04</ele>
        <time>2019-03-09T10:09:02Z</time>
      </trkpt>
      <trkpt lat="48.69564" lon="2.1807">
        <ele>102.04</ele>
        <time>2019-03-09T10:09:03Z</time>
      </trkpt>
      <trkpt lat="48.69564" lon="2.18073">
        <ele>102.04</ele>
        <time>2019-03-09T10:09:04Z</time>
      </trkpt>
      <trkpt lat="48.69565" lon="2.18077">
        <ele>102.04</ele>
        <time>2019-03-09T10:09:05Z</time>
      </trkpt>
      <trkpt lat="48.69566" lon="2.18135">
        <ele>103</ele>
        <time>2019-03-09T10:09:21Z</time>
      </trkpt>
      <trkpt lat="48.69569" lon="2.18192">
        <ele>104.44</ele>
        <time>2019-03-09T10:09:36Z</time>
      </trkpt>
      <trkpt lat="48.69568" lon="2.1823">
        <ele>105.88</ele>
        <time>2019-03-09T10:09:49Z</time>
      </trkpt>
      <trkpt lat="48.69566" lon="2.18232">
        <ele>106.36</ele>
        <time>2019-03-09T10:09:50Z</time>
      </trkpt>
      <trkpt lat="48.69564" lon="2.18233">
        <ele>105.4</ele>
        <time>2019-03-09T10:09:51Z</time>
      </trkpt>
      <trkpt lat="48.69525" lon="2.18239">
        <ele>106.36</ele>
        <time>2019-03-09T10:10:05Z</time>
      </trkpt>
      <trkpt lat="48.69479" lon="2.18241">
        <ele>106.84</ele>
        <time>2019-03-09T10:10:21Z</time>
      </trkpt>
      <trkpt lat="48.6943" lon="2.18247">
        <ele>107.81</ele>
        <time>2019-03-09T10:10:36Z</time>
      </trkpt>
      <trkpt lat="48.694" lon="2.18252">
        <ele>106.84</ele>
        <time>2019-03-09T10:10:44Z</time>
      </trkpt>
      <trkpt lat="48.69395" lon="2.18252">
        <ele>106.36</ele>
        <time>2019-03-09T10:10:45Z</time>
      </trkpt>
      <trkpt lat="48.69391" lon="2.1825">
        <ele>106.36</ele>
        <time>2019-03-09T10:10:46Z</time>
      </trkpt>
      <trkpt lat="48.69378" lon="2.18245">
        <ele>106.36</ele>
        <time>2019-03-09T10:10:49Z</time>
      </trkpt>
      <trkpt lat="48.69334" lon="2.18231">
        <ele>106.36</ele>
        <time>2019-03-09T10:11:02Z</time>
      </trkpt>
      <trkpt lat="48.69289" lon="2.18235">
        <ele>107.32</ele>
        <time>2019-03-09T10:11:18Z</time>
      </trkpt>
      <trkpt lat="48.69256" lon="2.18233">
        <ele>108.77</ele>
        <time>2019-03-09T10:11:33Z</time>
      </trkpt>
      <trkpt lat="48.69255" lon="2.18233">
        <ele>109.25</ele>
        <time>2019-03-09T10:11:34Z</time>
      </trkpt>
      <trkpt lat="48.69254" lon="2.18238">
        <ele>109.73</ele>
        <time>2019-03-09T10:11:40Z</time>
      </trkpt>
      <trkpt lat="48.69255" lon="2.18242">
        <ele>109.73</ele>
        <time>2019-03-09T10:11:42Z</time>
      </trkpt>
      <trkpt lat="48.69255" lon="2.18244">
        <ele>109.73</ele>
        <time>2019-03-09T10:11:43Z</time>
      </trkpt>
      <trkpt lat="48.69256" lon="2.18246">
        <ele>109.73</ele>
        <time>2019-03-09T10:11:44Z</time>
      </trkpt>
      <trkpt lat="48.69255" lon="2.18249">
        <ele>110.21</ele>
        <time>2019-03-09T10:11:46Z</time>
      </trkpt>
      <trkpt lat="48.69254" lon="2.18273">
        <ele>113.57</ele>
        <time>2019-03-09T10:11:58Z</time>
      </trkpt>
      <trkpt lat="48.69253" lon="2.18284">
        <ele>115.5</ele>
        <time>2019-03-09T10:12:10Z</time>
      </trkpt>
      <trkpt lat="48.69251" lon="2.18297">
        <ele>117.42</ele>
        <time>2019-03-09T10:12:24Z</time>
      </trkpt>
      <trkpt lat="48.6925" lon="2.18302">
        <ele>117.9</ele>
        <time>2019-03-09T10:12:27Z</time>
      </trkpt>
      <trkpt lat="48.69252" lon="2.18326">
        <ele>120.78</ele>
        <time>2019-03-09T10:12:42Z</time>
      </trkpt>
      <trkpt lat="48.69254" lon="2.18331">
        <ele>122.71</ele>
        <time>2019-03-09T10:12:58Z</time>
      </trkpt>
      <trkpt lat="48.69255" lon="2.18332">
        <ele>120.78</ele>
        <time>2019-03-09T10:13:00Z</time>
      </trkpt>
      <trkpt lat="48.69256" lon="2.18341">
        <ele>121.74</ele>
        <time>2019-03-09T10:13:05Z</time>
      </trkpt>
      <trkpt lat="48.69261" lon="2.18365">
        <ele>124.15</ele>
        <time>2019-03-09T10:13:16Z</time>
      </trkpt>
      <trkpt lat="48.69263" lon="2.18379">
        <ele>126.07</ele>
        <time>2019-03-09T10:13:24Z</time>
      </trkpt>
      <trkpt lat="48.69263" lon="2.18381">
        <ele>126.07</ele>
        <time>2019-03-09T10:13:25Z</time>
      </trkpt>
      <trkpt lat="48.69268" lon="2.18403">
        <ele>128.95</ele>
        <time>2019-03-09T10:13:38Z</time>
      </trkpt>
      <trkpt lat="48.6927" lon="2.18412">
        <ele>129.92</ele>
        <time>2019-03-09T10:13:44Z</time>
      </trkpt>
      <trkpt lat="48.6927" lon="2.18417">
        <ele>129.92</ele>
        <time>2019-03-09T10:13:47Z</time>
      </trkpt>
      <trkpt lat="48.69257" lon="2.18427">
        <ele>132.8</ele>
        <time>2019-03-09T10:14:00Z</time>
      </trkpt>
      <trkpt lat="48.69241" lon="2.18435">
        <ele>135.2</ele>
        <time>2019-03-09T10:14:15Z</time>
      </trkpt>
      <trkpt lat="48.69229" lon="2.18442">
        <ele>136.16</ele>
        <time>2019-03-09T10:14:27Z</time>
      </trkpt>
      <trkpt lat="48.69212" lon="2.18448">
        <ele>138.09</ele>
        <time>2019-03-09T10:14:43Z</time>
      </trkpt>
      <trkpt lat="48.69196" lon="2.1845">
        <ele>140.01</ele>
        <time>2019-03-09T10:14:57Z</time>
      </trkpt>
      <trkpt lat="48.69195" lon="2.1845">
        <ele>140.01</ele>
        <time>2019-03-09T10:14:58Z</time>
      </trkpt>
      <trkpt lat="48.69184" lon="2.18452">
        <ele>143.85</ele>
        <time>2019-03-09T10:15:09Z</time>
      </trkpt>
      <trkpt lat="48.69167" lon="2.18454">
        <ele>147.22</ele>
        <time>2019-03-09T10:15:20Z</time>
      </trkpt>
      <trkpt lat="48.69157" lon="2.18458">
        <ele>150.1</ele>
        <time>2019-03-09T10:15:32Z</time>
      </trkpt>
      <trkpt lat="48.69153" lon="2.18459">
        <ele>151.54</ele>
        <time>2019-03-09T10:15:37Z</time>
      </trkpt>
      <trkpt lat="48.6915" lon="2.18446">
        <ele>154.91</ele>
        <time>2019-03-09T10:15:53Z</time>
      </trkpt>
      <trkpt lat="48.69148" lon="2.18434">
        <ele>156.83</ele>
        <time>2019-03-09T10:16:06Z</time>
      </trkpt>
      <trkpt lat="48.69141" lon="2.18425">
        <ele>160.2</ele>
        <time>2019-03-09T10:16:20Z</time>
      </trkpt>
      <trkpt lat="48.69129" lon="2.18426">
        <ele>161.64</ele>
        <time>2019-03-09T10:16:29Z</time>
      </trkpt>
      <trkpt lat="48.69113" lon="2.1844">
        <ele>163.56</ele>
        <time>2019-03-09T10:16:44Z</time>
      </trkpt>
      <trkpt lat="48.69104" lon="2.18455">
        <ele>163.56</ele>
        <time>2019-03-09T10:16:56Z</time>
      </trkpt>
      <trkpt lat="48.69106" lon="2.18464">
        <ele>163.08</ele>
        <time>2019-03-09T10:17:01Z</time>
      </trkpt>
      <trkpt lat="48.69107" lon="2.18472">
        <ele>162.6</ele>
        <time>2019-03-09T10:17:05Z</time>
      </trkpt>
      <trkpt lat="48.69125" lon="2.18487">
        <ele>164.04</ele>
        <time>2019-03-09T10:17:17Z</time>
      </trkpt>
      <trkpt lat="48.69127" lon="2.18489">
        <ele>164.52</ele>
        <time>2019-03-09T10:17:18Z</time>
      </trkpt>
      <trkpt lat="48.69129" lon="2.18492">
        <ele>164.52</ele>
        <time>2019-03-09T10:17:19Z</time>
      </trkpt>
      <trkpt lat="48.69131" lon="2.18493">
        <ele>164.52</ele>
        <time>2019-03-09T10:17:20Z</time>
      </trkpt>
      <trkpt lat="48.69134" lon="2.18494">
        <ele>164.04</ele>
        <time>2019-03-09T10:17:21Z</time>
      </trkpt>
      <trkpt lat="48.69137" lon="2.18495">
        <ele>164.52</ele>
        <time>2019-03-09T10:17:22Z</time>
      </trkpt>
      <trkpt lat="48.6914" lon="2.18496">
        <ele>164.52</ele>
        <time>2019-03-09T10:17:23Z</time>
      </trkpt>
      <trkpt lat="48.69143" lon="2.18496">
        <ele>164.52</ele>
        <time>2019-03-09T10:17:24Z</time>
      </trkpt>
      <trkpt lat="48.69146" lon="2.18497">
        <ele>164.52</ele>
        <time>2019-03-09T10:17:25Z</time>
      </trkpt>
      <trkpt lat="48.69149" lon="2.18498">
        <ele>164.52</ele>
        <time>2019-03-09T10:17:26Z</time>
      </trkpt>
      <trkpt lat="48.69152" lon="2.185">
        <ele>164.04</ele>
        <time>2019-03-09T10:17:27Z</time>
      </trkpt>
      <trkpt lat="48.6916" lon="2.18509">
        <ele>164.52</ele>
        <time>2019-03-09T10:17:30Z</time>
      </trkpt>
      <trkpt lat="48.69165" lon="2.18531">
        <ele>165.48</ele>
        <time>2019-03-09T10:17:35Z</time>
      </trkpt>
      <trkpt lat="48.69169" lon="2.18579">
        <ele>167.41</ele>
        <time>2019-03-09T10:17:46Z</time>
      </trkpt>
      <trkpt lat="48.6917" lon="2.18628">
        <ele>167.89</ele>
        <time>2019-03-09T10:17:56Z</time>
      </trkpt>
      <trkpt lat="48.69167" lon="2.18678">
        <ele>170.29</ele>
        <time>2019-03-09T10:18:10Z</time>
      </trkpt>
      <trkpt lat="48.69164" lon="2.18683">
        <ele>170.77</ele>
        <time>2019-03-09T10:18:12Z</time>
      </trkpt>
      <trkpt lat="48.69163" lon="2.18685">
        <ele>170.29</ele>
        <time>2019-03-09T10:18:13Z</time>
      </trkpt>
      <trkpt lat="48.69162" lon="2.18687">
        <ele>170.77</ele>
        <time>2019-03-09T10:18:14Z</time>
      </trkpt>
      <trkpt lat="48.69154" lon="2.18738">
        <ele>171.73</ele>
        <time>2019-03-09T10:18:26Z</time>
      </trkpt>
      <trkpt lat="48.69143" lon="2.18795">
        <ele>171.73</ele>
        <time>2019-03-09T10:18:38Z</time>
      </trkpt>
      <trkpt lat="48.69135" lon="2.18839">
        <ele>172.21</ele>
        <time>2019-03-09T10:18:47Z</time>
      </trkpt>
      <trkpt lat="48.69131" lon="2.18888">
        <ele>172.69</ele>
        <time>2019-03-09T10:18:56Z</time>
      </trkpt>
      <trkpt lat="48.6913" lon="2.18892">
        <ele>172.21</ele>
        <time>2019-03-09T10:18:57Z</time>
      </trkpt>
      <trkpt lat="48.69127" lon="2.18895">
        <ele>172.69</ele>
        <time>2019-03-09T10:18:58Z</time>
      </trkpt>
      <trkpt lat="48.69118" lon="2.18915">
        <ele>172.21</ele>
        <time>2019-03-09T10:19:03Z</time>
      </trkpt>
      <trkpt lat="48.69087" lon="2.18942">
        <ele>170.77</ele>
        <time>2019-03-09T10:19:14Z</time>
      </trkpt>
      <trkpt lat="48.6907" lon="2.18975">
        <ele>169.81</ele>
        <time>2019-03-09T10:19:22Z</time>
      </trkpt>
      <trkpt lat="48.69062" lon="2.18989">
        <ele>170.77</ele>
        <time>2019-03-09T10:19:27Z</time>
      </trkpt>
      <trkpt lat="48.6906" lon="2.18994">
        <ele>170.77</ele>
        <time>2019-03-09T10:19:29Z</time>
      </trkpt>
      <trkpt lat="48.69061" lon="2.19004">
        <ele>170.77</ele>
        <time>2019-03-09T10:19:32Z</time>
      </trkpt>
      <trkpt lat="48.69062" lon="2.19007">
        <ele>170.77</ele>
        <time>2019-03-09T10:19:33Z</time>
      </trkpt>
      <trkpt lat="48.69063" lon="2.19011">
        <ele>170.77</ele>
        <time>2019-03-09T10:19:34Z</time>
      </trkpt>
      <trkpt lat="48.69063" lon="2.19013">
        <ele>170.29</ele>
        <time>2019-03-09T10:19:35Z</time>
      </trkpt>
      <trkpt lat="48.69058" lon="2.19058">
        <ele>171.25</ele>
        <time>2019-03-09T10:19:46Z</time>
      </trkpt>
      <trkpt lat="48.69056" lon="2.19063">
        <ele>171.73</ele>
        <time>2019-03-09T10:19:48Z</time>
      </trkpt>
      <trkpt lat="48.69056" lon="2.19066">
        <ele>171.25</ele>
        <time>2019-03-09T10:19:49Z</time>
      </trkpt>
      <trkpt lat="48.69054" lon="2.19068">
        <ele>170.77</ele>
        <time>2019-03-09T10:19:50Z</time>
      </trkpt>
      <trkpt lat="48.6905" lon="2.19068">
        <ele>171.73</ele>
        <time>2019-03-09T10:19:51Z</time>
      </trkpt>
      <trkpt lat="48.6905" lon="2.19077">
        <ele>171.25</ele>
        <time>2019-03-09T10:19:52Z</time>
      </trkpt>
      <trkpt lat="48.69049" lon="2.1908">
        <ele>171.73</ele>
        <time>2019-03-09T10:19:53Z</time>
      </trkpt>
      <trkpt lat="48.69048" lon="2.1908">
        <ele>170.77</ele>
        <time>2019-03-09T10:19:54Z</time>
      </trkpt>
      <trkpt lat="48.69017" lon="2.19074">
        <ele>170.77</ele>
        <time>2019-03-09T10:20:05Z</time>
      </trkpt>
      <trkpt lat="48.68978" lon="2.19059">
        <ele>170.77</ele>
        <time>2019-03-09T10:20:16Z</time>
      </trkpt>
      <trkpt lat="48.68933" lon="2.19036">
        <ele>170.77</ele>
        <time>2019-03-09T10:20:29Z</time>
      </trkpt>
      <trkpt lat="48.68898" lon="2.19021">
        <ele>170.77</ele>
        <time>2019-03-09T10:20:39Z</time>
      </trkpt>
      <trkpt lat="48.68872" lon="2.19013">
        <ele>170.29</ele>
        <time>2019-03-09T10:20:46Z</time>
      </trkpt>
      <trkpt lat="48.68847" lon="2.19017">
        <ele>170.77</ele>
        <time>2019-03-09T10:20:53Z</time>
      </trkpt>
      <trkpt lat="48.6884" lon="2.19015">
        <ele>170.29</ele>
        <time>2019-03-09T10:20:55Z</time>
      </trkpt>
      <trkpt lat="48.68837" lon="2.19013">
        <ele>170.29</ele>
        <time>2019-03-09T10:20:56Z</time>
      </trkpt>
      <trkpt lat="48.68833" lon="2.19012">
        <ele>170.29</ele>
        <time>2019-03-09T10:20:57Z</time>
      </trkpt>
      <trkpt lat="48.68793" lon="2.18991">
        <ele>169.33</ele>
        <time>2019-03-09T10:21:08Z</time>
      </trkpt>
      <trkpt lat="48.68763" lon="2.18974">
        <ele>169.33</ele>
        <time>2019-03-09T10:21:18Z</time>
      </trkpt>
      <trkpt lat="48.68709" lon="2.18953">
        <ele>170.29</ele>
        <time>2019-03-09T10:21:30Z</time>
      </trkpt>
      <trkpt lat="48.68694" lon="2.18946">
        <ele>169.81</ele>
        <time>2019-03-09T10:21:34Z</time>
      </trkpt>
      <trkpt lat="48.68688" lon="2.18944">
        <ele>169.81</ele>
        <time>2019-03-09T10:21:35Z</time>
      </trkpt>
      <trkpt lat="48.68623" lon="2.18924">
        <ele>168.85</ele>
        <time>2019-03-09T10:21:49Z</time>
      </trkpt>
      <trkpt lat="48.68542" lon="2.18901">
        <ele>166.93</ele>
        <time>2019-03-09T10:22:05Z</time>
      </trkpt>
      <trkpt lat="48.68502" lon="2.18887">
        <ele>167.41</ele>
        <time>2019-03-09T10:22:13Z</time>
      </trkpt>
      <trkpt lat="48.68499" lon="2.18883">
        <ele>167.41</ele>
        <time>2019-03-09T10:22:14Z</time>
      </trkpt>
      <trkpt lat="48.68479" lon="2.18844">
        <ele>167.89</ele>
        <time>2019-03-09T10:22:24Z</time>
      </trkpt>
      <trkpt lat="48.68487" lon="2.18797">
        <ele>167.41</ele>
        <time>2019-03-09T10:22:34Z</time>
      </trkpt>
      <trkpt lat="48.68488" lon="2.18794">
        <ele>167.41</ele>
        <time>2019-03-09T10:22:35Z</time>
      </trkpt>
      <trkpt lat="48.6849" lon="2.18794">
        <ele>166.93</ele>
        <time>2019-03-09T10:22:36Z</time>
      </trkpt>
      <trkpt lat="48.68495" lon="2.18797">
        <ele>167.41</ele>
        <time>2019-03-09T10:22:47Z</time>
      </trkpt>
    </trkseg>
  </trk>
</gpx>